<?xml version="1.0" encoding="UTF-8" standalone="no" ?>
<gpx xmlns="http://www.topografix.com/GPX/1/1" xmlns:xsi="http://www.w3.org/2001/XMLSchema-instance" xsi:schemaLocation="http://www.topografix.com/GPX/1/1 http://www.topografix.com/GPX/1/1/gpx.xsd" version="1.1" creator="VisuGPX - https://www.visugpx.com">
  <metadata>
    <name>Rando VTT La Venasquaise 40km</name>
    <desc><![CDATA[Rando VTT La Venasquaise 40km]]></desc>
  </metadata>
  <trk>
    <name><![CDATA[venasque, sylvie,anny, jean-louis,luc,christophe,pascal,j-paul, j-christoph]]></name>
    <trkseg>
      <trkpt lat="43.9948" lon="5.14809">
        <ele>297.20001220703</ele>
        <time>2013-04-07T07:02:18.000Z</time>
      </trkpt>
      <trkpt lat="43.9948" lon="5.14809">
        <ele>297.20001220703</ele>
        <time>2013-04-07T07:02:19.000Z</time>
      </trkpt>
      <trkpt lat="43.99468" lon="5.14796">
        <ele>295.39999389648</ele>
        <time>2013-04-07T07:02:26.000Z</time>
      </trkpt>
      <trkpt lat="43.99457" lon="5.14789">
        <ele>294.79998779297</ele>
        <time>2013-04-07T07:02:29.000Z</time>
      </trkpt>
      <trkpt lat="43.99446" lon="5.14794">
        <ele>295</ele>
        <time>2013-04-07T07:02:33.000Z</time>
      </trkpt>
      <trkpt lat="43.99435" lon="5.14809">
        <ele>296</ele>
        <time>2013-04-07T07:02:39.000Z</time>
      </trkpt>
      <trkpt lat="43.99426" lon="5.14826">
        <ele>297.60000610352</ele>
        <time>2013-04-07T07:02:46.000Z</time>
      </trkpt>
      <trkpt lat="43.99419" lon="5.14848">
        <ele>299.39999389648</ele>
        <time>2013-04-07T07:02:54.000Z</time>
      </trkpt>
      <trkpt lat="43.9941" lon="5.14869">
        <ele>300.60000610352</ele>
        <time>2013-04-07T07:03:02.000Z</time>
      </trkpt>
      <trkpt lat="43.99401" lon="5.14887">
        <ele>301.20001220703</ele>
        <time>2013-04-07T07:03:09.000Z</time>
      </trkpt>
      <trkpt lat="43.99392" lon="5.14908">
        <ele>301.79998779297</ele>
        <time>2013-04-07T07:03:16.000Z</time>
      </trkpt>
      <trkpt lat="43.99381" lon="5.14927">
        <ele>300.39999389648</ele>
        <time>2013-04-07T07:03:23.000Z</time>
      </trkpt>
      <trkpt lat="43.99368" lon="5.14947">
        <ele>301.20001220703</ele>
        <time>2013-04-07T07:03:31.000Z</time>
      </trkpt>
      <trkpt lat="43.99356" lon="5.14965">
        <ele>302.20001220703</ele>
        <time>2013-04-07T07:03:38.000Z</time>
      </trkpt>
      <trkpt lat="43.99342" lon="5.14987">
        <ele>305.20001220703</ele>
        <time>2013-04-07T07:03:46.000Z</time>
      </trkpt>
      <trkpt lat="43.99327" lon="5.1501">
        <ele>308.20001220703</ele>
        <time>2013-04-07T07:03:54.000Z</time>
      </trkpt>
      <trkpt lat="43.99314" lon="5.15032">
        <ele>310.20001220703</ele>
        <time>2013-04-07T07:04:02.000Z</time>
      </trkpt>
      <trkpt lat="43.99312" lon="5.15037">
        <ele>310.79998779297</ele>
        <time>2013-04-07T07:04:04.000Z</time>
      </trkpt>
      <trkpt lat="43.99316" lon="5.15045">
        <ele>310.79998779297</ele>
        <time>2013-04-07T07:04:08.000Z</time>
      </trkpt>
      <trkpt lat="43.99327" lon="5.15042">
        <ele>308.20001220703</ele>
        <time>2013-04-07T07:04:13.000Z</time>
      </trkpt>
      <trkpt lat="43.99353" lon="5.15018">
        <ele>306</ele>
        <time>2013-04-07T07:04:18.000Z</time>
      </trkpt>
      <trkpt lat="43.99363" lon="5.15007">
        <ele>304.20001220703</ele>
        <time>2013-04-07T07:04:20.000Z</time>
      </trkpt>
      <trkpt lat="43.99392" lon="5.14985">
        <ele>300</ele>
        <time>2013-04-07T07:04:26.000Z</time>
      </trkpt>
      <trkpt lat="43.99403" lon="5.14975">
        <ele>297.79998779297</ele>
        <time>2013-04-07T07:04:28.000Z</time>
      </trkpt>
      <trkpt lat="43.99429" lon="5.14962">
        <ele>294.79998779297</ele>
        <time>2013-04-07T07:04:32.000Z</time>
      </trkpt>
      <trkpt lat="43.99434" lon="5.14956">
        <ele>293.79998779297</ele>
        <time>2013-04-07T07:04:33.000Z</time>
      </trkpt>
      <trkpt lat="43.99445" lon="5.14942">
        <ele>292.79998779297</ele>
        <time>2013-04-07T07:04:35.000Z</time>
      </trkpt>
      <trkpt lat="43.99472" lon="5.14926">
        <ele>288</ele>
        <time>2013-04-07T07:04:40.000Z</time>
      </trkpt>
      <trkpt lat="43.99478" lon="5.14923">
        <ele>286.60000610352</ele>
        <time>2013-04-07T07:04:41.000Z</time>
      </trkpt>
      <trkpt lat="43.99509" lon="5.14893">
        <ele>279.20001220703</ele>
        <time>2013-04-07T07:04:46.000Z</time>
      </trkpt>
      <trkpt lat="43.99529" lon="5.1486">
        <ele>275.20001220703</ele>
        <time>2013-04-07T07:04:50.000Z</time>
      </trkpt>
      <trkpt lat="43.99549" lon="5.14823">
        <ele>274.39999389648</ele>
        <time>2013-04-07T07:04:56.000Z</time>
      </trkpt>
      <trkpt lat="43.99571" lon="5.14784">
        <ele>274.20001220703</ele>
        <time>2013-04-07T07:05:03.000Z</time>
      </trkpt>
      <trkpt lat="43.99592" lon="5.14764">
        <ele>277.79998779297</ele>
        <time>2013-04-07T07:05:08.000Z</time>
      </trkpt>
      <trkpt lat="43.996" lon="5.14752">
        <ele>277</ele>
        <time>2013-04-07T07:05:10.000Z</time>
      </trkpt>
      <trkpt lat="43.99627" lon="5.1472">
        <ele>271.60000610352</ele>
        <time>2013-04-07T07:05:16.000Z</time>
      </trkpt>
      <trkpt lat="43.99631" lon="5.14721">
        <ele>269.79998779297</ele>
        <time>2013-04-07T07:05:20.000Z</time>
      </trkpt>
      <trkpt lat="43.99618" lon="5.14745">
        <ele>267.79998779297</ele>
        <time>2013-04-07T07:05:26.000Z</time>
      </trkpt>
      <trkpt lat="43.99598" lon="5.14781">
        <ele>265.39999389648</ele>
        <time>2013-04-07T07:05:32.000Z</time>
      </trkpt>
      <trkpt lat="43.99573" lon="5.14842">
        <ele>264</ele>
        <time>2013-04-07T07:05:40.000Z</time>
      </trkpt>
      <trkpt lat="43.99546" lon="5.14901">
        <ele>261.39999389648</ele>
        <time>2013-04-07T07:05:48.000Z</time>
      </trkpt>
      <trkpt lat="43.99533" lon="5.14933">
        <ele>259.79998779297</ele>
        <time>2013-04-07T07:05:52.000Z</time>
      </trkpt>
      <trkpt lat="43.99537" lon="5.14965">
        <ele>258.20001220703</ele>
        <time>2013-04-07T07:05:56.000Z</time>
      </trkpt>
      <trkpt lat="43.99549" lon="5.14974">
        <ele>257.20001220703</ele>
        <time>2013-04-07T07:05:58.000Z</time>
      </trkpt>
      <trkpt lat="43.99584" lon="5.15007">
        <ele>254.19999694824</ele>
        <time>2013-04-07T07:06:04.000Z</time>
      </trkpt>
      <trkpt lat="43.99606" lon="5.15032">
        <ele>251.19999694824</ele>
        <time>2013-04-07T07:06:09.000Z</time>
      </trkpt>
      <trkpt lat="43.99624" lon="5.15041">
        <ele>248.19999694824</ele>
        <time>2013-04-07T07:06:13.000Z</time>
      </trkpt>
      <trkpt lat="43.99644" lon="5.15033">
        <ele>245.60000610352</ele>
        <time>2013-04-07T07:06:16.000Z</time>
      </trkpt>
      <trkpt lat="43.99649" lon="5.15019">
        <ele>244.39999389648</ele>
        <time>2013-04-07T07:06:18.000Z</time>
      </trkpt>
      <trkpt lat="43.99644" lon="5.15">
        <ele>242</ele>
        <time>2013-04-07T07:06:21.000Z</time>
      </trkpt>
      <trkpt lat="43.99645" lon="5.14995">
        <ele>240.60000610352</ele>
        <time>2013-04-07T07:06:22.000Z</time>
      </trkpt>
      <trkpt lat="43.99655" lon="5.14968">
        <ele>236.80000305176</ele>
        <time>2013-04-07T07:06:26.000Z</time>
      </trkpt>
      <trkpt lat="43.99652" lon="5.14961">
        <ele>236</ele>
        <time>2013-04-07T07:06:27.000Z</time>
      </trkpt>
      <trkpt lat="43.99639" lon="5.14939">
        <ele>233.19999694824</ele>
        <time>2013-04-07T07:06:30.000Z</time>
      </trkpt>
      <trkpt lat="43.99627" lon="5.14912">
        <ele>230.60000610352</ele>
        <time>2013-04-07T07:06:33.000Z</time>
      </trkpt>
      <trkpt lat="43.9963" lon="5.14883">
        <ele>228.60000610352</ele>
        <time>2013-04-07T07:06:37.000Z</time>
      </trkpt>
      <trkpt lat="43.9964" lon="5.14871">
        <ele>227.39999389648</ele>
        <time>2013-04-07T07:06:39.000Z</time>
      </trkpt>
      <trkpt lat="43.9965" lon="5.14858">
        <ele>226.80000305176</ele>
        <time>2013-04-07T07:06:41.000Z</time>
      </trkpt>
      <trkpt lat="43.99687" lon="5.14819">
        <ele>222.80000305176</ele>
        <time>2013-04-07T07:06:47.000Z</time>
      </trkpt>
      <trkpt lat="43.99696" lon="5.14808">
        <ele>222.19999694824</ele>
        <time>2013-04-07T07:06:50.000Z</time>
      </trkpt>
      <trkpt lat="43.99696" lon="5.14807">
        <ele>222.19999694824</ele>
        <time>2013-04-07T07:06:52.000Z</time>
      </trkpt>
      <trkpt lat="43.99696" lon="5.14808">
        <ele>222.80000305176</ele>
        <time>2013-04-07T07:06:57.000Z</time>
      </trkpt>
      <trkpt lat="43.99696" lon="5.14809">
        <ele>222.60000610352</ele>
        <time>2013-04-07T07:07:03.000Z</time>
      </trkpt>
      <trkpt lat="43.99692" lon="5.14814">
        <ele>222.60000610352</ele>
        <time>2013-04-07T07:07:23.000Z</time>
      </trkpt>
      <trkpt lat="43.99688" lon="5.14818">
        <ele>222.39999389648</ele>
        <time>2013-04-07T07:07:28.000Z</time>
      </trkpt>
      <trkpt lat="43.99679" lon="5.14828">
        <ele>222.80000305176</ele>
        <time>2013-04-07T07:07:34.000Z</time>
      </trkpt>
      <trkpt lat="43.99664" lon="5.14844">
        <ele>223.80000305176</ele>
        <time>2013-04-07T07:07:40.000Z</time>
      </trkpt>
      <trkpt lat="43.99648" lon="5.1486">
        <ele>226</ele>
        <time>2013-04-07T07:07:47.000Z</time>
      </trkpt>
      <trkpt lat="43.99633" lon="5.14879">
        <ele>226.80000305176</ele>
        <time>2013-04-07T07:07:54.000Z</time>
      </trkpt>
      <trkpt lat="43.99625" lon="5.14889">
        <ele>228</ele>
        <time>2013-04-07T07:07:58.000Z</time>
      </trkpt>
      <trkpt lat="43.99624" lon="5.14906">
        <ele>228.19999694824</ele>
        <time>2013-04-07T07:08:03.000Z</time>
      </trkpt>
      <trkpt lat="43.9963" lon="5.14919">
        <ele>228.60000610352</ele>
        <time>2013-04-07T07:08:08.000Z</time>
      </trkpt>
      <trkpt lat="43.99647" lon="5.14934">
        <ele>229.19999694824</ele>
        <time>2013-04-07T07:08:14.000Z</time>
      </trkpt>
      <trkpt lat="43.99668" lon="5.1496">
        <ele>228.39999389648</ele>
        <time>2013-04-07T07:08:22.000Z</time>
      </trkpt>
      <trkpt lat="43.99679" lon="5.14977">
        <ele>225.60000610352</ele>
        <time>2013-04-07T07:08:27.000Z</time>
      </trkpt>
      <trkpt lat="43.99679" lon="5.14982">
        <ele>225.19999694824</ele>
        <time>2013-04-07T07:08:28.000Z</time>
      </trkpt>
      <trkpt lat="43.99685" lon="5.14986">
        <ele>223.39999389648</ele>
        <time>2013-04-07T07:08:33.000Z</time>
      </trkpt>
      <trkpt lat="43.99696" lon="5.14974">
        <ele>221.19999694824</ele>
        <time>2013-04-07T07:08:37.000Z</time>
      </trkpt>
      <trkpt lat="43.99709" lon="5.14946">
        <ele>218.80000305176</ele>
        <time>2013-04-07T07:08:42.000Z</time>
      </trkpt>
      <trkpt lat="43.99725" lon="5.14907">
        <ele>214.19999694824</ele>
        <time>2013-04-07T07:08:48.000Z</time>
      </trkpt>
      <trkpt lat="43.99728" lon="5.14901">
        <ele>212.80000305176</ele>
        <time>2013-04-07T07:08:49.000Z</time>
      </trkpt>
      <trkpt lat="43.99729" lon="5.14876">
        <ele>208</ele>
        <time>2013-04-07T07:08:53.000Z</time>
      </trkpt>
      <trkpt lat="43.99732" lon="5.14866">
        <ele>206</ele>
        <time>2013-04-07T07:08:55.000Z</time>
      </trkpt>
      <trkpt lat="43.99746" lon="5.14855">
        <ele>204.39999389648</ele>
        <time>2013-04-07T07:08:58.000Z</time>
      </trkpt>
      <trkpt lat="43.99755" lon="5.14844">
        <ele>203.80000305176</ele>
        <time>2013-04-07T07:09:00.000Z</time>
      </trkpt>
      <trkpt lat="43.99769" lon="5.14828">
        <ele>202</ele>
        <time>2013-04-07T07:09:04.000Z</time>
      </trkpt>
      <trkpt lat="43.9977" lon="5.14838">
        <ele>200</ele>
        <time>2013-04-07T07:09:06.000Z</time>
      </trkpt>
      <trkpt lat="43.99781" lon="5.14855">
        <ele>197.39999389648</ele>
        <time>2013-04-07T07:09:09.000Z</time>
      </trkpt>
      <trkpt lat="43.99806" lon="5.1486">
        <ele>193.39999389648</ele>
        <time>2013-04-07T07:09:12.000Z</time>
      </trkpt>
      <trkpt lat="43.99855" lon="5.14877">
        <ele>186.80000305176</ele>
        <time>2013-04-07T07:09:17.000Z</time>
      </trkpt>
      <trkpt lat="43.99891" lon="5.14908">
        <ele>180.60000610352</ele>
        <time>2013-04-07T07:09:21.000Z</time>
      </trkpt>
      <trkpt lat="43.99914" lon="5.14944">
        <ele>176.60000610352</ele>
        <time>2013-04-07T07:09:25.000Z</time>
      </trkpt>
      <trkpt lat="43.99926" lon="5.14956">
        <ele>176.60000610352</ele>
        <time>2013-04-07T07:09:28.000Z</time>
      </trkpt>
      <trkpt lat="43.99939" lon="5.14953">
        <ele>176.80000305176</ele>
        <time>2013-04-07T07:09:31.000Z</time>
      </trkpt>
      <trkpt lat="43.99945" lon="5.14961">
        <ele>177</ele>
        <time>2013-04-07T07:09:33.000Z</time>
      </trkpt>
      <trkpt lat="43.99959" lon="5.1498">
        <ele>178.19999694824</ele>
        <time>2013-04-07T07:09:37.000Z</time>
      </trkpt>
      <trkpt lat="43.99971" lon="5.14984">
        <ele>180</ele>
        <time>2013-04-07T07:09:41.000Z</time>
      </trkpt>
      <trkpt lat="43.99972" lon="5.14981">
        <ele>180.60000610352</ele>
        <time>2013-04-07T07:09:42.000Z</time>
      </trkpt>
      <trkpt lat="43.9998" lon="5.14955">
        <ele>181.39999389648</ele>
        <time>2013-04-07T07:09:50.000Z</time>
      </trkpt>
      <trkpt lat="43.9999" lon="5.14938">
        <ele>185.60000610352</ele>
        <time>2013-04-07T07:09:57.000Z</time>
      </trkpt>
      <trkpt lat="44.00004" lon="5.14934">
        <ele>189.19999694824</ele>
        <time>2013-04-07T07:10:05.000Z</time>
      </trkpt>
      <trkpt lat="44.00016" lon="5.14937">
        <ele>191</ele>
        <time>2013-04-07T07:10:12.000Z</time>
      </trkpt>
      <trkpt lat="44.00024" lon="5.14949">
        <ele>192.19999694824</ele>
        <time>2013-04-07T07:10:19.000Z</time>
      </trkpt>
      <trkpt lat="44.00033" lon="5.14967">
        <ele>196.39999389648</ele>
        <time>2013-04-07T07:10:28.000Z</time>
      </trkpt>
      <trkpt lat="44.00038" lon="5.14979">
        <ele>199</ele>
        <time>2013-04-07T07:10:34.000Z</time>
      </trkpt>
      <trkpt lat="44.00044" lon="5.14988">
        <ele>201.39999389648</ele>
        <time>2013-04-07T07:10:41.000Z</time>
      </trkpt>
      <trkpt lat="44.00051" lon="5.14997">
        <ele>204.19999694824</ele>
        <time>2013-04-07T07:10:48.000Z</time>
      </trkpt>
      <trkpt lat="44.00058" lon="5.15007">
        <ele>206.80000305176</ele>
        <time>2013-04-07T07:10:55.000Z</time>
      </trkpt>
      <trkpt lat="44.00064" lon="5.15014">
        <ele>209.39999389648</ele>
        <time>2013-04-07T07:11:00.000Z</time>
      </trkpt>
      <trkpt lat="44.00073" lon="5.15018">
        <ele>212.19999694824</ele>
        <time>2013-04-07T07:11:07.000Z</time>
      </trkpt>
      <trkpt lat="44.00074" lon="5.15021">
        <ele>213.60000610352</ele>
        <time>2013-04-07T07:11:10.000Z</time>
      </trkpt>
      <trkpt lat="44.00073" lon="5.15029">
        <ele>216.39999389648</ele>
        <time>2013-04-07T07:11:16.000Z</time>
      </trkpt>
      <trkpt lat="44.00068" lon="5.1504">
        <ele>219.39999389648</ele>
        <time>2013-04-07T07:11:24.000Z</time>
      </trkpt>
      <trkpt lat="44.00064" lon="5.15051">
        <ele>220.80000305176</ele>
        <time>2013-04-07T07:11:31.000Z</time>
      </trkpt>
      <trkpt lat="44.0006" lon="5.1506">
        <ele>222.39999389648</ele>
        <time>2013-04-07T07:11:38.000Z</time>
      </trkpt>
      <trkpt lat="44.00053" lon="5.15072">
        <ele>223.60000610352</ele>
        <time>2013-04-07T07:11:46.000Z</time>
      </trkpt>
      <trkpt lat="44.00046" lon="5.15085">
        <ele>226</ele>
        <time>2013-04-07T07:11:55.000Z</time>
      </trkpt>
      <trkpt lat="44.0004" lon="5.15097">
        <ele>227</ele>
        <time>2013-04-07T07:12:03.000Z</time>
      </trkpt>
      <trkpt lat="44.00038" lon="5.151">
        <ele>227.19999694824</ele>
        <time>2013-04-07T07:12:05.000Z</time>
      </trkpt>
      <trkpt lat="44.00034" lon="5.15111">
        <ele>226.80000305176</ele>
        <time>2013-04-07T07:12:11.000Z</time>
      </trkpt>
      <trkpt lat="44.00033" lon="5.15125">
        <ele>228.39999389648</ele>
        <time>2013-04-07T07:12:19.000Z</time>
      </trkpt>
      <trkpt lat="44.00034" lon="5.15142">
        <ele>231.19999694824</ele>
        <time>2013-04-07T07:12:28.000Z</time>
      </trkpt>
      <trkpt lat="44.00033" lon="5.15155">
        <ele>232.39999389648</ele>
        <time>2013-04-07T07:12:35.000Z</time>
      </trkpt>
      <trkpt lat="44.00031" lon="5.15171">
        <ele>233.19999694824</ele>
        <time>2013-04-07T07:12:44.000Z</time>
      </trkpt>
      <trkpt lat="44.0003" lon="5.15187">
        <ele>235</ele>
        <time>2013-04-07T07:12:53.000Z</time>
      </trkpt>
      <trkpt lat="44.00029" lon="5.15201">
        <ele>236.60000610352</ele>
        <time>2013-04-07T07:13:01.000Z</time>
      </trkpt>
      <trkpt lat="44.00029" lon="5.15206">
        <ele>235.60000610352</ele>
        <time>2013-04-07T07:13:04.000Z</time>
      </trkpt>
      <trkpt lat="44.00035" lon="5.15213">
        <ele>236.80000305176</ele>
        <time>2013-04-07T07:13:11.000Z</time>
      </trkpt>
      <trkpt lat="44.00038" lon="5.15209">
        <ele>237.60000610352</ele>
        <time>2013-04-07T07:13:14.000Z</time>
      </trkpt>
      <trkpt lat="44.00043" lon="5.15194">
        <ele>239.80000305176</ele>
        <time>2013-04-07T07:13:23.000Z</time>
      </trkpt>
      <trkpt lat="44.00051" lon="5.15179">
        <ele>239</ele>
        <time>2013-04-07T07:13:29.000Z</time>
      </trkpt>
      <trkpt lat="44.00066" lon="5.15154">
        <ele>238.60000610352</ele>
        <time>2013-04-07T07:13:37.000Z</time>
      </trkpt>
      <trkpt lat="44.00074" lon="5.15129">
        <ele>238.39999389648</ele>
        <time>2013-04-07T07:13:43.000Z</time>
      </trkpt>
      <trkpt lat="44.00083" lon="5.15113">
        <ele>238.80000305176</ele>
        <time>2013-04-07T07:13:48.000Z</time>
      </trkpt>
      <trkpt lat="44.00097" lon="5.15108">
        <ele>239.39999389648</ele>
        <time>2013-04-07T07:13:54.000Z</time>
      </trkpt>
      <trkpt lat="44.00112" lon="5.15089">
        <ele>239</ele>
        <time>2013-04-07T07:14:02.000Z</time>
      </trkpt>
      <trkpt lat="44.0011" lon="5.15077">
        <ele>237.60000610352</ele>
        <time>2013-04-07T07:14:05.000Z</time>
      </trkpt>
      <trkpt lat="44.00111" lon="5.15051">
        <ele>234.60000610352</ele>
        <time>2013-04-07T07:14:09.000Z</time>
      </trkpt>
      <trkpt lat="44.00115" lon="5.15046">
        <ele>234.39999389648</ele>
        <time>2013-04-07T07:14:10.000Z</time>
      </trkpt>
      <trkpt lat="44.0014" lon="5.1501">
        <ele>234.19999694824</ele>
        <time>2013-04-07T07:14:18.000Z</time>
      </trkpt>
      <trkpt lat="44.00158" lon="5.1499">
        <ele>235</ele>
        <time>2013-04-07T07:14:25.000Z</time>
      </trkpt>
      <trkpt lat="44.00169" lon="5.14989">
        <ele>236.19999694824</ele>
        <time>2013-04-07T07:14:29.000Z</time>
      </trkpt>
      <trkpt lat="44.00174" lon="5.14976">
        <ele>234.80000305176</ele>
        <time>2013-04-07T07:14:33.000Z</time>
      </trkpt>
      <trkpt lat="44.00184" lon="5.14957">
        <ele>232</ele>
        <time>2013-04-07T07:14:36.000Z</time>
      </trkpt>
      <trkpt lat="44.00194" lon="5.14933">
        <ele>228.39999389648</ele>
        <time>2013-04-07T07:14:41.000Z</time>
      </trkpt>
      <trkpt lat="44.00204" lon="5.14913">
        <ele>224.19999694824</ele>
        <time>2013-04-07T07:14:46.000Z</time>
      </trkpt>
      <trkpt lat="44.00212" lon="5.14894">
        <ele>219.80000305176</ele>
        <time>2013-04-07T07:14:51.000Z</time>
      </trkpt>
      <trkpt lat="44.00218" lon="5.14879">
        <ele>216</ele>
        <time>2013-04-07T07:14:55.000Z</time>
      </trkpt>
      <trkpt lat="44.00226" lon="5.14864">
        <ele>213</ele>
        <time>2013-04-07T07:14:59.000Z</time>
      </trkpt>
      <trkpt lat="44.00229" lon="5.14862">
        <ele>212.19999694824</ele>
        <time>2013-04-07T07:15:03.000Z</time>
      </trkpt>
      <trkpt lat="44.00233" lon="5.14869">
        <ele>215</ele>
        <time>2013-04-07T07:15:10.000Z</time>
      </trkpt>
      <trkpt lat="44.00237" lon="5.14876">
        <ele>218</ele>
        <time>2013-04-07T07:15:17.000Z</time>
      </trkpt>
      <trkpt lat="44.00238" lon="5.14877">
        <ele>218.19999694824</ele>
        <time>2013-04-07T07:15:18.000Z</time>
      </trkpt>
      <trkpt lat="44.00239" lon="5.14879">
        <ele>219.19999694824</ele>
        <time>2013-04-07T07:15:20.000Z</time>
      </trkpt>
      <trkpt lat="44.00245" lon="5.14883">
        <ele>222.80000305176</ele>
        <time>2013-04-07T07:15:30.000Z</time>
      </trkpt>
      <trkpt lat="44.00254" lon="5.14885">
        <ele>228</ele>
        <time>2013-04-07T07:15:42.000Z</time>
      </trkpt>
      <trkpt lat="44.00259" lon="5.14887">
        <ele>230.39999389648</ele>
        <time>2013-04-07T07:15:50.000Z</time>
      </trkpt>
      <trkpt lat="44.00266" lon="5.14889">
        <ele>233</ele>
        <time>2013-04-07T07:16:00.000Z</time>
      </trkpt>
      <trkpt lat="44.00267" lon="5.14889">
        <ele>233.39999389648</ele>
        <time>2013-04-07T07:16:01.000Z</time>
      </trkpt>
      <trkpt lat="44.00273" lon="5.1489">
        <ele>234.39999389648</ele>
        <time>2013-04-07T07:16:08.000Z</time>
      </trkpt>
      <trkpt lat="44.00279" lon="5.14894">
        <ele>234.19999694824</ele>
        <time>2013-04-07T07:16:17.000Z</time>
      </trkpt>
      <trkpt lat="44.0029" lon="5.14896">
        <ele>233.80000305176</ele>
        <time>2013-04-07T07:16:24.000Z</time>
      </trkpt>
      <trkpt lat="44.00303" lon="5.14898">
        <ele>233.80000305176</ele>
        <time>2013-04-07T07:16:31.000Z</time>
      </trkpt>
      <trkpt lat="44.00315" lon="5.14898">
        <ele>233.60000610352</ele>
        <time>2013-04-07T07:16:37.000Z</time>
      </trkpt>
      <trkpt lat="44.00329" lon="5.14893">
        <ele>234.19999694824</ele>
        <time>2013-04-07T07:16:44.000Z</time>
      </trkpt>
      <trkpt lat="44.00342" lon="5.14891">
        <ele>234.39999389648</ele>
        <time>2013-04-07T07:16:50.000Z</time>
      </trkpt>
      <trkpt lat="44.00357" lon="5.14888">
        <ele>233.80000305176</ele>
        <time>2013-04-07T07:16:55.000Z</time>
      </trkpt>
      <trkpt lat="44.0037" lon="5.14883">
        <ele>233</ele>
        <time>2013-04-07T07:17:00.000Z</time>
      </trkpt>
      <trkpt lat="44.00386" lon="5.14878">
        <ele>233.39999389648</ele>
        <time>2013-04-07T07:17:07.000Z</time>
      </trkpt>
      <trkpt lat="44.00397" lon="5.14875">
        <ele>233.80000305176</ele>
        <time>2013-04-07T07:17:11.000Z</time>
      </trkpt>
      <trkpt lat="44.00408" lon="5.14871">
        <ele>234.19999694824</ele>
        <time>2013-04-07T07:17:15.000Z</time>
      </trkpt>
      <trkpt lat="44.00431" lon="5.14871">
        <ele>237.19999694824</ele>
        <time>2013-04-07T07:17:25.000Z</time>
      </trkpt>
      <trkpt lat="44.00455" lon="5.1487">
        <ele>238</ele>
        <time>2013-04-07T07:17:34.000Z</time>
      </trkpt>
      <trkpt lat="44.00473" lon="5.14869">
        <ele>238.60000610352</ele>
        <time>2013-04-07T07:17:40.000Z</time>
      </trkpt>
      <trkpt lat="44.00492" lon="5.14865">
        <ele>239</ele>
        <time>2013-04-07T07:17:46.000Z</time>
      </trkpt>
      <trkpt lat="44.00519" lon="5.14864">
        <ele>241</ele>
        <time>2013-04-07T07:17:55.000Z</time>
      </trkpt>
      <trkpt lat="44.00538" lon="5.14864">
        <ele>240.60000610352</ele>
        <time>2013-04-07T07:18:02.000Z</time>
      </trkpt>
      <trkpt lat="44.00556" lon="5.14864">
        <ele>241.60000610352</ele>
        <time>2013-04-07T07:18:09.000Z</time>
      </trkpt>
      <trkpt lat="44.00572" lon="5.14875">
        <ele>243.39999389648</ele>
        <time>2013-04-07T07:18:15.000Z</time>
      </trkpt>
      <trkpt lat="44.00582" lon="5.14886">
        <ele>246.80000305176</ele>
        <time>2013-04-07T07:18:21.000Z</time>
      </trkpt>
      <trkpt lat="44.00592" lon="5.14908">
        <ele>247</ele>
        <time>2013-04-07T07:18:29.000Z</time>
      </trkpt>
      <trkpt lat="44.00602" lon="5.14927">
        <ele>245.60000610352</ele>
        <time>2013-04-07T07:18:36.000Z</time>
      </trkpt>
      <trkpt lat="44.00616" lon="5.14947">
        <ele>245</ele>
        <time>2013-04-07T07:18:42.000Z</time>
      </trkpt>
      <trkpt lat="44.00623" lon="5.1497">
        <ele>246</ele>
        <time>2013-04-07T07:18:48.000Z</time>
      </trkpt>
      <trkpt lat="44.00625" lon="5.14983">
        <ele>246.80000305176</ele>
        <time>2013-04-07T07:18:52.000Z</time>
      </trkpt>
      <trkpt lat="44.00623" lon="5.14993">
        <ele>247.80000305176</ele>
        <time>2013-04-07T07:18:56.000Z</time>
      </trkpt>
      <trkpt lat="44.00619" lon="5.1501">
        <ele>248.60000610352</ele>
        <time>2013-04-07T07:19:03.000Z</time>
      </trkpt>
      <trkpt lat="44.00617" lon="5.15033">
        <ele>249.80000305176</ele>
        <time>2013-04-07T07:19:11.000Z</time>
      </trkpt>
      <trkpt lat="44.00619" lon="5.15053">
        <ele>251.60000610352</ele>
        <time>2013-04-07T07:19:18.000Z</time>
      </trkpt>
      <trkpt lat="44.00624" lon="5.1507">
        <ele>253</ele>
        <time>2013-04-07T07:19:25.000Z</time>
      </trkpt>
      <trkpt lat="44.00627" lon="5.15085">
        <ele>254.60000610352</ele>
        <time>2013-04-07T07:19:32.000Z</time>
      </trkpt>
      <trkpt lat="44.00635" lon="5.15093">
        <ele>257.60000610352</ele>
        <time>2013-04-07T07:19:39.000Z</time>
      </trkpt>
      <trkpt lat="44.00642" lon="5.15103">
        <ele>259.60000610352</ele>
        <time>2013-04-07T07:19:45.000Z</time>
      </trkpt>
      <trkpt lat="44.00646" lon="5.15116">
        <ele>260.60000610352</ele>
        <time>2013-04-07T07:19:52.000Z</time>
      </trkpt>
      <trkpt lat="44.00648" lon="5.15135">
        <ele>262</ele>
        <time>2013-04-07T07:20:01.000Z</time>
      </trkpt>
      <trkpt lat="44.00651" lon="5.15153">
        <ele>265</ele>
        <time>2013-04-07T07:20:11.000Z</time>
      </trkpt>
      <trkpt lat="44.00654" lon="5.1517">
        <ele>267.39999389648</ele>
        <time>2013-04-07T07:20:20.000Z</time>
      </trkpt>
      <trkpt lat="44.00656" lon="5.15183">
        <ele>268.60000610352</ele>
        <time>2013-04-07T07:20:27.000Z</time>
      </trkpt>
      <trkpt lat="44.00659" lon="5.15196">
        <ele>269.60000610352</ele>
        <time>2013-04-07T07:20:34.000Z</time>
      </trkpt>
      <trkpt lat="44.00663" lon="5.15208">
        <ele>271.20001220703</ele>
        <time>2013-04-07T07:20:42.000Z</time>
      </trkpt>
      <trkpt lat="44.00668" lon="5.1522">
        <ele>273.60000610352</ele>
        <time>2013-04-07T07:20:49.000Z</time>
      </trkpt>
      <trkpt lat="44.0067" lon="5.15234">
        <ele>275.39999389648</ele>
        <time>2013-04-07T07:20:58.000Z</time>
      </trkpt>
      <trkpt lat="44.0067" lon="5.1524">
        <ele>276</ele>
        <time>2013-04-07T07:21:04.000Z</time>
      </trkpt>
      <trkpt lat="44.0066" lon="5.15251">
        <ele>275.60000610352</ele>
        <time>2013-04-07T07:21:32.000Z</time>
      </trkpt>
      <trkpt lat="44.00653" lon="5.1526">
        <ele>275.39999389648</ele>
        <time>2013-04-07T07:21:38.000Z</time>
      </trkpt>
      <trkpt lat="44.00647" lon="5.15264">
        <ele>275.20001220703</ele>
        <time>2013-04-07T07:21:42.000Z</time>
      </trkpt>
      <trkpt lat="44.00639" lon="5.15273">
        <ele>274.39999389648</ele>
        <time>2013-04-07T07:21:47.000Z</time>
      </trkpt>
      <trkpt lat="44.00632" lon="5.1529">
        <ele>274.60000610352</ele>
        <time>2013-04-07T07:21:53.000Z</time>
      </trkpt>
      <trkpt lat="44.00631" lon="5.153">
        <ele>275</ele>
        <time>2013-04-07T07:21:57.000Z</time>
      </trkpt>
      <trkpt lat="44.00633" lon="5.15322">
        <ele>276.39999389648</ele>
        <time>2013-04-07T07:22:05.000Z</time>
      </trkpt>
      <trkpt lat="44.00635" lon="5.15328">
        <ele>277.20001220703</ele>
        <time>2013-04-07T07:22:08.000Z</time>
      </trkpt>
      <trkpt lat="44.00634" lon="5.15337">
        <ele>277.79998779297</ele>
        <time>2013-04-07T07:22:12.000Z</time>
      </trkpt>
      <trkpt lat="44.00632" lon="5.15352">
        <ele>278.60000610352</ele>
        <time>2013-04-07T07:22:19.000Z</time>
      </trkpt>
      <trkpt lat="44.00624" lon="5.1535">
        <ele>278.20001220703</ele>
        <time>2013-04-07T07:22:24.000Z</time>
      </trkpt>
      <trkpt lat="44.00622" lon="5.15351">
        <ele>278</ele>
        <time>2013-04-07T07:22:25.000Z</time>
      </trkpt>
      <trkpt lat="44.00604" lon="5.15351">
        <ele>277.60000610352</ele>
        <time>2013-04-07T07:22:32.000Z</time>
      </trkpt>
      <trkpt lat="44.00597" lon="5.15352">
        <ele>277.39999389648</ele>
        <time>2013-04-07T07:22:34.000Z</time>
      </trkpt>
      <trkpt lat="44.00586" lon="5.15357">
        <ele>276.79998779297</ele>
        <time>2013-04-07T07:22:38.000Z</time>
      </trkpt>
      <trkpt lat="44.00584" lon="5.15348">
        <ele>276.39999389648</ele>
        <time>2013-04-07T07:22:41.000Z</time>
      </trkpt>
      <trkpt lat="44.00583" lon="5.15333">
        <ele>275.20001220703</ele>
        <time>2013-04-07T07:22:45.000Z</time>
      </trkpt>
      <trkpt lat="44.00576" lon="5.15333">
        <ele>274.20001220703</ele>
        <time>2013-04-07T07:22:48.000Z</time>
      </trkpt>
      <trkpt lat="44.00567" lon="5.15336">
        <ele>273.39999389648</ele>
        <time>2013-04-07T07:22:51.000Z</time>
      </trkpt>
      <trkpt lat="44.00561" lon="5.15335">
        <ele>272.39999389648</ele>
        <time>2013-04-07T07:22:53.000Z</time>
      </trkpt>
      <trkpt lat="44.00554" lon="5.15335">
        <ele>271.79998779297</ele>
        <time>2013-04-07T07:22:55.000Z</time>
      </trkpt>
      <trkpt lat="44.00545" lon="5.15331">
        <ele>272.60000610352</ele>
        <time>2013-04-07T07:22:59.000Z</time>
      </trkpt>
      <trkpt lat="44.00538" lon="5.15326">
        <ele>273.20001220703</ele>
        <time>2013-04-07T07:23:03.000Z</time>
      </trkpt>
      <trkpt lat="44.00535" lon="5.15309">
        <ele>273.20001220703</ele>
        <time>2013-04-07T07:23:07.000Z</time>
      </trkpt>
      <trkpt lat="44.0053" lon="5.1529">
        <ele>272.39999389648</ele>
        <time>2013-04-07T07:23:12.000Z</time>
      </trkpt>
      <trkpt lat="44.00532" lon="5.15288">
        <ele>272</ele>
        <time>2013-04-07T07:23:13.000Z</time>
      </trkpt>
      <trkpt lat="44.00545" lon="5.1527">
        <ele>270</ele>
        <time>2013-04-07T07:23:18.000Z</time>
      </trkpt>
      <trkpt lat="44.00557" lon="5.15255">
        <ele>268.39999389648</ele>
        <time>2013-04-07T07:23:22.000Z</time>
      </trkpt>
      <trkpt lat="44.00557" lon="5.15234">
        <ele>268.20001220703</ele>
        <time>2013-04-07T07:23:26.000Z</time>
      </trkpt>
      <trkpt lat="44.00551" lon="5.15222">
        <ele>268.79998779297</ele>
        <time>2013-04-07T07:23:29.000Z</time>
      </trkpt>
      <trkpt lat="44.00542" lon="5.15209">
        <ele>270.60000610352</ele>
        <time>2013-04-07T07:23:34.000Z</time>
      </trkpt>
      <trkpt lat="44.0054" lon="5.15203">
        <ele>270.79998779297</ele>
        <time>2013-04-07T07:23:36.000Z</time>
      </trkpt>
      <trkpt lat="44.00532" lon="5.152">
        <ele>272.39999389648</ele>
        <time>2013-04-07T07:23:41.000Z</time>
      </trkpt>
      <trkpt lat="44.00526" lon="5.15191">
        <ele>274.60000610352</ele>
        <time>2013-04-07T07:23:46.000Z</time>
      </trkpt>
      <trkpt lat="44.00521" lon="5.15185">
        <ele>274.39999389648</ele>
        <time>2013-04-07T07:23:50.000Z</time>
      </trkpt>
      <trkpt lat="44.00509" lon="5.15187">
        <ele>275.60000610352</ele>
        <time>2013-04-07T07:23:57.000Z</time>
      </trkpt>
      <trkpt lat="44.00506" lon="5.1519">
        <ele>276</ele>
        <time>2013-04-07T07:24:01.000Z</time>
      </trkpt>
      <trkpt lat="44.00499" lon="5.15188">
        <ele>275.79998779297</ele>
        <time>2013-04-07T07:24:06.000Z</time>
      </trkpt>
      <trkpt lat="44.00493" lon="5.15186">
        <ele>276.20001220703</ele>
        <time>2013-04-07T07:24:11.000Z</time>
      </trkpt>
      <trkpt lat="44.00492" lon="5.15186">
        <ele>276</ele>
        <time>2013-04-07T07:24:12.000Z</time>
      </trkpt>
      <trkpt lat="44.00482" lon="5.15183">
        <ele>278.79998779297</ele>
        <time>2013-04-07T07:24:18.000Z</time>
      </trkpt>
      <trkpt lat="44.00476" lon="5.15178">
        <ele>278.60000610352</ele>
        <time>2013-04-07T07:24:24.000Z</time>
      </trkpt>
      <trkpt lat="44.00475" lon="5.15177">
        <ele>278.39999389648</ele>
        <time>2013-04-07T07:24:25.000Z</time>
      </trkpt>
      <trkpt lat="44.00463" lon="5.15171">
        <ele>279.20001220703</ele>
        <time>2013-04-07T07:24:33.000Z</time>
      </trkpt>
      <trkpt lat="44.00454" lon="5.15162">
        <ele>280.39999389648</ele>
        <time>2013-04-07T07:24:39.000Z</time>
      </trkpt>
      <trkpt lat="44.00444" lon="5.1516">
        <ele>281.20001220703</ele>
        <time>2013-04-07T07:24:45.000Z</time>
      </trkpt>
      <trkpt lat="44.00437" lon="5.15152">
        <ele>281</ele>
        <time>2013-04-07T07:24:50.000Z</time>
      </trkpt>
      <trkpt lat="44.00431" lon="5.15147">
        <ele>281.20001220703</ele>
        <time>2013-04-07T07:24:53.000Z</time>
      </trkpt>
      <trkpt lat="44.00419" lon="5.15136">
        <ele>281.20001220703</ele>
        <time>2013-04-07T07:24:59.000Z</time>
      </trkpt>
      <trkpt lat="44.00404" lon="5.15128">
        <ele>280.79998779297</ele>
        <time>2013-04-07T07:25:05.000Z</time>
      </trkpt>
      <trkpt lat="44.00386" lon="5.15127">
        <ele>280.60000610352</ele>
        <time>2013-04-07T07:25:10.000Z</time>
      </trkpt>
      <trkpt lat="44.00381" lon="5.15132">
        <ele>280.79998779297</ele>
        <time>2013-04-07T07:25:12.000Z</time>
      </trkpt>
      <trkpt lat="44.0037" lon="5.15127">
        <ele>280.20001220703</ele>
        <time>2013-04-07T07:25:16.000Z</time>
      </trkpt>
      <trkpt lat="44.00364" lon="5.15122">
        <ele>279.60000610352</ele>
        <time>2013-04-07T07:25:18.000Z</time>
      </trkpt>
      <trkpt lat="44.00347" lon="5.15123">
        <ele>278.20001220703</ele>
        <time>2013-04-07T07:25:23.000Z</time>
      </trkpt>
      <trkpt lat="44.0034" lon="5.15111">
        <ele>277.60000610352</ele>
        <time>2013-04-07T07:25:26.000Z</time>
      </trkpt>
      <trkpt lat="44.00338" lon="5.15106">
        <ele>277.60000610352</ele>
        <time>2013-04-07T07:25:27.000Z</time>
      </trkpt>
      <trkpt lat="44.00333" lon="5.15095">
        <ele>277.20001220703</ele>
        <time>2013-04-07T07:25:29.000Z</time>
      </trkpt>
      <trkpt lat="44.0032" lon="5.15061">
        <ele>275</ele>
        <time>2013-04-07T07:25:34.000Z</time>
      </trkpt>
      <trkpt lat="44.00316" lon="5.15056">
        <ele>274.39999389648</ele>
        <time>2013-04-07T07:25:35.000Z</time>
      </trkpt>
      <trkpt lat="44.00311" lon="5.15049">
        <ele>273.79998779297</ele>
        <time>2013-04-07T07:25:37.000Z</time>
      </trkpt>
      <trkpt lat="44.00307" lon="5.15054">
        <ele>274.20001220703</ele>
        <time>2013-04-07T07:25:40.000Z</time>
      </trkpt>
      <trkpt lat="44.00304" lon="5.1506">
        <ele>275.60000610352</ele>
        <time>2013-04-07T07:25:45.000Z</time>
      </trkpt>
      <trkpt lat="44.00303" lon="5.15061">
        <ele>276</ele>
        <time>2013-04-07T07:25:47.000Z</time>
      </trkpt>
      <trkpt lat="44.00299" lon="5.1507">
        <ele>277</ele>
        <time>2013-04-07T07:25:56.000Z</time>
      </trkpt>
      <trkpt lat="44.00297" lon="5.15074">
        <ele>277.79998779297</ele>
        <time>2013-04-07T07:26:00.000Z</time>
      </trkpt>
      <trkpt lat="44.00295" lon="5.15083">
        <ele>279.79998779297</ele>
        <time>2013-04-07T07:26:08.000Z</time>
      </trkpt>
      <trkpt lat="44.00289" lon="5.15089">
        <ele>280.60000610352</ele>
        <time>2013-04-07T07:26:15.000Z</time>
      </trkpt>
      <trkpt lat="44.00282" lon="5.15098">
        <ele>280.79998779297</ele>
        <time>2013-04-07T07:26:24.000Z</time>
      </trkpt>
      <trkpt lat="44.0028" lon="5.15101">
        <ele>281</ele>
        <time>2013-04-07T07:26:26.000Z</time>
      </trkpt>
      <trkpt lat="44.00276" lon="5.15103">
        <ele>281.39999389648</ele>
        <time>2013-04-07T07:26:30.000Z</time>
      </trkpt>
      <trkpt lat="44.00275" lon="5.15111">
        <ele>282.20001220703</ele>
        <time>2013-04-07T07:26:35.000Z</time>
      </trkpt>
      <trkpt lat="44.00275" lon="5.15117">
        <ele>283.20001220703</ele>
        <time>2013-04-07T07:26:40.000Z</time>
      </trkpt>
      <trkpt lat="44.00272" lon="5.15126">
        <ele>285.20001220703</ele>
        <time>2013-04-07T07:26:47.000Z</time>
      </trkpt>
      <trkpt lat="44.00268" lon="5.15132">
        <ele>286.60000610352</ele>
        <time>2013-04-07T07:26:52.000Z</time>
      </trkpt>
      <trkpt lat="44.00265" lon="5.1514">
        <ele>288</ele>
        <time>2013-04-07T07:26:57.000Z</time>
      </trkpt>
      <trkpt lat="44.00262" lon="5.1515">
        <ele>288.79998779297</ele>
        <time>2013-04-07T07:27:04.000Z</time>
      </trkpt>
      <trkpt lat="44.00252" lon="5.15157">
        <ele>288.79998779297</ele>
        <time>2013-04-07T07:27:13.000Z</time>
      </trkpt>
      <trkpt lat="44.00244" lon="5.15161">
        <ele>288.39999389648</ele>
        <time>2013-04-07T07:27:19.000Z</time>
      </trkpt>
      <trkpt lat="44.00239" lon="5.15173">
        <ele>289</ele>
        <time>2013-04-07T07:27:26.000Z</time>
      </trkpt>
      <trkpt lat="44.00237" lon="5.15185">
        <ele>290.20001220703</ele>
        <time>2013-04-07T07:27:31.000Z</time>
      </trkpt>
      <trkpt lat="44.00233" lon="5.15189">
        <ele>290.79998779297</ele>
        <time>2013-04-07T07:27:34.000Z</time>
      </trkpt>
      <trkpt lat="44.0022" lon="5.15194">
        <ele>290.79998779297</ele>
        <time>2013-04-07T07:27:41.000Z</time>
      </trkpt>
      <trkpt lat="44.00207" lon="5.15193">
        <ele>290.79998779297</ele>
        <time>2013-04-07T07:27:46.000Z</time>
      </trkpt>
      <trkpt lat="44.00196" lon="5.15199">
        <ele>290.20001220703</ele>
        <time>2013-04-07T07:27:50.000Z</time>
      </trkpt>
      <trkpt lat="44.00191" lon="5.15204">
        <ele>289.79998779297</ele>
        <time>2013-04-07T07:27:52.000Z</time>
      </trkpt>
      <trkpt lat="44.00178" lon="5.15206">
        <ele>289.79998779297</ele>
        <time>2013-04-07T07:27:57.000Z</time>
      </trkpt>
      <trkpt lat="44.00175" lon="5.15212">
        <ele>289.79998779297</ele>
        <time>2013-04-07T07:27:59.000Z</time>
      </trkpt>
      <trkpt lat="44.00166" lon="5.15223">
        <ele>290.60000610352</ele>
        <time>2013-04-07T07:28:04.000Z</time>
      </trkpt>
      <trkpt lat="44.00165" lon="5.15226">
        <ele>290.79998779297</ele>
        <time>2013-04-07T07:28:05.000Z</time>
      </trkpt>
      <trkpt lat="44.00158" lon="5.15241">
        <ele>291.60000610352</ele>
        <time>2013-04-07T07:28:11.000Z</time>
      </trkpt>
      <trkpt lat="44.00152" lon="5.15244">
        <ele>292</ele>
        <time>2013-04-07T07:28:14.000Z</time>
      </trkpt>
      <trkpt lat="44.00141" lon="5.15259">
        <ele>293</ele>
        <time>2013-04-07T07:28:21.000Z</time>
      </trkpt>
      <trkpt lat="44.00141" lon="5.15266">
        <ele>293.79998779297</ele>
        <time>2013-04-07T07:28:24.000Z</time>
      </trkpt>
      <trkpt lat="44.00147" lon="5.15281">
        <ele>295.60000610352</ele>
        <time>2013-04-07T07:28:31.000Z</time>
      </trkpt>
      <trkpt lat="44.0015" lon="5.15287">
        <ele>296.60000610352</ele>
        <time>2013-04-07T07:28:34.000Z</time>
      </trkpt>
      <trkpt lat="44.00149" lon="5.15302">
        <ele>297.20001220703</ele>
        <time>2013-04-07T07:28:41.000Z</time>
      </trkpt>
      <trkpt lat="44.00149" lon="5.15317">
        <ele>297.60000610352</ele>
        <time>2013-04-07T07:28:48.000Z</time>
      </trkpt>
      <trkpt lat="44.00144" lon="5.15327">
        <ele>297.79998779297</ele>
        <time>2013-04-07T07:28:54.000Z</time>
      </trkpt>
      <trkpt lat="44.00141" lon="5.15332">
        <ele>297.79998779297</ele>
        <time>2013-04-07T07:28:57.000Z</time>
      </trkpt>
      <trkpt lat="44.00138" lon="5.15345">
        <ele>298.39999389648</ele>
        <time>2013-04-07T07:29:03.000Z</time>
      </trkpt>
      <trkpt lat="44.00135" lon="5.15358">
        <ele>299.39999389648</ele>
        <time>2013-04-07T07:29:09.000Z</time>
      </trkpt>
      <trkpt lat="44.00128" lon="5.15366">
        <ele>300</ele>
        <time>2013-04-07T07:29:14.000Z</time>
      </trkpt>
      <trkpt lat="44.00122" lon="5.15381">
        <ele>300</ele>
        <time>2013-04-07T07:29:21.000Z</time>
      </trkpt>
      <trkpt lat="44.00118" lon="5.15394">
        <ele>300</ele>
        <time>2013-04-07T07:29:28.000Z</time>
      </trkpt>
      <trkpt lat="44.00117" lon="5.15395">
        <ele>299.79998779297</ele>
        <time>2013-04-07T07:29:29.000Z</time>
      </trkpt>
      <trkpt lat="44.00114" lon="5.1541">
        <ele>300.60000610352</ele>
        <time>2013-04-07T07:29:36.000Z</time>
      </trkpt>
      <trkpt lat="44.00115" lon="5.15426">
        <ele>302.79998779297</ele>
        <time>2013-04-07T07:29:41.000Z</time>
      </trkpt>
      <trkpt lat="44.00114" lon="5.15432">
        <ele>303.79998779297</ele>
        <time>2013-04-07T07:29:43.000Z</time>
      </trkpt>
      <trkpt lat="44.00111" lon="5.15439">
        <ele>305.60000610352</ele>
        <time>2013-04-07T07:29:47.000Z</time>
      </trkpt>
      <trkpt lat="44.00108" lon="5.15451">
        <ele>305.39999389648</ele>
        <time>2013-04-07T07:29:53.000Z</time>
      </trkpt>
      <trkpt lat="44.00118" lon="5.15461">
        <ele>307.20001220703</ele>
        <time>2013-04-07T07:29:59.000Z</time>
      </trkpt>
      <trkpt lat="44.00119" lon="5.15466">
        <ele>308</ele>
        <time>2013-04-07T07:30:01.000Z</time>
      </trkpt>
      <trkpt lat="44.00117" lon="5.1548">
        <ele>311.20001220703</ele>
        <time>2013-04-07T07:30:07.000Z</time>
      </trkpt>
      <trkpt lat="44.00112" lon="5.15498">
        <ele>312.39999389648</ele>
        <time>2013-04-07T07:30:12.000Z</time>
      </trkpt>
      <trkpt lat="44.00115" lon="5.15518">
        <ele>313.60000610352</ele>
        <time>2013-04-07T07:30:18.000Z</time>
      </trkpt>
      <trkpt lat="44.00116" lon="5.15531">
        <ele>313.79998779297</ele>
        <time>2013-04-07T07:30:22.000Z</time>
      </trkpt>
      <trkpt lat="44.00111" lon="5.15541">
        <ele>313.20001220703</ele>
        <time>2013-04-07T07:30:26.000Z</time>
      </trkpt>
      <trkpt lat="44.001" lon="5.15555">
        <ele>312.79998779297</ele>
        <time>2013-04-07T07:30:32.000Z</time>
      </trkpt>
      <trkpt lat="44.00095" lon="5.15568">
        <ele>313.79998779297</ele>
        <time>2013-04-07T07:30:37.000Z</time>
      </trkpt>
      <trkpt lat="44.00086" lon="5.15576">
        <ele>313.39999389648</ele>
        <time>2013-04-07T07:30:42.000Z</time>
      </trkpt>
      <trkpt lat="44.00088" lon="5.15585">
        <ele>313</ele>
        <time>2013-04-07T07:30:45.000Z</time>
      </trkpt>
      <trkpt lat="44.00088" lon="5.15588">
        <ele>313.20001220703</ele>
        <time>2013-04-07T07:30:46.000Z</time>
      </trkpt>
      <trkpt lat="44.0009" lon="5.15606">
        <ele>315</ele>
        <time>2013-04-07T07:30:51.000Z</time>
      </trkpt>
      <trkpt lat="44.00091" lon="5.15608">
        <ele>315</ele>
        <time>2013-04-07T07:30:52.000Z</time>
      </trkpt>
      <trkpt lat="44.00089" lon="5.15621">
        <ele>314.79998779297</ele>
        <time>2013-04-07T07:30:56.000Z</time>
      </trkpt>
      <trkpt lat="44.00089" lon="5.15641">
        <ele>315.60000610352</ele>
        <time>2013-04-07T07:31:02.000Z</time>
      </trkpt>
      <trkpt lat="44.00089" lon="5.15656">
        <ele>315.60000610352</ele>
        <time>2013-04-07T07:31:07.000Z</time>
      </trkpt>
      <trkpt lat="44.00095" lon="5.15681">
        <ele>316.39999389648</ele>
        <time>2013-04-07T07:31:14.000Z</time>
      </trkpt>
      <trkpt lat="44.00095" lon="5.15703">
        <ele>317.39999389648</ele>
        <time>2013-04-07T07:31:20.000Z</time>
      </trkpt>
      <trkpt lat="44.00096" lon="5.1571">
        <ele>318</ele>
        <time>2013-04-07T07:31:22.000Z</time>
      </trkpt>
      <trkpt lat="44.00104" lon="5.15729">
        <ele>317.39999389648</ele>
        <time>2013-04-07T07:31:28.000Z</time>
      </trkpt>
      <trkpt lat="44.00112" lon="5.15746">
        <ele>318.20001220703</ele>
        <time>2013-04-07T07:31:33.000Z</time>
      </trkpt>
      <trkpt lat="44.00112" lon="5.15767">
        <ele>318.39999389648</ele>
        <time>2013-04-07T07:31:38.000Z</time>
      </trkpt>
      <trkpt lat="44.00116" lon="5.15791">
        <ele>319.20001220703</ele>
        <time>2013-04-07T07:31:44.000Z</time>
      </trkpt>
      <trkpt lat="44.00126" lon="5.15798">
        <ele>319.20001220703</ele>
        <time>2013-04-07T07:31:48.000Z</time>
      </trkpt>
      <trkpt lat="44.00131" lon="5.15816">
        <ele>320.20001220703</ele>
        <time>2013-04-07T07:31:53.000Z</time>
      </trkpt>
      <trkpt lat="44.00131" lon="5.1582">
        <ele>320.39999389648</ele>
        <time>2013-04-07T07:31:54.000Z</time>
      </trkpt>
      <trkpt lat="44.00144" lon="5.15836">
        <ele>319.39999389648</ele>
        <time>2013-04-07T07:31:59.000Z</time>
      </trkpt>
      <trkpt lat="44.00146" lon="5.15848">
        <ele>318.60000610352</ele>
        <time>2013-04-07T07:32:01.000Z</time>
      </trkpt>
      <trkpt lat="44.00156" lon="5.15866">
        <ele>317</ele>
        <time>2013-04-07T07:32:06.000Z</time>
      </trkpt>
      <trkpt lat="44.0016" lon="5.15866">
        <ele>316.39999389648</ele>
        <time>2013-04-07T07:32:07.000Z</time>
      </trkpt>
      <trkpt lat="44.00179" lon="5.15855">
        <ele>312.79998779297</ele>
        <time>2013-04-07T07:32:12.000Z</time>
      </trkpt>
      <trkpt lat="44.0018" lon="5.15833">
        <ele>311.79998779297</ele>
        <time>2013-04-07T07:32:16.000Z</time>
      </trkpt>
      <trkpt lat="44.00178" lon="5.15816">
        <ele>311.39999389648</ele>
        <time>2013-04-07T07:32:20.000Z</time>
      </trkpt>
      <trkpt lat="44.00179" lon="5.15803">
        <ele>311.60000610352</ele>
        <time>2013-04-07T07:32:24.000Z</time>
      </trkpt>
      <trkpt lat="44.00181" lon="5.15785">
        <ele>309.20001220703</ele>
        <time>2013-04-07T07:32:28.000Z</time>
      </trkpt>
      <trkpt lat="44.00184" lon="5.15767">
        <ele>308.60000610352</ele>
        <time>2013-04-07T07:32:32.000Z</time>
      </trkpt>
      <trkpt lat="44.00182" lon="5.15752">
        <ele>308.20001220703</ele>
        <time>2013-04-07T07:32:36.000Z</time>
      </trkpt>
      <trkpt lat="44.00182" lon="5.15739">
        <ele>308</ele>
        <time>2013-04-07T07:32:39.000Z</time>
      </trkpt>
      <trkpt lat="44.00183" lon="5.15728">
        <ele>307.79998779297</ele>
        <time>2013-04-07T07:32:42.000Z</time>
      </trkpt>
      <trkpt lat="44.00193" lon="5.15711">
        <ele>306.79998779297</ele>
        <time>2013-04-07T07:32:46.000Z</time>
      </trkpt>
      <trkpt lat="44.002" lon="5.15693">
        <ele>306.60000610352</ele>
        <time>2013-04-07T07:32:49.000Z</time>
      </trkpt>
      <trkpt lat="44.00204" lon="5.15683">
        <ele>305.60000610352</ele>
        <time>2013-04-07T07:32:52.000Z</time>
      </trkpt>
      <trkpt lat="44.00202" lon="5.15667">
        <ele>304</ele>
        <time>2013-04-07T07:32:56.000Z</time>
      </trkpt>
      <trkpt lat="44.00202" lon="5.15662">
        <ele>303.79998779297</ele>
        <time>2013-04-07T07:32:57.000Z</time>
      </trkpt>
      <trkpt lat="44.002" lon="5.1565">
        <ele>303.39999389648</ele>
        <time>2013-04-07T07:33:00.000Z</time>
      </trkpt>
      <trkpt lat="44.00202" lon="5.15633">
        <ele>304</ele>
        <time>2013-04-07T07:33:05.000Z</time>
      </trkpt>
      <trkpt lat="44.00204" lon="5.1563">
        <ele>304</ele>
        <time>2013-04-07T07:33:06.000Z</time>
      </trkpt>
      <trkpt lat="44.00212" lon="5.15601">
        <ele>302.60000610352</ele>
        <time>2013-04-07T07:33:13.000Z</time>
      </trkpt>
      <trkpt lat="44.00219" lon="5.1558">
        <ele>301.60000610352</ele>
        <time>2013-04-07T07:33:18.000Z</time>
      </trkpt>
      <trkpt lat="44.00228" lon="5.15562">
        <ele>299.79998779297</ele>
        <time>2013-04-07T07:33:22.000Z</time>
      </trkpt>
      <trkpt lat="44.00242" lon="5.15556">
        <ele>297.79998779297</ele>
        <time>2013-04-07T07:33:26.000Z</time>
      </trkpt>
      <trkpt lat="44.0025" lon="5.15563">
        <ele>296.79998779297</ele>
        <time>2013-04-07T07:33:28.000Z</time>
      </trkpt>
      <trkpt lat="44.00269" lon="5.15583">
        <ele>291.60000610352</ele>
        <time>2013-04-07T07:33:34.000Z</time>
      </trkpt>
      <trkpt lat="44.00275" lon="5.15589">
        <ele>290.60000610352</ele>
        <time>2013-04-07T07:33:37.000Z</time>
      </trkpt>
      <trkpt lat="44.00282" lon="5.15585">
        <ele>289.20001220703</ele>
        <time>2013-04-07T07:33:39.000Z</time>
      </trkpt>
      <trkpt lat="44.00288" lon="5.15588">
        <ele>288.60000610352</ele>
        <time>2013-04-07T07:33:44.000Z</time>
      </trkpt>
      <trkpt lat="44.00291" lon="5.15616">
        <ele>288.20001220703</ele>
        <time>2013-04-07T07:33:50.000Z</time>
      </trkpt>
      <trkpt lat="44.00293" lon="5.15642">
        <ele>289.79998779297</ele>
        <time>2013-04-07T07:33:56.000Z</time>
      </trkpt>
      <trkpt lat="44.00292" lon="5.15657">
        <ele>290.79998779297</ele>
        <time>2013-04-07T07:34:00.000Z</time>
      </trkpt>
      <trkpt lat="44.00289" lon="5.15669">
        <ele>293</ele>
        <time>2013-04-07T07:34:05.000Z</time>
      </trkpt>
      <trkpt lat="44.00288" lon="5.15673">
        <ele>293.20001220703</ele>
        <time>2013-04-07T07:34:06.000Z</time>
      </trkpt>
      <trkpt lat="44.00287" lon="5.15679">
        <ele>293.60000610352</ele>
        <time>2013-04-07T07:34:08.000Z</time>
      </trkpt>
      <trkpt lat="44.00288" lon="5.15709">
        <ele>293.20001220703</ele>
        <time>2013-04-07T07:34:15.000Z</time>
      </trkpt>
      <trkpt lat="44.00287" lon="5.15731">
        <ele>295</ele>
        <time>2013-04-07T07:34:21.000Z</time>
      </trkpt>
      <trkpt lat="44.00288" lon="5.15755">
        <ele>295.79998779297</ele>
        <time>2013-04-07T07:34:27.000Z</time>
      </trkpt>
      <trkpt lat="44.00289" lon="5.15786">
        <ele>295.60000610352</ele>
        <time>2013-04-07T07:34:34.000Z</time>
      </trkpt>
      <trkpt lat="44.00287" lon="5.15804">
        <ele>295.39999389648</ele>
        <time>2013-04-07T07:34:38.000Z</time>
      </trkpt>
      <trkpt lat="44.00287" lon="5.15808">
        <ele>295</ele>
        <time>2013-04-07T07:34:39.000Z</time>
      </trkpt>
      <trkpt lat="44.00299" lon="5.1583">
        <ele>293.39999389648</ele>
        <time>2013-04-07T07:34:43.000Z</time>
      </trkpt>
      <trkpt lat="44.00339" lon="5.1587">
        <ele>293.39999389648</ele>
        <time>2013-04-07T07:34:51.000Z</time>
      </trkpt>
      <trkpt lat="44.00366" lon="5.15896">
        <ele>294.39999389648</ele>
        <time>2013-04-07T07:34:57.000Z</time>
      </trkpt>
      <trkpt lat="44.00402" lon="5.15931">
        <ele>294.60000610352</ele>
        <time>2013-04-07T07:35:06.000Z</time>
      </trkpt>
      <trkpt lat="44.0042" lon="5.15949">
        <ele>295.60000610352</ele>
        <time>2013-04-07T07:35:11.000Z</time>
      </trkpt>
      <trkpt lat="44.00432" lon="5.15969">
        <ele>296.39999389648</ele>
        <time>2013-04-07T07:35:16.000Z</time>
      </trkpt>
      <trkpt lat="44.00427" lon="5.15985">
        <ele>296.79998779297</ele>
        <time>2013-04-07T07:35:21.000Z</time>
      </trkpt>
      <trkpt lat="44.00421" lon="5.16">
        <ele>298.39999389648</ele>
        <time>2013-04-07T07:35:26.000Z</time>
      </trkpt>
      <trkpt lat="44.00411" lon="5.1602">
        <ele>300.60000610352</ele>
        <time>2013-04-07T07:35:33.000Z</time>
      </trkpt>
      <trkpt lat="44.00395" lon="5.16029">
        <ele>301.39999389648</ele>
        <time>2013-04-07T07:35:40.000Z</time>
      </trkpt>
      <trkpt lat="44.00384" lon="5.16047">
        <ele>302.39999389648</ele>
        <time>2013-04-07T07:35:47.000Z</time>
      </trkpt>
      <trkpt lat="44.00372" lon="5.16069">
        <ele>302.39999389648</ele>
        <time>2013-04-07T07:35:54.000Z</time>
      </trkpt>
      <trkpt lat="44.00357" lon="5.16095">
        <ele>302.60000610352</ele>
        <time>2013-04-07T07:36:02.000Z</time>
      </trkpt>
      <trkpt lat="44.00352" lon="5.16118">
        <ele>303</ele>
        <time>2013-04-07T07:36:08.000Z</time>
      </trkpt>
      <trkpt lat="44.00355" lon="5.16134">
        <ele>303.60000610352</ele>
        <time>2013-04-07T07:36:12.000Z</time>
      </trkpt>
      <trkpt lat="44.00361" lon="5.1617">
        <ele>304.60000610352</ele>
        <time>2013-04-07T07:36:20.000Z</time>
      </trkpt>
      <trkpt lat="44.00357" lon="5.16204">
        <ele>305.39999389648</ele>
        <time>2013-04-07T07:36:27.000Z</time>
      </trkpt>
      <trkpt lat="44.00354" lon="5.16222">
        <ele>305.20001220703</ele>
        <time>2013-04-07T07:36:31.000Z</time>
      </trkpt>
      <trkpt lat="44.00341" lon="5.16255">
        <ele>303</ele>
        <time>2013-04-07T07:36:37.000Z</time>
      </trkpt>
      <trkpt lat="44.00335" lon="5.1629">
        <ele>301.79998779297</ele>
        <time>2013-04-07T07:36:42.000Z</time>
      </trkpt>
      <trkpt lat="44.00335" lon="5.16298">
        <ele>301.60000610352</ele>
        <time>2013-04-07T07:36:43.000Z</time>
      </trkpt>
      <trkpt lat="44.00345" lon="5.16362">
        <ele>301.20001220703</ele>
        <time>2013-04-07T07:36:52.000Z</time>
      </trkpt>
      <trkpt lat="44.00346" lon="5.16397">
        <ele>301</ele>
        <time>2013-04-07T07:36:57.000Z</time>
      </trkpt>
      <trkpt lat="44.00354" lon="5.16417">
        <ele>300.79998779297</ele>
        <time>2013-04-07T07:37:01.000Z</time>
      </trkpt>
      <trkpt lat="44.00368" lon="5.16421">
        <ele>299.60000610352</ele>
        <time>2013-04-07T07:37:04.000Z</time>
      </trkpt>
      <trkpt lat="44.00372" lon="5.16426">
        <ele>299.20001220703</ele>
        <time>2013-04-07T07:37:05.000Z</time>
      </trkpt>
      <trkpt lat="44.00404" lon="5.16467">
        <ele>297.39999389648</ele>
        <time>2013-04-07T07:37:12.000Z</time>
      </trkpt>
      <trkpt lat="44.00408" lon="5.16473">
        <ele>297.39999389648</ele>
        <time>2013-04-07T07:37:13.000Z</time>
      </trkpt>
      <trkpt lat="44.00423" lon="5.16479">
        <ele>297.39999389648</ele>
        <time>2013-04-07T07:37:16.000Z</time>
      </trkpt>
      <trkpt lat="44.00432" lon="5.16463">
        <ele>296.20001220703</ele>
        <time>2013-04-07T07:37:19.000Z</time>
      </trkpt>
      <trkpt lat="44.00438" lon="5.16461">
        <ele>296.20001220703</ele>
        <time>2013-04-07T07:37:21.000Z</time>
      </trkpt>
      <trkpt lat="44.00454" lon="5.16457">
        <ele>297.39999389648</ele>
        <time>2013-04-07T07:37:26.000Z</time>
      </trkpt>
      <trkpt lat="44.00471" lon="5.16453">
        <ele>298.39999389648</ele>
        <time>2013-04-07T07:37:31.000Z</time>
      </trkpt>
      <trkpt lat="44.00482" lon="5.16463">
        <ele>298.39999389648</ele>
        <time>2013-04-07T07:37:35.000Z</time>
      </trkpt>
      <trkpt lat="44.00492" lon="5.16476">
        <ele>299.20001220703</ele>
        <time>2013-04-07T07:37:40.000Z</time>
      </trkpt>
      <trkpt lat="44.00512" lon="5.16486">
        <ele>301</ele>
        <time>2013-04-07T07:37:47.000Z</time>
      </trkpt>
      <trkpt lat="44.00527" lon="5.165">
        <ele>302</ele>
        <time>2013-04-07T07:37:54.000Z</time>
      </trkpt>
      <trkpt lat="44.00547" lon="5.16532">
        <ele>301.79998779297</ele>
        <time>2013-04-07T07:38:04.000Z</time>
      </trkpt>
      <trkpt lat="44.00552" lon="5.16544">
        <ele>302.79998779297</ele>
        <time>2013-04-07T07:38:08.000Z</time>
      </trkpt>
      <trkpt lat="44.0055" lon="5.16553">
        <ele>302</ele>
        <time>2013-04-07T07:38:12.000Z</time>
      </trkpt>
      <trkpt lat="44.0054" lon="5.16564">
        <ele>304</ele>
        <time>2013-04-07T07:38:20.000Z</time>
      </trkpt>
      <trkpt lat="44.00536" lon="5.16569">
        <ele>305</ele>
        <time>2013-04-07T07:38:23.000Z</time>
      </trkpt>
      <trkpt lat="44.00534" lon="5.16577">
        <ele>305.60000610352</ele>
        <time>2013-04-07T07:38:27.000Z</time>
      </trkpt>
      <trkpt lat="44.00526" lon="5.16593">
        <ele>308.60000610352</ele>
        <time>2013-04-07T07:38:37.000Z</time>
      </trkpt>
      <trkpt lat="44.00518" lon="5.16601">
        <ele>311</ele>
        <time>2013-04-07T07:38:43.000Z</time>
      </trkpt>
      <trkpt lat="44.00515" lon="5.16605">
        <ele>312</ele>
        <time>2013-04-07T07:38:46.000Z</time>
      </trkpt>
      <trkpt lat="44.00509" lon="5.16612">
        <ele>314.20001220703</ele>
        <time>2013-04-07T07:38:51.000Z</time>
      </trkpt>
      <trkpt lat="44.0051" lon="5.16619">
        <ele>316</ele>
        <time>2013-04-07T07:38:55.000Z</time>
      </trkpt>
      <trkpt lat="44.00517" lon="5.16634">
        <ele>318.39999389648</ele>
        <time>2013-04-07T07:39:04.000Z</time>
      </trkpt>
      <trkpt lat="44.00521" lon="5.16639">
        <ele>319</ele>
        <time>2013-04-07T07:39:07.000Z</time>
      </trkpt>
      <trkpt lat="44.00522" lon="5.16654">
        <ele>319</ele>
        <time>2013-04-07T07:39:14.000Z</time>
      </trkpt>
      <trkpt lat="44.00515" lon="5.16661">
        <ele>319.39999389648</ele>
        <time>2013-04-07T07:39:20.000Z</time>
      </trkpt>
      <trkpt lat="44.00514" lon="5.16667">
        <ele>320.20001220703</ele>
        <time>2013-04-07T07:39:23.000Z</time>
      </trkpt>
      <trkpt lat="44.00515" lon="5.16682">
        <ele>323.39999389648</ele>
        <time>2013-04-07T07:39:31.000Z</time>
      </trkpt>
      <trkpt lat="44.00516" lon="5.16684">
        <ele>323.79998779297</ele>
        <time>2013-04-07T07:39:32.000Z</time>
      </trkpt>
      <trkpt lat="44.00512" lon="5.16693">
        <ele>324.39999389648</ele>
        <time>2013-04-07T07:39:38.000Z</time>
      </trkpt>
      <trkpt lat="44.00503" lon="5.16701">
        <ele>323.39999389648</ele>
        <time>2013-04-07T07:39:44.000Z</time>
      </trkpt>
      <trkpt lat="44.00507" lon="5.16712">
        <ele>325.39999389648</ele>
        <time>2013-04-07T07:39:50.000Z</time>
      </trkpt>
      <trkpt lat="44.00511" lon="5.16726">
        <ele>328.20001220703</ele>
        <time>2013-04-07T07:39:57.000Z</time>
      </trkpt>
      <trkpt lat="44.00517" lon="5.16742">
        <ele>328</ele>
        <time>2013-04-07T07:40:03.000Z</time>
      </trkpt>
      <trkpt lat="44.00523" lon="5.16762">
        <ele>327.60000610352</ele>
        <time>2013-04-07T07:40:09.000Z</time>
      </trkpt>
      <trkpt lat="44.00525" lon="5.16779">
        <ele>327</ele>
        <time>2013-04-07T07:40:13.000Z</time>
      </trkpt>
      <trkpt lat="44.00527" lon="5.16785">
        <ele>326.79998779297</ele>
        <time>2013-04-07T07:40:15.000Z</time>
      </trkpt>
      <trkpt lat="44.00525" lon="5.16806">
        <ele>326.39999389648</ele>
        <time>2013-04-07T07:40:21.000Z</time>
      </trkpt>
      <trkpt lat="44.00525" lon="5.1681">
        <ele>326.60000610352</ele>
        <time>2013-04-07T07:40:22.000Z</time>
      </trkpt>
      <trkpt lat="44.00529" lon="5.1684">
        <ele>325.79998779297</ele>
        <time>2013-04-07T07:40:29.000Z</time>
      </trkpt>
      <trkpt lat="44.00531" lon="5.16865">
        <ele>326.20001220703</ele>
        <time>2013-04-07T07:40:34.000Z</time>
      </trkpt>
      <trkpt lat="44.00531" lon="5.16871">
        <ele>326.39999389648</ele>
        <time>2013-04-07T07:40:35.000Z</time>
      </trkpt>
      <trkpt lat="44.00532" lon="5.16888">
        <ele>327.39999389648</ele>
        <time>2013-04-07T07:40:40.000Z</time>
      </trkpt>
      <trkpt lat="44.00534" lon="5.16897">
        <ele>327.39999389648</ele>
        <time>2013-04-07T07:40:42.000Z</time>
      </trkpt>
      <trkpt lat="44.00537" lon="5.16926">
        <ele>326.79998779297</ele>
        <time>2013-04-07T07:40:48.000Z</time>
      </trkpt>
      <trkpt lat="44.00542" lon="5.16931">
        <ele>326.60000610352</ele>
        <time>2013-04-07T07:40:50.000Z</time>
      </trkpt>
      <trkpt lat="44.00547" lon="5.16954">
        <ele>327.20001220703</ele>
        <time>2013-04-07T07:40:55.000Z</time>
      </trkpt>
      <trkpt lat="44.00553" lon="5.1697">
        <ele>327.20001220703</ele>
        <time>2013-04-07T07:40:59.000Z</time>
      </trkpt>
      <trkpt lat="44.00557" lon="5.16983">
        <ele>327.39999389648</ele>
        <time>2013-04-07T07:41:02.000Z</time>
      </trkpt>
      <trkpt lat="44.0056" lon="5.16988">
        <ele>327</ele>
        <time>2013-04-07T07:41:04.000Z</time>
      </trkpt>
      <trkpt lat="44.00563" lon="5.17005">
        <ele>326</ele>
        <time>2013-04-07T07:41:10.000Z</time>
      </trkpt>
      <trkpt lat="44.0057" lon="5.17012">
        <ele>326</ele>
        <time>2013-04-07T07:41:13.000Z</time>
      </trkpt>
      <trkpt lat="44.0058" lon="5.17016">
        <ele>325.60000610352</ele>
        <time>2013-04-07T07:41:16.000Z</time>
      </trkpt>
      <trkpt lat="44.00587" lon="5.17026">
        <ele>325.20001220703</ele>
        <time>2013-04-07T07:41:19.000Z</time>
      </trkpt>
      <trkpt lat="44.00601" lon="5.17041">
        <ele>323.79998779297</ele>
        <time>2013-04-07T07:41:24.000Z</time>
      </trkpt>
      <trkpt lat="44.00605" lon="5.17055">
        <ele>322.60000610352</ele>
        <time>2013-04-07T07:41:28.000Z</time>
      </trkpt>
      <trkpt lat="44.00609" lon="5.17063">
        <ele>322.20001220703</ele>
        <time>2013-04-07T07:41:31.000Z</time>
      </trkpt>
      <trkpt lat="44.0061" lon="5.17066">
        <ele>322.20001220703</ele>
        <time>2013-04-07T07:41:32.000Z</time>
      </trkpt>
      <trkpt lat="44.00614" lon="5.17082">
        <ele>321.20001220703</ele>
        <time>2013-04-07T07:41:36.000Z</time>
      </trkpt>
      <trkpt lat="44.00612" lon="5.17089">
        <ele>321</ele>
        <time>2013-04-07T07:41:38.000Z</time>
      </trkpt>
      <trkpt lat="44.00617" lon="5.171">
        <ele>321</ele>
        <time>2013-04-07T07:41:43.000Z</time>
      </trkpt>
      <trkpt lat="44.00612" lon="5.17102">
        <ele>321.60000610352</ele>
        <time>2013-04-07T07:41:46.000Z</time>
      </trkpt>
      <trkpt lat="44.00597" lon="5.17093">
        <ele>322.60000610352</ele>
        <time>2013-04-07T07:41:52.000Z</time>
      </trkpt>
      <trkpt lat="44.00585" lon="5.17086">
        <ele>324.60000610352</ele>
        <time>2013-04-07T07:41:57.000Z</time>
      </trkpt>
      <trkpt lat="44.00573" lon="5.17077">
        <ele>327.39999389648</ele>
        <time>2013-04-07T07:42:04.000Z</time>
      </trkpt>
      <trkpt lat="44.00564" lon="5.17072">
        <ele>328.79998779297</ele>
        <time>2013-04-07T07:42:09.000Z</time>
      </trkpt>
      <trkpt lat="44.00555" lon="5.17066">
        <ele>331</ele>
        <time>2013-04-07T07:42:16.000Z</time>
      </trkpt>
      <trkpt lat="44.00548" lon="5.17059">
        <ele>333.39999389648</ele>
        <time>2013-04-07T07:42:23.000Z</time>
      </trkpt>
      <trkpt lat="44.0054" lon="5.17054">
        <ele>335.60000610352</ele>
        <time>2013-04-07T07:42:30.000Z</time>
      </trkpt>
      <trkpt lat="44.00532" lon="5.17047">
        <ele>337</ele>
        <time>2013-04-07T07:42:37.000Z</time>
      </trkpt>
      <trkpt lat="44.00523" lon="5.17038">
        <ele>337.20001220703</ele>
        <time>2013-04-07T07:42:45.000Z</time>
      </trkpt>
      <trkpt lat="44.00519" lon="5.17037">
        <ele>337.39999389648</ele>
        <time>2013-04-07T07:42:48.000Z</time>
      </trkpt>
      <trkpt lat="44.00511" lon="5.17028">
        <ele>338</ele>
        <time>2013-04-07T07:42:55.000Z</time>
      </trkpt>
      <trkpt lat="44.00506" lon="5.17027">
        <ele>339</ele>
        <time>2013-04-07T07:42:59.000Z</time>
      </trkpt>
      <trkpt lat="44.005" lon="5.17019">
        <ele>340.39999389648</ele>
        <time>2013-04-07T07:43:06.000Z</time>
      </trkpt>
      <trkpt lat="44.00494" lon="5.17018">
        <ele>343.39999389648</ele>
        <time>2013-04-07T07:43:12.000Z</time>
      </trkpt>
      <trkpt lat="44.00487" lon="5.17013">
        <ele>346</ele>
        <time>2013-04-07T07:43:18.000Z</time>
      </trkpt>
      <trkpt lat="44.0048" lon="5.1701">
        <ele>348.39999389648</ele>
        <time>2013-04-07T07:43:27.000Z</time>
      </trkpt>
      <trkpt lat="44.00473" lon="5.17005">
        <ele>349.39999389648</ele>
        <time>2013-04-07T07:43:35.000Z</time>
      </trkpt>
      <trkpt lat="44.00468" lon="5.17004">
        <ele>350.39999389648</ele>
        <time>2013-04-07T07:43:45.000Z</time>
      </trkpt>
      <trkpt lat="44.00462" lon="5.16999">
        <ele>351.39999389648</ele>
        <time>2013-04-07T07:43:53.000Z</time>
      </trkpt>
      <trkpt lat="44.00457" lon="5.16995">
        <ele>352.60000610352</ele>
        <time>2013-04-07T07:44:01.000Z</time>
      </trkpt>
      <trkpt lat="44.00451" lon="5.16991">
        <ele>353.79998779297</ele>
        <time>2013-04-07T07:44:09.000Z</time>
      </trkpt>
      <trkpt lat="44.00444" lon="5.16988">
        <ele>356</ele>
        <time>2013-04-07T07:44:19.000Z</time>
      </trkpt>
      <trkpt lat="44.00437" lon="5.1699">
        <ele>357.39999389648</ele>
        <time>2013-04-07T07:44:27.000Z</time>
      </trkpt>
      <trkpt lat="44.00436" lon="5.1699">
        <ele>357.39999389648</ele>
        <time>2013-04-07T07:44:28.000Z</time>
      </trkpt>
      <trkpt lat="44.00433" lon="5.16988">
        <ele>357.60000610352</ele>
        <time>2013-04-07T07:44:31.000Z</time>
      </trkpt>
      <trkpt lat="44.00427" lon="5.16986">
        <ele>357.60000610352</ele>
        <time>2013-04-07T07:44:36.000Z</time>
      </trkpt>
      <trkpt lat="44.00418" lon="5.16984">
        <ele>357.39999389648</ele>
        <time>2013-04-07T07:44:42.000Z</time>
      </trkpt>
      <trkpt lat="44.00409" lon="5.16981">
        <ele>357.20001220703</ele>
        <time>2013-04-07T07:44:47.000Z</time>
      </trkpt>
      <trkpt lat="44.00405" lon="5.16986">
        <ele>357.60000610352</ele>
        <time>2013-04-07T07:44:51.000Z</time>
      </trkpt>
      <trkpt lat="44.00403" lon="5.16988">
        <ele>357.60000610352</ele>
        <time>2013-04-07T07:44:53.000Z</time>
      </trkpt>
      <trkpt lat="44.00397" lon="5.16986">
        <ele>357.39999389648</ele>
        <time>2013-04-07T07:44:57.000Z</time>
      </trkpt>
      <trkpt lat="44.00388" lon="5.16982">
        <ele>357.60000610352</ele>
        <time>2013-04-07T07:45:03.000Z</time>
      </trkpt>
      <trkpt lat="44.00379" lon="5.16973">
        <ele>357.60000610352</ele>
        <time>2013-04-07T07:45:09.000Z</time>
      </trkpt>
      <trkpt lat="44.00373" lon="5.16969">
        <ele>358.20001220703</ele>
        <time>2013-04-07T07:45:13.000Z</time>
      </trkpt>
      <trkpt lat="44.00365" lon="5.16974">
        <ele>358</ele>
        <time>2013-04-07T07:45:18.000Z</time>
      </trkpt>
      <trkpt lat="44.00357" lon="5.16968">
        <ele>359</ele>
        <time>2013-04-07T07:45:22.000Z</time>
      </trkpt>
      <trkpt lat="44.00352" lon="5.16964">
        <ele>359.39999389648</ele>
        <time>2013-04-07T07:45:26.000Z</time>
      </trkpt>
      <trkpt lat="44.00348" lon="5.16959">
        <ele>359.39999389648</ele>
        <time>2013-04-07T07:45:30.000Z</time>
      </trkpt>
      <trkpt lat="44.00348" lon="5.16958">
        <ele>359.39999389648</ele>
        <time>2013-04-07T07:45:31.000Z</time>
      </trkpt>
      <trkpt lat="44.00348" lon="5.1695">
        <ele>359.20001220703</ele>
        <time>2013-04-07T07:45:37.000Z</time>
      </trkpt>
      <trkpt lat="44.00348" lon="5.16947">
        <ele>359.39999389648</ele>
        <time>2013-04-07T07:45:42.000Z</time>
      </trkpt>
      <trkpt lat="44.00347" lon="5.16934">
        <ele>357.20001220703</ele>
        <time>2013-04-07T07:45:49.000Z</time>
      </trkpt>
      <trkpt lat="44.0035" lon="5.16916">
        <ele>354.60000610352</ele>
        <time>2013-04-07T07:45:53.000Z</time>
      </trkpt>
      <trkpt lat="44.00352" lon="5.16886">
        <ele>350.20001220703</ele>
        <time>2013-04-07T07:45:59.000Z</time>
      </trkpt>
      <trkpt lat="44.00353" lon="5.16876">
        <ele>347</ele>
        <time>2013-04-07T07:46:02.000Z</time>
      </trkpt>
      <trkpt lat="44.00351" lon="5.16853">
        <ele>343.39999389648</ele>
        <time>2013-04-07T07:46:06.000Z</time>
      </trkpt>
      <trkpt lat="44.00352" lon="5.16845">
        <ele>342</ele>
        <time>2013-04-07T07:46:08.000Z</time>
      </trkpt>
      <trkpt lat="44.00355" lon="5.16823">
        <ele>339.60000610352</ele>
        <time>2013-04-07T07:46:12.000Z</time>
      </trkpt>
      <trkpt lat="44.00357" lon="5.16802">
        <ele>337</ele>
        <time>2013-04-07T07:46:16.000Z</time>
      </trkpt>
      <trkpt lat="44.0036" lon="5.16795">
        <ele>335.60000610352</ele>
        <time>2013-04-07T07:46:19.000Z</time>
      </trkpt>
      <trkpt lat="44.00366" lon="5.16793">
        <ele>335</ele>
        <time>2013-04-07T07:46:21.000Z</time>
      </trkpt>
      <trkpt lat="44.00378" lon="5.16786">
        <ele>333.79998779297</ele>
        <time>2013-04-07T07:46:25.000Z</time>
      </trkpt>
      <trkpt lat="44.00376" lon="5.1678">
        <ele>333.20001220703</ele>
        <time>2013-04-07T07:46:29.000Z</time>
      </trkpt>
      <trkpt lat="44.00372" lon="5.16774">
        <ele>333.39999389648</ele>
        <time>2013-04-07T07:46:31.000Z</time>
      </trkpt>
      <trkpt lat="44.00368" lon="5.16752">
        <ele>331.60000610352</ele>
        <time>2013-04-07T07:46:35.000Z</time>
      </trkpt>
      <trkpt lat="44.00364" lon="5.16743">
        <ele>331.20001220703</ele>
        <time>2013-04-07T07:46:37.000Z</time>
      </trkpt>
      <trkpt lat="44.00361" lon="5.16735">
        <ele>331</ele>
        <time>2013-04-07T07:46:39.000Z</time>
      </trkpt>
      <trkpt lat="44.00362" lon="5.16728">
        <ele>329.39999389648</ele>
        <time>2013-04-07T07:46:42.000Z</time>
      </trkpt>
      <trkpt lat="44.0036" lon="5.16715">
        <ele>327.39999389648</ele>
        <time>2013-04-07T07:46:45.000Z</time>
      </trkpt>
      <trkpt lat="44.00364" lon="5.1669">
        <ele>323.39999389648</ele>
        <time>2013-04-07T07:46:50.000Z</time>
      </trkpt>
      <trkpt lat="44.00358" lon="5.16676">
        <ele>322.79998779297</ele>
        <time>2013-04-07T07:46:54.000Z</time>
      </trkpt>
      <trkpt lat="44.00355" lon="5.16682">
        <ele>323.39999389648</ele>
        <time>2013-04-07T07:46:57.000Z</time>
      </trkpt>
      <trkpt lat="44.00354" lon="5.167">
        <ele>323.79998779297</ele>
        <time>2013-04-07T07:47:01.000Z</time>
      </trkpt>
      <trkpt lat="44.00352" lon="5.16745">
        <ele>323.39999389648</ele>
        <time>2013-04-07T07:47:10.000Z</time>
      </trkpt>
      <trkpt lat="44.00343" lon="5.16766">
        <ele>325</ele>
        <time>2013-04-07T07:47:15.000Z</time>
      </trkpt>
      <trkpt lat="44.00326" lon="5.16797">
        <ele>325.60000610352</ele>
        <time>2013-04-07T07:47:22.000Z</time>
      </trkpt>
      <trkpt lat="44.00311" lon="5.16815">
        <ele>324.60000610352</ele>
        <time>2013-04-07T07:47:27.000Z</time>
      </trkpt>
      <trkpt lat="44.00297" lon="5.16837">
        <ele>322.20001220703</ele>
        <time>2013-04-07T07:47:32.000Z</time>
      </trkpt>
      <trkpt lat="44.00293" lon="5.16825">
        <ele>320.20001220703</ele>
        <time>2013-04-07T07:47:36.000Z</time>
      </trkpt>
      <trkpt lat="44.00295" lon="5.16805">
        <ele>317.60000610352</ele>
        <time>2013-04-07T07:47:39.000Z</time>
      </trkpt>
      <trkpt lat="44.00286" lon="5.168">
        <ele>315.60000610352</ele>
        <time>2013-04-07T07:47:42.000Z</time>
      </trkpt>
      <trkpt lat="44.00278" lon="5.16808">
        <ele>314</ele>
        <time>2013-04-07T07:47:44.000Z</time>
      </trkpt>
      <trkpt lat="44.00269" lon="5.16819">
        <ele>312.60000610352</ele>
        <time>2013-04-07T07:47:46.000Z</time>
      </trkpt>
      <trkpt lat="44.0025" lon="5.16841">
        <ele>310.20001220703</ele>
        <time>2013-04-07T07:47:50.000Z</time>
      </trkpt>
      <trkpt lat="44.00236" lon="5.16851">
        <ele>307.39999389648</ele>
        <time>2013-04-07T07:47:53.000Z</time>
      </trkpt>
      <trkpt lat="44.00221" lon="5.16873">
        <ele>304.39999389648</ele>
        <time>2013-04-07T07:47:56.000Z</time>
      </trkpt>
      <trkpt lat="44.00209" lon="5.16887">
        <ele>302.60000610352</ele>
        <time>2013-04-07T07:47:58.000Z</time>
      </trkpt>
      <trkpt lat="44.00186" lon="5.16893">
        <ele>301</ele>
        <time>2013-04-07T07:48:02.000Z</time>
      </trkpt>
      <trkpt lat="44.00169" lon="5.16884">
        <ele>299.60000610352</ele>
        <time>2013-04-07T07:48:06.000Z</time>
      </trkpt>
      <trkpt lat="44.00173" lon="5.16862">
        <ele>298</ele>
        <time>2013-04-07T07:48:09.000Z</time>
      </trkpt>
      <trkpt lat="44.00168" lon="5.16861">
        <ele>296.39999389648</ele>
        <time>2013-04-07T07:48:11.000Z</time>
      </trkpt>
      <trkpt lat="44.00162" lon="5.16865">
        <ele>296.20001220703</ele>
        <time>2013-04-07T07:48:13.000Z</time>
      </trkpt>
      <trkpt lat="44.00147" lon="5.16878">
        <ele>298.39999389648</ele>
        <time>2013-04-07T07:48:20.000Z</time>
      </trkpt>
      <trkpt lat="44.00141" lon="5.16886">
        <ele>298.20001220703</ele>
        <time>2013-04-07T07:48:24.000Z</time>
      </trkpt>
      <trkpt lat="44.00134" lon="5.16885">
        <ele>297.20001220703</ele>
        <time>2013-04-07T07:48:28.000Z</time>
      </trkpt>
      <trkpt lat="44.00136" lon="5.16878">
        <ele>296.60000610352</ele>
        <time>2013-04-07T07:48:32.000Z</time>
      </trkpt>
      <trkpt lat="44.0014" lon="5.16873">
        <ele>295.79998779297</ele>
        <time>2013-04-07T07:48:34.000Z</time>
      </trkpt>
      <trkpt lat="44.00148" lon="5.16865">
        <ele>295.39999389648</ele>
        <time>2013-04-07T07:48:36.000Z</time>
      </trkpt>
      <trkpt lat="44.00165" lon="5.16848">
        <ele>292.79998779297</ele>
        <time>2013-04-07T07:48:40.000Z</time>
      </trkpt>
      <trkpt lat="44.00168" lon="5.16842">
        <ele>292.20001220703</ele>
        <time>2013-04-07T07:48:41.000Z</time>
      </trkpt>
      <trkpt lat="44.00187" lon="5.16826">
        <ele>290.20001220703</ele>
        <time>2013-04-07T07:48:46.000Z</time>
      </trkpt>
      <trkpt lat="44.00192" lon="5.16803">
        <ele>288</ele>
        <time>2013-04-07T07:48:50.000Z</time>
      </trkpt>
      <trkpt lat="44.00198" lon="5.16797">
        <ele>287.20001220703</ele>
        <time>2013-04-07T07:48:53.000Z</time>
      </trkpt>
      <trkpt lat="44.00206" lon="5.16795">
        <ele>288</ele>
        <time>2013-04-07T07:48:57.000Z</time>
      </trkpt>
      <trkpt lat="44.00207" lon="5.16792">
        <ele>288</ele>
        <time>2013-04-07T07:48:58.000Z</time>
      </trkpt>
      <trkpt lat="44.00212" lon="5.16778">
        <ele>286.20001220703</ele>
        <time>2013-04-07T07:49:02.000Z</time>
      </trkpt>
      <trkpt lat="44.00213" lon="5.1676">
        <ele>284.20001220703</ele>
        <time>2013-04-07T07:49:06.000Z</time>
      </trkpt>
      <trkpt lat="44.00222" lon="5.16743">
        <ele>284</ele>
        <time>2013-04-07T07:49:09.000Z</time>
      </trkpt>
      <trkpt lat="44.00228" lon="5.16729">
        <ele>283.20001220703</ele>
        <time>2013-04-07T07:49:11.000Z</time>
      </trkpt>
      <trkpt lat="44.00244" lon="5.16692">
        <ele>281</ele>
        <time>2013-04-07T07:49:16.000Z</time>
      </trkpt>
      <trkpt lat="44.00246" lon="5.16685">
        <ele>280</ele>
        <time>2013-04-07T07:49:17.000Z</time>
      </trkpt>
      <trkpt lat="44.00253" lon="5.16662">
        <ele>278.79998779297</ele>
        <time>2013-04-07T07:49:20.000Z</time>
      </trkpt>
      <trkpt lat="44.00265" lon="5.16635">
        <ele>277.39999389648</ele>
        <time>2013-04-07T07:49:24.000Z</time>
      </trkpt>
      <trkpt lat="44.00268" lon="5.1662">
        <ele>277</ele>
        <time>2013-04-07T07:49:26.000Z</time>
      </trkpt>
      <trkpt lat="44.00278" lon="5.16583">
        <ele>278.20001220703</ele>
        <time>2013-04-07T07:49:31.000Z</time>
      </trkpt>
      <trkpt lat="44.00284" lon="5.16566">
        <ele>280.39999389648</ele>
        <time>2013-04-07T07:49:35.000Z</time>
      </trkpt>
      <trkpt lat="44.00291" lon="5.16546">
        <ele>282</ele>
        <time>2013-04-07T07:49:41.000Z</time>
      </trkpt>
      <trkpt lat="44.00299" lon="5.16526">
        <ele>283</ele>
        <time>2013-04-07T07:49:47.000Z</time>
      </trkpt>
      <trkpt lat="44.00301" lon="5.16521">
        <ele>283.20001220703</ele>
        <time>2013-04-07T07:49:49.000Z</time>
      </trkpt>
      <trkpt lat="44.00295" lon="5.16505">
        <ele>282.79998779297</ele>
        <time>2013-04-07T07:49:54.000Z</time>
      </trkpt>
      <trkpt lat="44.00293" lon="5.165">
        <ele>282.60000610352</ele>
        <time>2013-04-07T07:49:55.000Z</time>
      </trkpt>
      <trkpt lat="44.00287" lon="5.16461">
        <ele>280</ele>
        <time>2013-04-07T07:50:00.000Z</time>
      </trkpt>
      <trkpt lat="44.00285" lon="5.16444">
        <ele>279.20001220703</ele>
        <time>2013-04-07T07:50:02.000Z</time>
      </trkpt>
      <trkpt lat="44.00277" lon="5.16409">
        <ele>277.60000610352</ele>
        <time>2013-04-07T07:50:06.000Z</time>
      </trkpt>
      <trkpt lat="44.00272" lon="5.16384">
        <ele>275.39999389648</ele>
        <time>2013-04-07T07:50:10.000Z</time>
      </trkpt>
      <trkpt lat="44.00266" lon="5.16384">
        <ele>273</ele>
        <time>2013-04-07T07:50:14.000Z</time>
      </trkpt>
      <trkpt lat="44.00265" lon="5.16385">
        <ele>272.39999389648</ele>
        <time>2013-04-07T07:50:16.000Z</time>
      </trkpt>
      <trkpt lat="44.00259" lon="5.164">
        <ele>269.39999389648</ele>
        <time>2013-04-07T07:50:25.000Z</time>
      </trkpt>
      <trkpt lat="44.00257" lon="5.16404">
        <ele>267.79998779297</ele>
        <time>2013-04-07T07:50:28.000Z</time>
      </trkpt>
      <trkpt lat="44.00248" lon="5.16407">
        <ele>264</ele>
        <time>2013-04-07T07:50:34.000Z</time>
      </trkpt>
      <trkpt lat="44.00246" lon="5.16405">
        <ele>263.39999389648</ele>
        <time>2013-04-07T07:50:35.000Z</time>
      </trkpt>
      <trkpt lat="44.00243" lon="5.164">
        <ele>261.60000610352</ele>
        <time>2013-04-07T07:50:39.000Z</time>
      </trkpt>
      <trkpt lat="44.00237" lon="5.16391">
        <ele>258.60000610352</ele>
        <time>2013-04-07T07:50:46.000Z</time>
      </trkpt>
      <trkpt lat="44.00227" lon="5.16405">
        <ele>257</ele>
        <time>2013-04-07T07:50:50.000Z</time>
      </trkpt>
      <trkpt lat="44.00218" lon="5.16428">
        <ele>254.60000610352</ele>
        <time>2013-04-07T07:50:55.000Z</time>
      </trkpt>
      <trkpt lat="44.00217" lon="5.16432">
        <ele>253.80000305176</ele>
        <time>2013-04-07T07:50:58.000Z</time>
      </trkpt>
      <trkpt lat="44.00212" lon="5.16442">
        <ele>253.39999389648</ele>
        <time>2013-04-07T07:51:08.000Z</time>
      </trkpt>
      <trkpt lat="44.0021" lon="5.1644">
        <ele>250.80000305176</ele>
        <time>2013-04-07T07:51:12.000Z</time>
      </trkpt>
      <trkpt lat="44.00205" lon="5.16434">
        <ele>248.80000305176</ele>
        <time>2013-04-07T07:51:15.000Z</time>
      </trkpt>
      <trkpt lat="44.00197" lon="5.16443">
        <ele>246.19999694824</ele>
        <time>2013-04-07T07:51:19.000Z</time>
      </trkpt>
      <trkpt lat="44.00189" lon="5.16462">
        <ele>243</ele>
        <time>2013-04-07T07:51:24.000Z</time>
      </trkpt>
      <trkpt lat="44.00186" lon="5.16465">
        <ele>242.60000610352</ele>
        <time>2013-04-07T07:51:25.000Z</time>
      </trkpt>
      <trkpt lat="44.00178" lon="5.16482">
        <ele>241</ele>
        <time>2013-04-07T07:51:30.000Z</time>
      </trkpt>
      <trkpt lat="44.00177" lon="5.16493">
        <ele>241.19999694824</ele>
        <time>2013-04-07T07:51:34.000Z</time>
      </trkpt>
      <trkpt lat="44.00168" lon="5.16509">
        <ele>240</ele>
        <time>2013-04-07T07:51:38.000Z</time>
      </trkpt>
      <trkpt lat="44.00163" lon="5.1652">
        <ele>239.60000610352</ele>
        <time>2013-04-07T07:51:40.000Z</time>
      </trkpt>
      <trkpt lat="44.00156" lon="5.16541">
        <ele>240</ele>
        <time>2013-04-07T07:51:44.000Z</time>
      </trkpt>
      <trkpt lat="44.00144" lon="5.16549">
        <ele>241.80000305176</ele>
        <time>2013-04-07T07:51:48.000Z</time>
      </trkpt>
      <trkpt lat="44.00134" lon="5.16549">
        <ele>242.80000305176</ele>
        <time>2013-04-07T07:51:51.000Z</time>
      </trkpt>
      <trkpt lat="44.00131" lon="5.16549">
        <ele>243.19999694824</ele>
        <time>2013-04-07T07:51:52.000Z</time>
      </trkpt>
      <trkpt lat="44.00115" lon="5.1655">
        <ele>246</ele>
        <time>2013-04-07T07:51:58.000Z</time>
      </trkpt>
      <trkpt lat="44.00109" lon="5.16534">
        <ele>244.39999389648</ele>
        <time>2013-04-07T07:52:02.000Z</time>
      </trkpt>
      <trkpt lat="44.00106" lon="5.1653">
        <ele>244.19999694824</ele>
        <time>2013-04-07T07:52:03.000Z</time>
      </trkpt>
      <trkpt lat="44.00096" lon="5.16509">
        <ele>240.39999389648</ele>
        <time>2013-04-07T07:52:08.000Z</time>
      </trkpt>
      <trkpt lat="44.00097" lon="5.16491">
        <ele>235.80000305176</ele>
        <time>2013-04-07T07:52:13.000Z</time>
      </trkpt>
      <trkpt lat="44.0009" lon="5.16475">
        <ele>231</ele>
        <time>2013-04-07T07:52:18.000Z</time>
      </trkpt>
      <trkpt lat="44.00096" lon="5.16466">
        <ele>228.80000305176</ele>
        <time>2013-04-07T07:52:21.000Z</time>
      </trkpt>
      <trkpt lat="44.00108" lon="5.16457">
        <ele>225.60000610352</ele>
        <time>2013-04-07T07:52:25.000Z</time>
      </trkpt>
      <trkpt lat="44.0011" lon="5.16432">
        <ele>220.60000610352</ele>
        <time>2013-04-07T07:52:30.000Z</time>
      </trkpt>
      <trkpt lat="44.001" lon="5.16415">
        <ele>218.39999389648</ele>
        <time>2013-04-07T07:52:34.000Z</time>
      </trkpt>
      <trkpt lat="44.00091" lon="5.16403">
        <ele>216</ele>
        <time>2013-04-07T07:52:37.000Z</time>
      </trkpt>
      <trkpt lat="44.00082" lon="5.16395">
        <ele>213.80000305176</ele>
        <time>2013-04-07T07:52:40.000Z</time>
      </trkpt>
      <trkpt lat="44.00075" lon="5.16395">
        <ele>212.60000610352</ele>
        <time>2013-04-07T07:52:42.000Z</time>
      </trkpt>
      <trkpt lat="44.00066" lon="5.16399">
        <ele>212.19999694824</ele>
        <time>2013-04-07T07:52:44.000Z</time>
      </trkpt>
      <trkpt lat="44.00047" lon="5.16404">
        <ele>211.80000305176</ele>
        <time>2013-04-07T07:52:48.000Z</time>
      </trkpt>
      <trkpt lat="44.00039" lon="5.16399">
        <ele>211.60000610352</ele>
        <time>2013-04-07T07:52:50.000Z</time>
      </trkpt>
      <trkpt lat="44.00031" lon="5.16373">
        <ele>209</ele>
        <time>2013-04-07T07:52:54.000Z</time>
      </trkpt>
      <trkpt lat="44.00029" lon="5.16363">
        <ele>208</ele>
        <time>2013-04-07T07:52:55.000Z</time>
      </trkpt>
      <trkpt lat="44.0001" lon="5.16288">
        <ele>203.80000305176</ele>
        <time>2013-04-07T07:53:02.000Z</time>
      </trkpt>
      <trkpt lat="44.00003" lon="5.16268">
        <ele>202.60000610352</ele>
        <time>2013-04-07T07:53:04.000Z</time>
      </trkpt>
      <trkpt lat="43.99989" lon="5.1622">
        <ele>199.60000610352</ele>
        <time>2013-04-07T07:53:09.000Z</time>
      </trkpt>
      <trkpt lat="43.99974" lon="5.16199">
        <ele>197.80000305176</ele>
        <time>2013-04-07T07:53:13.000Z</time>
      </trkpt>
      <trkpt lat="43.99966" lon="5.16191">
        <ele>196.60000610352</ele>
        <time>2013-04-07T07:53:16.000Z</time>
      </trkpt>
      <trkpt lat="43.99966" lon="5.16173">
        <ele>194.60000610352</ele>
        <time>2013-04-07T07:53:21.000Z</time>
      </trkpt>
      <trkpt lat="43.99978" lon="5.16145">
        <ele>191.19999694824</ele>
        <time>2013-04-07T07:53:27.000Z</time>
      </trkpt>
      <trkpt lat="43.99984" lon="5.16122">
        <ele>190</ele>
        <time>2013-04-07T07:53:32.000Z</time>
      </trkpt>
      <trkpt lat="43.99984" lon="5.16105">
        <ele>189.60000610352</ele>
        <time>2013-04-07T07:53:36.000Z</time>
      </trkpt>
      <trkpt lat="43.99975" lon="5.1608">
        <ele>189.80000305176</ele>
        <time>2013-04-07T07:53:43.000Z</time>
      </trkpt>
      <trkpt lat="43.99961" lon="5.16068">
        <ele>192.60000610352</ele>
        <time>2013-04-07T07:53:48.000Z</time>
      </trkpt>
      <trkpt lat="43.99954" lon="5.16064">
        <ele>193.39999389648</ele>
        <time>2013-04-07T07:53:50.000Z</time>
      </trkpt>
      <trkpt lat="43.99935" lon="5.1606">
        <ele>195.80000305176</ele>
        <time>2013-04-07T07:53:55.000Z</time>
      </trkpt>
      <trkpt lat="43.99911" lon="5.16047">
        <ele>198.80000305176</ele>
        <time>2013-04-07T07:54:02.000Z</time>
      </trkpt>
      <trkpt lat="43.9989" lon="5.16038">
        <ele>199.19999694824</ele>
        <time>2013-04-07T07:54:08.000Z</time>
      </trkpt>
      <trkpt lat="43.9988" lon="5.16021">
        <ele>198.39999389648</ele>
        <time>2013-04-07T07:54:12.000Z</time>
      </trkpt>
      <trkpt lat="43.99853" lon="5.16001">
        <ele>197.19999694824</ele>
        <time>2013-04-07T07:54:19.000Z</time>
      </trkpt>
      <trkpt lat="43.99849" lon="5.15998">
        <ele>197</ele>
        <time>2013-04-07T07:54:20.000Z</time>
      </trkpt>
      <trkpt lat="43.9983" lon="5.15967">
        <ele>196.60000610352</ele>
        <time>2013-04-07T07:54:26.000Z</time>
      </trkpt>
      <trkpt lat="43.99825" lon="5.15955">
        <ele>196.80000305176</ele>
        <time>2013-04-07T07:54:28.000Z</time>
      </trkpt>
      <trkpt lat="43.99809" lon="5.15937">
        <ele>196.39999389648</ele>
        <time>2013-04-07T07:54:32.000Z</time>
      </trkpt>
      <trkpt lat="43.99787" lon="5.15919">
        <ele>195</ele>
        <time>2013-04-07T07:54:38.000Z</time>
      </trkpt>
      <trkpt lat="43.99781" lon="5.15908">
        <ele>195</ele>
        <time>2013-04-07T07:54:42.000Z</time>
      </trkpt>
      <trkpt lat="43.9977" lon="5.1589">
        <ele>196.19999694824</ele>
        <time>2013-04-07T07:54:48.000Z</time>
      </trkpt>
      <trkpt lat="43.99759" lon="5.15892">
        <ele>197</ele>
        <time>2013-04-07T07:54:52.000Z</time>
      </trkpt>
      <trkpt lat="43.99744" lon="5.15912">
        <ele>197.19999694824</ele>
        <time>2013-04-07T07:54:59.000Z</time>
      </trkpt>
      <trkpt lat="43.99734" lon="5.15942">
        <ele>197.39999389648</ele>
        <time>2013-04-07T07:55:07.000Z</time>
      </trkpt>
      <trkpt lat="43.99731" lon="5.15971">
        <ele>197.80000305176</ele>
        <time>2013-04-07T07:55:14.000Z</time>
      </trkpt>
      <trkpt lat="43.9973" lon="5.15994">
        <ele>199.39999389648</ele>
        <time>2013-04-07T07:55:20.000Z</time>
      </trkpt>
      <trkpt lat="43.99723" lon="5.16014">
        <ele>201.39999389648</ele>
        <time>2013-04-07T07:55:26.000Z</time>
      </trkpt>
      <trkpt lat="43.99718" lon="5.16027">
        <ele>203.39999389648</ele>
        <time>2013-04-07T07:55:33.000Z</time>
      </trkpt>
      <trkpt lat="43.99713" lon="5.16038">
        <ele>205.60000610352</ele>
        <time>2013-04-07T07:55:39.000Z</time>
      </trkpt>
      <trkpt lat="43.99707" lon="5.16048">
        <ele>208</ele>
        <time>2013-04-07T07:55:46.000Z</time>
      </trkpt>
      <trkpt lat="43.997" lon="5.16059">
        <ele>210.60000610352</ele>
        <time>2013-04-07T07:55:53.000Z</time>
      </trkpt>
      <trkpt lat="43.9969" lon="5.16062">
        <ele>212.19999694824</ele>
        <time>2013-04-07T07:56:00.000Z</time>
      </trkpt>
      <trkpt lat="43.99682" lon="5.16068">
        <ele>213.39999389648</ele>
        <time>2013-04-07T07:56:08.000Z</time>
      </trkpt>
      <trkpt lat="43.99673" lon="5.16075">
        <ele>215</ele>
        <time>2013-04-07T07:56:17.000Z</time>
      </trkpt>
      <trkpt lat="43.99664" lon="5.16085">
        <ele>217.39999389648</ele>
        <time>2013-04-07T07:56:26.000Z</time>
      </trkpt>
      <trkpt lat="43.99657" lon="5.1609">
        <ele>219</ele>
        <time>2013-04-07T07:56:33.000Z</time>
      </trkpt>
      <trkpt lat="43.99649" lon="5.16097">
        <ele>220.60000610352</ele>
        <time>2013-04-07T07:56:43.000Z</time>
      </trkpt>
      <trkpt lat="43.99643" lon="5.16102">
        <ele>221.39999389648</ele>
        <time>2013-04-07T07:56:50.000Z</time>
      </trkpt>
      <trkpt lat="43.99635" lon="5.1611">
        <ele>222.39999389648</ele>
        <time>2013-04-07T07:56:59.000Z</time>
      </trkpt>
      <trkpt lat="43.99626" lon="5.16118">
        <ele>223.80000305176</ele>
        <time>2013-04-07T07:57:08.000Z</time>
      </trkpt>
      <trkpt lat="43.99623" lon="5.16122">
        <ele>225</ele>
        <time>2013-04-07T07:57:12.000Z</time>
      </trkpt>
      <trkpt lat="43.99618" lon="5.16129">
        <ele>225.39999389648</ele>
        <time>2013-04-07T07:57:17.000Z</time>
      </trkpt>
      <trkpt lat="43.99607" lon="5.16141">
        <ele>229</ele>
        <time>2013-04-07T07:57:28.000Z</time>
      </trkpt>
      <trkpt lat="43.99598" lon="5.16152">
        <ele>231.80000305176</ele>
        <time>2013-04-07T07:57:37.000Z</time>
      </trkpt>
      <trkpt lat="43.99592" lon="5.16159">
        <ele>232.39999389648</ele>
        <time>2013-04-07T07:57:44.000Z</time>
      </trkpt>
      <trkpt lat="43.99585" lon="5.16167">
        <ele>233.60000610352</ele>
        <time>2013-04-07T07:57:52.000Z</time>
      </trkpt>
      <trkpt lat="43.99576" lon="5.16176">
        <ele>235.19999694824</ele>
        <time>2013-04-07T07:58:00.000Z</time>
      </trkpt>
      <trkpt lat="43.9957" lon="5.16184">
        <ele>236.80000305176</ele>
        <time>2013-04-07T07:58:08.000Z</time>
      </trkpt>
      <trkpt lat="43.9956" lon="5.16196">
        <ele>239.60000610352</ele>
        <time>2013-04-07T07:58:16.000Z</time>
      </trkpt>
      <trkpt lat="43.99557" lon="5.16204">
        <ele>242.39999389648</ele>
        <time>2013-04-07T07:58:21.000Z</time>
      </trkpt>
      <trkpt lat="43.99553" lon="5.16214">
        <ele>246.39999389648</ele>
        <time>2013-04-07T07:58:29.000Z</time>
      </trkpt>
      <trkpt lat="43.99547" lon="5.16222">
        <ele>247.80000305176</ele>
        <time>2013-04-07T07:58:37.000Z</time>
      </trkpt>
      <trkpt lat="43.99542" lon="5.1623">
        <ele>248</ele>
        <time>2013-04-07T07:58:44.000Z</time>
      </trkpt>
      <trkpt lat="43.99535" lon="5.16239">
        <ele>247.80000305176</ele>
        <time>2013-04-07T07:58:51.000Z</time>
      </trkpt>
      <trkpt lat="43.99529" lon="5.1625">
        <ele>249.80000305176</ele>
        <time>2013-04-07T07:58:59.000Z</time>
      </trkpt>
      <trkpt lat="43.99525" lon="5.16257">
        <ele>250.60000610352</ele>
        <time>2013-04-07T07:59:04.000Z</time>
      </trkpt>
      <trkpt lat="43.99521" lon="5.16267">
        <ele>251.19999694824</ele>
        <time>2013-04-07T07:59:12.000Z</time>
      </trkpt>
      <trkpt lat="43.9952" lon="5.16274">
        <ele>251.80000305176</ele>
        <time>2013-04-07T07:59:18.000Z</time>
      </trkpt>
      <trkpt lat="43.99518" lon="5.16282">
        <ele>253</ele>
        <time>2013-04-07T07:59:27.000Z</time>
      </trkpt>
      <trkpt lat="43.99517" lon="5.1629">
        <ele>253.80000305176</ele>
        <time>2013-04-07T07:59:35.000Z</time>
      </trkpt>
      <trkpt lat="43.99516" lon="5.16295">
        <ele>254.19999694824</ele>
        <time>2013-04-07T07:59:41.000Z</time>
      </trkpt>
      <trkpt lat="43.99516" lon="5.16299">
        <ele>254.39999389648</ele>
        <time>2013-04-07T07:59:45.000Z</time>
      </trkpt>
      <trkpt lat="43.99515" lon="5.16308">
        <ele>256</ele>
        <time>2013-04-07T07:59:54.000Z</time>
      </trkpt>
      <trkpt lat="43.99513" lon="5.1632">
        <ele>257.60000610352</ele>
        <time>2013-04-07T08:00:05.000Z</time>
      </trkpt>
      <trkpt lat="43.99512" lon="5.16332">
        <ele>258.60000610352</ele>
        <time>2013-04-07T08:00:14.000Z</time>
      </trkpt>
      <trkpt lat="43.99511" lon="5.1634">
        <ele>258.79998779297</ele>
        <time>2013-04-07T08:00:22.000Z</time>
      </trkpt>
      <trkpt lat="43.9951" lon="5.16351">
        <ele>259.60000610352</ele>
        <time>2013-04-07T08:00:29.000Z</time>
      </trkpt>
      <trkpt lat="43.99508" lon="5.1636">
        <ele>260</ele>
        <time>2013-04-07T08:00:34.000Z</time>
      </trkpt>
      <trkpt lat="43.99503" lon="5.16371">
        <ele>259.20001220703</ele>
        <time>2013-04-07T08:00:41.000Z</time>
      </trkpt>
      <trkpt lat="43.99502" lon="5.16372">
        <ele>259.20001220703</ele>
        <time>2013-04-07T08:00:42.000Z</time>
      </trkpt>
      <trkpt lat="43.99495" lon="5.16388">
        <ele>258.79998779297</ele>
        <time>2013-04-07T08:00:49.000Z</time>
      </trkpt>
      <trkpt lat="43.9949" lon="5.16404">
        <ele>257.79998779297</ele>
        <time>2013-04-07T08:00:56.000Z</time>
      </trkpt>
      <trkpt lat="43.99486" lon="5.16422">
        <ele>256.79998779297</ele>
        <time>2013-04-07T08:01:03.000Z</time>
      </trkpt>
      <trkpt lat="43.99482" lon="5.16437">
        <ele>256.79998779297</ele>
        <time>2013-04-07T08:01:10.000Z</time>
      </trkpt>
      <trkpt lat="43.9948" lon="5.16449">
        <ele>257</ele>
        <time>2013-04-07T08:01:17.000Z</time>
      </trkpt>
      <trkpt lat="43.99475" lon="5.16467">
        <ele>257.79998779297</ele>
        <time>2013-04-07T08:01:26.000Z</time>
      </trkpt>
      <trkpt lat="43.99469" lon="5.16482">
        <ele>258.79998779297</ele>
        <time>2013-04-07T08:01:34.000Z</time>
      </trkpt>
      <trkpt lat="43.99466" lon="5.16503">
        <ele>261.20001220703</ele>
        <time>2013-04-07T08:01:45.000Z</time>
      </trkpt>
      <trkpt lat="43.99466" lon="5.16515">
        <ele>262.20001220703</ele>
        <time>2013-04-07T08:01:53.000Z</time>
      </trkpt>
      <trkpt lat="43.99465" lon="5.16531">
        <ele>264</ele>
        <time>2013-04-07T08:02:03.000Z</time>
      </trkpt>
      <trkpt lat="43.99464" lon="5.1655">
        <ele>265.20001220703</ele>
        <time>2013-04-07T08:02:14.000Z</time>
      </trkpt>
      <trkpt lat="43.99461" lon="5.16566">
        <ele>266.20001220703</ele>
        <time>2013-04-07T08:02:23.000Z</time>
      </trkpt>
      <trkpt lat="43.99457" lon="5.16582">
        <ele>267.79998779297</ele>
        <time>2013-04-07T08:02:31.000Z</time>
      </trkpt>
      <trkpt lat="43.9945" lon="5.16598">
        <ele>270</ele>
        <time>2013-04-07T08:02:40.000Z</time>
      </trkpt>
      <trkpt lat="43.99445" lon="5.16614">
        <ele>271.79998779297</ele>
        <time>2013-04-07T08:02:48.000Z</time>
      </trkpt>
      <trkpt lat="43.99445" lon="5.1663">
        <ele>273.39999389648</ele>
        <time>2013-04-07T08:02:57.000Z</time>
      </trkpt>
      <trkpt lat="43.99449" lon="5.16649">
        <ele>276.60000610352</ele>
        <time>2013-04-07T08:03:08.000Z</time>
      </trkpt>
      <trkpt lat="43.99455" lon="5.16662">
        <ele>278.60000610352</ele>
        <time>2013-04-07T08:03:15.000Z</time>
      </trkpt>
      <trkpt lat="43.99459" lon="5.16674">
        <ele>277.79998779297</ele>
        <time>2013-04-07T08:03:18.000Z</time>
      </trkpt>
      <trkpt lat="43.99465" lon="5.16706">
        <ele>276.79998779297</ele>
        <time>2013-04-07T08:03:23.000Z</time>
      </trkpt>
      <trkpt lat="43.9947" lon="5.16728">
        <ele>276.20001220703</ele>
        <time>2013-04-07T08:03:28.000Z</time>
      </trkpt>
      <trkpt lat="43.99472" lon="5.16756">
        <ele>274.39999389648</ele>
        <time>2013-04-07T08:03:36.000Z</time>
      </trkpt>
      <trkpt lat="43.99469" lon="5.1677">
        <ele>276.39999389648</ele>
        <time>2013-04-07T08:03:42.000Z</time>
      </trkpt>
      <trkpt lat="43.99467" lon="5.16784">
        <ele>278.20001220703</ele>
        <time>2013-04-07T08:03:49.000Z</time>
      </trkpt>
      <trkpt lat="43.99463" lon="5.16796">
        <ele>279.60000610352</ele>
        <time>2013-04-07T08:03:56.000Z</time>
      </trkpt>
      <trkpt lat="43.99461" lon="5.16808">
        <ele>282.20001220703</ele>
        <time>2013-04-07T08:04:02.000Z</time>
      </trkpt>
      <trkpt lat="43.9947" lon="5.16812">
        <ele>285</ele>
        <time>2013-04-07T08:04:08.000Z</time>
      </trkpt>
      <trkpt lat="43.99482" lon="5.16815">
        <ele>286.79998779297</ele>
        <time>2013-04-07T08:04:18.000Z</time>
      </trkpt>
      <trkpt lat="43.99491" lon="5.16821">
        <ele>288.39999389648</ele>
        <time>2013-04-07T08:04:26.000Z</time>
      </trkpt>
      <trkpt lat="43.995" lon="5.16836">
        <ele>291</ele>
        <time>2013-04-07T08:04:35.000Z</time>
      </trkpt>
      <trkpt lat="43.99506" lon="5.16849">
        <ele>292</ele>
        <time>2013-04-07T08:04:42.000Z</time>
      </trkpt>
      <trkpt lat="43.99512" lon="5.16864">
        <ele>292.79998779297</ele>
        <time>2013-04-07T08:04:51.000Z</time>
      </trkpt>
      <trkpt lat="43.99518" lon="5.16879">
        <ele>292.39999389648</ele>
        <time>2013-04-07T08:05:00.000Z</time>
      </trkpt>
      <trkpt lat="43.99526" lon="5.16892">
        <ele>292.39999389648</ele>
        <time>2013-04-07T08:05:08.000Z</time>
      </trkpt>
      <trkpt lat="43.99539" lon="5.16902">
        <ele>291</ele>
        <time>2013-04-07T08:05:14.000Z</time>
      </trkpt>
      <trkpt lat="43.99564" lon="5.16922">
        <ele>289.60000610352</ele>
        <time>2013-04-07T08:05:21.000Z</time>
      </trkpt>
      <trkpt lat="43.99599" lon="5.16952">
        <ele>288</ele>
        <time>2013-04-07T08:05:29.000Z</time>
      </trkpt>
      <trkpt lat="43.99608" lon="5.16958">
        <ele>287.60000610352</ele>
        <time>2013-04-07T08:05:31.000Z</time>
      </trkpt>
      <trkpt lat="43.99626" lon="5.16976">
        <ele>286.79998779297</ele>
        <time>2013-04-07T08:05:37.000Z</time>
      </trkpt>
      <trkpt lat="43.99641" lon="5.16993">
        <ele>286.39999389648</ele>
        <time>2013-04-07T08:05:43.000Z</time>
      </trkpt>
      <trkpt lat="43.99649" lon="5.17001">
        <ele>285.60000610352</ele>
        <time>2013-04-07T08:05:46.000Z</time>
      </trkpt>
      <trkpt lat="43.99658" lon="5.1702">
        <ele>284</ele>
        <time>2013-04-07T08:05:50.000Z</time>
      </trkpt>
      <trkpt lat="43.99654" lon="5.1705">
        <ele>282.20001220703</ele>
        <time>2013-04-07T08:05:56.000Z</time>
      </trkpt>
      <trkpt lat="43.99644" lon="5.17082">
        <ele>281.39999389648</ele>
        <time>2013-04-07T08:06:04.000Z</time>
      </trkpt>
      <trkpt lat="43.99632" lon="5.17105">
        <ele>282</ele>
        <time>2013-04-07T08:06:11.000Z</time>
      </trkpt>
      <trkpt lat="43.99613" lon="5.17132">
        <ele>283.60000610352</ele>
        <time>2013-04-07T08:06:22.000Z</time>
      </trkpt>
      <trkpt lat="43.99592" lon="5.17167">
        <ele>285.20001220703</ele>
        <time>2013-04-07T08:06:34.000Z</time>
      </trkpt>
      <trkpt lat="43.99573" lon="5.17193">
        <ele>285.60000610352</ele>
        <time>2013-04-07T08:06:43.000Z</time>
      </trkpt>
      <trkpt lat="43.99562" lon="5.17206">
        <ele>285.20001220703</ele>
        <time>2013-04-07T08:06:49.000Z</time>
      </trkpt>
      <trkpt lat="43.99545" lon="5.17227">
        <ele>285</ele>
        <time>2013-04-07T08:06:56.000Z</time>
      </trkpt>
      <trkpt lat="43.99531" lon="5.17239">
        <ele>284</ele>
        <time>2013-04-07T08:07:00.000Z</time>
      </trkpt>
      <trkpt lat="43.99522" lon="5.17256">
        <ele>283</ele>
        <time>2013-04-07T08:07:04.000Z</time>
      </trkpt>
      <trkpt lat="43.99525" lon="5.17279">
        <ele>283</ele>
        <time>2013-04-07T08:07:09.000Z</time>
      </trkpt>
      <trkpt lat="43.99528" lon="5.17286">
        <ele>283.79998779297</ele>
        <time>2013-04-07T08:07:11.000Z</time>
      </trkpt>
      <trkpt lat="43.99529" lon="5.17305">
        <ele>285.20001220703</ele>
        <time>2013-04-07T08:07:17.000Z</time>
      </trkpt>
      <trkpt lat="43.99527" lon="5.17319">
        <ele>287</ele>
        <time>2013-04-07T08:07:23.000Z</time>
      </trkpt>
      <trkpt lat="43.99518" lon="5.1732">
        <ele>290.39999389648</ele>
        <time>2013-04-07T08:07:30.000Z</time>
      </trkpt>
      <trkpt lat="43.99517" lon="5.17319">
        <ele>290.60000610352</ele>
        <time>2013-04-07T08:07:31.000Z</time>
      </trkpt>
      <trkpt lat="43.99512" lon="5.17304">
        <ele>291.39999389648</ele>
        <time>2013-04-07T08:07:39.000Z</time>
      </trkpt>
      <trkpt lat="43.99505" lon="5.17295">
        <ele>294</ele>
        <time>2013-04-07T08:07:46.000Z</time>
      </trkpt>
      <trkpt lat="43.99503" lon="5.17296">
        <ele>294.39999389648</ele>
        <time>2013-04-07T08:07:47.000Z</time>
      </trkpt>
      <trkpt lat="43.99501" lon="5.17303">
        <ele>295.39999389648</ele>
        <time>2013-04-07T08:07:52.000Z</time>
      </trkpt>
      <trkpt lat="43.99503" lon="5.17319">
        <ele>295</ele>
        <time>2013-04-07T08:08:00.000Z</time>
      </trkpt>
      <trkpt lat="43.99506" lon="5.1733">
        <ele>295</ele>
        <time>2013-04-07T08:08:06.000Z</time>
      </trkpt>
      <trkpt lat="43.9951" lon="5.1735">
        <ele>294.20001220703</ele>
        <time>2013-04-07T08:08:12.000Z</time>
      </trkpt>
      <trkpt lat="43.99509" lon="5.17362">
        <ele>294.39999389648</ele>
        <time>2013-04-07T08:08:16.000Z</time>
      </trkpt>
      <trkpt lat="43.99502" lon="5.17372">
        <ele>296.60000610352</ele>
        <time>2013-04-07T08:08:23.000Z</time>
      </trkpt>
      <trkpt lat="43.99494" lon="5.17375">
        <ele>299.39999389648</ele>
        <time>2013-04-07T08:08:30.000Z</time>
      </trkpt>
      <trkpt lat="43.99486" lon="5.17381">
        <ele>302.20001220703</ele>
        <time>2013-04-07T08:08:37.000Z</time>
      </trkpt>
      <trkpt lat="43.99479" lon="5.17391">
        <ele>304.60000610352</ele>
        <time>2013-04-07T08:08:45.000Z</time>
      </trkpt>
      <trkpt lat="43.99476" lon="5.17395">
        <ele>305.39999389648</ele>
        <time>2013-04-07T08:08:49.000Z</time>
      </trkpt>
      <trkpt lat="43.99469" lon="5.17401">
        <ele>306</ele>
        <time>2013-04-07T08:08:57.000Z</time>
      </trkpt>
      <trkpt lat="43.99467" lon="5.17404">
        <ele>306.20001220703</ele>
        <time>2013-04-07T08:09:00.000Z</time>
      </trkpt>
      <trkpt lat="43.99465" lon="5.17407">
        <ele>306.39999389648</ele>
        <time>2013-04-07T08:09:04.000Z</time>
      </trkpt>
      <trkpt lat="43.99464" lon="5.1741">
        <ele>306.20001220703</ele>
        <time>2013-04-07T08:09:08.000Z</time>
      </trkpt>
      <trkpt lat="43.99462" lon="5.17412">
        <ele>306.60000610352</ele>
        <time>2013-04-07T08:09:13.000Z</time>
      </trkpt>
      <trkpt lat="43.99457" lon="5.17422">
        <ele>306.79998779297</ele>
        <time>2013-04-07T08:09:21.000Z</time>
      </trkpt>
      <trkpt lat="43.99455" lon="5.17426">
        <ele>306</ele>
        <time>2013-04-07T08:09:24.000Z</time>
      </trkpt>
      <trkpt lat="43.99449" lon="5.17431">
        <ele>306.79998779297</ele>
        <time>2013-04-07T08:09:31.000Z</time>
      </trkpt>
      <trkpt lat="43.99441" lon="5.17435">
        <ele>309.60000610352</ele>
        <time>2013-04-07T08:09:40.000Z</time>
      </trkpt>
      <trkpt lat="43.99434" lon="5.17437">
        <ele>311.60000610352</ele>
        <time>2013-04-07T08:09:48.000Z</time>
      </trkpt>
      <trkpt lat="43.99427" lon="5.17438">
        <ele>312.79998779297</ele>
        <time>2013-04-07T08:09:56.000Z</time>
      </trkpt>
      <trkpt lat="43.99418" lon="5.17439">
        <ele>313.39999389648</ele>
        <time>2013-04-07T08:10:04.000Z</time>
      </trkpt>
      <trkpt lat="43.99412" lon="5.17437">
        <ele>315</ele>
        <time>2013-04-07T08:10:13.000Z</time>
      </trkpt>
      <trkpt lat="43.99405" lon="5.17445">
        <ele>316.39999389648</ele>
        <time>2013-04-07T08:10:22.000Z</time>
      </trkpt>
      <trkpt lat="43.99397" lon="5.17456">
        <ele>317.79998779297</ele>
        <time>2013-04-07T08:10:29.000Z</time>
      </trkpt>
      <trkpt lat="43.99385" lon="5.17472">
        <ele>320</ele>
        <time>2013-04-07T08:10:38.000Z</time>
      </trkpt>
      <trkpt lat="43.99375" lon="5.1749">
        <ele>322.60000610352</ele>
        <time>2013-04-07T08:10:48.000Z</time>
      </trkpt>
      <trkpt lat="43.99364" lon="5.175">
        <ele>325.20001220703</ele>
        <time>2013-04-07T08:10:56.000Z</time>
      </trkpt>
      <trkpt lat="43.99357" lon="5.17514">
        <ele>327.39999389648</ele>
        <time>2013-04-07T08:11:03.000Z</time>
      </trkpt>
      <trkpt lat="43.99349" lon="5.17532">
        <ele>327.79998779297</ele>
        <time>2013-04-07T08:11:11.000Z</time>
      </trkpt>
      <trkpt lat="43.99342" lon="5.17543">
        <ele>328.79998779297</ele>
        <time>2013-04-07T08:11:18.000Z</time>
      </trkpt>
      <trkpt lat="43.99334" lon="5.17547">
        <ele>331</ele>
        <time>2013-04-07T08:11:25.000Z</time>
      </trkpt>
      <trkpt lat="43.99329" lon="5.17553">
        <ele>332.79998779297</ele>
        <time>2013-04-07T08:11:30.000Z</time>
      </trkpt>
      <trkpt lat="43.99328" lon="5.17574">
        <ele>331.60000610352</ele>
        <time>2013-04-07T08:11:35.000Z</time>
      </trkpt>
      <trkpt lat="43.99331" lon="5.17595">
        <ele>331</ele>
        <time>2013-04-07T08:11:39.000Z</time>
      </trkpt>
      <trkpt lat="43.9934" lon="5.17608">
        <ele>331.39999389648</ele>
        <time>2013-04-07T08:11:44.000Z</time>
      </trkpt>
      <trkpt lat="43.99349" lon="5.17617">
        <ele>333.20001220703</ele>
        <time>2013-04-07T08:11:52.000Z</time>
      </trkpt>
      <trkpt lat="43.99358" lon="5.17622">
        <ele>336</ele>
        <time>2013-04-07T08:12:01.000Z</time>
      </trkpt>
      <trkpt lat="43.99367" lon="5.17622">
        <ele>340</ele>
        <time>2013-04-07T08:12:10.000Z</time>
      </trkpt>
      <trkpt lat="43.99369" lon="5.17622">
        <ele>341.20001220703</ele>
        <time>2013-04-07T08:12:12.000Z</time>
      </trkpt>
      <trkpt lat="43.99375" lon="5.17621">
        <ele>344.39999389648</ele>
        <time>2013-04-07T08:12:20.000Z</time>
      </trkpt>
      <trkpt lat="43.99386" lon="5.17621">
        <ele>343.20001220703</ele>
        <time>2013-04-07T08:12:29.000Z</time>
      </trkpt>
      <trkpt lat="43.99399" lon="5.17622">
        <ele>344</ele>
        <time>2013-04-07T08:12:39.000Z</time>
      </trkpt>
      <trkpt lat="43.99414" lon="5.17625">
        <ele>344.20001220703</ele>
        <time>2013-04-07T08:12:50.000Z</time>
      </trkpt>
      <trkpt lat="43.99424" lon="5.17628">
        <ele>345</ele>
        <time>2013-04-07T08:12:57.000Z</time>
      </trkpt>
      <trkpt lat="43.99437" lon="5.17632">
        <ele>345.60000610352</ele>
        <time>2013-04-07T08:13:05.000Z</time>
      </trkpt>
      <trkpt lat="43.99455" lon="5.17639">
        <ele>345.60000610352</ele>
        <time>2013-04-07T08:13:14.000Z</time>
      </trkpt>
      <trkpt lat="43.99468" lon="5.17642">
        <ele>344.60000610352</ele>
        <time>2013-04-07T08:13:19.000Z</time>
      </trkpt>
      <trkpt lat="43.99488" lon="5.17653">
        <ele>343.79998779297</ele>
        <time>2013-04-07T08:13:25.000Z</time>
      </trkpt>
      <trkpt lat="43.99495" lon="5.17676">
        <ele>344.20001220703</ele>
        <time>2013-04-07T08:13:30.000Z</time>
      </trkpt>
      <trkpt lat="43.99504" lon="5.17706">
        <ele>342</ele>
        <time>2013-04-07T08:13:36.000Z</time>
      </trkpt>
      <trkpt lat="43.9951" lon="5.1773">
        <ele>340.60000610352</ele>
        <time>2013-04-07T08:13:39.000Z</time>
      </trkpt>
      <trkpt lat="43.99529" lon="5.1775">
        <ele>338.39999389648</ele>
        <time>2013-04-07T08:13:43.000Z</time>
      </trkpt>
      <trkpt lat="43.99556" lon="5.17753">
        <ele>337.39999389648</ele>
        <time>2013-04-07T08:13:47.000Z</time>
      </trkpt>
      <trkpt lat="43.99578" lon="5.17771">
        <ele>335</ele>
        <time>2013-04-07T08:13:51.000Z</time>
      </trkpt>
      <trkpt lat="43.99578" lon="5.17795">
        <ele>332.20001220703</ele>
        <time>2013-04-07T08:13:54.000Z</time>
      </trkpt>
      <trkpt lat="43.99569" lon="5.17821">
        <ele>329.79998779297</ele>
        <time>2013-04-07T08:13:57.000Z</time>
      </trkpt>
      <trkpt lat="43.99561" lon="5.17881">
        <ele>326.39999389648</ele>
        <time>2013-04-07T08:14:03.000Z</time>
      </trkpt>
      <trkpt lat="43.99568" lon="5.17887">
        <ele>326.60000610352</ele>
        <time>2013-04-07T08:14:06.000Z</time>
      </trkpt>
      <trkpt lat="43.99572" lon="5.17883">
        <ele>326.79998779297</ele>
        <time>2013-04-07T08:14:08.000Z</time>
      </trkpt>
      <trkpt lat="43.99593" lon="5.17875">
        <ele>328.60000610352</ele>
        <time>2013-04-07T08:14:16.000Z</time>
      </trkpt>
      <trkpt lat="43.99616" lon="5.17868">
        <ele>331.39999389648</ele>
        <time>2013-04-07T08:14:27.000Z</time>
      </trkpt>
      <trkpt lat="43.99633" lon="5.17857">
        <ele>334.20001220703</ele>
        <time>2013-04-07T08:14:36.000Z</time>
      </trkpt>
      <trkpt lat="43.99648" lon="5.17844">
        <ele>335.79998779297</ele>
        <time>2013-04-07T08:14:45.000Z</time>
      </trkpt>
      <trkpt lat="43.99659" lon="5.17833">
        <ele>336.79998779297</ele>
        <time>2013-04-07T08:14:54.000Z</time>
      </trkpt>
      <trkpt lat="43.99673" lon="5.1782">
        <ele>338.20001220703</ele>
        <time>2013-04-07T08:15:04.000Z</time>
      </trkpt>
      <trkpt lat="43.99688" lon="5.17811">
        <ele>340.60000610352</ele>
        <time>2013-04-07T08:15:14.000Z</time>
      </trkpt>
      <trkpt lat="43.99704" lon="5.17801">
        <ele>342.79998779297</ele>
        <time>2013-04-07T08:15:25.000Z</time>
      </trkpt>
      <trkpt lat="43.9972" lon="5.17794">
        <ele>344.60000610352</ele>
        <time>2013-04-07T08:15:36.000Z</time>
      </trkpt>
      <trkpt lat="43.99738" lon="5.17788">
        <ele>346.60000610352</ele>
        <time>2013-04-07T08:15:48.000Z</time>
      </trkpt>
      <trkpt lat="43.99751" lon="5.17783">
        <ele>347.60000610352</ele>
        <time>2013-04-07T08:15:56.000Z</time>
      </trkpt>
      <trkpt lat="43.99767" lon="5.17783">
        <ele>348.60000610352</ele>
        <time>2013-04-07T08:16:05.000Z</time>
      </trkpt>
      <trkpt lat="43.99769" lon="5.17785">
        <ele>348.60000610352</ele>
        <time>2013-04-07T08:16:06.000Z</time>
      </trkpt>
      <trkpt lat="43.99768" lon="5.17799">
        <ele>349.20001220703</ele>
        <time>2013-04-07T08:16:12.000Z</time>
      </trkpt>
      <trkpt lat="43.99764" lon="5.17806">
        <ele>349.39999389648</ele>
        <time>2013-04-07T08:16:16.000Z</time>
      </trkpt>
      <trkpt lat="43.99752" lon="5.17826">
        <ele>350.60000610352</ele>
        <time>2013-04-07T08:16:27.000Z</time>
      </trkpt>
      <trkpt lat="43.99746" lon="5.17842">
        <ele>352</ele>
        <time>2013-04-07T08:16:35.000Z</time>
      </trkpt>
      <trkpt lat="43.99745" lon="5.17864">
        <ele>354.39999389648</ele>
        <time>2013-04-07T08:16:45.000Z</time>
      </trkpt>
      <trkpt lat="43.99744" lon="5.17881">
        <ele>356.39999389648</ele>
        <time>2013-04-07T08:16:52.000Z</time>
      </trkpt>
      <trkpt lat="43.99741" lon="5.179">
        <ele>357.79998779297</ele>
        <time>2013-04-07T08:17:00.000Z</time>
      </trkpt>
      <trkpt lat="43.99734" lon="5.17919">
        <ele>357.79998779297</ele>
        <time>2013-04-07T08:17:10.000Z</time>
      </trkpt>
      <trkpt lat="43.99725" lon="5.17934">
        <ele>359.39999389648</ele>
        <time>2013-04-07T08:17:19.000Z</time>
      </trkpt>
      <trkpt lat="43.99714" lon="5.17952">
        <ele>362.20001220703</ele>
        <time>2013-04-07T08:17:29.000Z</time>
      </trkpt>
      <trkpt lat="43.99708" lon="5.17965">
        <ele>364</ele>
        <time>2013-04-07T08:17:37.000Z</time>
      </trkpt>
      <trkpt lat="43.99697" lon="5.17983">
        <ele>366</ele>
        <time>2013-04-07T08:17:48.000Z</time>
      </trkpt>
      <trkpt lat="43.99689" lon="5.17997">
        <ele>367</ele>
        <time>2013-04-07T08:17:57.000Z</time>
      </trkpt>
      <trkpt lat="43.99683" lon="5.18013">
        <ele>369.39999389648</ele>
        <time>2013-04-07T08:18:05.000Z</time>
      </trkpt>
      <trkpt lat="43.99674" lon="5.18039">
        <ele>371.79998779297</ele>
        <time>2013-04-07T08:18:16.000Z</time>
      </trkpt>
      <trkpt lat="43.9967" lon="5.18056">
        <ele>373</ele>
        <time>2013-04-07T08:18:24.000Z</time>
      </trkpt>
      <trkpt lat="43.99665" lon="5.18076">
        <ele>373.79998779297</ele>
        <time>2013-04-07T08:18:34.000Z</time>
      </trkpt>
      <trkpt lat="43.9966" lon="5.18097">
        <ele>375.39999389648</ele>
        <time>2013-04-07T08:18:44.000Z</time>
      </trkpt>
      <trkpt lat="43.99654" lon="5.18117">
        <ele>377</ele>
        <time>2013-04-07T08:18:54.000Z</time>
      </trkpt>
      <trkpt lat="43.99648" lon="5.18137">
        <ele>378.79998779297</ele>
        <time>2013-04-07T08:19:04.000Z</time>
      </trkpt>
      <trkpt lat="43.99642" lon="5.18156">
        <ele>381.60000610352</ele>
        <time>2013-04-07T08:19:13.000Z</time>
      </trkpt>
      <trkpt lat="43.99637" lon="5.1817">
        <ele>383</ele>
        <time>2013-04-07T08:19:21.000Z</time>
      </trkpt>
      <trkpt lat="43.99632" lon="5.18184">
        <ele>384.79998779297</ele>
        <time>2013-04-07T08:19:29.000Z</time>
      </trkpt>
      <trkpt lat="43.99628" lon="5.18201">
        <ele>384.39999389648</ele>
        <time>2013-04-07T08:19:37.000Z</time>
      </trkpt>
      <trkpt lat="43.99634" lon="5.18219">
        <ele>385.20001220703</ele>
        <time>2013-04-07T08:19:45.000Z</time>
      </trkpt>
      <trkpt lat="43.99645" lon="5.18233">
        <ele>386.79998779297</ele>
        <time>2013-04-07T08:19:53.000Z</time>
      </trkpt>
      <trkpt lat="43.99659" lon="5.18252">
        <ele>388.20001220703</ele>
        <time>2013-04-07T08:20:04.000Z</time>
      </trkpt>
      <trkpt lat="43.99665" lon="5.18272">
        <ele>389.60000610352</ele>
        <time>2013-04-07T08:20:13.000Z</time>
      </trkpt>
      <trkpt lat="43.99661" lon="5.18285">
        <ele>390.20001220703</ele>
        <time>2013-04-07T08:20:20.000Z</time>
      </trkpt>
      <trkpt lat="43.99655" lon="5.18297">
        <ele>390.60000610352</ele>
        <time>2013-04-07T08:20:27.000Z</time>
      </trkpt>
      <trkpt lat="43.99648" lon="5.18313">
        <ele>391.20001220703</ele>
        <time>2013-04-07T08:20:36.000Z</time>
      </trkpt>
      <trkpt lat="43.99642" lon="5.18326">
        <ele>392</ele>
        <time>2013-04-07T08:20:44.000Z</time>
      </trkpt>
      <trkpt lat="43.99637" lon="5.18341">
        <ele>393.60000610352</ele>
        <time>2013-04-07T08:20:53.000Z</time>
      </trkpt>
      <trkpt lat="43.99627" lon="5.18355">
        <ele>394.39999389648</ele>
        <time>2013-04-07T08:21:02.000Z</time>
      </trkpt>
      <trkpt lat="43.99619" lon="5.18365">
        <ele>395.39999389648</ele>
        <time>2013-04-07T08:21:10.000Z</time>
      </trkpt>
      <trkpt lat="43.99607" lon="5.18377">
        <ele>397.20001220703</ele>
        <time>2013-04-07T08:21:20.000Z</time>
      </trkpt>
      <trkpt lat="43.99596" lon="5.18388">
        <ele>399</ele>
        <time>2013-04-07T08:21:30.000Z</time>
      </trkpt>
      <trkpt lat="43.99581" lon="5.184">
        <ele>401</ele>
        <time>2013-04-07T08:21:41.000Z</time>
      </trkpt>
      <trkpt lat="43.99571" lon="5.18412">
        <ele>402.39999389648</ele>
        <time>2013-04-07T08:21:50.000Z</time>
      </trkpt>
      <trkpt lat="43.99559" lon="5.18429">
        <ele>403.60000610352</ele>
        <time>2013-04-07T08:22:00.000Z</time>
      </trkpt>
      <trkpt lat="43.9955" lon="5.18443">
        <ele>405</ele>
        <time>2013-04-07T08:22:09.000Z</time>
      </trkpt>
      <trkpt lat="43.99538" lon="5.18457">
        <ele>406.39999389648</ele>
        <time>2013-04-07T08:22:19.000Z</time>
      </trkpt>
      <trkpt lat="43.99528" lon="5.18468">
        <ele>407</ele>
        <time>2013-04-07T08:22:28.000Z</time>
      </trkpt>
      <trkpt lat="43.99515" lon="5.18475">
        <ele>408.39999389648</ele>
        <time>2013-04-07T08:22:38.000Z</time>
      </trkpt>
      <trkpt lat="43.99501" lon="5.18476">
        <ele>410.39999389648</ele>
        <time>2013-04-07T08:22:47.000Z</time>
      </trkpt>
      <trkpt lat="43.99485" lon="5.18472">
        <ele>412</ele>
        <time>2013-04-07T08:22:56.000Z</time>
      </trkpt>
      <trkpt lat="43.9947" lon="5.18468">
        <ele>414</ele>
        <time>2013-04-07T08:23:05.000Z</time>
      </trkpt>
      <trkpt lat="43.99455" lon="5.18465">
        <ele>415.79998779297</ele>
        <time>2013-04-07T08:23:14.000Z</time>
      </trkpt>
      <trkpt lat="43.99439" lon="5.18464">
        <ele>417.39999389648</ele>
        <time>2013-04-07T08:23:23.000Z</time>
      </trkpt>
      <trkpt lat="43.99423" lon="5.1847">
        <ele>419.60000610352</ele>
        <time>2013-04-07T08:23:34.000Z</time>
      </trkpt>
      <trkpt lat="43.99412" lon="5.18478">
        <ele>421</ele>
        <time>2013-04-07T08:23:42.000Z</time>
      </trkpt>
      <trkpt lat="43.99402" lon="5.18486">
        <ele>422.20001220703</ele>
        <time>2013-04-07T08:23:50.000Z</time>
      </trkpt>
      <trkpt lat="43.99387" lon="5.18501">
        <ele>423.39999389648</ele>
        <time>2013-04-07T08:24:01.000Z</time>
      </trkpt>
      <trkpt lat="43.99373" lon="5.18513">
        <ele>424.79998779297</ele>
        <time>2013-04-07T08:24:09.000Z</time>
      </trkpt>
      <trkpt lat="43.99356" lon="5.18526">
        <ele>425.79998779297</ele>
        <time>2013-04-07T08:24:18.000Z</time>
      </trkpt>
      <trkpt lat="43.99337" lon="5.18544">
        <ele>424.79998779297</ele>
        <time>2013-04-07T08:24:27.000Z</time>
      </trkpt>
      <trkpt lat="43.99318" lon="5.18563">
        <ele>423.20001220703</ele>
        <time>2013-04-07T08:24:34.000Z</time>
      </trkpt>
      <trkpt lat="43.9929" lon="5.18593">
        <ele>421.39999389648</ele>
        <time>2013-04-07T08:24:42.000Z</time>
      </trkpt>
      <trkpt lat="43.99255" lon="5.18632">
        <ele>419.60000610352</ele>
        <time>2013-04-07T08:24:51.000Z</time>
      </trkpt>
      <trkpt lat="43.99213" lon="5.18678">
        <ele>417.20001220703</ele>
        <time>2013-04-07T08:25:02.000Z</time>
      </trkpt>
      <trkpt lat="43.99176" lon="5.18705">
        <ele>415</ele>
        <time>2013-04-07T08:25:10.000Z</time>
      </trkpt>
      <trkpt lat="43.99135" lon="5.18721">
        <ele>413.79998779297</ele>
        <time>2013-04-07T08:25:18.000Z</time>
      </trkpt>
      <trkpt lat="43.99116" lon="5.18736">
        <ele>413.39999389648</ele>
        <time>2013-04-07T08:25:22.000Z</time>
      </trkpt>
      <trkpt lat="43.99092" lon="5.18771">
        <ele>412</ele>
        <time>2013-04-07T08:25:29.000Z</time>
      </trkpt>
      <trkpt lat="43.99079" lon="5.18777">
        <ele>411.20001220703</ele>
        <time>2013-04-07T08:25:33.000Z</time>
      </trkpt>
      <trkpt lat="43.9908" lon="5.18772">
        <ele>411</ele>
        <time>2013-04-07T08:25:36.000Z</time>
      </trkpt>
      <trkpt lat="43.99082" lon="5.1877">
        <ele>411</ele>
        <time>2013-04-07T08:25:40.000Z</time>
      </trkpt>
      <trkpt lat="43.99082" lon="5.18769">
        <ele>410.79998779297</ele>
        <time>2013-04-07T08:25:42.000Z</time>
      </trkpt>
      <trkpt lat="43.99082" lon="5.1877">
        <ele>416.20001220703</ele>
        <time>2013-04-07T08:37:41.000Z</time>
      </trkpt>
      <trkpt lat="43.9908" lon="5.18778">
        <ele>411.60000610352</ele>
        <time>2013-04-07T08:37:59.000Z</time>
      </trkpt>
      <trkpt lat="43.99079" lon="5.18782">
        <ele>411.60000610352</ele>
        <time>2013-04-07T08:38:02.000Z</time>
      </trkpt>
      <trkpt lat="43.99077" lon="5.18784">
        <ele>411.39999389648</ele>
        <time>2013-04-07T08:38:06.000Z</time>
      </trkpt>
      <trkpt lat="43.99072" lon="5.18782">
        <ele>411.20001220703</ele>
        <time>2013-04-07T08:38:10.000Z</time>
      </trkpt>
      <trkpt lat="43.99059" lon="5.18768">
        <ele>411.39999389648</ele>
        <time>2013-04-07T08:38:18.000Z</time>
      </trkpt>
      <trkpt lat="43.99045" lon="5.18754">
        <ele>410.79998779297</ele>
        <time>2013-04-07T08:38:24.000Z</time>
      </trkpt>
      <trkpt lat="43.99027" lon="5.18733">
        <ele>410.20001220703</ele>
        <time>2013-04-07T08:38:30.000Z</time>
      </trkpt>
      <trkpt lat="43.99021" lon="5.18723">
        <ele>409.60000610352</ele>
        <time>2013-04-07T08:38:32.000Z</time>
      </trkpt>
      <trkpt lat="43.99007" lon="5.187">
        <ele>407.20001220703</ele>
        <time>2013-04-07T08:38:36.000Z</time>
      </trkpt>
      <trkpt lat="43.98994" lon="5.18697">
        <ele>405.60000610352</ele>
        <time>2013-04-07T08:38:38.000Z</time>
      </trkpt>
      <trkpt lat="43.98966" lon="5.18682">
        <ele>402</ele>
        <time>2013-04-07T08:38:42.000Z</time>
      </trkpt>
      <trkpt lat="43.98961" lon="5.18672">
        <ele>401.20001220703</ele>
        <time>2013-04-07T08:38:43.000Z</time>
      </trkpt>
      <trkpt lat="43.98928" lon="5.18585">
        <ele>398</ele>
        <time>2013-04-07T08:38:51.000Z</time>
      </trkpt>
      <trkpt lat="43.98894" lon="5.18497">
        <ele>396.60000610352</ele>
        <time>2013-04-07T08:39:00.000Z</time>
      </trkpt>
      <trkpt lat="43.98864" lon="5.1844">
        <ele>396.39999389648</ele>
        <time>2013-04-07T08:39:07.000Z</time>
      </trkpt>
      <trkpt lat="43.98834" lon="5.18388">
        <ele>396</ele>
        <time>2013-04-07T08:39:14.000Z</time>
      </trkpt>
      <trkpt lat="43.98816" lon="5.18338">
        <ele>395</ele>
        <time>2013-04-07T08:39:20.000Z</time>
      </trkpt>
      <trkpt lat="43.98792" lon="5.18267">
        <ele>393.60000610352</ele>
        <time>2013-04-07T08:39:28.000Z</time>
      </trkpt>
      <trkpt lat="43.9879" lon="5.18259">
        <ele>393.39999389648</ele>
        <time>2013-04-07T08:39:29.000Z</time>
      </trkpt>
      <trkpt lat="43.98783" lon="5.18243">
        <ele>393.20001220703</ele>
        <time>2013-04-07T08:39:31.000Z</time>
      </trkpt>
      <trkpt lat="43.9877" lon="5.18206">
        <ele>392.79998779297</ele>
        <time>2013-04-07T08:39:36.000Z</time>
      </trkpt>
      <trkpt lat="43.9877" lon="5.18179">
        <ele>392.79998779297</ele>
        <time>2013-04-07T08:39:40.000Z</time>
      </trkpt>
      <trkpt lat="43.98769" lon="5.18163">
        <ele>392.79998779297</ele>
        <time>2013-04-07T08:39:43.000Z</time>
      </trkpt>
      <trkpt lat="43.9876" lon="5.18136">
        <ele>391.20001220703</ele>
        <time>2013-04-07T08:39:48.000Z</time>
      </trkpt>
      <trkpt lat="43.98754" lon="5.18118">
        <ele>389.60000610352</ele>
        <time>2013-04-07T08:39:51.000Z</time>
      </trkpt>
      <trkpt lat="43.98749" lon="5.18098">
        <ele>388</ele>
        <time>2013-04-07T08:39:54.000Z</time>
      </trkpt>
      <trkpt lat="43.9874" lon="5.18066">
        <ele>385.79998779297</ele>
        <time>2013-04-07T08:39:59.000Z</time>
      </trkpt>
      <trkpt lat="43.98736" lon="5.18029">
        <ele>385</ele>
        <time>2013-04-07T08:40:04.000Z</time>
      </trkpt>
      <trkpt lat="43.98729" lon="5.17995">
        <ele>383.79998779297</ele>
        <time>2013-04-07T08:40:09.000Z</time>
      </trkpt>
      <trkpt lat="43.98731" lon="5.17968">
        <ele>384.39999389648</ele>
        <time>2013-04-07T08:40:13.000Z</time>
      </trkpt>
      <trkpt lat="43.98733" lon="5.17951">
        <ele>383.60000610352</ele>
        <time>2013-04-07T08:40:16.000Z</time>
      </trkpt>
      <trkpt lat="43.98743" lon="5.17922">
        <ele>382</ele>
        <time>2013-04-07T08:40:22.000Z</time>
      </trkpt>
      <trkpt lat="43.98747" lon="5.1789">
        <ele>381</ele>
        <time>2013-04-07T08:40:28.000Z</time>
      </trkpt>
      <trkpt lat="43.98746" lon="5.17847">
        <ele>381</ele>
        <time>2013-04-07T08:40:35.000Z</time>
      </trkpt>
      <trkpt lat="43.98743" lon="5.17834">
        <ele>381</ele>
        <time>2013-04-07T08:40:37.000Z</time>
      </trkpt>
      <trkpt lat="43.98734" lon="5.1781">
        <ele>381</ele>
        <time>2013-04-07T08:40:41.000Z</time>
      </trkpt>
      <trkpt lat="43.98727" lon="5.17778">
        <ele>379.79998779297</ele>
        <time>2013-04-07T08:40:46.000Z</time>
      </trkpt>
      <trkpt lat="43.98725" lon="5.1777">
        <ele>379.39999389648</ele>
        <time>2013-04-07T08:40:47.000Z</time>
      </trkpt>
      <trkpt lat="43.9872" lon="5.1773">
        <ele>377</ele>
        <time>2013-04-07T08:40:52.000Z</time>
      </trkpt>
      <trkpt lat="43.98719" lon="5.17717">
        <ele>375.79998779297</ele>
        <time>2013-04-07T08:40:56.000Z</time>
      </trkpt>
      <trkpt lat="43.98721" lon="5.17698">
        <ele>373.60000610352</ele>
        <time>2013-04-07T08:41:00.000Z</time>
      </trkpt>
      <trkpt lat="43.9872" lon="5.17684">
        <ele>372</ele>
        <time>2013-04-07T08:41:04.000Z</time>
      </trkpt>
      <trkpt lat="43.9872" lon="5.17684">
        <ele>371.39999389648</ele>
        <time>2013-04-07T08:41:06.000Z</time>
      </trkpt>
      <trkpt lat="43.98713" lon="5.17679">
        <ele>370.39999389648</ele>
        <time>2013-04-07T08:41:29.000Z</time>
      </trkpt>
      <trkpt lat="43.98696" lon="5.1767">
        <ele>368.20001220703</ele>
        <time>2013-04-07T08:41:36.000Z</time>
      </trkpt>
      <trkpt lat="43.98686" lon="5.17662">
        <ele>367.39999389648</ele>
        <time>2013-04-07T08:41:40.000Z</time>
      </trkpt>
      <trkpt lat="43.98673" lon="5.17654">
        <ele>365.20001220703</ele>
        <time>2013-04-07T08:41:43.000Z</time>
      </trkpt>
      <trkpt lat="43.98665" lon="5.17648">
        <ele>363.60000610352</ele>
        <time>2013-04-07T08:41:45.000Z</time>
      </trkpt>
      <trkpt lat="43.9864" lon="5.17633">
        <ele>358.20001220703</ele>
        <time>2013-04-07T08:41:51.000Z</time>
      </trkpt>
      <trkpt lat="43.98636" lon="5.17631">
        <ele>356.60000610352</ele>
        <time>2013-04-07T08:41:54.000Z</time>
      </trkpt>
      <trkpt lat="43.98635" lon="5.17631">
        <ele>356.39999389648</ele>
        <time>2013-04-07T08:41:55.000Z</time>
      </trkpt>
      <trkpt lat="43.98628" lon="5.17626">
        <ele>355.20001220703</ele>
        <time>2013-04-07T08:42:06.000Z</time>
      </trkpt>
      <trkpt lat="43.98608" lon="5.17615">
        <ele>353.20001220703</ele>
        <time>2013-04-07T08:42:10.000Z</time>
      </trkpt>
      <trkpt lat="43.98571" lon="5.17591">
        <ele>349.60000610352</ele>
        <time>2013-04-07T08:42:16.000Z</time>
      </trkpt>
      <trkpt lat="43.98555" lon="5.17571">
        <ele>348</ele>
        <time>2013-04-07T08:42:20.000Z</time>
      </trkpt>
      <trkpt lat="43.98547" lon="5.17552">
        <ele>347.60000610352</ele>
        <time>2013-04-07T08:42:23.000Z</time>
      </trkpt>
      <trkpt lat="43.98521" lon="5.17522">
        <ele>347.39999389648</ele>
        <time>2013-04-07T08:42:30.000Z</time>
      </trkpt>
      <trkpt lat="43.98509" lon="5.17512">
        <ele>347</ele>
        <time>2013-04-07T08:42:33.000Z</time>
      </trkpt>
      <trkpt lat="43.98503" lon="5.17498">
        <ele>345.60000610352</ele>
        <time>2013-04-07T08:42:37.000Z</time>
      </trkpt>
      <trkpt lat="43.98505" lon="5.17495">
        <ele>345.39999389648</ele>
        <time>2013-04-07T08:42:38.000Z</time>
      </trkpt>
      <trkpt lat="43.98515" lon="5.17484">
        <ele>343.60000610352</ele>
        <time>2013-04-07T08:42:41.000Z</time>
      </trkpt>
      <trkpt lat="43.98523" lon="5.17468">
        <ele>341.79998779297</ele>
        <time>2013-04-07T08:42:45.000Z</time>
      </trkpt>
      <trkpt lat="43.98515" lon="5.17471">
        <ele>341.79998779297</ele>
        <time>2013-04-07T08:42:48.000Z</time>
      </trkpt>
      <trkpt lat="43.98504" lon="5.1747">
        <ele>341.20001220703</ele>
        <time>2013-04-07T08:42:51.000Z</time>
      </trkpt>
      <trkpt lat="43.98487" lon="5.17455">
        <ele>338.60000610352</ele>
        <time>2013-04-07T08:42:55.000Z</time>
      </trkpt>
      <trkpt lat="43.98483" lon="5.17447">
        <ele>337.20001220703</ele>
        <time>2013-04-07T08:42:57.000Z</time>
      </trkpt>
      <trkpt lat="43.98476" lon="5.17437">
        <ele>335.20001220703</ele>
        <time>2013-04-07T08:43:01.000Z</time>
      </trkpt>
      <trkpt lat="43.9847" lon="5.17427">
        <ele>334.39999389648</ele>
        <time>2013-04-07T08:43:06.000Z</time>
      </trkpt>
      <trkpt lat="43.98456" lon="5.17405">
        <ele>334.20001220703</ele>
        <time>2013-04-07T08:43:11.000Z</time>
      </trkpt>
      <trkpt lat="43.98428" lon="5.17357">
        <ele>334.39999389648</ele>
        <time>2013-04-07T08:43:20.000Z</time>
      </trkpt>
      <trkpt lat="43.98407" lon="5.17329">
        <ele>336.60000610352</ele>
        <time>2013-04-07T08:43:27.000Z</time>
      </trkpt>
      <trkpt lat="43.98386" lon="5.17306">
        <ele>337.60000610352</ele>
        <time>2013-04-07T08:43:34.000Z</time>
      </trkpt>
      <trkpt lat="43.98371" lon="5.17296">
        <ele>337.20001220703</ele>
        <time>2013-04-07T08:43:39.000Z</time>
      </trkpt>
      <trkpt lat="43.98357" lon="5.17289">
        <ele>336.79998779297</ele>
        <time>2013-04-07T08:43:42.000Z</time>
      </trkpt>
      <trkpt lat="43.9833" lon="5.17275">
        <ele>336.20001220703</ele>
        <time>2013-04-07T08:43:48.000Z</time>
      </trkpt>
      <trkpt lat="43.98316" lon="5.17265">
        <ele>335.20001220703</ele>
        <time>2013-04-07T08:43:52.000Z</time>
      </trkpt>
      <trkpt lat="43.98306" lon="5.17258">
        <ele>334.39999389648</ele>
        <time>2013-04-07T08:43:54.000Z</time>
      </trkpt>
      <trkpt lat="43.98282" lon="5.17244">
        <ele>333.20001220703</ele>
        <time>2013-04-07T08:43:59.000Z</time>
      </trkpt>
      <trkpt lat="43.98268" lon="5.1724">
        <ele>333.39999389648</ele>
        <time>2013-04-07T08:44:02.000Z</time>
      </trkpt>
      <trkpt lat="43.98239" lon="5.17231">
        <ele>333.39999389648</ele>
        <time>2013-04-07T08:44:08.000Z</time>
      </trkpt>
      <trkpt lat="43.98214" lon="5.17223">
        <ele>331.20001220703</ele>
        <time>2013-04-07T08:44:13.000Z</time>
      </trkpt>
      <trkpt lat="43.98193" lon="5.17209">
        <ele>329.20001220703</ele>
        <time>2013-04-07T08:44:17.000Z</time>
      </trkpt>
      <trkpt lat="43.98174" lon="5.17188">
        <ele>327.39999389648</ele>
        <time>2013-04-07T08:44:21.000Z</time>
      </trkpt>
      <trkpt lat="43.98163" lon="5.17178">
        <ele>326.60000610352</ele>
        <time>2013-04-07T08:44:23.000Z</time>
      </trkpt>
      <trkpt lat="43.98148" lon="5.17152">
        <ele>325.20001220703</ele>
        <time>2013-04-07T08:44:27.000Z</time>
      </trkpt>
      <trkpt lat="43.98144" lon="5.17148">
        <ele>325</ele>
        <time>2013-04-07T08:44:28.000Z</time>
      </trkpt>
      <trkpt lat="43.98113" lon="5.17119">
        <ele>323</ele>
        <time>2013-04-07T08:44:35.000Z</time>
      </trkpt>
      <trkpt lat="43.98104" lon="5.17112">
        <ele>322.60000610352</ele>
        <time>2013-04-07T08:44:37.000Z</time>
      </trkpt>
      <trkpt lat="43.98078" lon="5.17097">
        <ele>324</ele>
        <time>2013-04-07T08:44:43.000Z</time>
      </trkpt>
      <trkpt lat="43.98069" lon="5.1709">
        <ele>325</ele>
        <time>2013-04-07T08:44:46.000Z</time>
      </trkpt>
      <trkpt lat="43.98057" lon="5.17102">
        <ele>323.20001220703</ele>
        <time>2013-04-07T08:44:51.000Z</time>
      </trkpt>
      <trkpt lat="43.98043" lon="5.17091">
        <ele>321.39999389648</ele>
        <time>2013-04-07T08:44:56.000Z</time>
      </trkpt>
      <trkpt lat="43.98032" lon="5.17071">
        <ele>320.39999389648</ele>
        <time>2013-04-07T08:45:01.000Z</time>
      </trkpt>
      <trkpt lat="43.98036" lon="5.1706">
        <ele>316.79998779297</ele>
        <time>2013-04-07T08:45:06.000Z</time>
      </trkpt>
      <trkpt lat="43.98035" lon="5.17052">
        <ele>314.39999389648</ele>
        <time>2013-04-07T08:45:09.000Z</time>
      </trkpt>
      <trkpt lat="43.98035" lon="5.17047">
        <ele>312.60000610352</ele>
        <time>2013-04-07T08:45:13.000Z</time>
      </trkpt>
      <trkpt lat="43.98038" lon="5.17043">
        <ele>310.60000610352</ele>
        <time>2013-04-07T08:45:38.000Z</time>
      </trkpt>
      <trkpt lat="43.98038" lon="5.17039">
        <ele>312.20001220703</ele>
        <time>2013-04-07T08:46:10.000Z</time>
      </trkpt>
      <trkpt lat="43.98037" lon="5.17039">
        <ele>312.20001220703</ele>
        <time>2013-04-07T08:46:12.000Z</time>
      </trkpt>
      <trkpt lat="43.98023" lon="5.17041">
        <ele>311.20001220703</ele>
        <time>2013-04-07T08:46:43.000Z</time>
      </trkpt>
      <trkpt lat="43.98013" lon="5.17038">
        <ele>309</ele>
        <time>2013-04-07T08:46:48.000Z</time>
      </trkpt>
      <trkpt lat="43.98004" lon="5.17021">
        <ele>308.20001220703</ele>
        <time>2013-04-07T08:46:53.000Z</time>
      </trkpt>
      <trkpt lat="43.97998" lon="5.17008">
        <ele>307.20001220703</ele>
        <time>2013-04-07T08:46:57.000Z</time>
      </trkpt>
      <trkpt lat="43.97993" lon="5.16991">
        <ele>305.60000610352</ele>
        <time>2013-04-07T08:47:02.000Z</time>
      </trkpt>
      <trkpt lat="43.97983" lon="5.16985">
        <ele>304.60000610352</ele>
        <time>2013-04-07T08:47:07.000Z</time>
      </trkpt>
      <trkpt lat="43.97977" lon="5.16977">
        <ele>304.39999389648</ele>
        <time>2013-04-07T08:47:11.000Z</time>
      </trkpt>
      <trkpt lat="43.97966" lon="5.16976">
        <ele>303.39999389648</ele>
        <time>2013-04-07T08:47:16.000Z</time>
      </trkpt>
      <trkpt lat="43.97965" lon="5.16975">
        <ele>304.20001220703</ele>
        <time>2013-04-07T08:47:18.000Z</time>
      </trkpt>
      <trkpt lat="43.97958" lon="5.16967">
        <ele>325.60000610352</ele>
        <time>2013-04-07T08:47:48.000Z</time>
      </trkpt>
      <trkpt lat="43.97959" lon="5.16959">
        <ele>321.79998779297</ele>
        <time>2013-04-07T08:47:53.000Z</time>
      </trkpt>
      <trkpt lat="43.9796" lon="5.16957">
        <ele>321.60000610352</ele>
        <time>2013-04-07T08:47:54.000Z</time>
      </trkpt>
      <trkpt lat="43.97959" lon="5.16942">
        <ele>318.20001220703</ele>
        <time>2013-04-07T08:47:59.000Z</time>
      </trkpt>
      <trkpt lat="43.9796" lon="5.16932">
        <ele>317.20001220703</ele>
        <time>2013-04-07T08:48:01.000Z</time>
      </trkpt>
      <trkpt lat="43.97962" lon="5.1691">
        <ele>314.60000610352</ele>
        <time>2013-04-07T08:48:06.000Z</time>
      </trkpt>
      <trkpt lat="43.97957" lon="5.1689">
        <ele>318.39999389648</ele>
        <time>2013-04-07T08:48:11.000Z</time>
      </trkpt>
      <trkpt lat="43.97946" lon="5.16872">
        <ele>320.79998779297</ele>
        <time>2013-04-07T08:48:16.000Z</time>
      </trkpt>
      <trkpt lat="43.9794" lon="5.16856">
        <ele>319.60000610352</ele>
        <time>2013-04-07T08:48:20.000Z</time>
      </trkpt>
      <trkpt lat="43.97938" lon="5.16853">
        <ele>319.79998779297</ele>
        <time>2013-04-07T08:48:21.000Z</time>
      </trkpt>
      <trkpt lat="43.97935" lon="5.16832">
        <ele>321.39999389648</ele>
        <time>2013-04-07T08:48:27.000Z</time>
      </trkpt>
      <trkpt lat="43.97935" lon="5.16828">
        <ele>319.60000610352</ele>
        <time>2013-04-07T08:48:28.000Z</time>
      </trkpt>
      <trkpt lat="43.97929" lon="5.16812">
        <ele>311.79998779297</ele>
        <time>2013-04-07T08:48:35.000Z</time>
      </trkpt>
      <trkpt lat="43.97929" lon="5.16809">
        <ele>311</ele>
        <time>2013-04-07T08:48:36.000Z</time>
      </trkpt>
      <trkpt lat="43.97927" lon="5.16788">
        <ele>305.39999389648</ele>
        <time>2013-04-07T08:48:41.000Z</time>
      </trkpt>
      <trkpt lat="43.97928" lon="5.1678">
        <ele>303</ele>
        <time>2013-04-07T08:48:43.000Z</time>
      </trkpt>
      <trkpt lat="43.97924" lon="5.16758">
        <ele>300.20001220703</ele>
        <time>2013-04-07T08:48:49.000Z</time>
      </trkpt>
      <trkpt lat="43.97925" lon="5.16748">
        <ele>297.60000610352</ele>
        <time>2013-04-07T08:48:52.000Z</time>
      </trkpt>
      <trkpt lat="43.97925" lon="5.16734">
        <ele>294.39999389648</ele>
        <time>2013-04-07T08:48:56.000Z</time>
      </trkpt>
      <trkpt lat="43.97934" lon="5.16703">
        <ele>292.79998779297</ele>
        <time>2013-04-07T08:49:02.000Z</time>
      </trkpt>
      <trkpt lat="43.97937" lon="5.16684">
        <ele>292.20001220703</ele>
        <time>2013-04-07T08:49:06.000Z</time>
      </trkpt>
      <trkpt lat="43.97935" lon="5.16657">
        <ele>294</ele>
        <time>2013-04-07T08:49:11.000Z</time>
      </trkpt>
      <trkpt lat="43.97932" lon="5.16649">
        <ele>294.39999389648</ele>
        <time>2013-04-07T08:49:13.000Z</time>
      </trkpt>
      <trkpt lat="43.97919" lon="5.16637">
        <ele>296</ele>
        <time>2013-04-07T08:49:18.000Z</time>
      </trkpt>
      <trkpt lat="43.9791" lon="5.16636">
        <ele>300.39999389648</ele>
        <time>2013-04-07T08:49:20.000Z</time>
      </trkpt>
      <trkpt lat="43.97893" lon="5.16624">
        <ele>302.60000610352</ele>
        <time>2013-04-07T08:49:25.000Z</time>
      </trkpt>
      <trkpt lat="43.9788" lon="5.16606">
        <ele>300</ele>
        <time>2013-04-07T08:49:30.000Z</time>
      </trkpt>
      <trkpt lat="43.97866" lon="5.16589">
        <ele>299.60000610352</ele>
        <time>2013-04-07T08:49:35.000Z</time>
      </trkpt>
      <trkpt lat="43.9786" lon="5.16581">
        <ele>299.39999389648</ele>
        <time>2013-04-07T08:49:37.000Z</time>
      </trkpt>
      <trkpt lat="43.97847" lon="5.16564">
        <ele>298.20001220703</ele>
        <time>2013-04-07T08:49:42.000Z</time>
      </trkpt>
      <trkpt lat="43.9784" lon="5.16543">
        <ele>297.20001220703</ele>
        <time>2013-04-07T08:49:47.000Z</time>
      </trkpt>
      <trkpt lat="43.97835" lon="5.16521">
        <ele>297.20001220703</ele>
        <time>2013-04-07T08:49:52.000Z</time>
      </trkpt>
      <trkpt lat="43.97836" lon="5.16498">
        <ele>297</ele>
        <time>2013-04-07T08:49:56.000Z</time>
      </trkpt>
      <trkpt lat="43.97837" lon="5.16475">
        <ele>297.79998779297</ele>
        <time>2013-04-07T08:50:01.000Z</time>
      </trkpt>
      <trkpt lat="43.97839" lon="5.16457">
        <ele>300.39999389648</ele>
        <time>2013-04-07T08:50:07.000Z</time>
      </trkpt>
      <trkpt lat="43.97837" lon="5.16442">
        <ele>297.39999389648</ele>
        <time>2013-04-07T08:50:11.000Z</time>
      </trkpt>
      <trkpt lat="43.97835" lon="5.16421">
        <ele>295.79998779297</ele>
        <time>2013-04-07T08:50:17.000Z</time>
      </trkpt>
      <trkpt lat="43.97834" lon="5.16413">
        <ele>295.79998779297</ele>
        <time>2013-04-07T08:50:19.000Z</time>
      </trkpt>
      <trkpt lat="43.97826" lon="5.164">
        <ele>293.39999389648</ele>
        <time>2013-04-07T08:50:24.000Z</time>
      </trkpt>
      <trkpt lat="43.97822" lon="5.16381">
        <ele>292.79998779297</ele>
        <time>2013-04-07T08:50:28.000Z</time>
      </trkpt>
      <trkpt lat="43.97817" lon="5.16353">
        <ele>291.39999389648</ele>
        <time>2013-04-07T08:50:34.000Z</time>
      </trkpt>
      <trkpt lat="43.97822" lon="5.16331">
        <ele>290.20001220703</ele>
        <time>2013-04-07T08:50:39.000Z</time>
      </trkpt>
      <trkpt lat="43.97821" lon="5.16314">
        <ele>289.79998779297</ele>
        <time>2013-04-07T08:50:43.000Z</time>
      </trkpt>
      <trkpt lat="43.97825" lon="5.16302">
        <ele>285.39999389648</ele>
        <time>2013-04-07T08:50:46.000Z</time>
      </trkpt>
      <trkpt lat="43.97827" lon="5.16282">
        <ele>285.79998779297</ele>
        <time>2013-04-07T08:50:50.000Z</time>
      </trkpt>
      <trkpt lat="43.97831" lon="5.16247">
        <ele>284.60000610352</ele>
        <time>2013-04-07T08:50:56.000Z</time>
      </trkpt>
      <trkpt lat="43.97841" lon="5.16229">
        <ele>282.79998779297</ele>
        <time>2013-04-07T08:51:00.000Z</time>
      </trkpt>
      <trkpt lat="43.9784" lon="5.16216">
        <ele>284.39999389648</ele>
        <time>2013-04-07T08:51:04.000Z</time>
      </trkpt>
      <trkpt lat="43.97846" lon="5.16202">
        <ele>281</ele>
        <time>2013-04-07T08:51:09.000Z</time>
      </trkpt>
      <trkpt lat="43.97863" lon="5.16184">
        <ele>279.60000610352</ele>
        <time>2013-04-07T08:51:15.000Z</time>
      </trkpt>
      <trkpt lat="43.97868" lon="5.16177">
        <ele>278.60000610352</ele>
        <time>2013-04-07T08:51:17.000Z</time>
      </trkpt>
      <trkpt lat="43.97874" lon="5.1615">
        <ele>278.20001220703</ele>
        <time>2013-04-07T08:51:22.000Z</time>
      </trkpt>
      <trkpt lat="43.97876" lon="5.16125">
        <ele>277.60000610352</ele>
        <time>2013-04-07T08:51:27.000Z</time>
      </trkpt>
      <trkpt lat="43.97876" lon="5.16099">
        <ele>279</ele>
        <time>2013-04-07T08:51:32.000Z</time>
      </trkpt>
      <trkpt lat="43.97872" lon="5.16086">
        <ele>278.39999389648</ele>
        <time>2013-04-07T08:51:36.000Z</time>
      </trkpt>
      <trkpt lat="43.97861" lon="5.16078">
        <ele>277.60000610352</ele>
        <time>2013-04-07T08:51:41.000Z</time>
      </trkpt>
      <trkpt lat="43.97853" lon="5.16063">
        <ele>278.20001220703</ele>
        <time>2013-04-07T08:51:45.000Z</time>
      </trkpt>
      <trkpt lat="43.97838" lon="5.16044">
        <ele>277.60000610352</ele>
        <time>2013-04-07T08:51:50.000Z</time>
      </trkpt>
      <trkpt lat="43.97829" lon="5.1604">
        <ele>277.20001220703</ele>
        <time>2013-04-07T08:51:52.000Z</time>
      </trkpt>
      <trkpt lat="43.97814" lon="5.16019">
        <ele>275</ele>
        <time>2013-04-07T08:51:57.000Z</time>
      </trkpt>
      <trkpt lat="43.97808" lon="5.16">
        <ele>275.39999389648</ele>
        <time>2013-04-07T08:52:01.000Z</time>
      </trkpt>
      <trkpt lat="43.97805" lon="5.15995">
        <ele>275.39999389648</ele>
        <time>2013-04-07T08:52:02.000Z</time>
      </trkpt>
      <trkpt lat="43.97799" lon="5.15977">
        <ele>275</ele>
        <time>2013-04-07T08:52:05.000Z</time>
      </trkpt>
      <trkpt lat="43.97792" lon="5.15948">
        <ele>276</ele>
        <time>2013-04-07T08:52:10.000Z</time>
      </trkpt>
      <trkpt lat="43.978" lon="5.15928">
        <ele>275</ele>
        <time>2013-04-07T08:52:15.000Z</time>
      </trkpt>
      <trkpt lat="43.97809" lon="5.15915">
        <ele>276.60000610352</ele>
        <time>2013-04-07T08:52:19.000Z</time>
      </trkpt>
      <trkpt lat="43.97823" lon="5.159">
        <ele>274.39999389648</ele>
        <time>2013-04-07T08:52:23.000Z</time>
      </trkpt>
      <trkpt lat="43.97839" lon="5.15877">
        <ele>273.20001220703</ele>
        <time>2013-04-07T08:52:29.000Z</time>
      </trkpt>
      <trkpt lat="43.97857" lon="5.15863">
        <ele>272</ele>
        <time>2013-04-07T08:52:35.000Z</time>
      </trkpt>
      <trkpt lat="43.97873" lon="5.15853">
        <ele>269.39999389648</ele>
        <time>2013-04-07T08:52:38.000Z</time>
      </trkpt>
      <trkpt lat="43.97883" lon="5.15848">
        <ele>268.79998779297</ele>
        <time>2013-04-07T08:52:40.000Z</time>
      </trkpt>
      <trkpt lat="43.97901" lon="5.15841">
        <ele>267</ele>
        <time>2013-04-07T08:52:44.000Z</time>
      </trkpt>
      <trkpt lat="43.97913" lon="5.15848">
        <ele>268.60000610352</ele>
        <time>2013-04-07T08:52:48.000Z</time>
      </trkpt>
      <trkpt lat="43.97921" lon="5.15847">
        <ele>268.60000610352</ele>
        <time>2013-04-07T08:52:51.000Z</time>
      </trkpt>
      <trkpt lat="43.9793" lon="5.1584">
        <ele>266.60000610352</ele>
        <time>2013-04-07T08:52:54.000Z</time>
      </trkpt>
      <trkpt lat="43.9794" lon="5.15821">
        <ele>264.60000610352</ele>
        <time>2013-04-07T08:52:59.000Z</time>
      </trkpt>
      <trkpt lat="43.97938" lon="5.15786">
        <ele>265.60000610352</ele>
        <time>2013-04-07T08:53:05.000Z</time>
      </trkpt>
      <trkpt lat="43.97936" lon="5.15769">
        <ele>265.79998779297</ele>
        <time>2013-04-07T08:53:09.000Z</time>
      </trkpt>
      <trkpt lat="43.9793" lon="5.15745">
        <ele>269</ele>
        <time>2013-04-07T08:53:14.000Z</time>
      </trkpt>
      <trkpt lat="43.97929" lon="5.15721">
        <ele>271</ele>
        <time>2013-04-07T08:53:19.000Z</time>
      </trkpt>
      <trkpt lat="43.97931" lon="5.15698">
        <ele>274.39999389648</ele>
        <time>2013-04-07T08:53:24.000Z</time>
      </trkpt>
      <trkpt lat="43.9794" lon="5.15683">
        <ele>273.60000610352</ele>
        <time>2013-04-07T08:53:28.000Z</time>
      </trkpt>
      <trkpt lat="43.97956" lon="5.15664">
        <ele>268.60000610352</ele>
        <time>2013-04-07T08:53:33.000Z</time>
      </trkpt>
      <trkpt lat="43.97978" lon="5.15632">
        <ele>266.20001220703</ele>
        <time>2013-04-07T08:53:41.000Z</time>
      </trkpt>
      <trkpt lat="43.97989" lon="5.15622">
        <ele>266.39999389648</ele>
        <time>2013-04-07T08:53:45.000Z</time>
      </trkpt>
      <trkpt lat="43.98008" lon="5.15617">
        <ele>267</ele>
        <time>2013-04-07T08:53:50.000Z</time>
      </trkpt>
      <trkpt lat="43.98035" lon="5.15603">
        <ele>268</ele>
        <time>2013-04-07T08:53:58.000Z</time>
      </trkpt>
      <trkpt lat="43.98049" lon="5.15591">
        <ele>266</ele>
        <time>2013-04-07T08:54:03.000Z</time>
      </trkpt>
      <trkpt lat="43.9806" lon="5.15577">
        <ele>264.60000610352</ele>
        <time>2013-04-07T08:54:07.000Z</time>
      </trkpt>
      <trkpt lat="43.98073" lon="5.15559">
        <ele>263.20001220703</ele>
        <time>2013-04-07T08:54:11.000Z</time>
      </trkpt>
      <trkpt lat="43.98078" lon="5.1555">
        <ele>264.20001220703</ele>
        <time>2013-04-07T08:54:13.000Z</time>
      </trkpt>
      <trkpt lat="43.98101" lon="5.15521">
        <ele>266.20001220703</ele>
        <time>2013-04-07T08:54:20.000Z</time>
      </trkpt>
      <trkpt lat="43.98108" lon="5.1551">
        <ele>266.20001220703</ele>
        <time>2013-04-07T08:54:23.000Z</time>
      </trkpt>
      <trkpt lat="43.98147" lon="5.1547">
        <ele>261.39999389648</ele>
        <time>2013-04-07T08:54:32.000Z</time>
      </trkpt>
      <trkpt lat="43.98161" lon="5.15456">
        <ele>261</ele>
        <time>2013-04-07T08:54:35.000Z</time>
      </trkpt>
      <trkpt lat="43.98188" lon="5.15447">
        <ele>260.39999389648</ele>
        <time>2013-04-07T08:54:40.000Z</time>
      </trkpt>
      <trkpt lat="43.9822" lon="5.15441">
        <ele>260.39999389648</ele>
        <time>2013-04-07T08:54:46.000Z</time>
      </trkpt>
      <trkpt lat="43.98241" lon="5.15435">
        <ele>258.60000610352</ele>
        <time>2013-04-07T08:54:52.000Z</time>
      </trkpt>
      <trkpt lat="43.98241" lon="5.15427">
        <ele>258.20001220703</ele>
        <time>2013-04-07T08:54:57.000Z</time>
      </trkpt>
      <trkpt lat="43.98235" lon="5.15428">
        <ele>259.60000610352</ele>
        <time>2013-04-07T08:55:01.000Z</time>
      </trkpt>
      <trkpt lat="43.98222" lon="5.15427">
        <ele>264.20001220703</ele>
        <time>2013-04-07T08:55:10.000Z</time>
      </trkpt>
      <trkpt lat="43.98214" lon="5.15421">
        <ele>268.60000610352</ele>
        <time>2013-04-07T08:55:17.000Z</time>
      </trkpt>
      <trkpt lat="43.98203" lon="5.15417">
        <ele>272</ele>
        <time>2013-04-07T08:55:26.000Z</time>
      </trkpt>
      <trkpt lat="43.9819" lon="5.15416">
        <ele>274.60000610352</ele>
        <time>2013-04-07T08:55:35.000Z</time>
      </trkpt>
      <trkpt lat="43.98179" lon="5.15416">
        <ele>276.79998779297</ele>
        <time>2013-04-07T08:55:44.000Z</time>
      </trkpt>
      <trkpt lat="43.98169" lon="5.15415">
        <ele>278.39999389648</ele>
        <time>2013-04-07T08:55:52.000Z</time>
      </trkpt>
      <trkpt lat="43.98158" lon="5.15416">
        <ele>280.39999389648</ele>
        <time>2013-04-07T08:56:01.000Z</time>
      </trkpt>
      <trkpt lat="43.98149" lon="5.15418">
        <ele>281.79998779297</ele>
        <time>2013-04-07T08:56:09.000Z</time>
      </trkpt>
      <trkpt lat="43.98136" lon="5.1542">
        <ele>283.60000610352</ele>
        <time>2013-04-07T08:56:19.000Z</time>
      </trkpt>
      <trkpt lat="43.98125" lon="5.15422">
        <ele>285</ele>
        <time>2013-04-07T08:56:27.000Z</time>
      </trkpt>
      <trkpt lat="43.98114" lon="5.15425">
        <ele>287.20001220703</ele>
        <time>2013-04-07T08:56:36.000Z</time>
      </trkpt>
      <trkpt lat="43.98101" lon="5.15428">
        <ele>290.39999389648</ele>
        <time>2013-04-07T08:56:47.000Z</time>
      </trkpt>
      <trkpt lat="43.98092" lon="5.15429">
        <ele>292.60000610352</ele>
        <time>2013-04-07T08:56:56.000Z</time>
      </trkpt>
      <trkpt lat="43.98078" lon="5.15429">
        <ele>293.39999389648</ele>
        <time>2013-04-07T08:57:06.000Z</time>
      </trkpt>
      <trkpt lat="43.98069" lon="5.15431">
        <ele>294.39999389648</ele>
        <time>2013-04-07T08:57:14.000Z</time>
      </trkpt>
      <trkpt lat="43.98061" lon="5.15433">
        <ele>297.20001220703</ele>
        <time>2013-04-07T08:57:22.000Z</time>
      </trkpt>
      <trkpt lat="43.98051" lon="5.15432">
        <ele>299</ele>
        <time>2013-04-07T08:57:30.000Z</time>
      </trkpt>
      <trkpt lat="43.98041" lon="5.15431">
        <ele>302.39999389648</ele>
        <time>2013-04-07T08:57:39.000Z</time>
      </trkpt>
      <trkpt lat="43.9803" lon="5.15429">
        <ele>305.60000610352</ele>
        <time>2013-04-07T08:57:50.000Z</time>
      </trkpt>
      <trkpt lat="43.98019" lon="5.15427">
        <ele>307.20001220703</ele>
        <time>2013-04-07T08:57:58.000Z</time>
      </trkpt>
      <trkpt lat="43.98015" lon="5.15429">
        <ele>308</ele>
        <time>2013-04-07T08:58:02.000Z</time>
      </trkpt>
      <trkpt lat="43.98009" lon="5.15438">
        <ele>309.39999389648</ele>
        <time>2013-04-07T08:58:11.000Z</time>
      </trkpt>
      <trkpt lat="43.98003" lon="5.15447">
        <ele>312.20001220703</ele>
        <time>2013-04-07T08:58:18.000Z</time>
      </trkpt>
      <trkpt lat="43.98001" lon="5.1545">
        <ele>313.20001220703</ele>
        <time>2013-04-07T08:58:22.000Z</time>
      </trkpt>
      <trkpt lat="43.9799" lon="5.15453">
        <ele>312.79998779297</ele>
        <time>2013-04-07T08:58:31.000Z</time>
      </trkpt>
      <trkpt lat="43.97983" lon="5.15452">
        <ele>313.20001220703</ele>
        <time>2013-04-07T08:58:39.000Z</time>
      </trkpt>
      <trkpt lat="43.97971" lon="5.15446">
        <ele>314.20001220703</ele>
        <time>2013-04-07T08:58:49.000Z</time>
      </trkpt>
      <trkpt lat="43.97961" lon="5.15438">
        <ele>315</ele>
        <time>2013-04-07T08:58:58.000Z</time>
      </trkpt>
      <trkpt lat="43.97947" lon="5.15429">
        <ele>317.39999389648</ele>
        <time>2013-04-07T08:59:09.000Z</time>
      </trkpt>
      <trkpt lat="43.97938" lon="5.15422">
        <ele>318.79998779297</ele>
        <time>2013-04-07T08:59:17.000Z</time>
      </trkpt>
      <trkpt lat="43.97928" lon="5.15415">
        <ele>320.20001220703</ele>
        <time>2013-04-07T08:59:25.000Z</time>
      </trkpt>
      <trkpt lat="43.97914" lon="5.15409">
        <ele>321.79998779297</ele>
        <time>2013-04-07T08:59:35.000Z</time>
      </trkpt>
      <trkpt lat="43.979" lon="5.15405">
        <ele>323</ele>
        <time>2013-04-07T08:59:45.000Z</time>
      </trkpt>
      <trkpt lat="43.97886" lon="5.15403">
        <ele>323.39999389648</ele>
        <time>2013-04-07T08:59:55.000Z</time>
      </trkpt>
      <trkpt lat="43.97875" lon="5.15401">
        <ele>323.39999389648</ele>
        <time>2013-04-07T09:00:03.000Z</time>
      </trkpt>
      <trkpt lat="43.97865" lon="5.15395">
        <ele>325.60000610352</ele>
        <time>2013-04-07T09:00:13.000Z</time>
      </trkpt>
      <trkpt lat="43.97855" lon="5.15389">
        <ele>329</ele>
        <time>2013-04-07T09:00:22.000Z</time>
      </trkpt>
      <trkpt lat="43.97845" lon="5.15383">
        <ele>331.79998779297</ele>
        <time>2013-04-07T09:00:32.000Z</time>
      </trkpt>
      <trkpt lat="43.97838" lon="5.15382">
        <ele>333.60000610352</ele>
        <time>2013-04-07T09:00:39.000Z</time>
      </trkpt>
      <trkpt lat="43.9783" lon="5.1538">
        <ele>335.39999389648</ele>
        <time>2013-04-07T09:00:46.000Z</time>
      </trkpt>
      <trkpt lat="43.97822" lon="5.15377">
        <ele>336.79998779297</ele>
        <time>2013-04-07T09:00:54.000Z</time>
      </trkpt>
      <trkpt lat="43.97813" lon="5.15368">
        <ele>337.60000610352</ele>
        <time>2013-04-07T09:01:04.000Z</time>
      </trkpt>
      <trkpt lat="43.97806" lon="5.15358">
        <ele>338.60000610352</ele>
        <time>2013-04-07T09:01:13.000Z</time>
      </trkpt>
      <trkpt lat="43.97798" lon="5.15351">
        <ele>340.60000610352</ele>
        <time>2013-04-07T09:01:22.000Z</time>
      </trkpt>
      <trkpt lat="43.97786" lon="5.15349">
        <ele>344</ele>
        <time>2013-04-07T09:01:31.000Z</time>
      </trkpt>
      <trkpt lat="43.97777" lon="5.15347">
        <ele>345.60000610352</ele>
        <time>2013-04-07T09:01:39.000Z</time>
      </trkpt>
      <trkpt lat="43.9777" lon="5.15342">
        <ele>346.60000610352</ele>
        <time>2013-04-07T09:01:47.000Z</time>
      </trkpt>
      <trkpt lat="43.97764" lon="5.15335">
        <ele>348.20001220703</ele>
        <time>2013-04-07T09:01:56.000Z</time>
      </trkpt>
      <trkpt lat="43.97756" lon="5.15326">
        <ele>350.39999389648</ele>
        <time>2013-04-07T09:02:06.000Z</time>
      </trkpt>
      <trkpt lat="43.97751" lon="5.15315">
        <ele>352</ele>
        <time>2013-04-07T09:02:16.000Z</time>
      </trkpt>
      <trkpt lat="43.9775" lon="5.15314">
        <ele>352.20001220703</ele>
        <time>2013-04-07T09:02:17.000Z</time>
      </trkpt>
      <trkpt lat="43.97743" lon="5.15305">
        <ele>353.60000610352</ele>
        <time>2013-04-07T09:02:27.000Z</time>
      </trkpt>
      <trkpt lat="43.97736" lon="5.15298">
        <ele>356</ele>
        <time>2013-04-07T09:02:36.000Z</time>
      </trkpt>
      <trkpt lat="43.97728" lon="5.15289">
        <ele>357.79998779297</ele>
        <time>2013-04-07T09:02:45.000Z</time>
      </trkpt>
      <trkpt lat="43.97721" lon="5.15278">
        <ele>360.60000610352</ele>
        <time>2013-04-07T09:02:54.000Z</time>
      </trkpt>
      <trkpt lat="43.97716" lon="5.15268">
        <ele>363.39999389648</ele>
        <time>2013-04-07T09:03:02.000Z</time>
      </trkpt>
      <trkpt lat="43.97711" lon="5.15257">
        <ele>365.60000610352</ele>
        <time>2013-04-07T09:03:10.000Z</time>
      </trkpt>
      <trkpt lat="43.97705" lon="5.1525">
        <ele>366.79998779297</ele>
        <time>2013-04-07T09:03:18.000Z</time>
      </trkpt>
      <trkpt lat="43.97703" lon="5.15246">
        <ele>367.60000610352</ele>
        <time>2013-04-07T09:03:22.000Z</time>
      </trkpt>
      <trkpt lat="43.97695" lon="5.15235">
        <ele>370.39999389648</ele>
        <time>2013-04-07T09:03:32.000Z</time>
      </trkpt>
      <trkpt lat="43.97692" lon="5.15225">
        <ele>372.20001220703</ele>
        <time>2013-04-07T09:03:38.000Z</time>
      </trkpt>
      <trkpt lat="43.97689" lon="5.15222">
        <ele>373.39999389648</ele>
        <time>2013-04-07T09:03:42.000Z</time>
      </trkpt>
      <trkpt lat="43.97685" lon="5.15211">
        <ele>374.60000610352</ele>
        <time>2013-04-07T09:03:49.000Z</time>
      </trkpt>
      <trkpt lat="43.97684" lon="5.15201">
        <ele>375.20001220703</ele>
        <time>2013-04-07T09:03:57.000Z</time>
      </trkpt>
      <trkpt lat="43.97683" lon="5.15198">
        <ele>375.39999389648</ele>
        <time>2013-04-07T09:03:59.000Z</time>
      </trkpt>
      <trkpt lat="43.97677" lon="5.15189">
        <ele>377</ele>
        <time>2013-04-07T09:04:08.000Z</time>
      </trkpt>
      <trkpt lat="43.97672" lon="5.15184">
        <ele>377.20001220703</ele>
        <time>2013-04-07T09:04:15.000Z</time>
      </trkpt>
      <trkpt lat="43.97665" lon="5.15178">
        <ele>377.39999389648</ele>
        <time>2013-04-07T09:04:23.000Z</time>
      </trkpt>
      <trkpt lat="43.97665" lon="5.15178">
        <ele>377.60000610352</ele>
        <time>2013-04-07T09:04:25.000Z</time>
      </trkpt>
      <trkpt lat="43.97662" lon="5.1517">
        <ele>380.39999389648</ele>
        <time>2013-04-07T09:05:03.000Z</time>
      </trkpt>
      <trkpt lat="43.97662" lon="5.15167">
        <ele>380</ele>
        <time>2013-04-07T09:05:11.000Z</time>
      </trkpt>
      <trkpt lat="43.97662" lon="5.15171">
        <ele>380</ele>
        <time>2013-04-07T09:05:20.000Z</time>
      </trkpt>
      <trkpt lat="43.97663" lon="5.15174">
        <ele>381</ele>
        <time>2013-04-07T09:05:24.000Z</time>
      </trkpt>
      <trkpt lat="43.97668" lon="5.1517">
        <ele>379.60000610352</ele>
        <time>2013-04-07T09:05:58.000Z</time>
      </trkpt>
      <trkpt lat="43.97669" lon="5.15152">
        <ele>379.20001220703</ele>
        <time>2013-04-07T09:06:08.000Z</time>
      </trkpt>
      <trkpt lat="43.97668" lon="5.15146">
        <ele>378.60000610352</ele>
        <time>2013-04-07T09:06:10.000Z</time>
      </trkpt>
      <trkpt lat="43.97664" lon="5.15112">
        <ele>376.79998779297</ele>
        <time>2013-04-07T09:06:19.000Z</time>
      </trkpt>
      <trkpt lat="43.97662" lon="5.15081">
        <ele>378.79998779297</ele>
        <time>2013-04-07T09:06:26.000Z</time>
      </trkpt>
      <trkpt lat="43.97671" lon="5.15056">
        <ele>379.20001220703</ele>
        <time>2013-04-07T09:06:32.000Z</time>
      </trkpt>
      <trkpt lat="43.97684" lon="5.15021">
        <ele>377.39999389648</ele>
        <time>2013-04-07T09:06:41.000Z</time>
      </trkpt>
      <trkpt lat="43.97699" lon="5.1499">
        <ele>376</ele>
        <time>2013-04-07T09:06:48.000Z</time>
      </trkpt>
      <trkpt lat="43.97719" lon="5.14946">
        <ele>374.20001220703</ele>
        <time>2013-04-07T09:06:56.000Z</time>
      </trkpt>
      <trkpt lat="43.97725" lon="5.14929">
        <ele>373.60000610352</ele>
        <time>2013-04-07T09:06:59.000Z</time>
      </trkpt>
      <trkpt lat="43.9773" lon="5.14897">
        <ele>373.39999389648</ele>
        <time>2013-04-07T09:07:04.000Z</time>
      </trkpt>
      <trkpt lat="43.97727" lon="5.14878">
        <ele>373</ele>
        <time>2013-04-07T09:07:07.000Z</time>
      </trkpt>
      <trkpt lat="43.97714" lon="5.14828">
        <ele>370.39999389648</ele>
        <time>2013-04-07T09:07:13.000Z</time>
      </trkpt>
      <trkpt lat="43.97703" lon="5.14793">
        <ele>368</ele>
        <time>2013-04-07T09:07:16.000Z</time>
      </trkpt>
      <trkpt lat="43.97697" lon="5.14723">
        <ele>364</ele>
        <time>2013-04-07T09:07:21.000Z</time>
      </trkpt>
      <trkpt lat="43.97697" lon="5.1467">
        <ele>362</ele>
        <time>2013-04-07T09:07:25.000Z</time>
      </trkpt>
      <trkpt lat="43.97705" lon="5.14606">
        <ele>361.20001220703</ele>
        <time>2013-04-07T09:07:31.000Z</time>
      </trkpt>
      <trkpt lat="43.97712" lon="5.14567">
        <ele>361.20001220703</ele>
        <time>2013-04-07T09:07:36.000Z</time>
      </trkpt>
      <trkpt lat="43.97712" lon="5.14545">
        <ele>364</ele>
        <time>2013-04-07T09:07:40.000Z</time>
      </trkpt>
      <trkpt lat="43.97703" lon="5.14545">
        <ele>365.39999389648</ele>
        <time>2013-04-07T09:07:44.000Z</time>
      </trkpt>
      <trkpt lat="43.97687" lon="5.14568">
        <ele>366</ele>
        <time>2013-04-07T09:07:51.000Z</time>
      </trkpt>
      <trkpt lat="43.9767" lon="5.14591">
        <ele>367</ele>
        <time>2013-04-07T09:07:58.000Z</time>
      </trkpt>
      <trkpt lat="43.97653" lon="5.14616">
        <ele>369.20001220703</ele>
        <time>2013-04-07T09:08:07.000Z</time>
      </trkpt>
      <trkpt lat="43.97644" lon="5.14631">
        <ele>370.79998779297</ele>
        <time>2013-04-07T09:08:14.000Z</time>
      </trkpt>
      <trkpt lat="43.97636" lon="5.14642">
        <ele>372.79998779297</ele>
        <time>2013-04-07T09:08:22.000Z</time>
      </trkpt>
      <trkpt lat="43.97636" lon="5.14642">
        <ele>373.39999389648</ele>
        <time>2013-04-07T09:08:24.000Z</time>
      </trkpt>
      <trkpt lat="43.97635" lon="5.14644">
        <ele>375.60000610352</ele>
        <time>2013-04-07T09:08:40.000Z</time>
      </trkpt>
      <trkpt lat="43.97627" lon="5.14658">
        <ele>377.79998779297</ele>
        <time>2013-04-07T09:08:48.000Z</time>
      </trkpt>
      <trkpt lat="43.97616" lon="5.14674">
        <ele>381.20001220703</ele>
        <time>2013-04-07T09:08:57.000Z</time>
      </trkpt>
      <trkpt lat="43.97604" lon="5.14683">
        <ele>381.79998779297</ele>
        <time>2013-04-07T09:09:07.000Z</time>
      </trkpt>
      <trkpt lat="43.97593" lon="5.14686">
        <ele>382.39999389648</ele>
        <time>2013-04-07T09:09:15.000Z</time>
      </trkpt>
      <trkpt lat="43.97584" lon="5.14689">
        <ele>382.39999389648</ele>
        <time>2013-04-07T09:09:22.000Z</time>
      </trkpt>
      <trkpt lat="43.97574" lon="5.14691">
        <ele>383.60000610352</ele>
        <time>2013-04-07T09:09:30.000Z</time>
      </trkpt>
      <trkpt lat="43.97564" lon="5.14694">
        <ele>383.60000610352</ele>
        <time>2013-04-07T09:09:39.000Z</time>
      </trkpt>
      <trkpt lat="43.97553" lon="5.14698">
        <ele>383.60000610352</ele>
        <time>2013-04-07T09:09:48.000Z</time>
      </trkpt>
      <trkpt lat="43.97541" lon="5.14703">
        <ele>385.20001220703</ele>
        <time>2013-04-07T09:09:58.000Z</time>
      </trkpt>
      <trkpt lat="43.9753" lon="5.14709">
        <ele>385.60000610352</ele>
        <time>2013-04-07T09:10:07.000Z</time>
      </trkpt>
      <trkpt lat="43.9752" lon="5.14713">
        <ele>386.39999389648</ele>
        <time>2013-04-07T09:10:15.000Z</time>
      </trkpt>
      <trkpt lat="43.97507" lon="5.14717">
        <ele>387.79998779297</ele>
        <time>2013-04-07T09:10:25.000Z</time>
      </trkpt>
      <trkpt lat="43.97496" lon="5.14722">
        <ele>388.60000610352</ele>
        <time>2013-04-07T09:10:33.000Z</time>
      </trkpt>
      <trkpt lat="43.97483" lon="5.14723">
        <ele>389.79998779297</ele>
        <time>2013-04-07T09:10:42.000Z</time>
      </trkpt>
      <trkpt lat="43.97472" lon="5.14726">
        <ele>391.20001220703</ele>
        <time>2013-04-07T09:10:51.000Z</time>
      </trkpt>
      <trkpt lat="43.9746" lon="5.14729">
        <ele>392.20001220703</ele>
        <time>2013-04-07T09:11:00.000Z</time>
      </trkpt>
      <trkpt lat="43.97449" lon="5.14732">
        <ele>393.39999389648</ele>
        <time>2013-04-07T09:11:08.000Z</time>
      </trkpt>
      <trkpt lat="43.97437" lon="5.14737">
        <ele>394.39999389648</ele>
        <time>2013-04-07T09:11:18.000Z</time>
      </trkpt>
      <trkpt lat="43.97429" lon="5.14745">
        <ele>396.60000610352</ele>
        <time>2013-04-07T09:11:26.000Z</time>
      </trkpt>
      <trkpt lat="43.97424" lon="5.14758">
        <ele>399.79998779297</ele>
        <time>2013-04-07T09:11:33.000Z</time>
      </trkpt>
      <trkpt lat="43.97425" lon="5.1477">
        <ele>403.60000610352</ele>
        <time>2013-04-07T09:11:40.000Z</time>
      </trkpt>
      <trkpt lat="43.97426" lon="5.14775">
        <ele>404.79998779297</ele>
        <time>2013-04-07T09:11:44.000Z</time>
      </trkpt>
      <trkpt lat="43.97426" lon="5.14788">
        <ele>408</ele>
        <time>2013-04-07T09:11:53.000Z</time>
      </trkpt>
      <trkpt lat="43.97425" lon="5.148">
        <ele>409.79998779297</ele>
        <time>2013-04-07T09:12:02.000Z</time>
      </trkpt>
      <trkpt lat="43.97424" lon="5.14812">
        <ele>412.39999389648</ele>
        <time>2013-04-07T09:12:11.000Z</time>
      </trkpt>
      <trkpt lat="43.97424" lon="5.14822">
        <ele>413</ele>
        <time>2013-04-07T09:12:19.000Z</time>
      </trkpt>
      <trkpt lat="43.97426" lon="5.1483">
        <ele>414.20001220703</ele>
        <time>2013-04-07T09:12:26.000Z</time>
      </trkpt>
      <trkpt lat="43.97429" lon="5.1484">
        <ele>414.60000610352</ele>
        <time>2013-04-07T09:12:32.000Z</time>
      </trkpt>
      <trkpt lat="43.97431" lon="5.14855">
        <ele>415.79998779297</ele>
        <time>2013-04-07T09:12:39.000Z</time>
      </trkpt>
      <trkpt lat="43.97436" lon="5.14869">
        <ele>417.79998779297</ele>
        <time>2013-04-07T09:12:47.000Z</time>
      </trkpt>
      <trkpt lat="43.97441" lon="5.14882">
        <ele>418.79998779297</ele>
        <time>2013-04-07T09:12:55.000Z</time>
      </trkpt>
      <trkpt lat="43.97445" lon="5.14894">
        <ele>419.60000610352</ele>
        <time>2013-04-07T09:13:01.000Z</time>
      </trkpt>
      <trkpt lat="43.97451" lon="5.14907">
        <ele>420</ele>
        <time>2013-04-07T09:13:07.000Z</time>
      </trkpt>
      <trkpt lat="43.97459" lon="5.14924">
        <ele>419.79998779297</ele>
        <time>2013-04-07T09:13:14.000Z</time>
      </trkpt>
      <trkpt lat="43.97471" lon="5.14928">
        <ele>418.60000610352</ele>
        <time>2013-04-07T09:13:18.000Z</time>
      </trkpt>
      <trkpt lat="43.9749" lon="5.14937">
        <ele>417.60000610352</ele>
        <time>2013-04-07T09:13:23.000Z</time>
      </trkpt>
      <trkpt lat="43.97497" lon="5.14941">
        <ele>417.39999389648</ele>
        <time>2013-04-07T09:13:25.000Z</time>
      </trkpt>
      <trkpt lat="43.975" lon="5.14957">
        <ele>418.79998779297</ele>
        <time>2013-04-07T09:13:30.000Z</time>
      </trkpt>
      <trkpt lat="43.975" lon="5.1496">
        <ele>419</ele>
        <time>2013-04-07T09:13:31.000Z</time>
      </trkpt>
      <trkpt lat="43.97498" lon="5.14986">
        <ele>418.79998779297</ele>
        <time>2013-04-07T09:13:40.000Z</time>
      </trkpt>
      <trkpt lat="43.97493" lon="5.15012">
        <ele>420.60000610352</ele>
        <time>2013-04-07T09:13:50.000Z</time>
      </trkpt>
      <trkpt lat="43.9749" lon="5.15035">
        <ele>423.79998779297</ele>
        <time>2013-04-07T09:13:59.000Z</time>
      </trkpt>
      <trkpt lat="43.97484" lon="5.15054">
        <ele>425.20001220703</ele>
        <time>2013-04-07T09:14:07.000Z</time>
      </trkpt>
      <trkpt lat="43.97478" lon="5.15071">
        <ele>427</ele>
        <time>2013-04-07T09:14:15.000Z</time>
      </trkpt>
      <trkpt lat="43.97469" lon="5.15087">
        <ele>428.39999389648</ele>
        <time>2013-04-07T09:14:23.000Z</time>
      </trkpt>
      <trkpt lat="43.9746" lon="5.15099">
        <ele>429.20001220703</ele>
        <time>2013-04-07T09:14:30.000Z</time>
      </trkpt>
      <trkpt lat="43.97451" lon="5.15113">
        <ele>431.39999389648</ele>
        <time>2013-04-07T09:14:37.000Z</time>
      </trkpt>
      <trkpt lat="43.97443" lon="5.15129">
        <ele>434.20001220703</ele>
        <time>2013-04-07T09:14:44.000Z</time>
      </trkpt>
      <trkpt lat="43.97433" lon="5.15143">
        <ele>436.60000610352</ele>
        <time>2013-04-07T09:14:52.000Z</time>
      </trkpt>
      <trkpt lat="43.97425" lon="5.15153">
        <ele>437.79998779297</ele>
        <time>2013-04-07T09:14:59.000Z</time>
      </trkpt>
      <trkpt lat="43.97416" lon="5.15163">
        <ele>438</ele>
        <time>2013-04-07T09:15:06.000Z</time>
      </trkpt>
      <trkpt lat="43.9741" lon="5.15173">
        <ele>438.79998779297</ele>
        <time>2013-04-07T09:15:12.000Z</time>
      </trkpt>
      <trkpt lat="43.97407" lon="5.15184">
        <ele>440.60000610352</ele>
        <time>2013-04-07T09:15:17.000Z</time>
      </trkpt>
      <trkpt lat="43.97399" lon="5.15197">
        <ele>442</ele>
        <time>2013-04-07T09:15:24.000Z</time>
      </trkpt>
      <trkpt lat="43.97395" lon="5.15211">
        <ele>443.39999389648</ele>
        <time>2013-04-07T09:15:31.000Z</time>
      </trkpt>
      <trkpt lat="43.97388" lon="5.15228">
        <ele>445.60000610352</ele>
        <time>2013-04-07T09:15:39.000Z</time>
      </trkpt>
      <trkpt lat="43.9738" lon="5.15249">
        <ele>447.79998779297</ele>
        <time>2013-04-07T09:15:48.000Z</time>
      </trkpt>
      <trkpt lat="43.97379" lon="5.15266">
        <ele>447.60000610352</ele>
        <time>2013-04-07T09:15:55.000Z</time>
      </trkpt>
      <trkpt lat="43.97379" lon="5.15286">
        <ele>448</ele>
        <time>2013-04-07T09:16:03.000Z</time>
      </trkpt>
      <trkpt lat="43.97378" lon="5.15308">
        <ele>448.39999389648</ele>
        <time>2013-04-07T09:16:11.000Z</time>
      </trkpt>
      <trkpt lat="43.97376" lon="5.1533">
        <ele>448.20001220703</ele>
        <time>2013-04-07T09:16:19.000Z</time>
      </trkpt>
      <trkpt lat="43.97372" lon="5.15353">
        <ele>450</ele>
        <time>2013-04-07T09:16:27.000Z</time>
      </trkpt>
      <trkpt lat="43.97372" lon="5.15381">
        <ele>450.20001220703</ele>
        <time>2013-04-07T09:16:36.000Z</time>
      </trkpt>
      <trkpt lat="43.97372" lon="5.15404">
        <ele>450.79998779297</ele>
        <time>2013-04-07T09:16:43.000Z</time>
      </trkpt>
      <trkpt lat="43.97375" lon="5.15436">
        <ele>450.79998779297</ele>
        <time>2013-04-07T09:16:52.000Z</time>
      </trkpt>
      <trkpt lat="43.97373" lon="5.15474">
        <ele>451.79998779297</ele>
        <time>2013-04-07T09:17:02.000Z</time>
      </trkpt>
      <trkpt lat="43.9737" lon="5.15505">
        <ele>453</ele>
        <time>2013-04-07T09:17:10.000Z</time>
      </trkpt>
      <trkpt lat="43.97368" lon="5.15529">
        <ele>454.39999389648</ele>
        <time>2013-04-07T09:17:17.000Z</time>
      </trkpt>
      <trkpt lat="43.97368" lon="5.15559">
        <ele>455.20001220703</ele>
        <time>2013-04-07T09:17:26.000Z</time>
      </trkpt>
      <trkpt lat="43.97372" lon="5.15582">
        <ele>455.79998779297</ele>
        <time>2013-04-07T09:17:34.000Z</time>
      </trkpt>
      <trkpt lat="43.97378" lon="5.15608">
        <ele>456.39999389648</ele>
        <time>2013-04-07T09:17:44.000Z</time>
      </trkpt>
      <trkpt lat="43.97381" lon="5.15633">
        <ele>458</ele>
        <time>2013-04-07T09:17:54.000Z</time>
      </trkpt>
      <trkpt lat="43.97381" lon="5.15663">
        <ele>458.79998779297</ele>
        <time>2013-04-07T09:18:06.000Z</time>
      </trkpt>
      <trkpt lat="43.97377" lon="5.1569">
        <ele>461.60000610352</ele>
        <time>2013-04-07T09:18:17.000Z</time>
      </trkpt>
      <trkpt lat="43.97375" lon="5.15713">
        <ele>462.60000610352</ele>
        <time>2013-04-07T09:18:26.000Z</time>
      </trkpt>
      <trkpt lat="43.9737" lon="5.15734">
        <ele>463.39999389648</ele>
        <time>2013-04-07T09:18:34.000Z</time>
      </trkpt>
      <trkpt lat="43.9736" lon="5.1576">
        <ele>466.60000610352</ele>
        <time>2013-04-07T09:18:44.000Z</time>
      </trkpt>
      <trkpt lat="43.97349" lon="5.15777">
        <ele>468.79998779297</ele>
        <time>2013-04-07T09:18:52.000Z</time>
      </trkpt>
      <trkpt lat="43.97336" lon="5.15795">
        <ele>472</ele>
        <time>2013-04-07T09:19:02.000Z</time>
      </trkpt>
      <trkpt lat="43.97331" lon="5.15814">
        <ele>473</ele>
        <time>2013-04-07T09:19:10.000Z</time>
      </trkpt>
      <trkpt lat="43.97331" lon="5.15832">
        <ele>472.79998779297</ele>
        <time>2013-04-07T09:19:19.000Z</time>
      </trkpt>
      <trkpt lat="43.97325" lon="5.15851">
        <ele>474.79998779297</ele>
        <time>2013-04-07T09:19:30.000Z</time>
      </trkpt>
      <trkpt lat="43.97319" lon="5.15866">
        <ele>476.60000610352</ele>
        <time>2013-04-07T09:19:39.000Z</time>
      </trkpt>
      <trkpt lat="43.97319" lon="5.15868">
        <ele>476.79998779297</ele>
        <time>2013-04-07T09:19:40.000Z</time>
      </trkpt>
      <trkpt lat="43.97321" lon="5.15881">
        <ele>477.20001220703</ele>
        <time>2013-04-07T09:19:49.000Z</time>
      </trkpt>
      <trkpt lat="43.97326" lon="5.15895">
        <ele>478.39999389648</ele>
        <time>2013-04-07T09:19:56.000Z</time>
      </trkpt>
      <trkpt lat="43.97328" lon="5.15905">
        <ele>479</ele>
        <time>2013-04-07T09:20:03.000Z</time>
      </trkpt>
      <trkpt lat="43.97329" lon="5.15916">
        <ele>479.60000610352</ele>
        <time>2013-04-07T09:20:11.000Z</time>
      </trkpt>
      <trkpt lat="43.97331" lon="5.15929">
        <ele>480.60000610352</ele>
        <time>2013-04-07T09:20:20.000Z</time>
      </trkpt>
      <trkpt lat="43.97334" lon="5.15947">
        <ele>481.79998779297</ele>
        <time>2013-04-07T09:20:33.000Z</time>
      </trkpt>
      <trkpt lat="43.97335" lon="5.15962">
        <ele>482.79998779297</ele>
        <time>2013-04-07T09:20:42.000Z</time>
      </trkpt>
      <trkpt lat="43.97334" lon="5.15978">
        <ele>485</ele>
        <time>2013-04-07T09:20:52.000Z</time>
      </trkpt>
      <trkpt lat="43.97335" lon="5.15989">
        <ele>487</ele>
        <time>2013-04-07T09:21:00.000Z</time>
      </trkpt>
      <trkpt lat="43.97333" lon="5.15999">
        <ele>488.39999389648</ele>
        <time>2013-04-07T09:21:06.000Z</time>
      </trkpt>
      <trkpt lat="43.97327" lon="5.15995">
        <ele>489</ele>
        <time>2013-04-07T09:21:12.000Z</time>
      </trkpt>
      <trkpt lat="43.97322" lon="5.15978">
        <ele>489.39999389648</ele>
        <time>2013-04-07T09:21:21.000Z</time>
      </trkpt>
      <trkpt lat="43.97318" lon="5.15968">
        <ele>489.39999389648</ele>
        <time>2013-04-07T09:21:26.000Z</time>
      </trkpt>
      <trkpt lat="43.97304" lon="5.15962">
        <ele>491</ele>
        <time>2013-04-07T09:21:36.000Z</time>
      </trkpt>
      <trkpt lat="43.97293" lon="5.15962">
        <ele>492.39999389648</ele>
        <time>2013-04-07T09:21:46.000Z</time>
      </trkpt>
      <trkpt lat="43.97283" lon="5.15965">
        <ele>494.20001220703</ele>
        <time>2013-04-07T09:21:54.000Z</time>
      </trkpt>
      <trkpt lat="43.97271" lon="5.15969">
        <ele>496</ele>
        <time>2013-04-07T09:22:04.000Z</time>
      </trkpt>
      <trkpt lat="43.97261" lon="5.15972">
        <ele>497</ele>
        <time>2013-04-07T09:22:12.000Z</time>
      </trkpt>
      <trkpt lat="43.97251" lon="5.15975">
        <ele>498.39999389648</ele>
        <time>2013-04-07T09:22:21.000Z</time>
      </trkpt>
      <trkpt lat="43.97242" lon="5.15978">
        <ele>499.20001220703</ele>
        <time>2013-04-07T09:22:28.000Z</time>
      </trkpt>
      <trkpt lat="43.97233" lon="5.15981">
        <ele>500.79998779297</ele>
        <time>2013-04-07T09:22:36.000Z</time>
      </trkpt>
      <trkpt lat="43.97223" lon="5.15984">
        <ele>503.20001220703</ele>
        <time>2013-04-07T09:22:44.000Z</time>
      </trkpt>
      <trkpt lat="43.97213" lon="5.15987">
        <ele>504.79998779297</ele>
        <time>2013-04-07T09:22:51.000Z</time>
      </trkpt>
      <trkpt lat="43.97209" lon="5.15996">
        <ele>505.39999389648</ele>
        <time>2013-04-07T09:22:56.000Z</time>
      </trkpt>
      <trkpt lat="43.97214" lon="5.1601">
        <ele>506.20001220703</ele>
        <time>2013-04-07T09:23:04.000Z</time>
      </trkpt>
      <trkpt lat="43.97219" lon="5.16029">
        <ele>507</ele>
        <time>2013-04-07T09:23:15.000Z</time>
      </trkpt>
      <trkpt lat="43.97222" lon="5.1605">
        <ele>508.79998779297</ele>
        <time>2013-04-07T09:23:26.000Z</time>
      </trkpt>
      <trkpt lat="43.97224" lon="5.16066">
        <ele>509.60000610352</ele>
        <time>2013-04-07T09:23:35.000Z</time>
      </trkpt>
      <trkpt lat="43.97231" lon="5.16086">
        <ele>510.60000610352</ele>
        <time>2013-04-07T09:23:46.000Z</time>
      </trkpt>
      <trkpt lat="43.97236" lon="5.16102">
        <ele>512.20001220703</ele>
        <time>2013-04-07T09:23:56.000Z</time>
      </trkpt>
      <trkpt lat="43.97239" lon="5.16121">
        <ele>513.59997558594</ele>
        <time>2013-04-07T09:24:06.000Z</time>
      </trkpt>
      <trkpt lat="43.9724" lon="5.16139">
        <ele>515</ele>
        <time>2013-04-07T09:24:15.000Z</time>
      </trkpt>
      <trkpt lat="43.9724" lon="5.16156">
        <ele>515.79998779297</ele>
        <time>2013-04-07T09:24:24.000Z</time>
      </trkpt>
      <trkpt lat="43.97241" lon="5.1617">
        <ele>516.79998779297</ele>
        <time>2013-04-07T09:24:32.000Z</time>
      </trkpt>
      <trkpt lat="43.9724" lon="5.16188">
        <ele>517.79998779297</ele>
        <time>2013-04-07T09:24:42.000Z</time>
      </trkpt>
      <trkpt lat="43.9724" lon="5.16208">
        <ele>519.20001220703</ele>
        <time>2013-04-07T09:24:53.000Z</time>
      </trkpt>
      <trkpt lat="43.97237" lon="5.16225">
        <ele>521.40002441406</ele>
        <time>2013-04-07T09:25:01.000Z</time>
      </trkpt>
      <trkpt lat="43.97227" lon="5.16243">
        <ele>525.20001220703</ele>
        <time>2013-04-07T09:25:11.000Z</time>
      </trkpt>
      <trkpt lat="43.97219" lon="5.16252">
        <ele>527.20001220703</ele>
        <time>2013-04-07T09:25:18.000Z</time>
      </trkpt>
      <trkpt lat="43.9721" lon="5.16262">
        <ele>528.40002441406</ele>
        <time>2013-04-07T09:25:27.000Z</time>
      </trkpt>
      <trkpt lat="43.97198" lon="5.16274">
        <ele>529.79998779297</ele>
        <time>2013-04-07T09:25:37.000Z</time>
      </trkpt>
      <trkpt lat="43.9719" lon="5.16283">
        <ele>530.79998779297</ele>
        <time>2013-04-07T09:25:45.000Z</time>
      </trkpt>
      <trkpt lat="43.97179" lon="5.16298">
        <ele>532.20001220703</ele>
        <time>2013-04-07T09:25:54.000Z</time>
      </trkpt>
      <trkpt lat="43.9717" lon="5.16312">
        <ele>533.20001220703</ele>
        <time>2013-04-07T09:26:01.000Z</time>
      </trkpt>
      <trkpt lat="43.97159" lon="5.16331">
        <ele>535</ele>
        <time>2013-04-07T09:26:12.000Z</time>
      </trkpt>
      <trkpt lat="43.97145" lon="5.16353">
        <ele>537.40002441406</ele>
        <time>2013-04-07T09:26:24.000Z</time>
      </trkpt>
      <trkpt lat="43.97132" lon="5.16367">
        <ele>537.40002441406</ele>
        <time>2013-04-07T09:26:34.000Z</time>
      </trkpt>
      <trkpt lat="43.97121" lon="5.16383">
        <ele>537.79998779297</ele>
        <time>2013-04-07T09:26:42.000Z</time>
      </trkpt>
      <trkpt lat="43.97108" lon="5.164">
        <ele>538</ele>
        <time>2013-04-07T09:26:50.000Z</time>
      </trkpt>
      <trkpt lat="43.97091" lon="5.1642">
        <ele>538.20001220703</ele>
        <time>2013-04-07T09:26:58.000Z</time>
      </trkpt>
      <trkpt lat="43.97077" lon="5.16429">
        <ele>538.40002441406</ele>
        <time>2013-04-07T09:27:03.000Z</time>
      </trkpt>
      <trkpt lat="43.97061" lon="5.16425">
        <ele>538.40002441406</ele>
        <time>2013-04-07T09:27:08.000Z</time>
      </trkpt>
      <trkpt lat="43.97039" lon="5.16408">
        <ele>539.79998779297</ele>
        <time>2013-04-07T09:27:17.000Z</time>
      </trkpt>
      <trkpt lat="43.97021" lon="5.16393">
        <ele>541.59997558594</ele>
        <time>2013-04-07T09:27:28.000Z</time>
      </trkpt>
      <trkpt lat="43.97008" lon="5.16381">
        <ele>543.40002441406</ele>
        <time>2013-04-07T09:27:37.000Z</time>
      </trkpt>
      <trkpt lat="43.96995" lon="5.16366">
        <ele>546</ele>
        <time>2013-04-07T09:27:49.000Z</time>
      </trkpt>
      <trkpt lat="43.96988" lon="5.16355">
        <ele>547.40002441406</ele>
        <time>2013-04-07T09:27:57.000Z</time>
      </trkpt>
      <trkpt lat="43.96982" lon="5.16345">
        <ele>548.59997558594</ele>
        <time>2013-04-07T09:28:04.000Z</time>
      </trkpt>
      <trkpt lat="43.96977" lon="5.16333">
        <ele>549.79998779297</ele>
        <time>2013-04-07T09:28:12.000Z</time>
      </trkpt>
      <trkpt lat="43.96971" lon="5.16315">
        <ele>551.40002441406</ele>
        <time>2013-04-07T09:28:22.000Z</time>
      </trkpt>
      <trkpt lat="43.96965" lon="5.16299">
        <ele>553.59997558594</ele>
        <time>2013-04-07T09:28:33.000Z</time>
      </trkpt>
      <trkpt lat="43.96961" lon="5.16288">
        <ele>554.59997558594</ele>
        <time>2013-04-07T09:28:40.000Z</time>
      </trkpt>
      <trkpt lat="43.96956" lon="5.16274">
        <ele>556</ele>
        <time>2013-04-07T09:28:49.000Z</time>
      </trkpt>
      <trkpt lat="43.96948" lon="5.16258">
        <ele>558.20001220703</ele>
        <time>2013-04-07T09:29:00.000Z</time>
      </trkpt>
      <trkpt lat="43.96942" lon="5.16248">
        <ele>559.40002441406</ele>
        <time>2013-04-07T09:29:07.000Z</time>
      </trkpt>
      <trkpt lat="43.96932" lon="5.16242">
        <ele>560.40002441406</ele>
        <time>2013-04-07T09:29:17.000Z</time>
      </trkpt>
      <trkpt lat="43.9692" lon="5.16239">
        <ele>561.79998779297</ele>
        <time>2013-04-07T09:29:28.000Z</time>
      </trkpt>
      <trkpt lat="43.96904" lon="5.16235">
        <ele>562.59997558594</ele>
        <time>2013-04-07T09:29:40.000Z</time>
      </trkpt>
      <trkpt lat="43.96887" lon="5.16231">
        <ele>563.79998779297</ele>
        <time>2013-04-07T09:29:52.000Z</time>
      </trkpt>
      <trkpt lat="43.96873" lon="5.16227">
        <ele>564.40002441406</ele>
        <time>2013-04-07T09:30:00.000Z</time>
      </trkpt>
      <trkpt lat="43.96858" lon="5.16223">
        <ele>565.20001220703</ele>
        <time>2013-04-07T09:30:08.000Z</time>
      </trkpt>
      <trkpt lat="43.96839" lon="5.16217">
        <ele>566.20001220703</ele>
        <time>2013-04-07T09:30:17.000Z</time>
      </trkpt>
      <trkpt lat="43.96817" lon="5.16212">
        <ele>566.40002441406</ele>
        <time>2013-04-07T09:30:25.000Z</time>
      </trkpt>
      <trkpt lat="43.96787" lon="5.16213">
        <ele>566.20001220703</ele>
        <time>2013-04-07T09:30:35.000Z</time>
      </trkpt>
      <trkpt lat="43.96763" lon="5.16225">
        <ele>566.40002441406</ele>
        <time>2013-04-07T09:30:43.000Z</time>
      </trkpt>
      <trkpt lat="43.9673" lon="5.16248">
        <ele>566.79998779297</ele>
        <time>2013-04-07T09:30:55.000Z</time>
      </trkpt>
      <trkpt lat="43.9671" lon="5.16267">
        <ele>567</ele>
        <time>2013-04-07T09:31:03.000Z</time>
      </trkpt>
      <trkpt lat="43.96685" lon="5.16295">
        <ele>567.20001220703</ele>
        <time>2013-04-07T09:31:13.000Z</time>
      </trkpt>
      <trkpt lat="43.96662" lon="5.16307">
        <ele>567.59997558594</ele>
        <time>2013-04-07T09:31:21.000Z</time>
      </trkpt>
      <trkpt lat="43.9664" lon="5.16312">
        <ele>568.20001220703</ele>
        <time>2013-04-07T09:31:29.000Z</time>
      </trkpt>
      <trkpt lat="43.96617" lon="5.16316">
        <ele>569</ele>
        <time>2013-04-07T09:31:38.000Z</time>
      </trkpt>
      <trkpt lat="43.96596" lon="5.1632">
        <ele>570.20001220703</ele>
        <time>2013-04-07T09:31:47.000Z</time>
      </trkpt>
      <trkpt lat="43.96571" lon="5.16323">
        <ele>571.40002441406</ele>
        <time>2013-04-07T09:31:58.000Z</time>
      </trkpt>
      <trkpt lat="43.96548" lon="5.16325">
        <ele>572.40002441406</ele>
        <time>2013-04-07T09:32:09.000Z</time>
      </trkpt>
      <trkpt lat="43.96529" lon="5.16325">
        <ele>573.40002441406</ele>
        <time>2013-04-07T09:32:18.000Z</time>
      </trkpt>
      <trkpt lat="43.96501" lon="5.16324">
        <ele>574.59997558594</ele>
        <time>2013-04-07T09:32:31.000Z</time>
      </trkpt>
      <trkpt lat="43.96476" lon="5.16321">
        <ele>575.79998779297</ele>
        <time>2013-04-07T09:32:42.000Z</time>
      </trkpt>
      <trkpt lat="43.96449" lon="5.16315">
        <ele>577.20001220703</ele>
        <time>2013-04-07T09:32:53.000Z</time>
      </trkpt>
      <trkpt lat="43.96429" lon="5.16313">
        <ele>578.20001220703</ele>
        <time>2013-04-07T09:33:02.000Z</time>
      </trkpt>
      <trkpt lat="43.96405" lon="5.16309">
        <ele>579.59997558594</ele>
        <time>2013-04-07T09:33:13.000Z</time>
      </trkpt>
      <trkpt lat="43.96377" lon="5.16306">
        <ele>580.59997558594</ele>
        <time>2013-04-07T09:33:24.000Z</time>
      </trkpt>
      <trkpt lat="43.96352" lon="5.16301">
        <ele>580.59997558594</ele>
        <time>2013-04-07T09:33:33.000Z</time>
      </trkpt>
      <trkpt lat="43.9634" lon="5.16298">
        <ele>581.59997558594</ele>
        <time>2013-04-07T09:33:39.000Z</time>
      </trkpt>
      <trkpt lat="43.96338" lon="5.16297">
        <ele>581.79998779297</ele>
        <time>2013-04-07T09:33:42.000Z</time>
      </trkpt>
      <trkpt lat="43.96335" lon="5.16294">
        <ele>581.40002441406</ele>
        <time>2013-04-07T09:35:31.000Z</time>
      </trkpt>
      <trkpt lat="43.96331" lon="5.16283">
        <ele>580.40002441406</ele>
        <time>2013-04-07T09:35:35.000Z</time>
      </trkpt>
      <trkpt lat="43.96333" lon="5.16265">
        <ele>577.79998779297</ele>
        <time>2013-04-07T09:35:40.000Z</time>
      </trkpt>
      <trkpt lat="43.96332" lon="5.16253">
        <ele>576.20001220703</ele>
        <time>2013-04-07T09:35:44.000Z</time>
      </trkpt>
      <trkpt lat="43.96331" lon="5.1625">
        <ele>575.79998779297</ele>
        <time>2013-04-07T09:35:45.000Z</time>
      </trkpt>
      <trkpt lat="43.96329" lon="5.16236">
        <ele>573.79998779297</ele>
        <time>2013-04-07T09:35:50.000Z</time>
      </trkpt>
      <trkpt lat="43.96321" lon="5.16218">
        <ele>570.59997558594</ele>
        <time>2013-04-07T09:35:55.000Z</time>
      </trkpt>
      <trkpt lat="43.96311" lon="5.16208">
        <ele>568.20001220703</ele>
        <time>2013-04-07T09:35:58.000Z</time>
      </trkpt>
      <trkpt lat="43.96314" lon="5.162">
        <ele>565.79998779297</ele>
        <time>2013-04-07T09:36:02.000Z</time>
      </trkpt>
      <trkpt lat="43.96322" lon="5.16202">
        <ele>562.79998779297</ele>
        <time>2013-04-07T09:36:05.000Z</time>
      </trkpt>
      <trkpt lat="43.96329" lon="5.16205">
        <ele>560.40002441406</ele>
        <time>2013-04-07T09:36:07.000Z</time>
      </trkpt>
      <trkpt lat="43.96356" lon="5.16203">
        <ele>554.20001220703</ele>
        <time>2013-04-07T09:36:13.000Z</time>
      </trkpt>
      <trkpt lat="43.96371" lon="5.16204">
        <ele>550.40002441406</ele>
        <time>2013-04-07T09:36:17.000Z</time>
      </trkpt>
      <trkpt lat="43.96375" lon="5.16203">
        <ele>549.59997558594</ele>
        <time>2013-04-07T09:36:18.000Z</time>
      </trkpt>
      <trkpt lat="43.96389" lon="5.16203">
        <ele>547.59997558594</ele>
        <time>2013-04-07T09:36:21.000Z</time>
      </trkpt>
      <trkpt lat="43.96418" lon="5.16199">
        <ele>542.59997558594</ele>
        <time>2013-04-07T09:36:27.000Z</time>
      </trkpt>
      <trkpt lat="43.96441" lon="5.16195">
        <ele>537.20001220703</ele>
        <time>2013-04-07T09:36:33.000Z</time>
      </trkpt>
      <trkpt lat="43.96463" lon="5.16191">
        <ele>533</ele>
        <time>2013-04-07T09:36:39.000Z</time>
      </trkpt>
      <trkpt lat="43.96476" lon="5.16183">
        <ele>531.40002441406</ele>
        <time>2013-04-07T09:36:43.000Z</time>
      </trkpt>
      <trkpt lat="43.96484" lon="5.16177">
        <ele>529</ele>
        <time>2013-04-07T09:36:46.000Z</time>
      </trkpt>
      <trkpt lat="43.96497" lon="5.16174">
        <ele>525.40002441406</ele>
        <time>2013-04-07T09:36:50.000Z</time>
      </trkpt>
      <trkpt lat="43.96505" lon="5.16172">
        <ele>522.59997558594</ele>
        <time>2013-04-07T09:36:52.000Z</time>
      </trkpt>
      <trkpt lat="43.96515" lon="5.16165">
        <ele>520.59997558594</ele>
        <time>2013-04-07T09:36:54.000Z</time>
      </trkpt>
      <trkpt lat="43.96533" lon="5.16147">
        <ele>516</ele>
        <time>2013-04-07T09:36:59.000Z</time>
      </trkpt>
      <trkpt lat="43.96548" lon="5.16134">
        <ele>513.20001220703</ele>
        <time>2013-04-07T09:37:03.000Z</time>
      </trkpt>
      <trkpt lat="43.9656" lon="5.1612">
        <ele>511.60000610352</ele>
        <time>2013-04-07T09:37:06.000Z</time>
      </trkpt>
      <trkpt lat="43.96574" lon="5.16108">
        <ele>509.60000610352</ele>
        <time>2013-04-07T09:37:09.000Z</time>
      </trkpt>
      <trkpt lat="43.96595" lon="5.1609">
        <ele>505.79998779297</ele>
        <time>2013-04-07T09:37:14.000Z</time>
      </trkpt>
      <trkpt lat="43.96599" lon="5.16085">
        <ele>505</ele>
        <time>2013-04-07T09:37:15.000Z</time>
      </trkpt>
      <trkpt lat="43.96612" lon="5.16067">
        <ele>503.39999389648</ele>
        <time>2013-04-07T09:37:18.000Z</time>
      </trkpt>
      <trkpt lat="43.96621" lon="5.16048">
        <ele>499.79998779297</ele>
        <time>2013-04-07T09:37:21.000Z</time>
      </trkpt>
      <trkpt lat="43.96639" lon="5.16027">
        <ele>496.20001220703</ele>
        <time>2013-04-07T09:37:25.000Z</time>
      </trkpt>
      <trkpt lat="43.96649" lon="5.16012">
        <ele>493.79998779297</ele>
        <time>2013-04-07T09:37:28.000Z</time>
      </trkpt>
      <trkpt lat="43.96656" lon="5.16005">
        <ele>491.79998779297</ele>
        <time>2013-04-07T09:37:30.000Z</time>
      </trkpt>
      <trkpt lat="43.96672" lon="5.15984">
        <ele>489.60000610352</ele>
        <time>2013-04-07T09:37:35.000Z</time>
      </trkpt>
      <trkpt lat="43.96683" lon="5.15977">
        <ele>486.60000610352</ele>
        <time>2013-04-07T09:37:38.000Z</time>
      </trkpt>
      <trkpt lat="43.96686" lon="5.15973">
        <ele>485.60000610352</ele>
        <time>2013-04-07T09:37:39.000Z</time>
      </trkpt>
      <trkpt lat="43.96698" lon="5.15961">
        <ele>483.60000610352</ele>
        <time>2013-04-07T09:37:43.000Z</time>
      </trkpt>
      <trkpt lat="43.96718" lon="5.15954">
        <ele>480.60000610352</ele>
        <time>2013-04-07T09:37:47.000Z</time>
      </trkpt>
      <trkpt lat="43.96736" lon="5.15936">
        <ele>476.20001220703</ele>
        <time>2013-04-07T09:37:53.000Z</time>
      </trkpt>
      <trkpt lat="43.96758" lon="5.15901">
        <ele>473.60000610352</ele>
        <time>2013-04-07T09:37:59.000Z</time>
      </trkpt>
      <trkpt lat="43.96765" lon="5.15888">
        <ele>471.60000610352</ele>
        <time>2013-04-07T09:38:01.000Z</time>
      </trkpt>
      <trkpt lat="43.96782" lon="5.15877">
        <ele>470</ele>
        <time>2013-04-07T09:38:05.000Z</time>
      </trkpt>
      <trkpt lat="43.96817" lon="5.15867">
        <ele>464</ele>
        <time>2013-04-07T09:38:11.000Z</time>
      </trkpt>
      <trkpt lat="43.96829" lon="5.15862">
        <ele>462.20001220703</ele>
        <time>2013-04-07T09:38:13.000Z</time>
      </trkpt>
      <trkpt lat="43.96844" lon="5.15846">
        <ele>457</ele>
        <time>2013-04-07T09:38:17.000Z</time>
      </trkpt>
      <trkpt lat="43.96853" lon="5.15838">
        <ele>455</ele>
        <time>2013-04-07T09:38:19.000Z</time>
      </trkpt>
      <trkpt lat="43.96878" lon="5.15808">
        <ele>452</ele>
        <time>2013-04-07T09:38:25.000Z</time>
      </trkpt>
      <trkpt lat="43.96883" lon="5.15797">
        <ele>451</ele>
        <time>2013-04-07T09:38:27.000Z</time>
      </trkpt>
      <trkpt lat="43.9689" lon="5.15779">
        <ele>449</ele>
        <time>2013-04-07T09:38:30.000Z</time>
      </trkpt>
      <trkpt lat="43.96895" lon="5.15767">
        <ele>446.39999389648</ele>
        <time>2013-04-07T09:38:32.000Z</time>
      </trkpt>
      <trkpt lat="43.96899" lon="5.15747">
        <ele>441.20001220703</ele>
        <time>2013-04-07T09:38:35.000Z</time>
      </trkpt>
      <trkpt lat="43.9691" lon="5.15719">
        <ele>436.39999389648</ele>
        <time>2013-04-07T09:38:39.000Z</time>
      </trkpt>
      <trkpt lat="43.96925" lon="5.15691">
        <ele>431.79998779297</ele>
        <time>2013-04-07T09:38:44.000Z</time>
      </trkpt>
      <trkpt lat="43.96928" lon="5.15685">
        <ele>430.20001220703</ele>
        <time>2013-04-07T09:38:45.000Z</time>
      </trkpt>
      <trkpt lat="43.96942" lon="5.15654">
        <ele>425.39999389648</ele>
        <time>2013-04-07T09:38:49.000Z</time>
      </trkpt>
      <trkpt lat="43.96948" lon="5.1563">
        <ele>423</ele>
        <time>2013-04-07T09:38:52.000Z</time>
      </trkpt>
      <trkpt lat="43.96963" lon="5.15599">
        <ele>420</ele>
        <time>2013-04-07T09:38:57.000Z</time>
      </trkpt>
      <trkpt lat="43.96971" lon="5.15588">
        <ele>418.20001220703</ele>
        <time>2013-04-07T09:39:01.000Z</time>
      </trkpt>
      <trkpt lat="43.96971" lon="5.15588">
        <ele>418.39999389648</ele>
        <time>2013-04-07T09:39:02.000Z</time>
      </trkpt>
      <trkpt lat="43.96965" lon="5.15588">
        <ele>418.20001220703</ele>
        <time>2013-04-07T09:39:09.000Z</time>
      </trkpt>
      <trkpt lat="43.96965" lon="5.15588">
        <ele>418.20001220703</ele>
        <time>2013-04-07T09:39:10.000Z</time>
      </trkpt>
      <trkpt lat="43.96957" lon="5.15577">
        <ele>425.20001220703</ele>
        <time>2013-04-07T09:39:29.000Z</time>
      </trkpt>
      <trkpt lat="43.9695" lon="5.15568">
        <ele>426.60000610352</ele>
        <time>2013-04-07T09:39:35.000Z</time>
      </trkpt>
      <trkpt lat="43.96944" lon="5.15562">
        <ele>426.79998779297</ele>
        <time>2013-04-07T09:39:41.000Z</time>
      </trkpt>
      <trkpt lat="43.96939" lon="5.15556">
        <ele>427.79998779297</ele>
        <time>2013-04-07T09:39:45.000Z</time>
      </trkpt>
      <trkpt lat="43.9693" lon="5.15547">
        <ele>429.20001220703</ele>
        <time>2013-04-07T09:39:52.000Z</time>
      </trkpt>
      <trkpt lat="43.96922" lon="5.15537">
        <ele>431</ele>
        <time>2013-04-07T09:39:59.000Z</time>
      </trkpt>
      <trkpt lat="43.96917" lon="5.15533">
        <ele>432.39999389648</ele>
        <time>2013-04-07T09:40:03.000Z</time>
      </trkpt>
      <trkpt lat="43.96916" lon="5.1552">
        <ele>435.60000610352</ele>
        <time>2013-04-07T09:40:09.000Z</time>
      </trkpt>
      <trkpt lat="43.96918" lon="5.15507">
        <ele>437.20001220703</ele>
        <time>2013-04-07T09:40:16.000Z</time>
      </trkpt>
      <trkpt lat="43.96917" lon="5.15502">
        <ele>437.60000610352</ele>
        <time>2013-04-07T09:40:19.000Z</time>
      </trkpt>
      <trkpt lat="43.96912" lon="5.15491">
        <ele>438.39999389648</ele>
        <time>2013-04-07T09:40:27.000Z</time>
      </trkpt>
      <trkpt lat="43.96907" lon="5.15476">
        <ele>441.79998779297</ele>
        <time>2013-04-07T09:40:36.000Z</time>
      </trkpt>
      <trkpt lat="43.96903" lon="5.15465">
        <ele>442.60000610352</ele>
        <time>2013-04-07T09:40:44.000Z</time>
      </trkpt>
      <trkpt lat="43.96896" lon="5.15449">
        <ele>441.60000610352</ele>
        <time>2013-04-07T09:40:55.000Z</time>
      </trkpt>
      <trkpt lat="43.96894" lon="5.15445">
        <ele>442</ele>
        <time>2013-04-07T09:40:59.000Z</time>
      </trkpt>
      <trkpt lat="43.96883" lon="5.15433">
        <ele>443</ele>
        <time>2013-04-07T09:41:09.000Z</time>
      </trkpt>
      <trkpt lat="43.96875" lon="5.15422">
        <ele>443.79998779297</ele>
        <time>2013-04-07T09:41:17.000Z</time>
      </trkpt>
      <trkpt lat="43.96867" lon="5.15408">
        <ele>445.39999389648</ele>
        <time>2013-04-07T09:41:26.000Z</time>
      </trkpt>
      <trkpt lat="43.96854" lon="5.15394">
        <ele>446.20001220703</ele>
        <time>2013-04-07T09:41:36.000Z</time>
      </trkpt>
      <trkpt lat="43.96843" lon="5.15381">
        <ele>445.79998779297</ele>
        <time>2013-04-07T09:41:40.000Z</time>
      </trkpt>
      <trkpt lat="43.96835" lon="5.15378">
        <ele>444.79998779297</ele>
        <time>2013-04-07T09:41:42.000Z</time>
      </trkpt>
      <trkpt lat="43.96819" lon="5.15369">
        <ele>442.79998779297</ele>
        <time>2013-04-07T09:41:46.000Z</time>
      </trkpt>
      <trkpt lat="43.9681" lon="5.15345">
        <ele>439</ele>
        <time>2013-04-07T09:41:52.000Z</time>
      </trkpt>
      <trkpt lat="43.96803" lon="5.15318">
        <ele>434.39999389648</ele>
        <time>2013-04-07T09:41:57.000Z</time>
      </trkpt>
      <trkpt lat="43.96793" lon="5.15298">
        <ele>431.39999389648</ele>
        <time>2013-04-07T09:42:01.000Z</time>
      </trkpt>
      <trkpt lat="43.96791" lon="5.15293">
        <ele>430.39999389648</ele>
        <time>2013-04-07T09:42:02.000Z</time>
      </trkpt>
      <trkpt lat="43.96787" lon="5.15278">
        <ele>425.39999389648</ele>
        <time>2013-04-07T09:42:05.000Z</time>
      </trkpt>
      <trkpt lat="43.9678" lon="5.15257">
        <ele>421.60000610352</ele>
        <time>2013-04-07T09:42:08.000Z</time>
      </trkpt>
      <trkpt lat="43.96774" lon="5.15243">
        <ele>419.79998779297</ele>
        <time>2013-04-07T09:42:10.000Z</time>
      </trkpt>
      <trkpt lat="43.96771" lon="5.1523">
        <ele>418</ele>
        <time>2013-04-07T09:42:12.000Z</time>
      </trkpt>
      <trkpt lat="43.96767" lon="5.15181">
        <ele>410.79998779297</ele>
        <time>2013-04-07T09:42:18.000Z</time>
      </trkpt>
      <trkpt lat="43.96762" lon="5.15156">
        <ele>407.39999389648</ele>
        <time>2013-04-07T09:42:22.000Z</time>
      </trkpt>
      <trkpt lat="43.96754" lon="5.1514">
        <ele>404.79998779297</ele>
        <time>2013-04-07T09:42:29.000Z</time>
      </trkpt>
      <trkpt lat="43.96746" lon="5.15124">
        <ele>404.60000610352</ele>
        <time>2013-04-07T09:42:38.000Z</time>
      </trkpt>
      <trkpt lat="43.96742" lon="5.15113">
        <ele>406.39999389648</ele>
        <time>2013-04-07T09:42:45.000Z</time>
      </trkpt>
      <trkpt lat="43.96738" lon="5.15102">
        <ele>406.39999389648</ele>
        <time>2013-04-07T09:42:51.000Z</time>
      </trkpt>
      <trkpt lat="43.96737" lon="5.15088">
        <ele>412.39999389648</ele>
        <time>2013-04-07T09:42:59.000Z</time>
      </trkpt>
      <trkpt lat="43.96736" lon="5.15087">
        <ele>413.20001220703</ele>
        <time>2013-04-07T09:43:00.000Z</time>
      </trkpt>
      <trkpt lat="43.96734" lon="5.15083">
        <ele>413.79998779297</ele>
        <time>2013-04-07T09:43:05.000Z</time>
      </trkpt>
      <trkpt lat="43.96733" lon="5.1508">
        <ele>415.60000610352</ele>
        <time>2013-04-07T09:43:09.000Z</time>
      </trkpt>
      <trkpt lat="43.9673" lon="5.15072">
        <ele>421</ele>
        <time>2013-04-07T09:43:18.000Z</time>
      </trkpt>
      <trkpt lat="43.96728" lon="5.15064">
        <ele>423.39999389648</ele>
        <time>2013-04-07T09:43:28.000Z</time>
      </trkpt>
      <trkpt lat="43.96725" lon="5.15058">
        <ele>424.79998779297</ele>
        <time>2013-04-07T09:43:35.000Z</time>
      </trkpt>
      <trkpt lat="43.96723" lon="5.1505">
        <ele>426.39999389648</ele>
        <time>2013-04-07T09:43:44.000Z</time>
      </trkpt>
      <trkpt lat="43.96722" lon="5.15044">
        <ele>427</ele>
        <time>2013-04-07T09:43:51.000Z</time>
      </trkpt>
      <trkpt lat="43.96721" lon="5.15036">
        <ele>430.39999389648</ele>
        <time>2013-04-07T09:43:59.000Z</time>
      </trkpt>
      <trkpt lat="43.96717" lon="5.15029">
        <ele>432.39999389648</ele>
        <time>2013-04-07T09:44:07.000Z</time>
      </trkpt>
      <trkpt lat="43.96712" lon="5.15021">
        <ele>435.79998779297</ele>
        <time>2013-04-07T09:44:16.000Z</time>
      </trkpt>
      <trkpt lat="43.96708" lon="5.1502">
        <ele>436.60000610352</ele>
        <time>2013-04-07T09:44:21.000Z</time>
      </trkpt>
      <trkpt lat="43.96704" lon="5.15016">
        <ele>436.39999389648</ele>
        <time>2013-04-07T09:44:27.000Z</time>
      </trkpt>
      <trkpt lat="43.96702" lon="5.15011">
        <ele>437</ele>
        <time>2013-04-07T09:44:32.000Z</time>
      </trkpt>
      <trkpt lat="43.967" lon="5.15007">
        <ele>437.20001220703</ele>
        <time>2013-04-07T09:44:35.000Z</time>
      </trkpt>
      <trkpt lat="43.96699" lon="5.14999">
        <ele>438.79998779297</ele>
        <time>2013-04-07T09:44:43.000Z</time>
      </trkpt>
      <trkpt lat="43.96704" lon="5.14982">
        <ele>437.60000610352</ele>
        <time>2013-04-07T09:44:54.000Z</time>
      </trkpt>
      <trkpt lat="43.96705" lon="5.14975">
        <ele>435.39999389648</ele>
        <time>2013-04-07T09:45:00.000Z</time>
      </trkpt>
      <trkpt lat="43.96713" lon="5.14958">
        <ele>435.79998779297</ele>
        <time>2013-04-07T09:45:13.000Z</time>
      </trkpt>
      <trkpt lat="43.96715" lon="5.14946">
        <ele>437.60000610352</ele>
        <time>2013-04-07T09:45:18.000Z</time>
      </trkpt>
      <trkpt lat="43.96724" lon="5.14942">
        <ele>437.79998779297</ele>
        <time>2013-04-07T09:45:24.000Z</time>
      </trkpt>
      <trkpt lat="43.96727" lon="5.14943">
        <ele>437.60000610352</ele>
        <time>2013-04-07T09:45:26.000Z</time>
      </trkpt>
      <trkpt lat="43.96742" lon="5.14956">
        <ele>436.60000610352</ele>
        <time>2013-04-07T09:45:32.000Z</time>
      </trkpt>
      <trkpt lat="43.96748" lon="5.14961">
        <ele>436.79998779297</ele>
        <time>2013-04-07T09:45:34.000Z</time>
      </trkpt>
      <trkpt lat="43.96761" lon="5.14978">
        <ele>435.39999389648</ele>
        <time>2013-04-07T09:45:39.000Z</time>
      </trkpt>
      <trkpt lat="43.96763" lon="5.14982">
        <ele>435</ele>
        <time>2013-04-07T09:45:40.000Z</time>
      </trkpt>
      <trkpt lat="43.9678" lon="5.14992">
        <ele>433.20001220703</ele>
        <time>2013-04-07T09:45:44.000Z</time>
      </trkpt>
      <trkpt lat="43.96789" lon="5.14997">
        <ele>432</ele>
        <time>2013-04-07T09:45:46.000Z</time>
      </trkpt>
      <trkpt lat="43.968" lon="5.15007">
        <ele>430.60000610352</ele>
        <time>2013-04-07T09:45:49.000Z</time>
      </trkpt>
      <trkpt lat="43.96819" lon="5.15028">
        <ele>428.60000610352</ele>
        <time>2013-04-07T09:45:53.000Z</time>
      </trkpt>
      <trkpt lat="43.96825" lon="5.15032">
        <ele>428</ele>
        <time>2013-04-07T09:45:54.000Z</time>
      </trkpt>
      <trkpt lat="43.96854" lon="5.15037">
        <ele>423.79998779297</ele>
        <time>2013-04-07T09:45:59.000Z</time>
      </trkpt>
      <trkpt lat="43.96861" lon="5.15037">
        <ele>423.20001220703</ele>
        <time>2013-04-07T09:46:00.000Z</time>
      </trkpt>
      <trkpt lat="43.96872" lon="5.1504">
        <ele>421.20001220703</ele>
        <time>2013-04-07T09:46:02.000Z</time>
      </trkpt>
      <trkpt lat="43.96894" lon="5.15044">
        <ele>419.39999389648</ele>
        <time>2013-04-07T09:46:07.000Z</time>
      </trkpt>
      <trkpt lat="43.96909" lon="5.15046">
        <ele>417.79998779297</ele>
        <time>2013-04-07T09:46:10.000Z</time>
      </trkpt>
      <trkpt lat="43.96938" lon="5.15032">
        <ele>415.39999389648</ele>
        <time>2013-04-07T09:46:15.000Z</time>
      </trkpt>
      <trkpt lat="43.96944" lon="5.15029">
        <ele>415.39999389648</ele>
        <time>2013-04-07T09:46:16.000Z</time>
      </trkpt>
      <trkpt lat="43.96963" lon="5.15025">
        <ele>414</ele>
        <time>2013-04-07T09:46:20.000Z</time>
      </trkpt>
      <trkpt lat="43.96978" lon="5.15027">
        <ele>414.39999389648</ele>
        <time>2013-04-07T09:46:23.000Z</time>
      </trkpt>
      <trkpt lat="43.96988" lon="5.15035">
        <ele>414.60000610352</ele>
        <time>2013-04-07T09:46:25.000Z</time>
      </trkpt>
      <trkpt lat="43.97018" lon="5.15045">
        <ele>410.20001220703</ele>
        <time>2013-04-07T09:46:31.000Z</time>
      </trkpt>
      <trkpt lat="43.97044" lon="5.15033">
        <ele>406.20001220703</ele>
        <time>2013-04-07T09:46:36.000Z</time>
      </trkpt>
      <trkpt lat="43.9707" lon="5.1503">
        <ele>400.79998779297</ele>
        <time>2013-04-07T09:46:42.000Z</time>
      </trkpt>
      <trkpt lat="43.97093" lon="5.1503">
        <ele>396.39999389648</ele>
        <time>2013-04-07T09:46:47.000Z</time>
      </trkpt>
      <trkpt lat="43.97106" lon="5.15031">
        <ele>394.20001220703</ele>
        <time>2013-04-07T09:46:50.000Z</time>
      </trkpt>
      <trkpt lat="43.97131" lon="5.15024">
        <ele>390.60000610352</ele>
        <time>2013-04-07T09:46:55.000Z</time>
      </trkpt>
      <trkpt lat="43.97141" lon="5.15015">
        <ele>389.20001220703</ele>
        <time>2013-04-07T09:46:57.000Z</time>
      </trkpt>
      <trkpt lat="43.97154" lon="5.14995">
        <ele>385.79998779297</ele>
        <time>2013-04-07T09:47:00.000Z</time>
      </trkpt>
      <trkpt lat="43.97166" lon="5.14971">
        <ele>381.60000610352</ele>
        <time>2013-04-07T09:47:03.000Z</time>
      </trkpt>
      <trkpt lat="43.97179" lon="5.14966">
        <ele>379.60000610352</ele>
        <time>2013-04-07T09:47:07.000Z</time>
      </trkpt>
      <trkpt lat="43.9718" lon="5.14971">
        <ele>379.39999389648</ele>
        <time>2013-04-07T09:47:08.000Z</time>
      </trkpt>
      <trkpt lat="43.97193" lon="5.14995">
        <ele>376.20001220703</ele>
        <time>2013-04-07T09:47:13.000Z</time>
      </trkpt>
      <trkpt lat="43.97205" lon="5.1499">
        <ele>374.79998779297</ele>
        <time>2013-04-07T09:47:15.000Z</time>
      </trkpt>
      <trkpt lat="43.9721" lon="5.14983">
        <ele>374</ele>
        <time>2013-04-07T09:47:16.000Z</time>
      </trkpt>
      <trkpt lat="43.97219" lon="5.14967">
        <ele>372.20001220703</ele>
        <time>2013-04-07T09:47:18.000Z</time>
      </trkpt>
      <trkpt lat="43.97238" lon="5.14952">
        <ele>369.39999389648</ele>
        <time>2013-04-07T09:47:22.000Z</time>
      </trkpt>
      <trkpt lat="43.97244" lon="5.14964">
        <ele>368.79998779297</ele>
        <time>2013-04-07T09:47:25.000Z</time>
      </trkpt>
      <trkpt lat="43.97242" lon="5.14975">
        <ele>368.39999389648</ele>
        <time>2013-04-07T09:47:27.000Z</time>
      </trkpt>
      <trkpt lat="43.97234" lon="5.14995">
        <ele>368.20001220703</ele>
        <time>2013-04-07T09:47:33.000Z</time>
      </trkpt>
      <trkpt lat="43.97234" lon="5.14997">
        <ele>368</ele>
        <time>2013-04-07T09:47:36.000Z</time>
      </trkpt>
      <trkpt lat="43.97233" lon="5.14998">
        <ele>362.39999389648</ele>
        <time>2013-04-07T09:54:25.000Z</time>
      </trkpt>
      <trkpt lat="43.97238" lon="5.14992">
        <ele>363.60000610352</ele>
        <time>2013-04-07T09:54:50.000Z</time>
      </trkpt>
      <trkpt lat="43.97243" lon="5.14986">
        <ele>364</ele>
        <time>2013-04-07T09:54:58.000Z</time>
      </trkpt>
      <trkpt lat="43.97244" lon="5.14984">
        <ele>364.20001220703</ele>
        <time>2013-04-07T09:55:00.000Z</time>
      </trkpt>
      <trkpt lat="43.97245" lon="5.1497">
        <ele>365.79998779297</ele>
        <time>2013-04-07T09:55:08.000Z</time>
      </trkpt>
      <trkpt lat="43.9725" lon="5.14956">
        <ele>366</ele>
        <time>2013-04-07T09:55:16.000Z</time>
      </trkpt>
      <trkpt lat="43.97251" lon="5.14953">
        <ele>365.39999389648</ele>
        <time>2013-04-07T09:55:17.000Z</time>
      </trkpt>
      <trkpt lat="43.97269" lon="5.14944">
        <ele>362.79998779297</ele>
        <time>2013-04-07T09:55:21.000Z</time>
      </trkpt>
      <trkpt lat="43.97285" lon="5.14944">
        <ele>361.20001220703</ele>
        <time>2013-04-07T09:55:24.000Z</time>
      </trkpt>
      <trkpt lat="43.97288" lon="5.14925">
        <ele>357.39999389648</ele>
        <time>2013-04-07T09:55:28.000Z</time>
      </trkpt>
      <trkpt lat="43.97298" lon="5.14876">
        <ele>351.39999389648</ele>
        <time>2013-04-07T09:55:34.000Z</time>
      </trkpt>
      <trkpt lat="43.97306" lon="5.14851">
        <ele>348.79998779297</ele>
        <time>2013-04-07T09:55:37.000Z</time>
      </trkpt>
      <trkpt lat="43.9731" lon="5.14817">
        <ele>347</ele>
        <time>2013-04-07T09:55:41.000Z</time>
      </trkpt>
      <trkpt lat="43.97317" lon="5.14779">
        <ele>345.20001220703</ele>
        <time>2013-04-07T09:55:46.000Z</time>
      </trkpt>
      <trkpt lat="43.97323" lon="5.14741">
        <ele>343.79998779297</ele>
        <time>2013-04-07T09:55:51.000Z</time>
      </trkpt>
      <trkpt lat="43.97324" lon="5.14728">
        <ele>343.39999389648</ele>
        <time>2013-04-07T09:55:53.000Z</time>
      </trkpt>
      <trkpt lat="43.97331" lon="5.14705">
        <ele>342</ele>
        <time>2013-04-07T09:55:57.000Z</time>
      </trkpt>
      <trkpt lat="43.97334" lon="5.14699">
        <ele>341.39999389648</ele>
        <time>2013-04-07T09:55:58.000Z</time>
      </trkpt>
      <trkpt lat="43.97342" lon="5.14667">
        <ele>339.20001220703</ele>
        <time>2013-04-07T09:56:02.000Z</time>
      </trkpt>
      <trkpt lat="43.97343" lon="5.14657">
        <ele>338.79998779297</ele>
        <time>2013-04-07T09:56:03.000Z</time>
      </trkpt>
      <trkpt lat="43.9735" lon="5.14628">
        <ele>337</ele>
        <time>2013-04-07T09:56:07.000Z</time>
      </trkpt>
      <trkpt lat="43.97353" lon="5.1462">
        <ele>336.39999389648</ele>
        <time>2013-04-07T09:56:08.000Z</time>
      </trkpt>
      <trkpt lat="43.97359" lon="5.14604">
        <ele>335.60000610352</ele>
        <time>2013-04-07T09:56:10.000Z</time>
      </trkpt>
      <trkpt lat="43.97374" lon="5.14578">
        <ele>333.79998779297</ele>
        <time>2013-04-07T09:56:14.000Z</time>
      </trkpt>
      <trkpt lat="43.97398" lon="5.14551">
        <ele>331.39999389648</ele>
        <time>2013-04-07T09:56:19.000Z</time>
      </trkpt>
      <trkpt lat="43.97426" lon="5.1454">
        <ele>329</ele>
        <time>2013-04-07T09:56:23.000Z</time>
      </trkpt>
      <trkpt lat="43.97441" lon="5.14555">
        <ele>328.60000610352</ele>
        <time>2013-04-07T09:56:26.000Z</time>
      </trkpt>
      <trkpt lat="43.97451" lon="5.14562">
        <ele>327.60000610352</ele>
        <time>2013-04-07T09:56:29.000Z</time>
      </trkpt>
      <trkpt lat="43.97455" lon="5.14542">
        <ele>327.20001220703</ele>
        <time>2013-04-07T09:56:32.000Z</time>
      </trkpt>
      <trkpt lat="43.97465" lon="5.14514">
        <ele>326.39999389648</ele>
        <time>2013-04-07T09:56:37.000Z</time>
      </trkpt>
      <trkpt lat="43.97483" lon="5.14508">
        <ele>325.79998779297</ele>
        <time>2013-04-07T09:56:41.000Z</time>
      </trkpt>
      <trkpt lat="43.97488" lon="5.14507">
        <ele>325.60000610352</ele>
        <time>2013-04-07T09:56:42.000Z</time>
      </trkpt>
      <trkpt lat="43.97519" lon="5.14488">
        <ele>325.79998779297</ele>
        <time>2013-04-07T09:56:48.000Z</time>
      </trkpt>
      <trkpt lat="43.97545" lon="5.14474">
        <ele>324</ele>
        <time>2013-04-07T09:56:54.000Z</time>
      </trkpt>
      <trkpt lat="43.97558" lon="5.14467">
        <ele>322.79998779297</ele>
        <time>2013-04-07T09:56:57.000Z</time>
      </trkpt>
      <trkpt lat="43.97573" lon="5.14444">
        <ele>321</ele>
        <time>2013-04-07T09:57:01.000Z</time>
      </trkpt>
      <trkpt lat="43.97595" lon="5.1442">
        <ele>317.20001220703</ele>
        <time>2013-04-07T09:57:06.000Z</time>
      </trkpt>
      <trkpt lat="43.97603" lon="5.14407">
        <ele>315.79998779297</ele>
        <time>2013-04-07T09:57:08.000Z</time>
      </trkpt>
      <trkpt lat="43.97618" lon="5.1438">
        <ele>312.79998779297</ele>
        <time>2013-04-07T09:57:12.000Z</time>
      </trkpt>
      <trkpt lat="43.97635" lon="5.14367">
        <ele>311</ele>
        <time>2013-04-07T09:57:16.000Z</time>
      </trkpt>
      <trkpt lat="43.97643" lon="5.14363">
        <ele>310.20001220703</ele>
        <time>2013-04-07T09:57:18.000Z</time>
      </trkpt>
      <trkpt lat="43.97648" lon="5.14346">
        <ele>308.79998779297</ele>
        <time>2013-04-07T09:57:21.000Z</time>
      </trkpt>
      <trkpt lat="43.9766" lon="5.14323">
        <ele>310.20001220703</ele>
        <time>2013-04-07T09:57:25.000Z</time>
      </trkpt>
      <trkpt lat="43.97677" lon="5.14298">
        <ele>310</ele>
        <time>2013-04-07T09:57:30.000Z</time>
      </trkpt>
      <trkpt lat="43.97694" lon="5.14282">
        <ele>308.20001220703</ele>
        <time>2013-04-07T09:57:34.000Z</time>
      </trkpt>
      <trkpt lat="43.97703" lon="5.14265">
        <ele>307.60000610352</ele>
        <time>2013-04-07T09:57:37.000Z</time>
      </trkpt>
      <trkpt lat="43.97723" lon="5.14231">
        <ele>305.39999389648</ele>
        <time>2013-04-07T09:57:43.000Z</time>
      </trkpt>
      <trkpt lat="43.97735" lon="5.14214">
        <ele>305.79998779297</ele>
        <time>2013-04-07T09:57:46.000Z</time>
      </trkpt>
      <trkpt lat="43.97756" lon="5.14185">
        <ele>305</ele>
        <time>2013-04-07T09:57:51.000Z</time>
      </trkpt>
      <trkpt lat="43.97772" lon="5.14166">
        <ele>305.39999389648</ele>
        <time>2013-04-07T09:57:54.000Z</time>
      </trkpt>
      <trkpt lat="43.97788" lon="5.1415">
        <ele>303.79998779297</ele>
        <time>2013-04-07T09:57:59.000Z</time>
      </trkpt>
      <trkpt lat="43.97802" lon="5.14147">
        <ele>303.39999389648</ele>
        <time>2013-04-07T09:58:02.000Z</time>
      </trkpt>
      <trkpt lat="43.97817" lon="5.14145">
        <ele>303.60000610352</ele>
        <time>2013-04-07T09:58:05.000Z</time>
      </trkpt>
      <trkpt lat="43.97833" lon="5.1413">
        <ele>302.60000610352</ele>
        <time>2013-04-07T09:58:09.000Z</time>
      </trkpt>
      <trkpt lat="43.97851" lon="5.14122">
        <ele>303</ele>
        <time>2013-04-07T09:58:13.000Z</time>
      </trkpt>
      <trkpt lat="43.9786" lon="5.14111">
        <ele>302.60000610352</ele>
        <time>2013-04-07T09:58:16.000Z</time>
      </trkpt>
      <trkpt lat="43.97869" lon="5.14084">
        <ele>302.39999389648</ele>
        <time>2013-04-07T09:58:20.000Z</time>
      </trkpt>
      <trkpt lat="43.97883" lon="5.14049">
        <ele>301.20001220703</ele>
        <time>2013-04-07T09:58:25.000Z</time>
      </trkpt>
      <trkpt lat="43.97884" lon="5.14043">
        <ele>301</ele>
        <time>2013-04-07T09:58:26.000Z</time>
      </trkpt>
      <trkpt lat="43.97875" lon="5.14029">
        <ele>298.20001220703</ele>
        <time>2013-04-07T09:58:31.000Z</time>
      </trkpt>
      <trkpt lat="43.97863" lon="5.14011">
        <ele>297.39999389648</ele>
        <time>2013-04-07T09:58:35.000Z</time>
      </trkpt>
      <trkpt lat="43.97862" lon="5.14005">
        <ele>297.20001220703</ele>
        <time>2013-04-07T09:58:36.000Z</time>
      </trkpt>
      <trkpt lat="43.97863" lon="5.13979">
        <ele>296.79998779297</ele>
        <time>2013-04-07T09:58:41.000Z</time>
      </trkpt>
      <trkpt lat="43.97874" lon="5.13942">
        <ele>295.39999389648</ele>
        <time>2013-04-07T09:58:48.000Z</time>
      </trkpt>
      <trkpt lat="43.97884" lon="5.13913">
        <ele>293.60000610352</ele>
        <time>2013-04-07T09:58:54.000Z</time>
      </trkpt>
      <trkpt lat="43.97889" lon="5.13895">
        <ele>292.20001220703</ele>
        <time>2013-04-07T09:58:57.000Z</time>
      </trkpt>
      <trkpt lat="43.97887" lon="5.1386">
        <ele>290</ele>
        <time>2013-04-07T09:59:02.000Z</time>
      </trkpt>
      <trkpt lat="43.97882" lon="5.13819">
        <ele>289</ele>
        <time>2013-04-07T09:59:08.000Z</time>
      </trkpt>
      <trkpt lat="43.97873" lon="5.13777">
        <ele>293.79998779297</ele>
        <time>2013-04-07T09:59:16.000Z</time>
      </trkpt>
      <trkpt lat="43.97869" lon="5.13755">
        <ele>295.39999389648</ele>
        <time>2013-04-07T09:59:22.000Z</time>
      </trkpt>
      <trkpt lat="43.97867" lon="5.13727">
        <ele>297</ele>
        <time>2013-04-07T09:59:31.000Z</time>
      </trkpt>
      <trkpt lat="43.97864" lon="5.13705">
        <ele>298.20001220703</ele>
        <time>2013-04-07T09:59:39.000Z</time>
      </trkpt>
      <trkpt lat="43.97862" lon="5.13684">
        <ele>298</ele>
        <time>2013-04-07T09:59:45.000Z</time>
      </trkpt>
      <trkpt lat="43.97865" lon="5.13661">
        <ele>296.60000610352</ele>
        <time>2013-04-07T09:59:50.000Z</time>
      </trkpt>
      <trkpt lat="43.97864" lon="5.13638">
        <ele>296.39999389648</ele>
        <time>2013-04-07T09:59:54.000Z</time>
      </trkpt>
      <trkpt lat="43.97854" lon="5.13611">
        <ele>297.20001220703</ele>
        <time>2013-04-07T09:59:59.000Z</time>
      </trkpt>
      <trkpt lat="43.97851" lon="5.13581">
        <ele>297.20001220703</ele>
        <time>2013-04-07T10:00:04.000Z</time>
      </trkpt>
      <trkpt lat="43.97853" lon="5.13569">
        <ele>297</ele>
        <time>2013-04-07T10:00:06.000Z</time>
      </trkpt>
      <trkpt lat="43.97866" lon="5.13536">
        <ele>296.60000610352</ele>
        <time>2013-04-07T10:00:13.000Z</time>
      </trkpt>
      <trkpt lat="43.97868" lon="5.13531">
        <ele>296.60000610352</ele>
        <time>2013-04-07T10:00:14.000Z</time>
      </trkpt>
      <trkpt lat="43.97885" lon="5.13495">
        <ele>295.20001220703</ele>
        <time>2013-04-07T10:00:20.000Z</time>
      </trkpt>
      <trkpt lat="43.97905" lon="5.13449">
        <ele>293.79998779297</ele>
        <time>2013-04-07T10:00:27.000Z</time>
      </trkpt>
      <trkpt lat="43.97921" lon="5.13392">
        <ele>293.20001220703</ele>
        <time>2013-04-07T10:00:35.000Z</time>
      </trkpt>
      <trkpt lat="43.97923" lon="5.13385">
        <ele>293.39999389648</ele>
        <time>2013-04-07T10:00:36.000Z</time>
      </trkpt>
      <trkpt lat="43.97924" lon="5.13353">
        <ele>293.79998779297</ele>
        <time>2013-04-07T10:00:41.000Z</time>
      </trkpt>
      <trkpt lat="43.97922" lon="5.13332">
        <ele>293.20001220703</ele>
        <time>2013-04-07T10:00:46.000Z</time>
      </trkpt>
      <trkpt lat="43.97919" lon="5.13324">
        <ele>295.20001220703</ele>
        <time>2013-04-07T10:00:51.000Z</time>
      </trkpt>
      <trkpt lat="43.97911" lon="5.13317">
        <ele>296</ele>
        <time>2013-04-07T10:00:57.000Z</time>
      </trkpt>
      <trkpt lat="43.97909" lon="5.13317">
        <ele>295.79998779297</ele>
        <time>2013-04-07T10:00:58.000Z</time>
      </trkpt>
      <trkpt lat="43.97885" lon="5.13323">
        <ele>294.60000610352</ele>
        <time>2013-04-07T10:01:05.000Z</time>
      </trkpt>
      <trkpt lat="43.97855" lon="5.13329">
        <ele>294.20001220703</ele>
        <time>2013-04-07T10:01:12.000Z</time>
      </trkpt>
      <trkpt lat="43.9781" lon="5.13343">
        <ele>292</ele>
        <time>2013-04-07T10:01:22.000Z</time>
      </trkpt>
      <trkpt lat="43.97781" lon="5.13355">
        <ele>290.39999389648</ele>
        <time>2013-04-07T10:01:28.000Z</time>
      </trkpt>
      <trkpt lat="43.97743" lon="5.13368">
        <ele>288.79998779297</ele>
        <time>2013-04-07T10:01:35.000Z</time>
      </trkpt>
      <trkpt lat="43.97714" lon="5.13397">
        <ele>288.79998779297</ele>
        <time>2013-04-07T10:01:42.000Z</time>
      </trkpt>
      <trkpt lat="43.97691" lon="5.13433">
        <ele>290.60000610352</ele>
        <time>2013-04-07T10:01:50.000Z</time>
      </trkpt>
      <trkpt lat="43.97677" lon="5.13459">
        <ele>288.79998779297</ele>
        <time>2013-04-07T10:01:56.000Z</time>
      </trkpt>
      <trkpt lat="43.97657" lon="5.13459">
        <ele>288.79998779297</ele>
        <time>2013-04-07T10:02:01.000Z</time>
      </trkpt>
      <trkpt lat="43.97652" lon="5.13446">
        <ele>288.39999389648</ele>
        <time>2013-04-07T10:02:04.000Z</time>
      </trkpt>
      <trkpt lat="43.97651" lon="5.13422">
        <ele>287.39999389648</ele>
        <time>2013-04-07T10:02:08.000Z</time>
      </trkpt>
      <trkpt lat="43.97652" lon="5.134">
        <ele>286.60000610352</ele>
        <time>2013-04-07T10:02:12.000Z</time>
      </trkpt>
      <trkpt lat="43.97657" lon="5.13387">
        <ele>286</ele>
        <time>2013-04-07T10:02:14.000Z</time>
      </trkpt>
      <trkpt lat="43.97677" lon="5.13336">
        <ele>281.20001220703</ele>
        <time>2013-04-07T10:02:21.000Z</time>
      </trkpt>
      <trkpt lat="43.97689" lon="5.13308">
        <ele>278.60000610352</ele>
        <time>2013-04-07T10:02:24.000Z</time>
      </trkpt>
      <trkpt lat="43.9769" lon="5.13279">
        <ele>276.79998779297</ele>
        <time>2013-04-07T10:02:27.000Z</time>
      </trkpt>
      <trkpt lat="43.97679" lon="5.13267">
        <ele>276.20001220703</ele>
        <time>2013-04-07T10:02:29.000Z</time>
      </trkpt>
      <trkpt lat="43.97657" lon="5.13259">
        <ele>275</ele>
        <time>2013-04-07T10:02:32.000Z</time>
      </trkpt>
      <trkpt lat="43.97639" lon="5.13242">
        <ele>273.60000610352</ele>
        <time>2013-04-07T10:02:35.000Z</time>
      </trkpt>
      <trkpt lat="43.97641" lon="5.13222">
        <ele>273.20001220703</ele>
        <time>2013-04-07T10:02:37.000Z</time>
      </trkpt>
      <trkpt lat="43.97656" lon="5.13206">
        <ele>273.39999389648</ele>
        <time>2013-04-07T10:02:40.000Z</time>
      </trkpt>
      <trkpt lat="43.97674" lon="5.13201">
        <ele>273.39999389648</ele>
        <time>2013-04-07T10:02:43.000Z</time>
      </trkpt>
      <trkpt lat="43.97745" lon="5.13191">
        <ele>272.79998779297</ele>
        <time>2013-04-07T10:02:54.000Z</time>
      </trkpt>
      <trkpt lat="43.97781" lon="5.13178">
        <ele>270.79998779297</ele>
        <time>2013-04-07T10:03:00.000Z</time>
      </trkpt>
      <trkpt lat="43.97803" lon="5.1316">
        <ele>270.60000610352</ele>
        <time>2013-04-07T10:03:05.000Z</time>
      </trkpt>
      <trkpt lat="43.97808" lon="5.13153">
        <ele>271.60000610352</ele>
        <time>2013-04-07T10:03:10.000Z</time>
      </trkpt>
      <trkpt lat="43.97811" lon="5.1315">
        <ele>273</ele>
        <time>2013-04-07T10:03:14.000Z</time>
      </trkpt>
      <trkpt lat="43.97814" lon="5.13147">
        <ele>276</ele>
        <time>2013-04-07T10:03:19.000Z</time>
      </trkpt>
      <trkpt lat="43.97823" lon="5.13144">
        <ele>278.20001220703</ele>
        <time>2013-04-07T10:03:25.000Z</time>
      </trkpt>
      <trkpt lat="43.97835" lon="5.1314">
        <ele>280.20001220703</ele>
        <time>2013-04-07T10:03:33.000Z</time>
      </trkpt>
      <trkpt lat="43.97837" lon="5.13134">
        <ele>280.39999389648</ele>
        <time>2013-04-07T10:03:36.000Z</time>
      </trkpt>
      <trkpt lat="43.97847" lon="5.13127">
        <ele>281.20001220703</ele>
        <time>2013-04-07T10:03:44.000Z</time>
      </trkpt>
      <trkpt lat="43.9785" lon="5.13124">
        <ele>281.20001220703</ele>
        <time>2013-04-07T10:03:46.000Z</time>
      </trkpt>
      <trkpt lat="43.9786" lon="5.13106">
        <ele>279.39999389648</ele>
        <time>2013-04-07T10:03:53.000Z</time>
      </trkpt>
      <trkpt lat="43.97867" lon="5.13082">
        <ele>279.20001220703</ele>
        <time>2013-04-07T10:04:01.000Z</time>
      </trkpt>
      <trkpt lat="43.97875" lon="5.13059">
        <ele>279.60000610352</ele>
        <time>2013-04-07T10:04:09.000Z</time>
      </trkpt>
      <trkpt lat="43.97887" lon="5.13032">
        <ele>279.39999389648</ele>
        <time>2013-04-07T10:04:18.000Z</time>
      </trkpt>
      <trkpt lat="43.97901" lon="5.13002">
        <ele>278.39999389648</ele>
        <time>2013-04-07T10:04:25.000Z</time>
      </trkpt>
      <trkpt lat="43.97907" lon="5.12969">
        <ele>278.20001220703</ele>
        <time>2013-04-07T10:04:32.000Z</time>
      </trkpt>
      <trkpt lat="43.97908" lon="5.12942">
        <ele>278.79998779297</ele>
        <time>2013-04-07T10:04:39.000Z</time>
      </trkpt>
      <trkpt lat="43.97906" lon="5.12906">
        <ele>278.79998779297</ele>
        <time>2013-04-07T10:04:48.000Z</time>
      </trkpt>
      <trkpt lat="43.97908" lon="5.12889">
        <ele>280.60000610352</ele>
        <time>2013-04-07T10:04:54.000Z</time>
      </trkpt>
      <trkpt lat="43.97913" lon="5.12868">
        <ele>283</ele>
        <time>2013-04-07T10:05:03.000Z</time>
      </trkpt>
      <trkpt lat="43.97919" lon="5.12841">
        <ele>286</ele>
        <time>2013-04-07T10:05:15.000Z</time>
      </trkpt>
      <trkpt lat="43.97925" lon="5.12818">
        <ele>287.39999389648</ele>
        <time>2013-04-07T10:05:24.000Z</time>
      </trkpt>
      <trkpt lat="43.97934" lon="5.12784">
        <ele>287.20001220703</ele>
        <time>2013-04-07T10:05:34.000Z</time>
      </trkpt>
      <trkpt lat="43.97941" lon="5.12752">
        <ele>287</ele>
        <time>2013-04-07T10:05:42.000Z</time>
      </trkpt>
      <trkpt lat="43.97941" lon="5.12738">
        <ele>287.79998779297</ele>
        <time>2013-04-07T10:05:47.000Z</time>
      </trkpt>
      <trkpt lat="43.97934" lon="5.12734">
        <ele>288.79998779297</ele>
        <time>2013-04-07T10:05:52.000Z</time>
      </trkpt>
      <trkpt lat="43.9792" lon="5.12731">
        <ele>290.20001220703</ele>
        <time>2013-04-07T10:06:01.000Z</time>
      </trkpt>
      <trkpt lat="43.97908" lon="5.12729">
        <ele>291.79998779297</ele>
        <time>2013-04-07T10:06:08.000Z</time>
      </trkpt>
      <trkpt lat="43.97897" lon="5.12728">
        <ele>292.39999389648</ele>
        <time>2013-04-07T10:06:14.000Z</time>
      </trkpt>
      <trkpt lat="43.97882" lon="5.12729">
        <ele>292.39999389648</ele>
        <time>2013-04-07T10:06:20.000Z</time>
      </trkpt>
      <trkpt lat="43.97853" lon="5.12729">
        <ele>292.39999389648</ele>
        <time>2013-04-07T10:06:30.000Z</time>
      </trkpt>
      <trkpt lat="43.97837" lon="5.12729">
        <ele>292.79998779297</ele>
        <time>2013-04-07T10:06:36.000Z</time>
      </trkpt>
      <trkpt lat="43.97822" lon="5.12727">
        <ele>292.79998779297</ele>
        <time>2013-04-07T10:06:41.000Z</time>
      </trkpt>
      <trkpt lat="43.97803" lon="5.12727">
        <ele>294</ele>
        <time>2013-04-07T10:06:47.000Z</time>
      </trkpt>
      <trkpt lat="43.97785" lon="5.12726">
        <ele>294.39999389648</ele>
        <time>2013-04-07T10:06:53.000Z</time>
      </trkpt>
      <trkpt lat="43.97778" lon="5.12726">
        <ele>294.20001220703</ele>
        <time>2013-04-07T10:06:55.000Z</time>
      </trkpt>
      <trkpt lat="43.97764" lon="5.12727">
        <ele>293</ele>
        <time>2013-04-07T10:06:58.000Z</time>
      </trkpt>
      <trkpt lat="43.97752" lon="5.12722">
        <ele>292</ele>
        <time>2013-04-07T10:07:01.000Z</time>
      </trkpt>
      <trkpt lat="43.97753" lon="5.12706">
        <ele>291.39999389648</ele>
        <time>2013-04-07T10:07:04.000Z</time>
      </trkpt>
      <trkpt lat="43.97753" lon="5.12698">
        <ele>291</ele>
        <time>2013-04-07T10:07:07.000Z</time>
      </trkpt>
      <trkpt lat="43.97749" lon="5.12701">
        <ele>291.20001220703</ele>
        <time>2013-04-07T10:07:10.000Z</time>
      </trkpt>
      <trkpt lat="43.97735" lon="5.12707">
        <ele>294.20001220703</ele>
        <time>2013-04-07T10:07:18.000Z</time>
      </trkpt>
      <trkpt lat="43.97734" lon="5.12707">
        <ele>294.60000610352</ele>
        <time>2013-04-07T10:07:19.000Z</time>
      </trkpt>
      <trkpt lat="43.97733" lon="5.12702">
        <ele>295.60000610352</ele>
        <time>2013-04-07T10:07:24.000Z</time>
      </trkpt>
      <trkpt lat="43.97735" lon="5.12701">
        <ele>295.79998779297</ele>
        <time>2013-04-07T10:07:25.000Z</time>
      </trkpt>
      <trkpt lat="43.97751" lon="5.12691">
        <ele>296</ele>
        <time>2013-04-07T10:07:32.000Z</time>
      </trkpt>
      <trkpt lat="43.97768" lon="5.12676">
        <ele>295.60000610352</ele>
        <time>2013-04-07T10:07:39.000Z</time>
      </trkpt>
      <trkpt lat="43.9778" lon="5.1267">
        <ele>294.60000610352</ele>
        <time>2013-04-07T10:07:42.000Z</time>
      </trkpt>
      <trkpt lat="43.97804" lon="5.12653">
        <ele>295</ele>
        <time>2013-04-07T10:07:49.000Z</time>
      </trkpt>
      <trkpt lat="43.97825" lon="5.12644">
        <ele>295.60000610352</ele>
        <time>2013-04-07T10:07:56.000Z</time>
      </trkpt>
      <trkpt lat="43.97844" lon="5.12633">
        <ele>295.60000610352</ele>
        <time>2013-04-07T10:08:02.000Z</time>
      </trkpt>
      <trkpt lat="43.97867" lon="5.12613">
        <ele>296.60000610352</ele>
        <time>2013-04-07T10:08:10.000Z</time>
      </trkpt>
      <trkpt lat="43.97883" lon="5.12596">
        <ele>296.79998779297</ele>
        <time>2013-04-07T10:08:17.000Z</time>
      </trkpt>
      <trkpt lat="43.97901" lon="5.12583">
        <ele>297.60000610352</ele>
        <time>2013-04-07T10:08:23.000Z</time>
      </trkpt>
      <trkpt lat="43.97921" lon="5.12581">
        <ele>298</ele>
        <time>2013-04-07T10:08:28.000Z</time>
      </trkpt>
      <trkpt lat="43.97925" lon="5.1258">
        <ele>298</ele>
        <time>2013-04-07T10:08:29.000Z</time>
      </trkpt>
      <trkpt lat="43.97949" lon="5.1257">
        <ele>297</ele>
        <time>2013-04-07T10:08:35.000Z</time>
      </trkpt>
      <trkpt lat="43.97958" lon="5.12571">
        <ele>296.39999389648</ele>
        <time>2013-04-07T10:08:37.000Z</time>
      </trkpt>
      <trkpt lat="43.97969" lon="5.12563">
        <ele>295.79998779297</ele>
        <time>2013-04-07T10:08:40.000Z</time>
      </trkpt>
      <trkpt lat="43.9797" lon="5.12559">
        <ele>295.60000610352</ele>
        <time>2013-04-07T10:08:41.000Z</time>
      </trkpt>
      <trkpt lat="43.97972" lon="5.12535">
        <ele>296.39999389648</ele>
        <time>2013-04-07T10:08:48.000Z</time>
      </trkpt>
      <trkpt lat="43.97976" lon="5.12521">
        <ele>297.60000610352</ele>
        <time>2013-04-07T10:08:54.000Z</time>
      </trkpt>
      <trkpt lat="43.97979" lon="5.12515">
        <ele>298.39999389648</ele>
        <time>2013-04-07T10:08:57.000Z</time>
      </trkpt>
      <trkpt lat="43.97993" lon="5.12508">
        <ele>298.39999389648</ele>
        <time>2013-04-07T10:09:02.000Z</time>
      </trkpt>
      <trkpt lat="43.98023" lon="5.12494">
        <ele>297.39999389648</ele>
        <time>2013-04-07T10:09:10.000Z</time>
      </trkpt>
      <trkpt lat="43.98032" lon="5.1249">
        <ele>297</ele>
        <time>2013-04-07T10:09:12.000Z</time>
      </trkpt>
      <trkpt lat="43.98042" lon="5.12488">
        <ele>296.39999389648</ele>
        <time>2013-04-07T10:09:14.000Z</time>
      </trkpt>
      <trkpt lat="43.98064" lon="5.12474">
        <ele>297.39999389648</ele>
        <time>2013-04-07T10:09:19.000Z</time>
      </trkpt>
      <trkpt lat="43.98077" lon="5.12468">
        <ele>298.20001220703</ele>
        <time>2013-04-07T10:09:24.000Z</time>
      </trkpt>
      <trkpt lat="43.98094" lon="5.12459">
        <ele>298.60000610352</ele>
        <time>2013-04-07T10:09:29.000Z</time>
      </trkpt>
      <trkpt lat="43.98108" lon="5.12438">
        <ele>299.20001220703</ele>
        <time>2013-04-07T10:09:36.000Z</time>
      </trkpt>
      <trkpt lat="43.98101" lon="5.12431">
        <ele>300.39999389648</ele>
        <time>2013-04-07T10:09:42.000Z</time>
      </trkpt>
      <trkpt lat="43.98089" lon="5.12439">
        <ele>301.79998779297</ele>
        <time>2013-04-07T10:09:50.000Z</time>
      </trkpt>
      <trkpt lat="43.98076" lon="5.12445">
        <ele>302.20001220703</ele>
        <time>2013-04-07T10:09:57.000Z</time>
      </trkpt>
      <trkpt lat="43.98058" lon="5.12451">
        <ele>302.79998779297</ele>
        <time>2013-04-07T10:10:06.000Z</time>
      </trkpt>
      <trkpt lat="43.98038" lon="5.12461">
        <ele>304.39999389648</ele>
        <time>2013-04-07T10:10:15.000Z</time>
      </trkpt>
      <trkpt lat="43.98018" lon="5.12469">
        <ele>306</ele>
        <time>2013-04-07T10:10:23.000Z</time>
      </trkpt>
      <trkpt lat="43.98001" lon="5.12477">
        <ele>308.20001220703</ele>
        <time>2013-04-07T10:10:31.000Z</time>
      </trkpt>
      <trkpt lat="43.97979" lon="5.12485">
        <ele>309</ele>
        <time>2013-04-07T10:10:40.000Z</time>
      </trkpt>
      <trkpt lat="43.97964" lon="5.1249">
        <ele>310.20001220703</ele>
        <time>2013-04-07T10:10:48.000Z</time>
      </trkpt>
      <trkpt lat="43.97949" lon="5.12488">
        <ele>311.39999389648</ele>
        <time>2013-04-07T10:10:57.000Z</time>
      </trkpt>
      <trkpt lat="43.97946" lon="5.12479">
        <ele>311.79998779297</ele>
        <time>2013-04-07T10:11:03.000Z</time>
      </trkpt>
      <trkpt lat="43.97949" lon="5.12468">
        <ele>311.79998779297</ele>
        <time>2013-04-07T10:11:09.000Z</time>
      </trkpt>
      <trkpt lat="43.97951" lon="5.12464">
        <ele>311.60000610352</ele>
        <time>2013-04-07T10:11:11.000Z</time>
      </trkpt>
      <trkpt lat="43.97961" lon="5.12461">
        <ele>311.79998779297</ele>
        <time>2013-04-07T10:11:16.000Z</time>
      </trkpt>
      <trkpt lat="43.97963" lon="5.12459">
        <ele>311.60000610352</ele>
        <time>2013-04-07T10:11:17.000Z</time>
      </trkpt>
      <trkpt lat="43.97971" lon="5.12453">
        <ele>311.60000610352</ele>
        <time>2013-04-07T10:11:20.000Z</time>
      </trkpt>
      <trkpt lat="43.97978" lon="5.12459">
        <ele>311.20001220703</ele>
        <time>2013-04-07T10:11:23.000Z</time>
      </trkpt>
      <trkpt lat="43.97994" lon="5.12463">
        <ele>310.20001220703</ele>
        <time>2013-04-07T10:11:27.000Z</time>
      </trkpt>
      <trkpt lat="43.97998" lon="5.12461">
        <ele>310.20001220703</ele>
        <time>2013-04-07T10:11:28.000Z</time>
      </trkpt>
      <trkpt lat="43.9801" lon="5.12452">
        <ele>310</ele>
        <time>2013-04-07T10:11:31.000Z</time>
      </trkpt>
      <trkpt lat="43.98022" lon="5.12445">
        <ele>309.39999389648</ele>
        <time>2013-04-07T10:11:34.000Z</time>
      </trkpt>
      <trkpt lat="43.98039" lon="5.12438">
        <ele>308.39999389648</ele>
        <time>2013-04-07T10:11:38.000Z</time>
      </trkpt>
      <trkpt lat="43.98045" lon="5.12431">
        <ele>308</ele>
        <time>2013-04-07T10:11:40.000Z</time>
      </trkpt>
      <trkpt lat="43.98069" lon="5.12411">
        <ele>307.39999389648</ele>
        <time>2013-04-07T10:11:46.000Z</time>
      </trkpt>
      <trkpt lat="43.98074" lon="5.12404">
        <ele>307</ele>
        <time>2013-04-07T10:11:48.000Z</time>
      </trkpt>
      <trkpt lat="43.98084" lon="5.1239">
        <ele>306.20001220703</ele>
        <time>2013-04-07T10:11:52.000Z</time>
      </trkpt>
      <trkpt lat="43.98091" lon="5.12383">
        <ele>305.79998779297</ele>
        <time>2013-04-07T10:11:54.000Z</time>
      </trkpt>
      <trkpt lat="43.98095" lon="5.12375">
        <ele>305.79998779297</ele>
        <time>2013-04-07T10:11:56.000Z</time>
      </trkpt>
      <trkpt lat="43.98109" lon="5.12364">
        <ele>305.39999389648</ele>
        <time>2013-04-07T10:12:00.000Z</time>
      </trkpt>
      <trkpt lat="43.98112" lon="5.12356">
        <ele>305.39999389648</ele>
        <time>2013-04-07T10:12:02.000Z</time>
      </trkpt>
      <trkpt lat="43.98122" lon="5.12352">
        <ele>304.60000610352</ele>
        <time>2013-04-07T10:12:06.000Z</time>
      </trkpt>
      <trkpt lat="43.98131" lon="5.12343">
        <ele>303.79998779297</ele>
        <time>2013-04-07T10:12:11.000Z</time>
      </trkpt>
      <trkpt lat="43.98132" lon="5.1234">
        <ele>303.60000610352</ele>
        <time>2013-04-07T10:12:12.000Z</time>
      </trkpt>
      <trkpt lat="43.98138" lon="5.12332">
        <ele>302</ele>
        <time>2013-04-07T10:12:16.000Z</time>
      </trkpt>
      <trkpt lat="43.98135" lon="5.12331">
        <ele>302.39999389648</ele>
        <time>2013-04-07T10:12:19.000Z</time>
      </trkpt>
      <trkpt lat="43.98131" lon="5.12328">
        <ele>303.79998779297</ele>
        <time>2013-04-07T10:12:23.000Z</time>
      </trkpt>
      <trkpt lat="43.98133" lon="5.12318">
        <ele>303.39999389648</ele>
        <time>2013-04-07T10:12:30.000Z</time>
      </trkpt>
      <trkpt lat="43.98137" lon="5.12309">
        <ele>303.20001220703</ele>
        <time>2013-04-07T10:12:34.000Z</time>
      </trkpt>
      <trkpt lat="43.98142" lon="5.12294">
        <ele>302.39999389648</ele>
        <time>2013-04-07T10:12:39.000Z</time>
      </trkpt>
      <trkpt lat="43.98148" lon="5.12279">
        <ele>302.39999389648</ele>
        <time>2013-04-07T10:12:44.000Z</time>
      </trkpt>
      <trkpt lat="43.98151" lon="5.12273">
        <ele>302.39999389648</ele>
        <time>2013-04-07T10:12:46.000Z</time>
      </trkpt>
      <trkpt lat="43.9816" lon="5.12261">
        <ele>302.39999389648</ele>
        <time>2013-04-07T10:12:51.000Z</time>
      </trkpt>
      <trkpt lat="43.98167" lon="5.12251">
        <ele>302.39999389648</ele>
        <time>2013-04-07T10:12:55.000Z</time>
      </trkpt>
      <trkpt lat="43.98174" lon="5.12242">
        <ele>302.39999389648</ele>
        <time>2013-04-07T10:13:00.000Z</time>
      </trkpt>
      <trkpt lat="43.98178" lon="5.12237">
        <ele>302.20001220703</ele>
        <time>2013-04-07T10:13:02.000Z</time>
      </trkpt>
      <trkpt lat="43.98193" lon="5.12226">
        <ele>300.20001220703</ele>
        <time>2013-04-07T10:13:07.000Z</time>
      </trkpt>
      <trkpt lat="43.98204" lon="5.12208">
        <ele>300</ele>
        <time>2013-04-07T10:13:11.000Z</time>
      </trkpt>
      <trkpt lat="43.98214" lon="5.12187">
        <ele>299.60000610352</ele>
        <time>2013-04-07T10:13:17.000Z</time>
      </trkpt>
      <trkpt lat="43.98218" lon="5.12182">
        <ele>299.20001220703</ele>
        <time>2013-04-07T10:13:19.000Z</time>
      </trkpt>
      <trkpt lat="43.98227" lon="5.12182">
        <ele>297.39999389648</ele>
        <time>2013-04-07T10:13:23.000Z</time>
      </trkpt>
      <trkpt lat="43.98237" lon="5.12172">
        <ele>296.39999389648</ele>
        <time>2013-04-07T10:13:26.000Z</time>
      </trkpt>
      <trkpt lat="43.98255" lon="5.12133">
        <ele>295.60000610352</ele>
        <time>2013-04-07T10:13:35.000Z</time>
      </trkpt>
      <trkpt lat="43.98269" lon="5.12114">
        <ele>294</ele>
        <time>2013-04-07T10:13:40.000Z</time>
      </trkpt>
      <trkpt lat="43.98275" lon="5.12095">
        <ele>293.60000610352</ele>
        <time>2013-04-07T10:13:44.000Z</time>
      </trkpt>
      <trkpt lat="43.98269" lon="5.12095">
        <ele>294.20001220703</ele>
        <time>2013-04-07T10:13:47.000Z</time>
      </trkpt>
      <trkpt lat="43.98259" lon="5.12112">
        <ele>295.39999389648</ele>
        <time>2013-04-07T10:13:54.000Z</time>
      </trkpt>
      <trkpt lat="43.98253" lon="5.12126">
        <ele>297.60000610352</ele>
        <time>2013-04-07T10:14:00.000Z</time>
      </trkpt>
      <trkpt lat="43.98245" lon="5.12134">
        <ele>300</ele>
        <time>2013-04-07T10:14:06.000Z</time>
      </trkpt>
      <trkpt lat="43.98236" lon="5.12142">
        <ele>301.39999389648</ele>
        <time>2013-04-07T10:14:14.000Z</time>
      </trkpt>
      <trkpt lat="43.98224" lon="5.12146">
        <ele>303.20001220703</ele>
        <time>2013-04-07T10:14:22.000Z</time>
      </trkpt>
      <trkpt lat="43.98212" lon="5.1215">
        <ele>304.39999389648</ele>
        <time>2013-04-07T10:14:31.000Z</time>
      </trkpt>
      <trkpt lat="43.98205" lon="5.12151">
        <ele>305.20001220703</ele>
        <time>2013-04-07T10:14:36.000Z</time>
      </trkpt>
      <trkpt lat="43.98195" lon="5.12153">
        <ele>306.20001220703</ele>
        <time>2013-04-07T10:14:44.000Z</time>
      </trkpt>
      <trkpt lat="43.98184" lon="5.12154">
        <ele>307</ele>
        <time>2013-04-07T10:14:52.000Z</time>
      </trkpt>
      <trkpt lat="43.98182" lon="5.12154">
        <ele>307</ele>
        <time>2013-04-07T10:14:53.000Z</time>
      </trkpt>
      <trkpt lat="43.98164" lon="5.12154">
        <ele>306.79998779297</ele>
        <time>2013-04-07T10:15:04.000Z</time>
      </trkpt>
      <trkpt lat="43.9815" lon="5.12158">
        <ele>307.79998779297</ele>
        <time>2013-04-07T10:15:13.000Z</time>
      </trkpt>
      <trkpt lat="43.98144" lon="5.12168">
        <ele>308.79998779297</ele>
        <time>2013-04-07T10:15:19.000Z</time>
      </trkpt>
      <trkpt lat="43.98137" lon="5.12178">
        <ele>309.39999389648</ele>
        <time>2013-04-07T10:15:25.000Z</time>
      </trkpt>
      <trkpt lat="43.98134" lon="5.12178">
        <ele>309.60000610352</ele>
        <time>2013-04-07T10:15:27.000Z</time>
      </trkpt>
      <trkpt lat="43.98127" lon="5.12183">
        <ele>309.79998779297</ele>
        <time>2013-04-07T10:15:32.000Z</time>
      </trkpt>
      <trkpt lat="43.98111" lon="5.12186">
        <ele>310.79998779297</ele>
        <time>2013-04-07T10:15:41.000Z</time>
      </trkpt>
      <trkpt lat="43.98091" lon="5.12187">
        <ele>312.20001220703</ele>
        <time>2013-04-07T10:15:52.000Z</time>
      </trkpt>
      <trkpt lat="43.98081" lon="5.12188">
        <ele>312.79998779297</ele>
        <time>2013-04-07T10:15:58.000Z</time>
      </trkpt>
      <trkpt lat="43.98074" lon="5.12191">
        <ele>313.20001220703</ele>
        <time>2013-04-07T10:16:02.000Z</time>
      </trkpt>
      <trkpt lat="43.98058" lon="5.12193">
        <ele>313.79998779297</ele>
        <time>2013-04-07T10:16:11.000Z</time>
      </trkpt>
      <trkpt lat="43.98046" lon="5.12189">
        <ele>314</ele>
        <time>2013-04-07T10:16:18.000Z</time>
      </trkpt>
      <trkpt lat="43.98037" lon="5.12192">
        <ele>314.60000610352</ele>
        <time>2013-04-07T10:16:23.000Z</time>
      </trkpt>
      <trkpt lat="43.98027" lon="5.12203">
        <ele>316.39999389648</ele>
        <time>2013-04-07T10:16:29.000Z</time>
      </trkpt>
      <trkpt lat="43.9801" lon="5.12209">
        <ele>317.79998779297</ele>
        <time>2013-04-07T10:16:36.000Z</time>
      </trkpt>
      <trkpt lat="43.98008" lon="5.1221">
        <ele>317.79998779297</ele>
        <time>2013-04-07T10:16:37.000Z</time>
      </trkpt>
      <trkpt lat="43.97997" lon="5.12221">
        <ele>317.79998779297</ele>
        <time>2013-04-07T10:16:42.000Z</time>
      </trkpt>
      <trkpt lat="43.97977" lon="5.12234">
        <ele>319</ele>
        <time>2013-04-07T10:16:50.000Z</time>
      </trkpt>
      <trkpt lat="43.97959" lon="5.1225">
        <ele>320.39999389648</ele>
        <time>2013-04-07T10:16:58.000Z</time>
      </trkpt>
      <trkpt lat="43.97945" lon="5.12257">
        <ele>321.20001220703</ele>
        <time>2013-04-07T10:17:04.000Z</time>
      </trkpt>
      <trkpt lat="43.97931" lon="5.12263">
        <ele>320.39999389648</ele>
        <time>2013-04-07T10:17:09.000Z</time>
      </trkpt>
      <trkpt lat="43.97909" lon="5.12273">
        <ele>320.39999389648</ele>
        <time>2013-04-07T10:17:16.000Z</time>
      </trkpt>
      <trkpt lat="43.97882" lon="5.12285">
        <ele>320.60000610352</ele>
        <time>2013-04-07T10:17:26.000Z</time>
      </trkpt>
      <trkpt lat="43.97867" lon="5.12286">
        <ele>319.60000610352</ele>
        <time>2013-04-07T10:17:32.000Z</time>
      </trkpt>
      <trkpt lat="43.97845" lon="5.12275">
        <ele>315.60000610352</ele>
        <time>2013-04-07T10:17:38.000Z</time>
      </trkpt>
      <trkpt lat="43.97841" lon="5.12275">
        <ele>314.79998779297</ele>
        <time>2013-04-07T10:17:39.000Z</time>
      </trkpt>
      <trkpt lat="43.97835" lon="5.12264">
        <ele>311.79998779297</ele>
        <time>2013-04-07T10:17:43.000Z</time>
      </trkpt>
      <trkpt lat="43.97836" lon="5.1225">
        <ele>310.39999389648</ele>
        <time>2013-04-07T10:17:45.000Z</time>
      </trkpt>
      <trkpt lat="43.97847" lon="5.12218">
        <ele>307</ele>
        <time>2013-04-07T10:17:49.000Z</time>
      </trkpt>
      <trkpt lat="43.97861" lon="5.12201">
        <ele>305</ele>
        <time>2013-04-07T10:17:52.000Z</time>
      </trkpt>
      <trkpt lat="43.97859" lon="5.12183">
        <ele>303.20001220703</ele>
        <time>2013-04-07T10:17:55.000Z</time>
      </trkpt>
      <trkpt lat="43.97848" lon="5.12163">
        <ele>304</ele>
        <time>2013-04-07T10:18:00.000Z</time>
      </trkpt>
      <trkpt lat="43.97843" lon="5.12147">
        <ele>305.60000610352</ele>
        <time>2013-04-07T10:18:07.000Z</time>
      </trkpt>
      <trkpt lat="43.97836" lon="5.12131">
        <ele>308.20001220703</ele>
        <time>2013-04-07T10:18:16.000Z</time>
      </trkpt>
      <trkpt lat="43.97832" lon="5.12118">
        <ele>309.79998779297</ele>
        <time>2013-04-07T10:18:23.000Z</time>
      </trkpt>
      <trkpt lat="43.97828" lon="5.12112">
        <ele>311</ele>
        <time>2013-04-07T10:18:28.000Z</time>
      </trkpt>
      <trkpt lat="43.97823" lon="5.12097">
        <ele>312.20001220703</ele>
        <time>2013-04-07T10:18:37.000Z</time>
      </trkpt>
      <trkpt lat="43.97818" lon="5.1208">
        <ele>314</ele>
        <time>2013-04-07T10:18:48.000Z</time>
      </trkpt>
      <trkpt lat="43.97812" lon="5.12064">
        <ele>317.20001220703</ele>
        <time>2013-04-07T10:18:58.000Z</time>
      </trkpt>
      <trkpt lat="43.97807" lon="5.12049">
        <ele>320.20001220703</ele>
        <time>2013-04-07T10:19:07.000Z</time>
      </trkpt>
      <trkpt lat="43.97803" lon="5.12034">
        <ele>321.39999389648</ele>
        <time>2013-04-07T10:19:16.000Z</time>
      </trkpt>
      <trkpt lat="43.97798" lon="5.12018">
        <ele>322.60000610352</ele>
        <time>2013-04-07T10:19:26.000Z</time>
      </trkpt>
      <trkpt lat="43.97792" lon="5.12008">
        <ele>324.20001220703</ele>
        <time>2013-04-07T10:19:33.000Z</time>
      </trkpt>
      <trkpt lat="43.97786" lon="5.11993">
        <ele>325.79998779297</ele>
        <time>2013-04-07T10:19:43.000Z</time>
      </trkpt>
      <trkpt lat="43.97782" lon="5.11986">
        <ele>327</ele>
        <time>2013-04-07T10:19:48.000Z</time>
      </trkpt>
      <trkpt lat="43.97781" lon="5.11976">
        <ele>327.79998779297</ele>
        <time>2013-04-07T10:19:54.000Z</time>
      </trkpt>
      <trkpt lat="43.97774" lon="5.11968">
        <ele>329.79998779297</ele>
        <time>2013-04-07T10:20:02.000Z</time>
      </trkpt>
      <trkpt lat="43.97761" lon="5.1197">
        <ele>333</ele>
        <time>2013-04-07T10:20:11.000Z</time>
      </trkpt>
      <trkpt lat="43.97749" lon="5.11971">
        <ele>334.39999389648</ele>
        <time>2013-04-07T10:20:19.000Z</time>
      </trkpt>
      <trkpt lat="43.97738" lon="5.11972">
        <ele>334.60000610352</ele>
        <time>2013-04-07T10:20:26.000Z</time>
      </trkpt>
      <trkpt lat="43.97721" lon="5.1197">
        <ele>335.60000610352</ele>
        <time>2013-04-07T10:20:36.000Z</time>
      </trkpt>
      <trkpt lat="43.97708" lon="5.11961">
        <ele>336.39999389648</ele>
        <time>2013-04-07T10:20:46.000Z</time>
      </trkpt>
      <trkpt lat="43.97695" lon="5.11946">
        <ele>336</ele>
        <time>2013-04-07T10:20:57.000Z</time>
      </trkpt>
      <trkpt lat="43.97682" lon="5.11933">
        <ele>336.60000610352</ele>
        <time>2013-04-07T10:21:05.000Z</time>
      </trkpt>
      <trkpt lat="43.97665" lon="5.11923">
        <ele>337</ele>
        <time>2013-04-07T10:21:13.000Z</time>
      </trkpt>
      <trkpt lat="43.97647" lon="5.11924">
        <ele>337.39999389648</ele>
        <time>2013-04-07T10:21:19.000Z</time>
      </trkpt>
      <trkpt lat="43.97621" lon="5.11927">
        <ele>338.60000610352</ele>
        <time>2013-04-07T10:21:27.000Z</time>
      </trkpt>
      <trkpt lat="43.97598" lon="5.11923">
        <ele>338.79998779297</ele>
        <time>2013-04-07T10:21:34.000Z</time>
      </trkpt>
      <trkpt lat="43.97585" lon="5.11923">
        <ele>339.60000610352</ele>
        <time>2013-04-07T10:21:39.000Z</time>
      </trkpt>
      <trkpt lat="43.97582" lon="5.11931">
        <ele>340.39999389648</ele>
        <time>2013-04-07T10:21:43.000Z</time>
      </trkpt>
      <trkpt lat="43.97581" lon="5.11962">
        <ele>341.39999389648</ele>
        <time>2013-04-07T10:21:51.000Z</time>
      </trkpt>
      <trkpt lat="43.97577" lon="5.11998">
        <ele>342.20001220703</ele>
        <time>2013-04-07T10:22:00.000Z</time>
      </trkpt>
      <trkpt lat="43.97567" lon="5.12011">
        <ele>343</ele>
        <time>2013-04-07T10:22:05.000Z</time>
      </trkpt>
      <trkpt lat="43.97557" lon="5.12007">
        <ele>343.79998779297</ele>
        <time>2013-04-07T10:22:10.000Z</time>
      </trkpt>
      <trkpt lat="43.97547" lon="5.12009">
        <ele>344.79998779297</ele>
        <time>2013-04-07T10:22:15.000Z</time>
      </trkpt>
      <trkpt lat="43.97534" lon="5.12016">
        <ele>345.39999389648</ele>
        <time>2013-04-07T10:22:22.000Z</time>
      </trkpt>
      <trkpt lat="43.9752" lon="5.12017">
        <ele>346.20001220703</ele>
        <time>2013-04-07T10:22:29.000Z</time>
      </trkpt>
      <trkpt lat="43.97505" lon="5.12016">
        <ele>346.79998779297</ele>
        <time>2013-04-07T10:22:38.000Z</time>
      </trkpt>
      <trkpt lat="43.97494" lon="5.12016">
        <ele>348.20001220703</ele>
        <time>2013-04-07T10:22:45.000Z</time>
      </trkpt>
      <trkpt lat="43.97484" lon="5.12014">
        <ele>349.20001220703</ele>
        <time>2013-04-07T10:22:53.000Z</time>
      </trkpt>
      <trkpt lat="43.97477" lon="5.12016">
        <ele>350.39999389648</ele>
        <time>2013-04-07T10:23:01.000Z</time>
      </trkpt>
      <trkpt lat="43.97473" lon="5.12021">
        <ele>351.60000610352</ele>
        <time>2013-04-07T10:23:08.000Z</time>
      </trkpt>
      <trkpt lat="43.97471" lon="5.12024">
        <ele>353</ele>
        <time>2013-04-07T10:23:15.000Z</time>
      </trkpt>
      <trkpt lat="43.97469" lon="5.12026">
        <ele>354.20001220703</ele>
        <time>2013-04-07T10:23:19.000Z</time>
      </trkpt>
      <trkpt lat="43.97466" lon="5.12029">
        <ele>356</ele>
        <time>2013-04-07T10:23:26.000Z</time>
      </trkpt>
      <trkpt lat="43.97464" lon="5.12029">
        <ele>356.39999389648</ele>
        <time>2013-04-07T10:23:30.000Z</time>
      </trkpt>
      <trkpt lat="43.97456" lon="5.12033">
        <ele>358.20001220703</ele>
        <time>2013-04-07T10:23:40.000Z</time>
      </trkpt>
      <trkpt lat="43.97454" lon="5.12035">
        <ele>358.79998779297</ele>
        <time>2013-04-07T10:23:44.000Z</time>
      </trkpt>
      <trkpt lat="43.97447" lon="5.12034">
        <ele>359.79998779297</ele>
        <time>2013-04-07T10:23:52.000Z</time>
      </trkpt>
      <trkpt lat="43.97444" lon="5.12037">
        <ele>360.39999389648</ele>
        <time>2013-04-07T10:23:56.000Z</time>
      </trkpt>
      <trkpt lat="43.97438" lon="5.12045">
        <ele>361.79998779297</ele>
        <time>2013-04-07T10:24:05.000Z</time>
      </trkpt>
      <trkpt lat="43.97433" lon="5.12048">
        <ele>363</ele>
        <time>2013-04-07T10:24:11.000Z</time>
      </trkpt>
      <trkpt lat="43.97427" lon="5.12055">
        <ele>365.39999389648</ele>
        <time>2013-04-07T10:24:20.000Z</time>
      </trkpt>
      <trkpt lat="43.97419" lon="5.12063">
        <ele>367.20001220703</ele>
        <time>2013-04-07T10:24:30.000Z</time>
      </trkpt>
      <trkpt lat="43.97412" lon="5.12073">
        <ele>369</ele>
        <time>2013-04-07T10:24:42.000Z</time>
      </trkpt>
      <trkpt lat="43.97412" lon="5.12074">
        <ele>369.79998779297</ele>
        <time>2013-04-07T10:24:45.000Z</time>
      </trkpt>
      <trkpt lat="43.97411" lon="5.12077">
        <ele>371</ele>
        <time>2013-04-07T10:24:51.000Z</time>
      </trkpt>
      <trkpt lat="43.97409" lon="5.1208">
        <ele>371.39999389648</ele>
        <time>2013-04-07T10:24:56.000Z</time>
      </trkpt>
      <trkpt lat="43.97406" lon="5.12081">
        <ele>371.39999389648</ele>
        <time>2013-04-07T10:25:01.000Z</time>
      </trkpt>
      <trkpt lat="43.97403" lon="5.12081">
        <ele>370.79998779297</ele>
        <time>2013-04-07T10:25:09.000Z</time>
      </trkpt>
      <trkpt lat="43.974" lon="5.12089">
        <ele>370.39999389648</ele>
        <time>2013-04-07T10:25:15.000Z</time>
      </trkpt>
      <trkpt lat="43.97396" lon="5.12102">
        <ele>370.79998779297</ele>
        <time>2013-04-07T10:25:22.000Z</time>
      </trkpt>
      <trkpt lat="43.97387" lon="5.12112">
        <ele>371</ele>
        <time>2013-04-07T10:25:30.000Z</time>
      </trkpt>
      <trkpt lat="43.97386" lon="5.12113">
        <ele>370.79998779297</ele>
        <time>2013-04-07T10:25:31.000Z</time>
      </trkpt>
      <trkpt lat="43.97382" lon="5.12119">
        <ele>370.79998779297</ele>
        <time>2013-04-07T10:25:35.000Z</time>
      </trkpt>
      <trkpt lat="43.97379" lon="5.12136">
        <ele>372</ele>
        <time>2013-04-07T10:25:44.000Z</time>
      </trkpt>
      <trkpt lat="43.9737" lon="5.12148">
        <ele>373.39999389648</ele>
        <time>2013-04-07T10:25:50.000Z</time>
      </trkpt>
      <trkpt lat="43.9736" lon="5.12166">
        <ele>374.60000610352</ele>
        <time>2013-04-07T10:25:58.000Z</time>
      </trkpt>
      <trkpt lat="43.97356" lon="5.12168">
        <ele>375</ele>
        <time>2013-04-07T10:26:00.000Z</time>
      </trkpt>
      <trkpt lat="43.97354" lon="5.12179">
        <ele>374.79998779297</ele>
        <time>2013-04-07T10:26:05.000Z</time>
      </trkpt>
      <trkpt lat="43.97356" lon="5.12196">
        <ele>374</ele>
        <time>2013-04-07T10:26:09.000Z</time>
      </trkpt>
      <trkpt lat="43.97352" lon="5.12212">
        <ele>373.79998779297</ele>
        <time>2013-04-07T10:26:14.000Z</time>
      </trkpt>
      <trkpt lat="43.97346" lon="5.12222">
        <ele>374.39999389648</ele>
        <time>2013-04-07T10:26:19.000Z</time>
      </trkpt>
      <trkpt lat="43.97342" lon="5.12224">
        <ele>374.60000610352</ele>
        <time>2013-04-07T10:26:21.000Z</time>
      </trkpt>
      <trkpt lat="43.97329" lon="5.12229">
        <ele>375.39999389648</ele>
        <time>2013-04-07T10:26:29.000Z</time>
      </trkpt>
      <trkpt lat="43.97318" lon="5.1223">
        <ele>376.20001220703</ele>
        <time>2013-04-07T10:26:36.000Z</time>
      </trkpt>
      <trkpt lat="43.97307" lon="5.12227">
        <ele>377</ele>
        <time>2013-04-07T10:26:44.000Z</time>
      </trkpt>
      <trkpt lat="43.97299" lon="5.12232">
        <ele>378.79998779297</ele>
        <time>2013-04-07T10:26:50.000Z</time>
      </trkpt>
      <trkpt lat="43.97293" lon="5.12231">
        <ele>378.79998779297</ele>
        <time>2013-04-07T10:26:54.000Z</time>
      </trkpt>
      <trkpt lat="43.97285" lon="5.12231">
        <ele>379.20001220703</ele>
        <time>2013-04-07T10:26:59.000Z</time>
      </trkpt>
      <trkpt lat="43.97275" lon="5.12227">
        <ele>380.20001220703</ele>
        <time>2013-04-07T10:27:05.000Z</time>
      </trkpt>
      <trkpt lat="43.97272" lon="5.12228">
        <ele>380.60000610352</ele>
        <time>2013-04-07T10:27:07.000Z</time>
      </trkpt>
      <trkpt lat="43.97256" lon="5.12228">
        <ele>381.20001220703</ele>
        <time>2013-04-07T10:27:17.000Z</time>
      </trkpt>
      <trkpt lat="43.97246" lon="5.12231">
        <ele>381.79998779297</ele>
        <time>2013-04-07T10:27:23.000Z</time>
      </trkpt>
      <trkpt lat="43.97235" lon="5.12228">
        <ele>381.79998779297</ele>
        <time>2013-04-07T10:27:29.000Z</time>
      </trkpt>
      <trkpt lat="43.97221" lon="5.12232">
        <ele>382.20001220703</ele>
        <time>2013-04-07T10:27:36.000Z</time>
      </trkpt>
      <trkpt lat="43.97212" lon="5.12239">
        <ele>383.39999389648</ele>
        <time>2013-04-07T10:27:41.000Z</time>
      </trkpt>
      <trkpt lat="43.97207" lon="5.12254">
        <ele>384.79998779297</ele>
        <time>2013-04-07T10:27:49.000Z</time>
      </trkpt>
      <trkpt lat="43.97206" lon="5.12259">
        <ele>385.60000610352</ele>
        <time>2013-04-07T10:27:51.000Z</time>
      </trkpt>
      <trkpt lat="43.97197" lon="5.12268">
        <ele>387.39999389648</ele>
        <time>2013-04-07T10:27:58.000Z</time>
      </trkpt>
      <trkpt lat="43.97182" lon="5.12274">
        <ele>387</ele>
        <time>2013-04-07T10:28:06.000Z</time>
      </trkpt>
      <trkpt lat="43.97169" lon="5.12284">
        <ele>387</ele>
        <time>2013-04-07T10:28:13.000Z</time>
      </trkpt>
      <trkpt lat="43.97157" lon="5.12297">
        <ele>388</ele>
        <time>2013-04-07T10:28:20.000Z</time>
      </trkpt>
      <trkpt lat="43.97148" lon="5.12309">
        <ele>388.60000610352</ele>
        <time>2013-04-07T10:28:25.000Z</time>
      </trkpt>
      <trkpt lat="43.9714" lon="5.12318">
        <ele>388.60000610352</ele>
        <time>2013-04-07T10:28:29.000Z</time>
      </trkpt>
      <trkpt lat="43.97134" lon="5.12332">
        <ele>388.79998779297</ele>
        <time>2013-04-07T10:28:34.000Z</time>
      </trkpt>
      <trkpt lat="43.97126" lon="5.12346">
        <ele>389.20001220703</ele>
        <time>2013-04-07T10:28:39.000Z</time>
      </trkpt>
      <trkpt lat="43.97123" lon="5.12352">
        <ele>389.39999389648</ele>
        <time>2013-04-07T10:28:41.000Z</time>
      </trkpt>
      <trkpt lat="43.97116" lon="5.12368">
        <ele>389.79998779297</ele>
        <time>2013-04-07T10:28:46.000Z</time>
      </trkpt>
      <trkpt lat="43.97114" lon="5.12371">
        <ele>390</ele>
        <time>2013-04-07T10:28:47.000Z</time>
      </trkpt>
      <trkpt lat="43.97103" lon="5.12398">
        <ele>390.79998779297</ele>
        <time>2013-04-07T10:28:54.000Z</time>
      </trkpt>
      <trkpt lat="43.97092" lon="5.12417">
        <ele>391</ele>
        <time>2013-04-07T10:28:59.000Z</time>
      </trkpt>
      <trkpt lat="43.97085" lon="5.12439">
        <ele>391</ele>
        <time>2013-04-07T10:29:04.000Z</time>
      </trkpt>
      <trkpt lat="43.97082" lon="5.12443">
        <ele>390.60000610352</ele>
        <time>2013-04-07T10:29:08.000Z</time>
      </trkpt>
      <trkpt lat="43.97081" lon="5.12444">
        <ele>390</ele>
        <time>2013-04-07T10:29:10.000Z</time>
      </trkpt>
      <trkpt lat="43.97074" lon="5.12453">
        <ele>388.39999389648</ele>
        <time>2013-04-07T10:29:16.000Z</time>
      </trkpt>
      <trkpt lat="43.97073" lon="5.12456">
        <ele>388.39999389648</ele>
        <time>2013-04-07T10:29:17.000Z</time>
      </trkpt>
      <trkpt lat="43.97063" lon="5.12458">
        <ele>385.20001220703</ele>
        <time>2013-04-07T10:29:22.000Z</time>
      </trkpt>
      <trkpt lat="43.97055" lon="5.12476">
        <ele>383.39999389648</ele>
        <time>2013-04-07T10:29:27.000Z</time>
      </trkpt>
      <trkpt lat="43.97051" lon="5.12489">
        <ele>383.39999389648</ele>
        <time>2013-04-07T10:29:30.000Z</time>
      </trkpt>
      <trkpt lat="43.97047" lon="5.12502">
        <ele>381.79998779297</ele>
        <time>2013-04-07T10:29:34.000Z</time>
      </trkpt>
      <trkpt lat="43.97031" lon="5.12521">
        <ele>381</ele>
        <time>2013-04-07T10:29:40.000Z</time>
      </trkpt>
      <trkpt lat="43.97019" lon="5.12547">
        <ele>381.20001220703</ele>
        <time>2013-04-07T10:29:46.000Z</time>
      </trkpt>
      <trkpt lat="43.97011" lon="5.12556">
        <ele>380.79998779297</ele>
        <time>2013-04-07T10:29:49.000Z</time>
      </trkpt>
      <trkpt lat="43.97004" lon="5.12568">
        <ele>380.79998779297</ele>
        <time>2013-04-07T10:29:53.000Z</time>
      </trkpt>
      <trkpt lat="43.96999" lon="5.12584">
        <ele>381</ele>
        <time>2013-04-07T10:29:58.000Z</time>
      </trkpt>
      <trkpt lat="43.96993" lon="5.12596">
        <ele>380.39999389648</ele>
        <time>2013-04-07T10:30:02.000Z</time>
      </trkpt>
      <trkpt lat="43.96986" lon="5.12614">
        <ele>379.39999389648</ele>
        <time>2013-04-07T10:30:06.000Z</time>
      </trkpt>
      <trkpt lat="43.96977" lon="5.12633">
        <ele>379</ele>
        <time>2013-04-07T10:30:10.000Z</time>
      </trkpt>
      <trkpt lat="43.96964" lon="5.12649">
        <ele>378.20001220703</ele>
        <time>2013-04-07T10:30:15.000Z</time>
      </trkpt>
      <trkpt lat="43.96956" lon="5.12668">
        <ele>377.39999389648</ele>
        <time>2013-04-07T10:30:19.000Z</time>
      </trkpt>
      <trkpt lat="43.96954" lon="5.12673">
        <ele>377.20001220703</ele>
        <time>2013-04-07T10:30:20.000Z</time>
      </trkpt>
      <trkpt lat="43.96948" lon="5.12688">
        <ele>376.79998779297</ele>
        <time>2013-04-07T10:30:23.000Z</time>
      </trkpt>
      <trkpt lat="43.96943" lon="5.12694">
        <ele>376</ele>
        <time>2013-04-07T10:30:25.000Z</time>
      </trkpt>
      <trkpt lat="43.96932" lon="5.12705">
        <ele>374.60000610352</ele>
        <time>2013-04-07T10:30:29.000Z</time>
      </trkpt>
      <trkpt lat="43.96926" lon="5.12717">
        <ele>373.79998779297</ele>
        <time>2013-04-07T10:30:32.000Z</time>
      </trkpt>
      <trkpt lat="43.9692" lon="5.12723">
        <ele>373</ele>
        <time>2013-04-07T10:30:34.000Z</time>
      </trkpt>
      <trkpt lat="43.96914" lon="5.12728">
        <ele>372.60000610352</ele>
        <time>2013-04-07T10:30:36.000Z</time>
      </trkpt>
      <trkpt lat="43.96903" lon="5.12744">
        <ele>371.39999389648</ele>
        <time>2013-04-07T10:30:41.000Z</time>
      </trkpt>
      <trkpt lat="43.96896" lon="5.12744">
        <ele>370.39999389648</ele>
        <time>2013-04-07T10:30:44.000Z</time>
      </trkpt>
      <trkpt lat="43.96885" lon="5.12744">
        <ele>370</ele>
        <time>2013-04-07T10:30:47.000Z</time>
      </trkpt>
      <trkpt lat="43.96883" lon="5.12746">
        <ele>370.20001220703</ele>
        <time>2013-04-07T10:30:50.000Z</time>
      </trkpt>
      <trkpt lat="43.96882" lon="5.12746">
        <ele>370.20001220703</ele>
        <time>2013-04-07T10:30:51.000Z</time>
      </trkpt>
      <trkpt lat="43.96884" lon="5.1275">
        <ele>370.60000610352</ele>
        <time>2013-04-07T10:30:55.000Z</time>
      </trkpt>
      <trkpt lat="43.96891" lon="5.12755">
        <ele>372</ele>
        <time>2013-04-07T10:31:04.000Z</time>
      </trkpt>
      <trkpt lat="43.96896" lon="5.12761">
        <ele>373.39999389648</ele>
        <time>2013-04-07T10:31:11.000Z</time>
      </trkpt>
      <trkpt lat="43.96897" lon="5.12762">
        <ele>373.60000610352</ele>
        <time>2013-04-07T10:31:14.000Z</time>
      </trkpt>
      <trkpt lat="43.96901" lon="5.1277">
        <ele>375.20001220703</ele>
        <time>2013-04-07T10:31:24.000Z</time>
      </trkpt>
      <trkpt lat="43.96904" lon="5.12781">
        <ele>378.20001220703</ele>
        <time>2013-04-07T10:31:31.000Z</time>
      </trkpt>
      <trkpt lat="43.96908" lon="5.12794">
        <ele>378.79998779297</ele>
        <time>2013-04-07T10:31:38.000Z</time>
      </trkpt>
      <trkpt lat="43.96913" lon="5.12806">
        <ele>381.20001220703</ele>
        <time>2013-04-07T10:31:45.000Z</time>
      </trkpt>
      <trkpt lat="43.96917" lon="5.12816">
        <ele>383</ele>
        <time>2013-04-07T10:31:51.000Z</time>
      </trkpt>
      <trkpt lat="43.9692" lon="5.12824">
        <ele>384</ele>
        <time>2013-04-07T10:31:57.000Z</time>
      </trkpt>
      <trkpt lat="43.96931" lon="5.12833">
        <ele>388.20001220703</ele>
        <time>2013-04-07T10:32:06.000Z</time>
      </trkpt>
      <trkpt lat="43.96936" lon="5.12843">
        <ele>387.60000610352</ele>
        <time>2013-04-07T10:32:12.000Z</time>
      </trkpt>
      <trkpt lat="43.96942" lon="5.1286">
        <ele>385.79998779297</ele>
        <time>2013-04-07T10:32:20.000Z</time>
      </trkpt>
      <trkpt lat="43.96945" lon="5.12876">
        <ele>384.39999389648</ele>
        <time>2013-04-07T10:32:27.000Z</time>
      </trkpt>
      <trkpt lat="43.96949" lon="5.12893">
        <ele>382.20001220703</ele>
        <time>2013-04-07T10:32:32.000Z</time>
      </trkpt>
      <trkpt lat="43.96954" lon="5.12911">
        <ele>380</ele>
        <time>2013-04-07T10:32:36.000Z</time>
      </trkpt>
      <trkpt lat="43.96952" lon="5.1294">
        <ele>378</ele>
        <time>2013-04-07T10:32:42.000Z</time>
      </trkpt>
      <trkpt lat="43.96951" lon="5.12967">
        <ele>378.39999389648</ele>
        <time>2013-04-07T10:32:47.000Z</time>
      </trkpt>
      <trkpt lat="43.9695" lon="5.12971">
        <ele>378.60000610352</ele>
        <time>2013-04-07T10:32:48.000Z</time>
      </trkpt>
      <trkpt lat="43.9695" lon="5.12992">
        <ele>380.20001220703</ele>
        <time>2013-04-07T10:32:56.000Z</time>
      </trkpt>
      <trkpt lat="43.9695" lon="5.12994">
        <ele>380.60000610352</ele>
        <time>2013-04-07T10:32:57.000Z</time>
      </trkpt>
      <trkpt lat="43.96943" lon="5.12998">
        <ele>382</ele>
        <time>2013-04-07T10:33:02.000Z</time>
      </trkpt>
      <trkpt lat="43.96939" lon="5.13">
        <ele>382.60000610352</ele>
        <time>2013-04-07T10:33:05.000Z</time>
      </trkpt>
      <trkpt lat="43.96934" lon="5.1301">
        <ele>384.79998779297</ele>
        <time>2013-04-07T10:33:11.000Z</time>
      </trkpt>
      <trkpt lat="43.9693" lon="5.13021">
        <ele>387.20001220703</ele>
        <time>2013-04-07T10:33:19.000Z</time>
      </trkpt>
      <trkpt lat="43.96926" lon="5.13033">
        <ele>388.60000610352</ele>
        <time>2013-04-07T10:33:26.000Z</time>
      </trkpt>
      <trkpt lat="43.9692" lon="5.13041">
        <ele>390.20001220703</ele>
        <time>2013-04-07T10:33:34.000Z</time>
      </trkpt>
      <trkpt lat="43.9691" lon="5.13042">
        <ele>391</ele>
        <time>2013-04-07T10:33:41.000Z</time>
      </trkpt>
      <trkpt lat="43.96896" lon="5.13038">
        <ele>390.79998779297</ele>
        <time>2013-04-07T10:33:50.000Z</time>
      </trkpt>
      <trkpt lat="43.96887" lon="5.13039">
        <ele>391.20001220703</ele>
        <time>2013-04-07T10:33:57.000Z</time>
      </trkpt>
      <trkpt lat="43.96886" lon="5.1306">
        <ele>391.79998779297</ele>
        <time>2013-04-07T10:34:06.000Z</time>
      </trkpt>
      <trkpt lat="43.96886" lon="5.13066">
        <ele>392.20001220703</ele>
        <time>2013-04-07T10:34:08.000Z</time>
      </trkpt>
      <trkpt lat="43.96875" lon="5.13073">
        <ele>392.79998779297</ele>
        <time>2013-04-07T10:34:15.000Z</time>
      </trkpt>
      <trkpt lat="43.9686" lon="5.13071">
        <ele>393.60000610352</ele>
        <time>2013-04-07T10:34:22.000Z</time>
      </trkpt>
      <trkpt lat="43.96851" lon="5.13071">
        <ele>394</ele>
        <time>2013-04-07T10:34:27.000Z</time>
      </trkpt>
      <trkpt lat="43.96836" lon="5.13083">
        <ele>395.20001220703</ele>
        <time>2013-04-07T10:34:36.000Z</time>
      </trkpt>
      <trkpt lat="43.9683" lon="5.1309">
        <ele>396.39999389648</ele>
        <time>2013-04-07T10:34:41.000Z</time>
      </trkpt>
      <trkpt lat="43.96822" lon="5.13093">
        <ele>397.39999389648</ele>
        <time>2013-04-07T10:34:46.000Z</time>
      </trkpt>
      <trkpt lat="43.96809" lon="5.13105">
        <ele>399</ele>
        <time>2013-04-07T10:34:56.000Z</time>
      </trkpt>
      <trkpt lat="43.96803" lon="5.13116">
        <ele>400.20001220703</ele>
        <time>2013-04-07T10:35:03.000Z</time>
      </trkpt>
      <trkpt lat="43.96794" lon="5.1312">
        <ele>401</ele>
        <time>2013-04-07T10:35:10.000Z</time>
      </trkpt>
      <trkpt lat="43.96786" lon="5.13131">
        <ele>403.60000610352</ele>
        <time>2013-04-07T10:35:18.000Z</time>
      </trkpt>
      <trkpt lat="43.96782" lon="5.13144">
        <ele>403.79998779297</ele>
        <time>2013-04-07T10:35:24.000Z</time>
      </trkpt>
      <trkpt lat="43.96775" lon="5.13163">
        <ele>404.60000610352</ele>
        <time>2013-04-07T10:35:31.000Z</time>
      </trkpt>
      <trkpt lat="43.96772" lon="5.13186">
        <ele>406.20001220703</ele>
        <time>2013-04-07T10:35:39.000Z</time>
      </trkpt>
      <trkpt lat="43.96766" lon="5.13196">
        <ele>407.79998779297</ele>
        <time>2013-04-07T10:35:45.000Z</time>
      </trkpt>
      <trkpt lat="43.96761" lon="5.13198">
        <ele>408.39999389648</ele>
        <time>2013-04-07T10:35:48.000Z</time>
      </trkpt>
      <trkpt lat="43.96756" lon="5.13207">
        <ele>409.39999389648</ele>
        <time>2013-04-07T10:35:55.000Z</time>
      </trkpt>
      <trkpt lat="43.96752" lon="5.13219">
        <ele>409.79998779297</ele>
        <time>2013-04-07T10:36:02.000Z</time>
      </trkpt>
      <trkpt lat="43.96748" lon="5.13231">
        <ele>411</ele>
        <time>2013-04-07T10:36:09.000Z</time>
      </trkpt>
      <trkpt lat="43.96745" lon="5.13236">
        <ele>412</ele>
        <time>2013-04-07T10:36:13.000Z</time>
      </trkpt>
      <trkpt lat="43.96737" lon="5.13234">
        <ele>412.79998779297</ele>
        <time>2013-04-07T10:36:19.000Z</time>
      </trkpt>
      <trkpt lat="43.96735" lon="5.13228">
        <ele>413</ele>
        <time>2013-04-07T10:36:23.000Z</time>
      </trkpt>
      <trkpt lat="43.96733" lon="5.13213">
        <ele>413.79998779297</ele>
        <time>2013-04-07T10:36:31.000Z</time>
      </trkpt>
      <trkpt lat="43.96727" lon="5.13205">
        <ele>414.39999389648</ele>
        <time>2013-04-07T10:36:37.000Z</time>
      </trkpt>
      <trkpt lat="43.96723" lon="5.13192">
        <ele>413.79998779297</ele>
        <time>2013-04-07T10:36:46.000Z</time>
      </trkpt>
      <trkpt lat="43.96714" lon="5.13183">
        <ele>413.79998779297</ele>
        <time>2013-04-07T10:36:55.000Z</time>
      </trkpt>
      <trkpt lat="43.96708" lon="5.13171">
        <ele>415.79998779297</ele>
        <time>2013-04-07T10:37:03.000Z</time>
      </trkpt>
      <trkpt lat="43.96697" lon="5.13163">
        <ele>416</ele>
        <time>2013-04-07T10:37:11.000Z</time>
      </trkpt>
      <trkpt lat="43.96692" lon="5.13158">
        <ele>416.60000610352</ele>
        <time>2013-04-07T10:37:15.000Z</time>
      </trkpt>
      <trkpt lat="43.96685" lon="5.13161">
        <ele>418.20001220703</ele>
        <time>2013-04-07T10:37:20.000Z</time>
      </trkpt>
      <trkpt lat="43.96681" lon="5.13165">
        <ele>419.79998779297</ele>
        <time>2013-04-07T10:37:23.000Z</time>
      </trkpt>
      <trkpt lat="43.96674" lon="5.1318">
        <ele>424.39999389648</ele>
        <time>2013-04-07T10:37:33.000Z</time>
      </trkpt>
      <trkpt lat="43.96673" lon="5.13184">
        <ele>425.39999389648</ele>
        <time>2013-04-07T10:37:37.000Z</time>
      </trkpt>
      <trkpt lat="43.96671" lon="5.13189">
        <ele>426.79998779297</ele>
        <time>2013-04-07T10:37:44.000Z</time>
      </trkpt>
      <trkpt lat="43.96667" lon="5.13194">
        <ele>427.60000610352</ele>
        <time>2013-04-07T10:37:53.000Z</time>
      </trkpt>
      <trkpt lat="43.96664" lon="5.132">
        <ele>428.60000610352</ele>
        <time>2013-04-07T10:38:01.000Z</time>
      </trkpt>
      <trkpt lat="43.96658" lon="5.13208">
        <ele>429.60000610352</ele>
        <time>2013-04-07T10:38:11.000Z</time>
      </trkpt>
      <trkpt lat="43.96655" lon="5.13218">
        <ele>431</ele>
        <time>2013-04-07T10:38:20.000Z</time>
      </trkpt>
      <trkpt lat="43.9665" lon="5.13228">
        <ele>432</ele>
        <time>2013-04-07T10:38:29.000Z</time>
      </trkpt>
      <trkpt lat="43.96644" lon="5.13241">
        <ele>433.79998779297</ele>
        <time>2013-04-07T10:38:40.000Z</time>
      </trkpt>
      <trkpt lat="43.96635" lon="5.1325">
        <ele>434.39999389648</ele>
        <time>2013-04-07T10:38:50.000Z</time>
      </trkpt>
      <trkpt lat="43.96633" lon="5.13252">
        <ele>434.39999389648</ele>
        <time>2013-04-07T10:38:54.000Z</time>
      </trkpt>
      <trkpt lat="43.96624" lon="5.13261">
        <ele>434.79998779297</ele>
        <time>2013-04-07T10:39:01.000Z</time>
      </trkpt>
      <trkpt lat="43.96612" lon="5.13271">
        <ele>435.60000610352</ele>
        <time>2013-04-07T10:39:09.000Z</time>
      </trkpt>
      <trkpt lat="43.966" lon="5.13281">
        <ele>436.20001220703</ele>
        <time>2013-04-07T10:39:18.000Z</time>
      </trkpt>
      <trkpt lat="43.96597" lon="5.1329">
        <ele>437</ele>
        <time>2013-04-07T10:39:23.000Z</time>
      </trkpt>
      <trkpt lat="43.96596" lon="5.13307">
        <ele>438.20001220703</ele>
        <time>2013-04-07T10:39:32.000Z</time>
      </trkpt>
      <trkpt lat="43.96594" lon="5.13314">
        <ele>439.39999389648</ele>
        <time>2013-04-07T10:39:39.000Z</time>
      </trkpt>
      <trkpt lat="43.96593" lon="5.13324">
        <ele>440.39999389648</ele>
        <time>2013-04-07T10:39:48.000Z</time>
      </trkpt>
      <trkpt lat="43.96592" lon="5.13332">
        <ele>441.39999389648</ele>
        <time>2013-04-07T10:39:55.000Z</time>
      </trkpt>
      <trkpt lat="43.96589" lon="5.13345">
        <ele>443.79998779297</ele>
        <time>2013-04-07T10:40:08.000Z</time>
      </trkpt>
      <trkpt lat="43.96586" lon="5.13357">
        <ele>445.60000610352</ele>
        <time>2013-04-07T10:40:18.000Z</time>
      </trkpt>
      <trkpt lat="43.96584" lon="5.13369">
        <ele>446.39999389648</ele>
        <time>2013-04-07T10:40:28.000Z</time>
      </trkpt>
      <trkpt lat="43.96586" lon="5.13377">
        <ele>448</ele>
        <time>2013-04-07T10:40:36.000Z</time>
      </trkpt>
      <trkpt lat="43.96589" lon="5.13387">
        <ele>450.20001220703</ele>
        <time>2013-04-07T10:40:46.000Z</time>
      </trkpt>
      <trkpt lat="43.9659" lon="5.13397">
        <ele>451.20001220703</ele>
        <time>2013-04-07T10:40:55.000Z</time>
      </trkpt>
      <trkpt lat="43.96591" lon="5.13406">
        <ele>453</ele>
        <time>2013-04-07T10:41:04.000Z</time>
      </trkpt>
      <trkpt lat="43.9659" lon="5.1342">
        <ele>454.20001220703</ele>
        <time>2013-04-07T10:41:16.000Z</time>
      </trkpt>
      <trkpt lat="43.9659" lon="5.13431">
        <ele>455.20001220703</ele>
        <time>2013-04-07T10:41:25.000Z</time>
      </trkpt>
      <trkpt lat="43.96588" lon="5.13441">
        <ele>456.60000610352</ele>
        <time>2013-04-07T10:41:34.000Z</time>
      </trkpt>
      <trkpt lat="43.96585" lon="5.13452">
        <ele>458</ele>
        <time>2013-04-07T10:41:43.000Z</time>
      </trkpt>
      <trkpt lat="43.9658" lon="5.13462">
        <ele>459.39999389648</ele>
        <time>2013-04-07T10:41:52.000Z</time>
      </trkpt>
      <trkpt lat="43.96573" lon="5.13473">
        <ele>460.79998779297</ele>
        <time>2013-04-07T10:42:02.000Z</time>
      </trkpt>
      <trkpt lat="43.96568" lon="5.1348">
        <ele>461.60000610352</ele>
        <time>2013-04-07T10:42:09.000Z</time>
      </trkpt>
      <trkpt lat="43.96567" lon="5.13482">
        <ele>461.20001220703</ele>
        <time>2013-04-07T10:42:12.000Z</time>
      </trkpt>
      <trkpt lat="43.96572" lon="5.13477">
        <ele>465</ele>
        <time>2013-04-07T10:43:06.000Z</time>
      </trkpt>
      <trkpt lat="43.96559" lon="5.13476">
        <ele>462.79998779297</ele>
        <time>2013-04-07T10:43:58.000Z</time>
      </trkpt>
      <trkpt lat="43.96553" lon="5.13477">
        <ele>463.39999389648</ele>
        <time>2013-04-07T10:44:02.000Z</time>
      </trkpt>
      <trkpt lat="43.96538" lon="5.13485">
        <ele>465.60000610352</ele>
        <time>2013-04-07T10:44:11.000Z</time>
      </trkpt>
      <trkpt lat="43.9653" lon="5.13494">
        <ele>466.39999389648</ele>
        <time>2013-04-07T10:44:17.000Z</time>
      </trkpt>
      <trkpt lat="43.9652" lon="5.13508">
        <ele>466.20001220703</ele>
        <time>2013-04-07T10:44:24.000Z</time>
      </trkpt>
      <trkpt lat="43.96507" lon="5.13524">
        <ele>465.60000610352</ele>
        <time>2013-04-07T10:44:33.000Z</time>
      </trkpt>
      <trkpt lat="43.96493" lon="5.13534">
        <ele>464.39999389648</ele>
        <time>2013-04-07T10:44:38.000Z</time>
      </trkpt>
      <trkpt lat="43.96486" lon="5.13539">
        <ele>463.60000610352</ele>
        <time>2013-04-07T10:44:40.000Z</time>
      </trkpt>
      <trkpt lat="43.96452" lon="5.13555">
        <ele>461.39999389648</ele>
        <time>2013-04-07T10:44:48.000Z</time>
      </trkpt>
      <trkpt lat="43.96432" lon="5.13562">
        <ele>461.39999389648</ele>
        <time>2013-04-07T10:44:53.000Z</time>
      </trkpt>
      <trkpt lat="43.9642" lon="5.13569">
        <ele>461.39999389648</ele>
        <time>2013-04-07T10:44:57.000Z</time>
      </trkpt>
      <trkpt lat="43.964" lon="5.13579">
        <ele>461.39999389648</ele>
        <time>2013-04-07T10:45:03.000Z</time>
      </trkpt>
      <trkpt lat="43.96369" lon="5.13591">
        <ele>462</ele>
        <time>2013-04-07T10:45:12.000Z</time>
      </trkpt>
      <trkpt lat="43.96341" lon="5.13601">
        <ele>461.79998779297</ele>
        <time>2013-04-07T10:45:20.000Z</time>
      </trkpt>
      <trkpt lat="43.96303" lon="5.13611">
        <ele>462</ele>
        <time>2013-04-07T10:45:30.000Z</time>
      </trkpt>
      <trkpt lat="43.96268" lon="5.13621">
        <ele>461.79998779297</ele>
        <time>2013-04-07T10:45:39.000Z</time>
      </trkpt>
      <trkpt lat="43.96234" lon="5.13628">
        <ele>462.39999389648</ele>
        <time>2013-04-07T10:45:48.000Z</time>
      </trkpt>
      <trkpt lat="43.962" lon="5.13635">
        <ele>462.60000610352</ele>
        <time>2013-04-07T10:45:57.000Z</time>
      </trkpt>
      <trkpt lat="43.96178" lon="5.13643">
        <ele>461.79998779297</ele>
        <time>2013-04-07T10:46:03.000Z</time>
      </trkpt>
      <trkpt lat="43.9615" lon="5.13644">
        <ele>459.20001220703</ele>
        <time>2013-04-07T10:46:09.000Z</time>
      </trkpt>
      <trkpt lat="43.96133" lon="5.13649">
        <ele>456.20001220703</ele>
        <time>2013-04-07T10:46:13.000Z</time>
      </trkpt>
      <trkpt lat="43.96115" lon="5.13654">
        <ele>452.60000610352</ele>
        <time>2013-04-07T10:46:17.000Z</time>
      </trkpt>
      <trkpt lat="43.96105" lon="5.13667">
        <ele>450.79998779297</ele>
        <time>2013-04-07T10:46:21.000Z</time>
      </trkpt>
      <trkpt lat="43.96106" lon="5.13681">
        <ele>450.20001220703</ele>
        <time>2013-04-07T10:46:24.000Z</time>
      </trkpt>
      <trkpt lat="43.96116" lon="5.1371">
        <ele>448.39999389648</ele>
        <time>2013-04-07T10:46:31.000Z</time>
      </trkpt>
      <trkpt lat="43.96134" lon="5.13741">
        <ele>447.79998779297</ele>
        <time>2013-04-07T10:46:38.000Z</time>
      </trkpt>
      <trkpt lat="43.96147" lon="5.13762">
        <ele>447.60000610352</ele>
        <time>2013-04-07T10:46:43.000Z</time>
      </trkpt>
      <trkpt lat="43.96156" lon="5.13779">
        <ele>448.39999389648</ele>
        <time>2013-04-07T10:46:48.000Z</time>
      </trkpt>
      <trkpt lat="43.96164" lon="5.13793">
        <ele>450.79998779297</ele>
        <time>2013-04-07T10:46:55.000Z</time>
      </trkpt>
      <trkpt lat="43.96174" lon="5.13803">
        <ele>453</ele>
        <time>2013-04-07T10:47:02.000Z</time>
      </trkpt>
      <trkpt lat="43.96184" lon="5.13816">
        <ele>454.60000610352</ele>
        <time>2013-04-07T10:47:10.000Z</time>
      </trkpt>
      <trkpt lat="43.96191" lon="5.13827">
        <ele>454.20001220703</ele>
        <time>2013-04-07T10:47:16.000Z</time>
      </trkpt>
      <trkpt lat="43.96197" lon="5.13836">
        <ele>454.39999389648</ele>
        <time>2013-04-07T10:47:23.000Z</time>
      </trkpt>
      <trkpt lat="43.96205" lon="5.13852">
        <ele>455.60000610352</ele>
        <time>2013-04-07T10:47:32.000Z</time>
      </trkpt>
      <trkpt lat="43.96207" lon="5.13867">
        <ele>457</ele>
        <time>2013-04-07T10:47:40.000Z</time>
      </trkpt>
      <trkpt lat="43.96208" lon="5.1387">
        <ele>456</ele>
        <time>2013-04-07T10:47:45.000Z</time>
      </trkpt>
      <trkpt lat="43.96211" lon="5.13875">
        <ele>457.20001220703</ele>
        <time>2013-04-07T10:47:54.000Z</time>
      </trkpt>
      <trkpt lat="43.96211" lon="5.13878">
        <ele>458.60000610352</ele>
        <time>2013-04-07T10:47:58.000Z</time>
      </trkpt>
      <trkpt lat="43.96209" lon="5.13879">
        <ele>462.20001220703</ele>
        <time>2013-04-07T10:48:04.000Z</time>
      </trkpt>
      <trkpt lat="43.96209" lon="5.13879">
        <ele>463.20001220703</ele>
        <time>2013-04-07T10:48:06.000Z</time>
      </trkpt>
      <trkpt lat="43.96204" lon="5.13884">
        <ele>466</ele>
        <time>2013-04-07T10:48:17.000Z</time>
      </trkpt>
      <trkpt lat="43.96201" lon="5.13888">
        <ele>466.60000610352</ele>
        <time>2013-04-07T10:48:23.000Z</time>
      </trkpt>
      <trkpt lat="43.962" lon="5.13889">
        <ele>467</ele>
        <time>2013-04-07T10:48:25.000Z</time>
      </trkpt>
      <trkpt lat="43.96201" lon="5.13894">
        <ele>467.60000610352</ele>
        <time>2013-04-07T10:48:31.000Z</time>
      </trkpt>
      <trkpt lat="43.96202" lon="5.13903">
        <ele>467.60000610352</ele>
        <time>2013-04-07T10:48:41.000Z</time>
      </trkpt>
      <trkpt lat="43.96203" lon="5.13905">
        <ele>467.60000610352</ele>
        <time>2013-04-07T10:48:43.000Z</time>
      </trkpt>
      <trkpt lat="43.9621" lon="5.13914">
        <ele>468</ele>
        <time>2013-04-07T10:48:53.000Z</time>
      </trkpt>
      <trkpt lat="43.96215" lon="5.13921">
        <ele>469.60000610352</ele>
        <time>2013-04-07T10:49:02.000Z</time>
      </trkpt>
      <trkpt lat="43.96224" lon="5.1393">
        <ele>470</ele>
        <time>2013-04-07T10:49:12.000Z</time>
      </trkpt>
      <trkpt lat="43.9623" lon="5.13938">
        <ele>470</ele>
        <time>2013-04-07T10:49:18.000Z</time>
      </trkpt>
      <trkpt lat="43.96236" lon="5.13949">
        <ele>471</ele>
        <time>2013-04-07T10:49:24.000Z</time>
      </trkpt>
      <trkpt lat="43.9624" lon="5.13959">
        <ele>472</ele>
        <time>2013-04-07T10:49:29.000Z</time>
      </trkpt>
      <trkpt lat="43.96244" lon="5.1397">
        <ele>472.39999389648</ele>
        <time>2013-04-07T10:49:34.000Z</time>
      </trkpt>
      <trkpt lat="43.96246" lon="5.13975">
        <ele>473.39999389648</ele>
        <time>2013-04-07T10:49:37.000Z</time>
      </trkpt>
      <trkpt lat="43.96254" lon="5.13989">
        <ele>473.79998779297</ele>
        <time>2013-04-07T10:49:45.000Z</time>
      </trkpt>
      <trkpt lat="43.96257" lon="5.13992">
        <ele>473.79998779297</ele>
        <time>2013-04-07T10:49:47.000Z</time>
      </trkpt>
      <trkpt lat="43.96268" lon="5.14">
        <ele>474.20001220703</ele>
        <time>2013-04-07T10:49:53.000Z</time>
      </trkpt>
      <trkpt lat="43.96271" lon="5.14005">
        <ele>473.79998779297</ele>
        <time>2013-04-07T10:49:55.000Z</time>
      </trkpt>
      <trkpt lat="43.96279" lon="5.14014">
        <ele>474</ele>
        <time>2013-04-07T10:50:00.000Z</time>
      </trkpt>
      <trkpt lat="43.96284" lon="5.14027">
        <ele>473.39999389648</ele>
        <time>2013-04-07T10:50:06.000Z</time>
      </trkpt>
      <trkpt lat="43.96288" lon="5.14039">
        <ele>472.79998779297</ele>
        <time>2013-04-07T10:50:10.000Z</time>
      </trkpt>
      <trkpt lat="43.96297" lon="5.14053">
        <ele>471</ele>
        <time>2013-04-07T10:50:15.000Z</time>
      </trkpt>
      <trkpt lat="43.96299" lon="5.14067">
        <ele>469.39999389648</ele>
        <time>2013-04-07T10:50:19.000Z</time>
      </trkpt>
      <trkpt lat="43.96298" lon="5.14081">
        <ele>466.60000610352</ele>
        <time>2013-04-07T10:50:24.000Z</time>
      </trkpt>
      <trkpt lat="43.96296" lon="5.14094">
        <ele>464.39999389648</ele>
        <time>2013-04-07T10:50:28.000Z</time>
      </trkpt>
      <trkpt lat="43.96289" lon="5.1411">
        <ele>461.60000610352</ele>
        <time>2013-04-07T10:50:32.000Z</time>
      </trkpt>
      <trkpt lat="43.96283" lon="5.14127">
        <ele>458.60000610352</ele>
        <time>2013-04-07T10:50:36.000Z</time>
      </trkpt>
      <trkpt lat="43.96276" lon="5.14137">
        <ele>457.39999389648</ele>
        <time>2013-04-07T10:50:38.000Z</time>
      </trkpt>
      <trkpt lat="43.96267" lon="5.1415">
        <ele>456.20001220703</ele>
        <time>2013-04-07T10:50:41.000Z</time>
      </trkpt>
      <trkpt lat="43.96262" lon="5.1416">
        <ele>455</ele>
        <time>2013-04-07T10:50:44.000Z</time>
      </trkpt>
      <trkpt lat="43.96253" lon="5.14166">
        <ele>454.20001220703</ele>
        <time>2013-04-07T10:50:47.000Z</time>
      </trkpt>
      <trkpt lat="43.96242" lon="5.14179">
        <ele>453.39999389648</ele>
        <time>2013-04-07T10:50:51.000Z</time>
      </trkpt>
      <trkpt lat="43.96236" lon="5.1418">
        <ele>453.60000610352</ele>
        <time>2013-04-07T10:50:53.000Z</time>
      </trkpt>
      <trkpt lat="43.96225" lon="5.14188">
        <ele>454</ele>
        <time>2013-04-07T10:50:58.000Z</time>
      </trkpt>
      <trkpt lat="43.96211" lon="5.1421">
        <ele>453</ele>
        <time>2013-04-07T10:51:04.000Z</time>
      </trkpt>
      <trkpt lat="43.96208" lon="5.1423">
        <ele>450.20001220703</ele>
        <time>2013-04-07T10:51:08.000Z</time>
      </trkpt>
      <trkpt lat="43.96208" lon="5.14234">
        <ele>450</ele>
        <time>2013-04-07T10:51:09.000Z</time>
      </trkpt>
      <trkpt lat="43.96216" lon="5.14234">
        <ele>448.39999389648</ele>
        <time>2013-04-07T10:51:13.000Z</time>
      </trkpt>
      <trkpt lat="43.96217" lon="5.14237">
        <ele>447.79998779297</ele>
        <time>2013-04-07T10:51:14.000Z</time>
      </trkpt>
      <trkpt lat="43.96221" lon="5.14243">
        <ele>447.60000610352</ele>
        <time>2013-04-07T10:51:16.000Z</time>
      </trkpt>
      <trkpt lat="43.96232" lon="5.1425">
        <ele>448.20001220703</ele>
        <time>2013-04-07T10:51:22.000Z</time>
      </trkpt>
      <trkpt lat="43.96234" lon="5.14253">
        <ele>448.39999389648</ele>
        <time>2013-04-07T10:51:26.000Z</time>
      </trkpt>
      <trkpt lat="43.96236" lon="5.14257">
        <ele>446.20001220703</ele>
        <time>2013-04-07T10:52:02.000Z</time>
      </trkpt>
      <trkpt lat="43.96236" lon="5.14258">
        <ele>446</ele>
        <time>2013-04-07T10:52:03.000Z</time>
      </trkpt>
      <trkpt lat="43.96239" lon="5.14262">
        <ele>444.39999389648</ele>
        <time>2013-04-07T10:54:46.000Z</time>
      </trkpt>
      <trkpt lat="43.96243" lon="5.14272">
        <ele>442</ele>
        <time>2013-04-07T10:54:51.000Z</time>
      </trkpt>
      <trkpt lat="43.96243" lon="5.14277">
        <ele>441</ele>
        <time>2013-04-07T10:54:53.000Z</time>
      </trkpt>
      <trkpt lat="43.96251" lon="5.14285">
        <ele>438.60000610352</ele>
        <time>2013-04-07T10:54:57.000Z</time>
      </trkpt>
      <trkpt lat="43.96258" lon="5.14283">
        <ele>437.60000610352</ele>
        <time>2013-04-07T10:54:59.000Z</time>
      </trkpt>
      <trkpt lat="43.96269" lon="5.1427">
        <ele>434.20001220703</ele>
        <time>2013-04-07T10:55:03.000Z</time>
      </trkpt>
      <trkpt lat="43.96282" lon="5.14247">
        <ele>434.39999389648</ele>
        <time>2013-04-07T10:55:07.000Z</time>
      </trkpt>
      <trkpt lat="43.96291" lon="5.14229">
        <ele>433.20001220703</ele>
        <time>2013-04-07T10:55:11.000Z</time>
      </trkpt>
      <trkpt lat="43.963" lon="5.14226">
        <ele>433.20001220703</ele>
        <time>2013-04-07T10:55:13.000Z</time>
      </trkpt>
      <trkpt lat="43.96327" lon="5.14214">
        <ele>432.39999389648</ele>
        <time>2013-04-07T10:55:19.000Z</time>
      </trkpt>
      <trkpt lat="43.96336" lon="5.14208">
        <ele>430.79998779297</ele>
        <time>2013-04-07T10:55:21.000Z</time>
      </trkpt>
      <trkpt lat="43.96358" lon="5.14206">
        <ele>426.39999389648</ele>
        <time>2013-04-07T10:55:26.000Z</time>
      </trkpt>
      <trkpt lat="43.96364" lon="5.14202">
        <ele>425.60000610352</ele>
        <time>2013-04-07T10:55:28.000Z</time>
      </trkpt>
      <trkpt lat="43.96374" lon="5.14192">
        <ele>421.79998779297</ele>
        <time>2013-04-07T10:55:31.000Z</time>
      </trkpt>
      <trkpt lat="43.96387" lon="5.14184">
        <ele>419.39999389648</ele>
        <time>2013-04-07T10:55:34.000Z</time>
      </trkpt>
      <trkpt lat="43.96399" lon="5.14172">
        <ele>415.20001220703</ele>
        <time>2013-04-07T10:55:38.000Z</time>
      </trkpt>
      <trkpt lat="43.9641" lon="5.1416">
        <ele>408.79998779297</ele>
        <time>2013-04-07T10:55:42.000Z</time>
      </trkpt>
      <trkpt lat="43.96417" lon="5.14158">
        <ele>405.79998779297</ele>
        <time>2013-04-07T10:55:44.000Z</time>
      </trkpt>
      <trkpt lat="43.96429" lon="5.1416">
        <ele>403.60000610352</ele>
        <time>2013-04-07T10:55:47.000Z</time>
      </trkpt>
      <trkpt lat="43.96432" lon="5.14166">
        <ele>401.60000610352</ele>
        <time>2013-04-07T10:55:50.000Z</time>
      </trkpt>
      <trkpt lat="43.96443" lon="5.14169">
        <ele>400.20001220703</ele>
        <time>2013-04-07T10:55:54.000Z</time>
      </trkpt>
      <trkpt lat="43.96457" lon="5.14152">
        <ele>397.79998779297</ele>
        <time>2013-04-07T10:55:58.000Z</time>
      </trkpt>
      <trkpt lat="43.96466" lon="5.14147">
        <ele>397.20001220703</ele>
        <time>2013-04-07T10:56:00.000Z</time>
      </trkpt>
      <trkpt lat="43.96475" lon="5.14144">
        <ele>397.20001220703</ele>
        <time>2013-04-07T10:56:02.000Z</time>
      </trkpt>
      <trkpt lat="43.96508" lon="5.14121">
        <ele>392</ele>
        <time>2013-04-07T10:56:11.000Z</time>
      </trkpt>
      <trkpt lat="43.96512" lon="5.14117">
        <ele>391.39999389648</ele>
        <time>2013-04-07T10:56:12.000Z</time>
      </trkpt>
      <trkpt lat="43.96536" lon="5.14078">
        <ele>388.20001220703</ele>
        <time>2013-04-07T10:56:19.000Z</time>
      </trkpt>
      <trkpt lat="43.96546" lon="5.14057">
        <ele>387.20001220703</ele>
        <time>2013-04-07T10:56:24.000Z</time>
      </trkpt>
      <trkpt lat="43.96558" lon="5.14038">
        <ele>386.79998779297</ele>
        <time>2013-04-07T10:56:31.000Z</time>
      </trkpt>
      <trkpt lat="43.96571" lon="5.14016">
        <ele>386.20001220703</ele>
        <time>2013-04-07T10:56:39.000Z</time>
      </trkpt>
      <trkpt lat="43.96583" lon="5.13987">
        <ele>386</ele>
        <time>2013-04-07T10:56:48.000Z</time>
      </trkpt>
      <trkpt lat="43.96592" lon="5.1397">
        <ele>386.20001220703</ele>
        <time>2013-04-07T10:56:55.000Z</time>
      </trkpt>
      <trkpt lat="43.96604" lon="5.13959">
        <ele>387.39999389648</ele>
        <time>2013-04-07T10:57:03.000Z</time>
      </trkpt>
      <trkpt lat="43.96619" lon="5.13954">
        <ele>389.79998779297</ele>
        <time>2013-04-07T10:57:11.000Z</time>
      </trkpt>
      <trkpt lat="43.96628" lon="5.13952">
        <ele>391</ele>
        <time>2013-04-07T10:57:17.000Z</time>
      </trkpt>
      <trkpt lat="43.9664" lon="5.13951">
        <ele>393.60000610352</ele>
        <time>2013-04-07T10:57:24.000Z</time>
      </trkpt>
      <trkpt lat="43.96657" lon="5.13947">
        <ele>398.79998779297</ele>
        <time>2013-04-07T10:57:34.000Z</time>
      </trkpt>
      <trkpt lat="43.96671" lon="5.13943">
        <ele>399.39999389648</ele>
        <time>2013-04-07T10:57:42.000Z</time>
      </trkpt>
      <trkpt lat="43.96688" lon="5.1394">
        <ele>398.20001220703</ele>
        <time>2013-04-07T10:57:49.000Z</time>
      </trkpt>
      <trkpt lat="43.96699" lon="5.13939">
        <ele>398.20001220703</ele>
        <time>2013-04-07T10:57:52.000Z</time>
      </trkpt>
      <trkpt lat="43.96725" lon="5.13934">
        <ele>398.20001220703</ele>
        <time>2013-04-07T10:57:59.000Z</time>
      </trkpt>
      <trkpt lat="43.96742" lon="5.13929">
        <ele>399.20001220703</ele>
        <time>2013-04-07T10:58:07.000Z</time>
      </trkpt>
      <trkpt lat="43.9676" lon="5.1392">
        <ele>400.20001220703</ele>
        <time>2013-04-07T10:58:15.000Z</time>
      </trkpt>
      <trkpt lat="43.96773" lon="5.1392">
        <ele>401</ele>
        <time>2013-04-07T10:58:22.000Z</time>
      </trkpt>
      <trkpt lat="43.96783" lon="5.1392">
        <ele>402</ele>
        <time>2013-04-07T10:58:28.000Z</time>
      </trkpt>
      <trkpt lat="43.96788" lon="5.13921">
        <ele>402</ele>
        <time>2013-04-07T10:58:33.000Z</time>
      </trkpt>
      <trkpt lat="43.9679" lon="5.13922">
        <ele>402.60000610352</ele>
        <time>2013-04-07T10:58:36.000Z</time>
      </trkpt>
      <trkpt lat="43.968" lon="5.13924">
        <ele>403.79998779297</ele>
        <time>2013-04-07T10:58:46.000Z</time>
      </trkpt>
      <trkpt lat="43.96806" lon="5.13924">
        <ele>404.79998779297</ele>
        <time>2013-04-07T10:58:54.000Z</time>
      </trkpt>
      <trkpt lat="43.96813" lon="5.13921">
        <ele>412.79998779297</ele>
        <time>2013-04-07T10:59:03.000Z</time>
      </trkpt>
      <trkpt lat="43.96813" lon="5.13921">
        <ele>413.20001220703</ele>
        <time>2013-04-07T10:59:04.000Z</time>
      </trkpt>
      <trkpt lat="43.96824" lon="5.13921">
        <ele>415.60000610352</ele>
        <time>2013-04-07T10:59:21.000Z</time>
      </trkpt>
      <trkpt lat="43.96832" lon="5.13922">
        <ele>416.20001220703</ele>
        <time>2013-04-07T10:59:29.000Z</time>
      </trkpt>
      <trkpt lat="43.96841" lon="5.13923">
        <ele>416.39999389648</ele>
        <time>2013-04-07T10:59:37.000Z</time>
      </trkpt>
      <trkpt lat="43.96851" lon="5.13923">
        <ele>418.20001220703</ele>
        <time>2013-04-07T10:59:46.000Z</time>
      </trkpt>
      <trkpt lat="43.9686" lon="5.1392">
        <ele>419.39999389648</ele>
        <time>2013-04-07T10:59:54.000Z</time>
      </trkpt>
      <trkpt lat="43.96869" lon="5.13918">
        <ele>419.60000610352</ele>
        <time>2013-04-07T11:00:02.000Z</time>
      </trkpt>
      <trkpt lat="43.96878" lon="5.13915">
        <ele>421.60000610352</ele>
        <time>2013-04-07T11:00:10.000Z</time>
      </trkpt>
      <trkpt lat="43.96885" lon="5.13915">
        <ele>421.60000610352</ele>
        <time>2013-04-07T11:00:16.000Z</time>
      </trkpt>
      <trkpt lat="43.96893" lon="5.13914">
        <ele>422.79998779297</ele>
        <time>2013-04-07T11:00:22.000Z</time>
      </trkpt>
      <trkpt lat="43.96904" lon="5.13913">
        <ele>422.39999389648</ele>
        <time>2013-04-07T11:00:28.000Z</time>
      </trkpt>
      <trkpt lat="43.96915" lon="5.13911">
        <ele>421.60000610352</ele>
        <time>2013-04-07T11:00:34.000Z</time>
      </trkpt>
      <trkpt lat="43.96927" lon="5.1391">
        <ele>421.39999389648</ele>
        <time>2013-04-07T11:00:42.000Z</time>
      </trkpt>
      <trkpt lat="43.96928" lon="5.13912">
        <ele>420.79998779297</ele>
        <time>2013-04-07T11:00:43.000Z</time>
      </trkpt>
      <trkpt lat="43.96924" lon="5.1392">
        <ele>420</ele>
        <time>2013-04-07T11:00:47.000Z</time>
      </trkpt>
      <trkpt lat="43.96909" lon="5.13928">
        <ele>421.39999389648</ele>
        <time>2013-04-07T11:00:56.000Z</time>
      </trkpt>
      <trkpt lat="43.96895" lon="5.13932">
        <ele>423.20001220703</ele>
        <time>2013-04-07T11:01:03.000Z</time>
      </trkpt>
      <trkpt lat="43.96884" lon="5.13938">
        <ele>424.39999389648</ele>
        <time>2013-04-07T11:01:10.000Z</time>
      </trkpt>
      <trkpt lat="43.96873" lon="5.13946">
        <ele>425.60000610352</ele>
        <time>2013-04-07T11:01:17.000Z</time>
      </trkpt>
      <trkpt lat="43.9686" lon="5.13953">
        <ele>426.79998779297</ele>
        <time>2013-04-07T11:01:23.000Z</time>
      </trkpt>
      <trkpt lat="43.96846" lon="5.13961">
        <ele>427.39999389648</ele>
        <time>2013-04-07T11:01:29.000Z</time>
      </trkpt>
      <trkpt lat="43.96837" lon="5.13974">
        <ele>428</ele>
        <time>2013-04-07T11:01:34.000Z</time>
      </trkpt>
      <trkpt lat="43.96822" lon="5.13996">
        <ele>428.39999389648</ele>
        <time>2013-04-07T11:01:41.000Z</time>
      </trkpt>
      <trkpt lat="43.9681" lon="5.14018">
        <ele>428</ele>
        <time>2013-04-07T11:01:46.000Z</time>
      </trkpt>
      <trkpt lat="43.96799" lon="5.14052">
        <ele>426.60000610352</ele>
        <time>2013-04-07T11:01:53.000Z</time>
      </trkpt>
      <trkpt lat="43.96797" lon="5.14058">
        <ele>426.20001220703</ele>
        <time>2013-04-07T11:01:54.000Z</time>
      </trkpt>
      <trkpt lat="43.96798" lon="5.14089">
        <ele>424.20001220703</ele>
        <time>2013-04-07T11:01:59.000Z</time>
      </trkpt>
      <trkpt lat="43.968" lon="5.14095">
        <ele>423.79998779297</ele>
        <time>2013-04-07T11:02:00.000Z</time>
      </trkpt>
      <trkpt lat="43.96807" lon="5.14114">
        <ele>423.79998779297</ele>
        <time>2013-04-07T11:02:03.000Z</time>
      </trkpt>
      <trkpt lat="43.96824" lon="5.14147">
        <ele>424.60000610352</ele>
        <time>2013-04-07T11:02:10.000Z</time>
      </trkpt>
      <trkpt lat="43.96832" lon="5.14168">
        <ele>425.20001220703</ele>
        <time>2013-04-07T11:02:17.000Z</time>
      </trkpt>
      <trkpt lat="43.96843" lon="5.14192">
        <ele>424</ele>
        <time>2013-04-07T11:02:24.000Z</time>
      </trkpt>
      <trkpt lat="43.96851" lon="5.14214">
        <ele>423.20001220703</ele>
        <time>2013-04-07T11:02:30.000Z</time>
      </trkpt>
      <trkpt lat="43.96861" lon="5.14241">
        <ele>422.39999389648</ele>
        <time>2013-04-07T11:02:36.000Z</time>
      </trkpt>
      <trkpt lat="43.96866" lon="5.14256">
        <ele>422</ele>
        <time>2013-04-07T11:02:39.000Z</time>
      </trkpt>
      <trkpt lat="43.96873" lon="5.14271">
        <ele>421.39999389648</ele>
        <time>2013-04-07T11:02:42.000Z</time>
      </trkpt>
      <trkpt lat="43.96891" lon="5.14303">
        <ele>421.79998779297</ele>
        <time>2013-04-07T11:02:49.000Z</time>
      </trkpt>
      <trkpt lat="43.96905" lon="5.14317">
        <ele>423.60000610352</ele>
        <time>2013-04-07T11:02:54.000Z</time>
      </trkpt>
      <trkpt lat="43.96922" lon="5.14341">
        <ele>425.20001220703</ele>
        <time>2013-04-07T11:03:01.000Z</time>
      </trkpt>
      <trkpt lat="43.96931" lon="5.14354">
        <ele>425.39999389648</ele>
        <time>2013-04-07T11:03:05.000Z</time>
      </trkpt>
      <trkpt lat="43.96942" lon="5.14369">
        <ele>427.20001220703</ele>
        <time>2013-04-07T11:03:11.000Z</time>
      </trkpt>
      <trkpt lat="43.96948" lon="5.14376">
        <ele>427.60000610352</ele>
        <time>2013-04-07T11:03:14.000Z</time>
      </trkpt>
      <trkpt lat="43.96962" lon="5.14373">
        <ele>426</ele>
        <time>2013-04-07T11:03:19.000Z</time>
      </trkpt>
      <trkpt lat="43.96963" lon="5.14359">
        <ele>423.60000610352</ele>
        <time>2013-04-07T11:03:22.000Z</time>
      </trkpt>
      <trkpt lat="43.96966" lon="5.14346">
        <ele>420.79998779297</ele>
        <time>2013-04-07T11:03:25.000Z</time>
      </trkpt>
      <trkpt lat="43.96982" lon="5.14338">
        <ele>419.60000610352</ele>
        <time>2013-04-07T11:03:29.000Z</time>
      </trkpt>
      <trkpt lat="43.96987" lon="5.14337">
        <ele>418.79998779297</ele>
        <time>2013-04-07T11:03:30.000Z</time>
      </trkpt>
      <trkpt lat="43.96997" lon="5.14338">
        <ele>417.79998779297</ele>
        <time>2013-04-07T11:03:32.000Z</time>
      </trkpt>
      <trkpt lat="43.97016" lon="5.14353">
        <ele>414</ele>
        <time>2013-04-07T11:03:37.000Z</time>
      </trkpt>
      <trkpt lat="43.97023" lon="5.14355">
        <ele>412.20001220703</ele>
        <time>2013-04-07T11:03:42.000Z</time>
      </trkpt>
      <trkpt lat="43.97033" lon="5.14342">
        <ele>411.20001220703</ele>
        <time>2013-04-07T11:03:46.000Z</time>
      </trkpt>
      <trkpt lat="43.97045" lon="5.14325">
        <ele>408.79998779297</ele>
        <time>2013-04-07T11:03:50.000Z</time>
      </trkpt>
      <trkpt lat="43.97058" lon="5.143">
        <ele>407.39999389648</ele>
        <time>2013-04-07T11:03:55.000Z</time>
      </trkpt>
      <trkpt lat="43.97069" lon="5.143">
        <ele>406.39999389648</ele>
        <time>2013-04-07T11:03:58.000Z</time>
      </trkpt>
      <trkpt lat="43.97079" lon="5.14293">
        <ele>405</ele>
        <time>2013-04-07T11:04:01.000Z</time>
      </trkpt>
      <trkpt lat="43.97087" lon="5.14288">
        <ele>404.20001220703</ele>
        <time>2013-04-07T11:04:03.000Z</time>
      </trkpt>
      <trkpt lat="43.97098" lon="5.14283">
        <ele>402.60000610352</ele>
        <time>2013-04-07T11:04:06.000Z</time>
      </trkpt>
      <trkpt lat="43.97114" lon="5.14277">
        <ele>399.60000610352</ele>
        <time>2013-04-07T11:04:11.000Z</time>
      </trkpt>
      <trkpt lat="43.97128" lon="5.14264">
        <ele>397.60000610352</ele>
        <time>2013-04-07T11:04:16.000Z</time>
      </trkpt>
      <trkpt lat="43.97131" lon="5.14258">
        <ele>396</ele>
        <time>2013-04-07T11:04:18.000Z</time>
      </trkpt>
      <trkpt lat="43.97142" lon="5.14242">
        <ele>390.20001220703</ele>
        <time>2013-04-07T11:04:23.000Z</time>
      </trkpt>
      <trkpt lat="43.97148" lon="5.14231">
        <ele>386.20001220703</ele>
        <time>2013-04-07T11:04:27.000Z</time>
      </trkpt>
      <trkpt lat="43.97149" lon="5.14208">
        <ele>380.79998779297</ele>
        <time>2013-04-07T11:04:31.000Z</time>
      </trkpt>
      <trkpt lat="43.97147" lon="5.14192">
        <ele>376.60000610352</ele>
        <time>2013-04-07T11:04:34.000Z</time>
      </trkpt>
      <trkpt lat="43.97142" lon="5.14167">
        <ele>370</ele>
        <time>2013-04-07T11:04:39.000Z</time>
      </trkpt>
      <trkpt lat="43.97141" lon="5.14155">
        <ele>367.39999389648</ele>
        <time>2013-04-07T11:04:41.000Z</time>
      </trkpt>
      <trkpt lat="43.9713" lon="5.14131">
        <ele>362.39999389648</ele>
        <time>2013-04-07T11:04:45.000Z</time>
      </trkpt>
      <trkpt lat="43.97122" lon="5.14111">
        <ele>360.20001220703</ele>
        <time>2013-04-07T11:04:49.000Z</time>
      </trkpt>
      <trkpt lat="43.9713" lon="5.14093">
        <ele>363.20001220703</ele>
        <time>2013-04-07T11:04:54.000Z</time>
      </trkpt>
      <trkpt lat="43.97135" lon="5.14082">
        <ele>364.39999389648</ele>
        <time>2013-04-07T11:04:58.000Z</time>
      </trkpt>
      <trkpt lat="43.97146" lon="5.14079">
        <ele>363.20001220703</ele>
        <time>2013-04-07T11:05:02.000Z</time>
      </trkpt>
      <trkpt lat="43.97167" lon="5.14079">
        <ele>360.20001220703</ele>
        <time>2013-04-07T11:05:06.000Z</time>
      </trkpt>
      <trkpt lat="43.97177" lon="5.14076">
        <ele>359.20001220703</ele>
        <time>2013-04-07T11:05:08.000Z</time>
      </trkpt>
      <trkpt lat="43.97197" lon="5.14065">
        <ele>357.60000610352</ele>
        <time>2013-04-07T11:05:12.000Z</time>
      </trkpt>
      <trkpt lat="43.97236" lon="5.14041">
        <ele>352.39999389648</ele>
        <time>2013-04-07T11:05:18.000Z</time>
      </trkpt>
      <trkpt lat="43.97257" lon="5.1404">
        <ele>350.39999389648</ele>
        <time>2013-04-07T11:05:22.000Z</time>
      </trkpt>
      <trkpt lat="43.97273" lon="5.14035">
        <ele>349.79998779297</ele>
        <time>2013-04-07T11:05:26.000Z</time>
      </trkpt>
      <trkpt lat="43.97292" lon="5.14031">
        <ele>348.79998779297</ele>
        <time>2013-04-07T11:05:30.000Z</time>
      </trkpt>
      <trkpt lat="43.97307" lon="5.14027">
        <ele>347.79998779297</ele>
        <time>2013-04-07T11:05:33.000Z</time>
      </trkpt>
      <trkpt lat="43.97349" lon="5.14017">
        <ele>344</ele>
        <time>2013-04-07T11:05:40.000Z</time>
      </trkpt>
      <trkpt lat="43.97362" lon="5.14013">
        <ele>342.79998779297</ele>
        <time>2013-04-07T11:05:42.000Z</time>
      </trkpt>
      <trkpt lat="43.97387" lon="5.1401">
        <ele>341.60000610352</ele>
        <time>2013-04-07T11:05:46.000Z</time>
      </trkpt>
      <trkpt lat="43.97399" lon="5.14006">
        <ele>341.60000610352</ele>
        <time>2013-04-07T11:05:48.000Z</time>
      </trkpt>
      <trkpt lat="43.97423" lon="5.13994">
        <ele>340.20001220703</ele>
        <time>2013-04-07T11:05:53.000Z</time>
      </trkpt>
      <trkpt lat="43.97435" lon="5.13985">
        <ele>339.20001220703</ele>
        <time>2013-04-07T11:05:57.000Z</time>
      </trkpt>
      <trkpt lat="43.97437" lon="5.13984">
        <ele>339</ele>
        <time>2013-04-07T11:05:58.000Z</time>
      </trkpt>
      <trkpt lat="43.97454" lon="5.13978">
        <ele>345.60000610352</ele>
        <time>2013-04-07T11:06:07.000Z</time>
      </trkpt>
      <trkpt lat="43.97458" lon="5.13979">
        <ele>345.79998779297</ele>
        <time>2013-04-07T11:06:09.000Z</time>
      </trkpt>
      <trkpt lat="43.97469" lon="5.13968">
        <ele>344.60000610352</ele>
        <time>2013-04-07T11:06:14.000Z</time>
      </trkpt>
      <trkpt lat="43.97486" lon="5.13956">
        <ele>343.60000610352</ele>
        <time>2013-04-07T11:06:20.000Z</time>
      </trkpt>
      <trkpt lat="43.97489" lon="5.13952">
        <ele>343.39999389648</ele>
        <time>2013-04-07T11:06:21.000Z</time>
      </trkpt>
      <trkpt lat="43.97496" lon="5.13945">
        <ele>342.60000610352</ele>
        <time>2013-04-07T11:06:23.000Z</time>
      </trkpt>
      <trkpt lat="43.97506" lon="5.13929">
        <ele>341</ele>
        <time>2013-04-07T11:06:26.000Z</time>
      </trkpt>
      <trkpt lat="43.97521" lon="5.13909">
        <ele>338.60000610352</ele>
        <time>2013-04-07T11:06:30.000Z</time>
      </trkpt>
      <trkpt lat="43.97537" lon="5.13887">
        <ele>336.20001220703</ele>
        <time>2013-04-07T11:06:34.000Z</time>
      </trkpt>
      <trkpt lat="43.97546" lon="5.13876">
        <ele>334.39999389648</ele>
        <time>2013-04-07T11:06:37.000Z</time>
      </trkpt>
      <trkpt lat="43.97558" lon="5.13852">
        <ele>331</ele>
        <time>2013-04-07T11:06:42.000Z</time>
      </trkpt>
      <trkpt lat="43.97558" lon="5.13834">
        <ele>327.20001220703</ele>
        <time>2013-04-07T11:06:47.000Z</time>
      </trkpt>
      <trkpt lat="43.97553" lon="5.13821">
        <ele>324.39999389648</ele>
        <time>2013-04-07T11:06:51.000Z</time>
      </trkpt>
      <trkpt lat="43.97552" lon="5.13814">
        <ele>323</ele>
        <time>2013-04-07T11:06:55.000Z</time>
      </trkpt>
      <trkpt lat="43.97558" lon="5.13812">
        <ele>322.60000610352</ele>
        <time>2013-04-07T11:07:00.000Z</time>
      </trkpt>
      <trkpt lat="43.97571" lon="5.13801">
        <ele>321.39999389648</ele>
        <time>2013-04-07T11:07:05.000Z</time>
      </trkpt>
      <trkpt lat="43.97577" lon="5.13794">
        <ele>321.20001220703</ele>
        <time>2013-04-07T11:07:07.000Z</time>
      </trkpt>
      <trkpt lat="43.97591" lon="5.13778">
        <ele>320.39999389648</ele>
        <time>2013-04-07T11:07:11.000Z</time>
      </trkpt>
      <trkpt lat="43.97606" lon="5.13776">
        <ele>320.60000610352</ele>
        <time>2013-04-07T11:07:15.000Z</time>
      </trkpt>
      <trkpt lat="43.97607" lon="5.13776">
        <ele>320.79998779297</ele>
        <time>2013-04-07T11:07:17.000Z</time>
      </trkpt>
      <trkpt lat="43.97611" lon="5.13771">
        <ele>321.79998779297</ele>
        <time>2013-04-07T11:07:24.000Z</time>
      </trkpt>
      <trkpt lat="43.97614" lon="5.13768">
        <ele>322</ele>
        <time>2013-04-07T11:07:28.000Z</time>
      </trkpt>
      <trkpt lat="43.97619" lon="5.13754">
        <ele>323.20001220703</ele>
        <time>2013-04-07T11:07:34.000Z</time>
      </trkpt>
      <trkpt lat="43.97628" lon="5.1375">
        <ele>323.60000610352</ele>
        <time>2013-04-07T11:07:38.000Z</time>
      </trkpt>
      <trkpt lat="43.97635" lon="5.13749">
        <ele>324.39999389648</ele>
        <time>2013-04-07T11:07:43.000Z</time>
      </trkpt>
      <trkpt lat="43.97638" lon="5.1375">
        <ele>326.39999389648</ele>
        <time>2013-04-07T11:07:48.000Z</time>
      </trkpt>
      <trkpt lat="43.97643" lon="5.13756">
        <ele>329</ele>
        <time>2013-04-07T11:07:57.000Z</time>
      </trkpt>
      <trkpt lat="43.97649" lon="5.13755">
        <ele>330</ele>
        <time>2013-04-07T11:08:03.000Z</time>
      </trkpt>
      <trkpt lat="43.97655" lon="5.13748">
        <ele>331.20001220703</ele>
        <time>2013-04-07T11:08:09.000Z</time>
      </trkpt>
      <trkpt lat="43.97664" lon="5.13732">
        <ele>332.20001220703</ele>
        <time>2013-04-07T11:08:14.000Z</time>
      </trkpt>
      <trkpt lat="43.97682" lon="5.13708">
        <ele>331.39999389648</ele>
        <time>2013-04-07T11:08:21.000Z</time>
      </trkpt>
      <trkpt lat="43.97687" lon="5.13694">
        <ele>331.39999389648</ele>
        <time>2013-04-07T11:08:24.000Z</time>
      </trkpt>
      <trkpt lat="43.97696" lon="5.13677">
        <ele>332.39999389648</ele>
        <time>2013-04-07T11:08:28.000Z</time>
      </trkpt>
      <trkpt lat="43.97702" lon="5.1367">
        <ele>332.39999389648</ele>
        <time>2013-04-07T11:08:30.000Z</time>
      </trkpt>
      <trkpt lat="43.97714" lon="5.13673">
        <ele>333.20001220703</ele>
        <time>2013-04-07T11:08:34.000Z</time>
      </trkpt>
      <trkpt lat="43.97723" lon="5.13681">
        <ele>333.60000610352</ele>
        <time>2013-04-07T11:08:38.000Z</time>
      </trkpt>
      <trkpt lat="43.97725" lon="5.13693">
        <ele>334.60000610352</ele>
        <time>2013-04-07T11:08:42.000Z</time>
      </trkpt>
      <trkpt lat="43.97726" lon="5.13702">
        <ele>335.39999389648</ele>
        <time>2013-04-07T11:08:45.000Z</time>
      </trkpt>
      <trkpt lat="43.97731" lon="5.13708">
        <ele>337.60000610352</ele>
        <time>2013-04-07T11:08:50.000Z</time>
      </trkpt>
      <trkpt lat="43.97733" lon="5.13713">
        <ele>338.79998779297</ele>
        <time>2013-04-07T11:08:53.000Z</time>
      </trkpt>
      <trkpt lat="43.97735" lon="5.13717">
        <ele>339.39999389648</ele>
        <time>2013-04-07T11:08:58.000Z</time>
      </trkpt>
      <trkpt lat="43.97735" lon="5.13724">
        <ele>340.39999389648</ele>
        <time>2013-04-07T11:09:03.000Z</time>
      </trkpt>
      <trkpt lat="43.97735" lon="5.13734">
        <ele>341.39999389648</ele>
        <time>2013-04-07T11:09:11.000Z</time>
      </trkpt>
      <trkpt lat="43.97735" lon="5.13735">
        <ele>341.60000610352</ele>
        <time>2013-04-07T11:09:12.000Z</time>
      </trkpt>
      <trkpt lat="43.97738" lon="5.13743">
        <ele>343</ele>
        <time>2013-04-07T11:09:20.000Z</time>
      </trkpt>
      <trkpt lat="43.97745" lon="5.13749">
        <ele>343.20001220703</ele>
        <time>2013-04-07T11:09:28.000Z</time>
      </trkpt>
      <trkpt lat="43.97751" lon="5.13754">
        <ele>343.79998779297</ele>
        <time>2013-04-07T11:09:33.000Z</time>
      </trkpt>
      <trkpt lat="43.97758" lon="5.13771">
        <ele>344.79998779297</ele>
        <time>2013-04-07T11:09:41.000Z</time>
      </trkpt>
      <trkpt lat="43.97757" lon="5.13783">
        <ele>345.60000610352</ele>
        <time>2013-04-07T11:09:47.000Z</time>
      </trkpt>
      <trkpt lat="43.97752" lon="5.13794">
        <ele>347.79998779297</ele>
        <time>2013-04-07T11:09:53.000Z</time>
      </trkpt>
      <trkpt lat="43.97747" lon="5.13806">
        <ele>349.20001220703</ele>
        <time>2013-04-07T11:10:00.000Z</time>
      </trkpt>
      <trkpt lat="43.97741" lon="5.13819">
        <ele>351</ele>
        <time>2013-04-07T11:10:08.000Z</time>
      </trkpt>
      <trkpt lat="43.97733" lon="5.13832">
        <ele>352.39999389648</ele>
        <time>2013-04-07T11:10:16.000Z</time>
      </trkpt>
      <trkpt lat="43.9773" lon="5.13849">
        <ele>351.39999389648</ele>
        <time>2013-04-07T11:10:22.000Z</time>
      </trkpt>
      <trkpt lat="43.9772" lon="5.13866">
        <ele>351.60000610352</ele>
        <time>2013-04-07T11:10:29.000Z</time>
      </trkpt>
      <trkpt lat="43.97708" lon="5.13885">
        <ele>352.60000610352</ele>
        <time>2013-04-07T11:10:37.000Z</time>
      </trkpt>
      <trkpt lat="43.97705" lon="5.13893">
        <ele>352.39999389648</ele>
        <time>2013-04-07T11:10:40.000Z</time>
      </trkpt>
      <trkpt lat="43.97706" lon="5.1391">
        <ele>350.39999389648</ele>
        <time>2013-04-07T11:10:44.000Z</time>
      </trkpt>
      <trkpt lat="43.97697" lon="5.13927">
        <ele>349.39999389648</ele>
        <time>2013-04-07T11:10:48.000Z</time>
      </trkpt>
      <trkpt lat="43.97687" lon="5.13947">
        <ele>349.60000610352</ele>
        <time>2013-04-07T11:10:54.000Z</time>
      </trkpt>
      <trkpt lat="43.97675" lon="5.13973">
        <ele>350.79998779297</ele>
        <time>2013-04-07T11:11:01.000Z</time>
      </trkpt>
      <trkpt lat="43.97667" lon="5.13998">
        <ele>350</ele>
        <time>2013-04-07T11:11:06.000Z</time>
      </trkpt>
      <trkpt lat="43.97666" lon="5.14004">
        <ele>349.79998779297</ele>
        <time>2013-04-07T11:11:07.000Z</time>
      </trkpt>
      <trkpt lat="43.97669" lon="5.1402">
        <ele>347.79998779297</ele>
        <time>2013-04-07T11:11:11.000Z</time>
      </trkpt>
      <trkpt lat="43.97672" lon="5.14011">
        <ele>345.60000610352</ele>
        <time>2013-04-07T11:11:14.000Z</time>
      </trkpt>
      <trkpt lat="43.97683" lon="5.13996">
        <ele>343.79998779297</ele>
        <time>2013-04-07T11:11:18.000Z</time>
      </trkpt>
      <trkpt lat="43.9769" lon="5.13988">
        <ele>342.79998779297</ele>
        <time>2013-04-07T11:11:20.000Z</time>
      </trkpt>
      <trkpt lat="43.97697" lon="5.13979">
        <ele>342.20001220703</ele>
        <time>2013-04-07T11:11:22.000Z</time>
      </trkpt>
      <trkpt lat="43.97716" lon="5.13963">
        <ele>339</ele>
        <time>2013-04-07T11:11:27.000Z</time>
      </trkpt>
      <trkpt lat="43.97731" lon="5.1395">
        <ele>336.20001220703</ele>
        <time>2013-04-07T11:11:31.000Z</time>
      </trkpt>
      <trkpt lat="43.97758" lon="5.13932">
        <ele>332.20001220703</ele>
        <time>2013-04-07T11:11:37.000Z</time>
      </trkpt>
      <trkpt lat="43.97773" lon="5.13921">
        <ele>330.20001220703</ele>
        <time>2013-04-07T11:11:41.000Z</time>
      </trkpt>
      <trkpt lat="43.97784" lon="5.13914">
        <ele>329.39999389648</ele>
        <time>2013-04-07T11:11:45.000Z</time>
      </trkpt>
      <trkpt lat="43.97791" lon="5.13908">
        <ele>327.79998779297</ele>
        <time>2013-04-07T11:11:47.000Z</time>
      </trkpt>
      <trkpt lat="43.97811" lon="5.13886">
        <ele>324.60000610352</ele>
        <time>2013-04-07T11:11:53.000Z</time>
      </trkpt>
      <trkpt lat="43.97823" lon="5.13866">
        <ele>321.79998779297</ele>
        <time>2013-04-07T11:11:57.000Z</time>
      </trkpt>
      <trkpt lat="43.97828" lon="5.13855">
        <ele>321.20001220703</ele>
        <time>2013-04-07T11:11:59.000Z</time>
      </trkpt>
      <trkpt lat="43.97838" lon="5.13834">
        <ele>317.79998779297</ele>
        <time>2013-04-07T11:12:03.000Z</time>
      </trkpt>
      <trkpt lat="43.97843" lon="5.13819">
        <ele>316.20001220703</ele>
        <time>2013-04-07T11:12:05.000Z</time>
      </trkpt>
      <trkpt lat="43.9785" lon="5.13792">
        <ele>313</ele>
        <time>2013-04-07T11:12:09.000Z</time>
      </trkpt>
      <trkpt lat="43.97856" lon="5.13767">
        <ele>310</ele>
        <time>2013-04-07T11:12:13.000Z</time>
      </trkpt>
      <trkpt lat="43.9786" lon="5.13754">
        <ele>307.79998779297</ele>
        <time>2013-04-07T11:12:15.000Z</time>
      </trkpt>
      <trkpt lat="43.97864" lon="5.13713">
        <ele>303</ele>
        <time>2013-04-07T11:12:20.000Z</time>
      </trkpt>
      <trkpt lat="43.97866" lon="5.13694">
        <ele>300.79998779297</ele>
        <time>2013-04-07T11:12:24.000Z</time>
      </trkpt>
      <trkpt lat="43.97866" lon="5.1369">
        <ele>300.20001220703</ele>
        <time>2013-04-07T11:12:25.000Z</time>
      </trkpt>
      <trkpt lat="43.97866" lon="5.13683">
        <ele>300.79998779297</ele>
        <time>2013-04-07T11:12:29.000Z</time>
      </trkpt>
      <trkpt lat="43.97866" lon="5.13688">
        <ele>303.60000610352</ele>
        <time>2013-04-07T11:12:46.000Z</time>
      </trkpt>
      <trkpt lat="43.97864" lon="5.13693">
        <ele>303.79998779297</ele>
        <time>2013-04-07T11:12:54.000Z</time>
      </trkpt>
      <trkpt lat="43.97864" lon="5.13693">
        <ele>303.79998779297</ele>
        <time>2013-04-07T11:12:55.000Z</time>
      </trkpt>
      <trkpt lat="43.97863" lon="5.13693">
        <ele>301</ele>
        <time>2013-04-07T11:13:14.000Z</time>
      </trkpt>
      <trkpt lat="43.97863" lon="5.1369">
        <ele>301.39999389648</ele>
        <time>2013-04-07T11:13:19.000Z</time>
      </trkpt>
      <trkpt lat="43.97867" lon="5.13664">
        <ele>303.20001220703</ele>
        <time>2013-04-07T11:13:55.000Z</time>
      </trkpt>
      <trkpt lat="43.97866" lon="5.1364">
        <ele>300.60000610352</ele>
        <time>2013-04-07T11:14:00.000Z</time>
      </trkpt>
      <trkpt lat="43.97856" lon="5.13613">
        <ele>299</ele>
        <time>2013-04-07T11:14:05.000Z</time>
      </trkpt>
      <trkpt lat="43.97853" lon="5.13595">
        <ele>297.60000610352</ele>
        <time>2013-04-07T11:14:08.000Z</time>
      </trkpt>
      <trkpt lat="43.97856" lon="5.13571">
        <ele>296</ele>
        <time>2013-04-07T11:14:12.000Z</time>
      </trkpt>
      <trkpt lat="43.97871" lon="5.13531">
        <ele>298.39999389648</ele>
        <time>2013-04-07T11:14:19.000Z</time>
      </trkpt>
      <trkpt lat="43.9789" lon="5.13491">
        <ele>298.39999389648</ele>
        <time>2013-04-07T11:14:25.000Z</time>
      </trkpt>
      <trkpt lat="43.97911" lon="5.13438">
        <ele>296.79998779297</ele>
        <time>2013-04-07T11:14:32.000Z</time>
      </trkpt>
      <trkpt lat="43.97926" lon="5.13384">
        <ele>293.20001220703</ele>
        <time>2013-04-07T11:14:39.000Z</time>
      </trkpt>
      <trkpt lat="43.97927" lon="5.1335">
        <ele>290.79998779297</ele>
        <time>2013-04-07T11:14:44.000Z</time>
      </trkpt>
      <trkpt lat="43.97925" lon="5.13329">
        <ele>290.20001220703</ele>
        <time>2013-04-07T11:14:49.000Z</time>
      </trkpt>
      <trkpt lat="43.97924" lon="5.13327">
        <ele>290</ele>
        <time>2013-04-07T11:14:50.000Z</time>
      </trkpt>
      <trkpt lat="43.97927" lon="5.13321">
        <ele>290.79998779297</ele>
        <time>2013-04-07T11:14:54.000Z</time>
      </trkpt>
      <trkpt lat="43.97933" lon="5.1333">
        <ele>290.20001220703</ele>
        <time>2013-04-07T11:14:57.000Z</time>
      </trkpt>
      <trkpt lat="43.97943" lon="5.13335">
        <ele>290.39999389648</ele>
        <time>2013-04-07T11:15:00.000Z</time>
      </trkpt>
      <trkpt lat="43.97962" lon="5.13338">
        <ele>289.39999389648</ele>
        <time>2013-04-07T11:15:06.000Z</time>
      </trkpt>
      <trkpt lat="43.97979" lon="5.13336">
        <ele>285.79998779297</ele>
        <time>2013-04-07T11:15:11.000Z</time>
      </trkpt>
      <trkpt lat="43.97993" lon="5.13334">
        <ele>283.60000610352</ele>
        <time>2013-04-07T11:15:15.000Z</time>
      </trkpt>
      <trkpt lat="43.98007" lon="5.13325">
        <ele>280.79998779297</ele>
        <time>2013-04-07T11:15:19.000Z</time>
      </trkpt>
      <trkpt lat="43.98025" lon="5.13309">
        <ele>276</ele>
        <time>2013-04-07T11:15:25.000Z</time>
      </trkpt>
      <trkpt lat="43.98036" lon="5.13301">
        <ele>273.20001220703</ele>
        <time>2013-04-07T11:15:29.000Z</time>
      </trkpt>
      <trkpt lat="43.98039" lon="5.13301">
        <ele>273</ele>
        <time>2013-04-07T11:15:30.000Z</time>
      </trkpt>
      <trkpt lat="43.98048" lon="5.13292">
        <ele>271</ele>
        <time>2013-04-07T11:15:34.000Z</time>
      </trkpt>
      <trkpt lat="43.9805" lon="5.13293">
        <ele>270.60000610352</ele>
        <time>2013-04-07T11:15:35.000Z</time>
      </trkpt>
      <trkpt lat="43.98055" lon="5.13301">
        <ele>269.79998779297</ele>
        <time>2013-04-07T11:15:38.000Z</time>
      </trkpt>
      <trkpt lat="43.98069" lon="5.133">
        <ele>269</ele>
        <time>2013-04-07T11:15:42.000Z</time>
      </trkpt>
      <trkpt lat="43.98081" lon="5.13296">
        <ele>268.39999389648</ele>
        <time>2013-04-07T11:15:47.000Z</time>
      </trkpt>
      <trkpt lat="43.98094" lon="5.1329">
        <ele>267.79998779297</ele>
        <time>2013-04-07T11:15:54.000Z</time>
      </trkpt>
      <trkpt lat="43.981" lon="5.13281">
        <ele>268.20001220703</ele>
        <time>2013-04-07T11:15:59.000Z</time>
      </trkpt>
      <trkpt lat="43.98104" lon="5.13276">
        <ele>269</ele>
        <time>2013-04-07T11:16:02.000Z</time>
      </trkpt>
      <trkpt lat="43.98108" lon="5.13275">
        <ele>270.39999389648</ele>
        <time>2013-04-07T11:16:06.000Z</time>
      </trkpt>
      <trkpt lat="43.98108" lon="5.13275">
        <ele>270.79998779297</ele>
        <time>2013-04-07T11:16:07.000Z</time>
      </trkpt>
      <trkpt lat="43.98111" lon="5.13271">
        <ele>272</ele>
        <time>2013-04-07T11:16:12.000Z</time>
      </trkpt>
      <trkpt lat="43.98113" lon="5.1327">
        <ele>272.79998779297</ele>
        <time>2013-04-07T11:16:16.000Z</time>
      </trkpt>
      <trkpt lat="43.98122" lon="5.13273">
        <ele>274.20001220703</ele>
        <time>2013-04-07T11:16:27.000Z</time>
      </trkpt>
      <trkpt lat="43.98125" lon="5.13276">
        <ele>274.79998779297</ele>
        <time>2013-04-07T11:16:33.000Z</time>
      </trkpt>
      <trkpt lat="43.9813" lon="5.13275">
        <ele>274.79998779297</ele>
        <time>2013-04-07T11:16:38.000Z</time>
      </trkpt>
      <trkpt lat="43.98132" lon="5.13274">
        <ele>275</ele>
        <time>2013-04-07T11:16:42.000Z</time>
      </trkpt>
      <trkpt lat="43.98135" lon="5.13273">
        <ele>275.20001220703</ele>
        <time>2013-04-07T11:16:46.000Z</time>
      </trkpt>
      <trkpt lat="43.98146" lon="5.13269">
        <ele>276.60000610352</ele>
        <time>2013-04-07T11:16:54.000Z</time>
      </trkpt>
      <trkpt lat="43.98162" lon="5.13263">
        <ele>278.39999389648</ele>
        <time>2013-04-07T11:17:04.000Z</time>
      </trkpt>
      <trkpt lat="43.98168" lon="5.13261">
        <ele>279</ele>
        <time>2013-04-07T11:17:08.000Z</time>
      </trkpt>
      <trkpt lat="43.98176" lon="5.13247">
        <ele>278.60000610352</ele>
        <time>2013-04-07T11:17:13.000Z</time>
      </trkpt>
      <trkpt lat="43.98184" lon="5.13236">
        <ele>278.20001220703</ele>
        <time>2013-04-07T11:17:18.000Z</time>
      </trkpt>
      <trkpt lat="43.9819" lon="5.13222">
        <ele>278.60000610352</ele>
        <time>2013-04-07T11:17:23.000Z</time>
      </trkpt>
      <trkpt lat="43.98201" lon="5.13201">
        <ele>277.20001220703</ele>
        <time>2013-04-07T11:17:29.000Z</time>
      </trkpt>
      <trkpt lat="43.98215" lon="5.13179">
        <ele>277.79998779297</ele>
        <time>2013-04-07T11:17:35.000Z</time>
      </trkpt>
      <trkpt lat="43.98219" lon="5.13172">
        <ele>278.20001220703</ele>
        <time>2013-04-07T11:17:37.000Z</time>
      </trkpt>
      <trkpt lat="43.98228" lon="5.13162">
        <ele>278</ele>
        <time>2013-04-07T11:17:41.000Z</time>
      </trkpt>
      <trkpt lat="43.98231" lon="5.13142">
        <ele>277.20001220703</ele>
        <time>2013-04-07T11:17:44.000Z</time>
      </trkpt>
      <trkpt lat="43.98234" lon="5.13136">
        <ele>277.39999389648</ele>
        <time>2013-04-07T11:17:45.000Z</time>
      </trkpt>
      <trkpt lat="43.98249" lon="5.13113">
        <ele>276.39999389648</ele>
        <time>2013-04-07T11:17:50.000Z</time>
      </trkpt>
      <trkpt lat="43.9826" lon="5.13099">
        <ele>276</ele>
        <time>2013-04-07T11:17:53.000Z</time>
      </trkpt>
      <trkpt lat="43.98276" lon="5.13081">
        <ele>275.79998779297</ele>
        <time>2013-04-07T11:17:57.000Z</time>
      </trkpt>
      <trkpt lat="43.98286" lon="5.13062">
        <ele>275.20001220703</ele>
        <time>2013-04-07T11:18:01.000Z</time>
      </trkpt>
      <trkpt lat="43.98289" lon="5.13053">
        <ele>274.79998779297</ele>
        <time>2013-04-07T11:18:03.000Z</time>
      </trkpt>
      <trkpt lat="43.98302" lon="5.13034">
        <ele>274.60000610352</ele>
        <time>2013-04-07T11:18:07.000Z</time>
      </trkpt>
      <trkpt lat="43.98316" lon="5.13014">
        <ele>273</ele>
        <time>2013-04-07T11:18:11.000Z</time>
      </trkpt>
      <trkpt lat="43.98332" lon="5.12997">
        <ele>271.39999389648</ele>
        <time>2013-04-07T11:18:15.000Z</time>
      </trkpt>
      <trkpt lat="43.98342" lon="5.12985">
        <ele>270.39999389648</ele>
        <time>2013-04-07T11:18:18.000Z</time>
      </trkpt>
      <trkpt lat="43.98346" lon="5.12965">
        <ele>269.60000610352</ele>
        <time>2013-04-07T11:18:21.000Z</time>
      </trkpt>
      <trkpt lat="43.98356" lon="5.12936">
        <ele>268.79998779297</ele>
        <time>2013-04-07T11:18:25.000Z</time>
      </trkpt>
      <trkpt lat="43.9836" lon="5.12922">
        <ele>270.20001220703</ele>
        <time>2013-04-07T11:18:28.000Z</time>
      </trkpt>
      <trkpt lat="43.9836" lon="5.12922">
        <ele>271.39999389648</ele>
        <time>2013-04-07T11:18:31.000Z</time>
      </trkpt>
      <trkpt lat="43.98348" lon="5.1292">
        <ele>270.60000610352</ele>
        <time>2013-04-07T11:18:36.000Z</time>
      </trkpt>
      <trkpt lat="43.98345" lon="5.12911">
        <ele>270</ele>
        <time>2013-04-07T11:18:38.000Z</time>
      </trkpt>
      <trkpt lat="43.98351" lon="5.12895">
        <ele>269.20001220703</ele>
        <time>2013-04-07T11:18:41.000Z</time>
      </trkpt>
      <trkpt lat="43.98372" lon="5.12879">
        <ele>268.39999389648</ele>
        <time>2013-04-07T11:18:46.000Z</time>
      </trkpt>
      <trkpt lat="43.98393" lon="5.12876">
        <ele>269</ele>
        <time>2013-04-07T11:18:52.000Z</time>
      </trkpt>
      <trkpt lat="43.98405" lon="5.12861">
        <ele>269</ele>
        <time>2013-04-07T11:18:57.000Z</time>
      </trkpt>
      <trkpt lat="43.98412" lon="5.12844">
        <ele>268.79998779297</ele>
        <time>2013-04-07T11:19:01.000Z</time>
      </trkpt>
      <trkpt lat="43.98414" lon="5.12839">
        <ele>268.79998779297</ele>
        <time>2013-04-07T11:19:02.000Z</time>
      </trkpt>
      <trkpt lat="43.98435" lon="5.12823">
        <ele>268.60000610352</ele>
        <time>2013-04-07T11:19:07.000Z</time>
      </trkpt>
      <trkpt lat="43.98449" lon="5.1281">
        <ele>268.20001220703</ele>
        <time>2013-04-07T11:19:11.000Z</time>
      </trkpt>
      <trkpt lat="43.98452" lon="5.12793">
        <ele>267.39999389648</ele>
        <time>2013-04-07T11:19:14.000Z</time>
      </trkpt>
      <trkpt lat="43.98444" lon="5.12773">
        <ele>268.20001220703</ele>
        <time>2013-04-07T11:19:18.000Z</time>
      </trkpt>
      <trkpt lat="43.98436" lon="5.12759">
        <ele>268.79998779297</ele>
        <time>2013-04-07T11:19:21.000Z</time>
      </trkpt>
      <trkpt lat="43.98421" lon="5.1273">
        <ele>271</ele>
        <time>2013-04-07T11:19:27.000Z</time>
      </trkpt>
      <trkpt lat="43.98416" lon="5.12719">
        <ele>272</ele>
        <time>2013-04-07T11:19:30.000Z</time>
      </trkpt>
      <trkpt lat="43.98414" lon="5.12709">
        <ele>272.60000610352</ele>
        <time>2013-04-07T11:19:33.000Z</time>
      </trkpt>
      <trkpt lat="43.98419" lon="5.12677">
        <ele>273.79998779297</ele>
        <time>2013-04-07T11:19:41.000Z</time>
      </trkpt>
      <trkpt lat="43.98426" lon="5.12658">
        <ele>274.20001220703</ele>
        <time>2013-04-07T11:19:46.000Z</time>
      </trkpt>
      <trkpt lat="43.98437" lon="5.12644">
        <ele>274.20001220703</ele>
        <time>2013-04-07T11:19:51.000Z</time>
      </trkpt>
      <trkpt lat="43.98445" lon="5.1263">
        <ele>274</ele>
        <time>2013-04-07T11:19:55.000Z</time>
      </trkpt>
      <trkpt lat="43.98449" lon="5.12611">
        <ele>275</ele>
        <time>2013-04-07T11:20:00.000Z</time>
      </trkpt>
      <trkpt lat="43.98454" lon="5.12598">
        <ele>275.60000610352</ele>
        <time>2013-04-07T11:20:05.000Z</time>
      </trkpt>
      <trkpt lat="43.98461" lon="5.12586">
        <ele>276.20001220703</ele>
        <time>2013-04-07T11:20:11.000Z</time>
      </trkpt>
      <trkpt lat="43.98463" lon="5.12575">
        <ele>277.20001220703</ele>
        <time>2013-04-07T11:20:16.000Z</time>
      </trkpt>
      <trkpt lat="43.98464" lon="5.12563">
        <ele>278.79998779297</ele>
        <time>2013-04-07T11:20:22.000Z</time>
      </trkpt>
      <trkpt lat="43.98466" lon="5.12557">
        <ele>279.20001220703</ele>
        <time>2013-04-07T11:20:25.000Z</time>
      </trkpt>
      <trkpt lat="43.98475" lon="5.12539">
        <ele>279.79998779297</ele>
        <time>2013-04-07T11:20:34.000Z</time>
      </trkpt>
      <trkpt lat="43.98479" lon="5.12518">
        <ele>280.39999389648</ele>
        <time>2013-04-07T11:20:42.000Z</time>
      </trkpt>
      <trkpt lat="43.98489" lon="5.12506">
        <ele>281</ele>
        <time>2013-04-07T11:20:48.000Z</time>
      </trkpt>
      <trkpt lat="43.985" lon="5.12502">
        <ele>280.79998779297</ele>
        <time>2013-04-07T11:20:52.000Z</time>
      </trkpt>
      <trkpt lat="43.98517" lon="5.12506">
        <ele>280.60000610352</ele>
        <time>2013-04-07T11:20:58.000Z</time>
      </trkpt>
      <trkpt lat="43.98538" lon="5.12507">
        <ele>280.60000610352</ele>
        <time>2013-04-07T11:21:05.000Z</time>
      </trkpt>
      <trkpt lat="43.98548" lon="5.12502">
        <ele>280.60000610352</ele>
        <time>2013-04-07T11:21:09.000Z</time>
      </trkpt>
      <trkpt lat="43.98551" lon="5.12487">
        <ele>280.79998779297</ele>
        <time>2013-04-07T11:21:14.000Z</time>
      </trkpt>
      <trkpt lat="43.98546" lon="5.12473">
        <ele>282</ele>
        <time>2013-04-07T11:21:19.000Z</time>
      </trkpt>
      <trkpt lat="43.98539" lon="5.1246">
        <ele>284</ele>
        <time>2013-04-07T11:21:24.000Z</time>
      </trkpt>
      <trkpt lat="43.9853" lon="5.1243">
        <ele>286.20001220703</ele>
        <time>2013-04-07T11:21:33.000Z</time>
      </trkpt>
      <trkpt lat="43.98526" lon="5.12409">
        <ele>287.39999389648</ele>
        <time>2013-04-07T11:21:39.000Z</time>
      </trkpt>
      <trkpt lat="43.98532" lon="5.12395">
        <ele>287.60000610352</ele>
        <time>2013-04-07T11:21:44.000Z</time>
      </trkpt>
      <trkpt lat="43.98541" lon="5.12378">
        <ele>287.39999389648</ele>
        <time>2013-04-07T11:21:50.000Z</time>
      </trkpt>
      <trkpt lat="43.98555" lon="5.12353">
        <ele>286.79998779297</ele>
        <time>2013-04-07T11:21:57.000Z</time>
      </trkpt>
      <trkpt lat="43.98569" lon="5.12333">
        <ele>286.39999389648</ele>
        <time>2013-04-07T11:22:03.000Z</time>
      </trkpt>
      <trkpt lat="43.98581" lon="5.12304">
        <ele>286.60000610352</ele>
        <time>2013-04-07T11:22:09.000Z</time>
      </trkpt>
      <trkpt lat="43.98589" lon="5.12262">
        <ele>285.79998779297</ele>
        <time>2013-04-07T11:22:17.000Z</time>
      </trkpt>
      <trkpt lat="43.98597" lon="5.1224">
        <ele>285.39999389648</ele>
        <time>2013-04-07T11:22:22.000Z</time>
      </trkpt>
      <trkpt lat="43.98601" lon="5.12225">
        <ele>285</ele>
        <time>2013-04-07T11:22:25.000Z</time>
      </trkpt>
      <trkpt lat="43.98605" lon="5.12189">
        <ele>284.39999389648</ele>
        <time>2013-04-07T11:22:31.000Z</time>
      </trkpt>
      <trkpt lat="43.98605" lon="5.12184">
        <ele>284.39999389648</ele>
        <time>2013-04-07T11:22:32.000Z</time>
      </trkpt>
      <trkpt lat="43.98613" lon="5.12146">
        <ele>285.39999389648</ele>
        <time>2013-04-07T11:22:39.000Z</time>
      </trkpt>
      <trkpt lat="43.98621" lon="5.12126">
        <ele>285</ele>
        <time>2013-04-07T11:22:43.000Z</time>
      </trkpt>
      <trkpt lat="43.98643" lon="5.12104">
        <ele>283.79998779297</ele>
        <time>2013-04-07T11:22:49.000Z</time>
      </trkpt>
      <trkpt lat="43.98657" lon="5.12101">
        <ele>283.60000610352</ele>
        <time>2013-04-07T11:22:52.000Z</time>
      </trkpt>
      <trkpt lat="43.98683" lon="5.12106">
        <ele>282.79998779297</ele>
        <time>2013-04-07T11:22:57.000Z</time>
      </trkpt>
      <trkpt lat="43.98716" lon="5.12099">
        <ele>281.79998779297</ele>
        <time>2013-04-07T11:23:03.000Z</time>
      </trkpt>
      <trkpt lat="43.9874" lon="5.12091">
        <ele>281.39999389648</ele>
        <time>2013-04-07T11:23:08.000Z</time>
      </trkpt>
      <trkpt lat="43.9874" lon="5.12095">
        <ele>283.39999389648</ele>
        <time>2013-04-07T11:23:13.000Z</time>
      </trkpt>
      <trkpt lat="43.98741" lon="5.12096">
        <ele>283.60000610352</ele>
        <time>2013-04-07T11:23:14.000Z</time>
      </trkpt>
      <trkpt lat="43.98744" lon="5.12109">
        <ele>283.60000610352</ele>
        <time>2013-04-07T11:23:20.000Z</time>
      </trkpt>
      <trkpt lat="43.98751" lon="5.12126">
        <ele>286.60000610352</ele>
        <time>2013-04-07T11:23:30.000Z</time>
      </trkpt>
      <trkpt lat="43.98754" lon="5.12137">
        <ele>288</ele>
        <time>2013-04-07T11:23:37.000Z</time>
      </trkpt>
      <trkpt lat="43.98758" lon="5.1215">
        <ele>289.60000610352</ele>
        <time>2013-04-07T11:23:42.000Z</time>
      </trkpt>
      <trkpt lat="43.98766" lon="5.12173">
        <ele>292.39999389648</ele>
        <time>2013-04-07T11:23:50.000Z</time>
      </trkpt>
      <trkpt lat="43.98769" lon="5.1219">
        <ele>292</ele>
        <time>2013-04-07T11:23:55.000Z</time>
      </trkpt>
      <trkpt lat="43.98775" lon="5.12215">
        <ele>292.79998779297</ele>
        <time>2013-04-07T11:24:01.000Z</time>
      </trkpt>
      <trkpt lat="43.98781" lon="5.12251">
        <ele>291</ele>
        <time>2013-04-07T11:24:08.000Z</time>
      </trkpt>
      <trkpt lat="43.98788" lon="5.12281">
        <ele>292.39999389648</ele>
        <time>2013-04-07T11:24:14.000Z</time>
      </trkpt>
      <trkpt lat="43.98799" lon="5.12316">
        <ele>294.39999389648</ele>
        <time>2013-04-07T11:24:21.000Z</time>
      </trkpt>
      <trkpt lat="43.98805" lon="5.12332">
        <ele>294.79998779297</ele>
        <time>2013-04-07T11:24:24.000Z</time>
      </trkpt>
      <trkpt lat="43.98819" lon="5.12364">
        <ele>295.79998779297</ele>
        <time>2013-04-07T11:24:31.000Z</time>
      </trkpt>
      <trkpt lat="43.98833" lon="5.1239">
        <ele>295.79998779297</ele>
        <time>2013-04-07T11:24:37.000Z</time>
      </trkpt>
      <trkpt lat="43.98862" lon="5.12434">
        <ele>295.60000610352</ele>
        <time>2013-04-07T11:24:47.000Z</time>
      </trkpt>
      <trkpt lat="43.98882" lon="5.12459">
        <ele>295</ele>
        <time>2013-04-07T11:24:53.000Z</time>
      </trkpt>
      <trkpt lat="43.98909" lon="5.12493">
        <ele>294.39999389648</ele>
        <time>2013-04-07T11:25:02.000Z</time>
      </trkpt>
      <trkpt lat="43.98911" lon="5.12508">
        <ele>294</ele>
        <time>2013-04-07T11:25:05.000Z</time>
      </trkpt>
      <trkpt lat="43.98909" lon="5.1255">
        <ele>290</ele>
        <time>2013-04-07T11:25:10.000Z</time>
      </trkpt>
      <trkpt lat="43.98907" lon="5.12589">
        <ele>286</ele>
        <time>2013-04-07T11:25:14.000Z</time>
      </trkpt>
      <trkpt lat="43.98903" lon="5.12623">
        <ele>281.79998779297</ele>
        <time>2013-04-07T11:25:18.000Z</time>
      </trkpt>
      <trkpt lat="43.98888" lon="5.12646">
        <ele>279.20001220703</ele>
        <time>2013-04-07T11:25:22.000Z</time>
      </trkpt>
      <trkpt lat="43.98879" lon="5.12659">
        <ele>277.79998779297</ele>
        <time>2013-04-07T11:25:24.000Z</time>
      </trkpt>
      <trkpt lat="43.98876" lon="5.12683">
        <ele>275.39999389648</ele>
        <time>2013-04-07T11:25:27.000Z</time>
      </trkpt>
      <trkpt lat="43.98878" lon="5.12692">
        <ele>274.60000610352</ele>
        <time>2013-04-07T11:25:28.000Z</time>
      </trkpt>
      <trkpt lat="43.98877" lon="5.1272">
        <ele>273.79998779297</ele>
        <time>2013-04-07T11:25:31.000Z</time>
      </trkpt>
      <trkpt lat="43.98885" lon="5.12759">
        <ele>272.79998779297</ele>
        <time>2013-04-07T11:25:36.000Z</time>
      </trkpt>
      <trkpt lat="43.98887" lon="5.12774">
        <ele>273.60000610352</ele>
        <time>2013-04-07T11:25:39.000Z</time>
      </trkpt>
      <trkpt lat="43.98888" lon="5.12788">
        <ele>274.39999389648</ele>
        <time>2013-04-07T11:25:44.000Z</time>
      </trkpt>
      <trkpt lat="43.9889" lon="5.12794">
        <ele>275</ele>
        <time>2013-04-07T11:25:46.000Z</time>
      </trkpt>
      <trkpt lat="43.98899" lon="5.12814">
        <ele>277</ele>
        <time>2013-04-07T11:25:54.000Z</time>
      </trkpt>
      <trkpt lat="43.98903" lon="5.12817">
        <ele>280.20001220703</ele>
        <time>2013-04-07T11:25:59.000Z</time>
      </trkpt>
      <trkpt lat="43.98908" lon="5.12823">
        <ele>281</ele>
        <time>2013-04-07T11:26:06.000Z</time>
      </trkpt>
      <trkpt lat="43.98914" lon="5.1283">
        <ele>280.39999389648</ele>
        <time>2013-04-07T11:26:15.000Z</time>
      </trkpt>
      <trkpt lat="43.98915" lon="5.12838">
        <ele>281.60000610352</ele>
        <time>2013-04-07T11:26:23.000Z</time>
      </trkpt>
      <trkpt lat="43.98918" lon="5.12847">
        <ele>284</ele>
        <time>2013-04-07T11:26:31.000Z</time>
      </trkpt>
      <trkpt lat="43.98921" lon="5.12858">
        <ele>284.79998779297</ele>
        <time>2013-04-07T11:26:37.000Z</time>
      </trkpt>
      <trkpt lat="43.98925" lon="5.12876">
        <ele>283.79998779297</ele>
        <time>2013-04-07T11:26:43.000Z</time>
      </trkpt>
      <trkpt lat="43.9893" lon="5.12892">
        <ele>283.20001220703</ele>
        <time>2013-04-07T11:26:47.000Z</time>
      </trkpt>
      <trkpt lat="43.9894" lon="5.1291">
        <ele>284.39999389648</ele>
        <time>2013-04-07T11:26:54.000Z</time>
      </trkpt>
      <trkpt lat="43.98948" lon="5.12926">
        <ele>286.20001220703</ele>
        <time>2013-04-07T11:27:00.000Z</time>
      </trkpt>
      <trkpt lat="43.98955" lon="5.12947">
        <ele>287.60000610352</ele>
        <time>2013-04-07T11:27:07.000Z</time>
      </trkpt>
      <trkpt lat="43.98957" lon="5.12963">
        <ele>288.20001220703</ele>
        <time>2013-04-07T11:27:12.000Z</time>
      </trkpt>
      <trkpt lat="43.98963" lon="5.12984">
        <ele>288.39999389648</ele>
        <time>2013-04-07T11:27:18.000Z</time>
      </trkpt>
      <trkpt lat="43.98968" lon="5.13006">
        <ele>287.39999389648</ele>
        <time>2013-04-07T11:27:23.000Z</time>
      </trkpt>
      <trkpt lat="43.98972" lon="5.13023">
        <ele>286.20001220703</ele>
        <time>2013-04-07T11:27:27.000Z</time>
      </trkpt>
      <trkpt lat="43.98968" lon="5.13037">
        <ele>284.60000610352</ele>
        <time>2013-04-07T11:27:31.000Z</time>
      </trkpt>
      <trkpt lat="43.98975" lon="5.13042">
        <ele>283</ele>
        <time>2013-04-07T11:27:34.000Z</time>
      </trkpt>
      <trkpt lat="43.98979" lon="5.13043">
        <ele>282.60000610352</ele>
        <time>2013-04-07T11:27:35.000Z</time>
      </trkpt>
      <trkpt lat="43.98999" lon="5.13045">
        <ele>279</ele>
        <time>2013-04-07T11:27:40.000Z</time>
      </trkpt>
      <trkpt lat="43.99013" lon="5.13057">
        <ele>276.20001220703</ele>
        <time>2013-04-07T11:27:44.000Z</time>
      </trkpt>
      <trkpt lat="43.99026" lon="5.13065">
        <ele>274.60000610352</ele>
        <time>2013-04-07T11:27:47.000Z</time>
      </trkpt>
      <trkpt lat="43.99038" lon="5.13075">
        <ele>272.60000610352</ele>
        <time>2013-04-07T11:27:50.000Z</time>
      </trkpt>
      <trkpt lat="43.99043" lon="5.13077">
        <ele>272.20001220703</ele>
        <time>2013-04-07T11:27:51.000Z</time>
      </trkpt>
      <trkpt lat="43.99059" lon="5.13086">
        <ele>270.39999389648</ele>
        <time>2013-04-07T11:27:54.000Z</time>
      </trkpt>
      <trkpt lat="43.99078" lon="5.13089">
        <ele>268.39999389648</ele>
        <time>2013-04-07T11:27:57.000Z</time>
      </trkpt>
      <trkpt lat="43.9911" lon="5.13096">
        <ele>266.20001220703</ele>
        <time>2013-04-07T11:28:02.000Z</time>
      </trkpt>
      <trkpt lat="43.99123" lon="5.13104">
        <ele>264.79998779297</ele>
        <time>2013-04-07T11:28:05.000Z</time>
      </trkpt>
      <trkpt lat="43.99143" lon="5.13109">
        <ele>262.20001220703</ele>
        <time>2013-04-07T11:28:09.000Z</time>
      </trkpt>
      <trkpt lat="43.99176" lon="5.13117">
        <ele>257.79998779297</ele>
        <time>2013-04-07T11:28:15.000Z</time>
      </trkpt>
      <trkpt lat="43.99182" lon="5.13133">
        <ele>257</ele>
        <time>2013-04-07T11:28:18.000Z</time>
      </trkpt>
      <trkpt lat="43.9919" lon="5.13138">
        <ele>256.79998779297</ele>
        <time>2013-04-07T11:28:20.000Z</time>
      </trkpt>
      <trkpt lat="43.99219" lon="5.13145">
        <ele>257.79998779297</ele>
        <time>2013-04-07T11:28:28.000Z</time>
      </trkpt>
      <trkpt lat="43.99225" lon="5.13148">
        <ele>260</ele>
        <time>2013-04-07T11:28:33.000Z</time>
      </trkpt>
      <trkpt lat="43.99233" lon="5.13154">
        <ele>263.60000610352</ele>
        <time>2013-04-07T11:28:43.000Z</time>
      </trkpt>
      <trkpt lat="43.9924" lon="5.13158">
        <ele>265.20001220703</ele>
        <time>2013-04-07T11:28:50.000Z</time>
      </trkpt>
      <trkpt lat="43.99245" lon="5.13164">
        <ele>266.20001220703</ele>
        <time>2013-04-07T11:28:56.000Z</time>
      </trkpt>
      <trkpt lat="43.99249" lon="5.13173">
        <ele>267.20001220703</ele>
        <time>2013-04-07T11:29:03.000Z</time>
      </trkpt>
      <trkpt lat="43.99256" lon="5.13179">
        <ele>267.20001220703</ele>
        <time>2013-04-07T11:29:10.000Z</time>
      </trkpt>
      <trkpt lat="43.99263" lon="5.13189">
        <ele>267</ele>
        <time>2013-04-07T11:29:20.000Z</time>
      </trkpt>
      <trkpt lat="43.99267" lon="5.13197">
        <ele>266.20001220703</ele>
        <time>2013-04-07T11:29:26.000Z</time>
      </trkpt>
      <trkpt lat="43.99273" lon="5.13211">
        <ele>267.39999389648</ele>
        <time>2013-04-07T11:29:33.000Z</time>
      </trkpt>
      <trkpt lat="43.99281" lon="5.13216">
        <ele>268.79998779297</ele>
        <time>2013-04-07T11:29:38.000Z</time>
      </trkpt>
      <trkpt lat="43.99299" lon="5.13222">
        <ele>271</ele>
        <time>2013-04-07T11:29:46.000Z</time>
      </trkpt>
      <trkpt lat="43.99307" lon="5.13229">
        <ele>272.20001220703</ele>
        <time>2013-04-07T11:29:53.000Z</time>
      </trkpt>
      <trkpt lat="43.99312" lon="5.13231">
        <ele>273.60000610352</ele>
        <time>2013-04-07T11:30:00.000Z</time>
      </trkpt>
      <trkpt lat="43.99321" lon="5.13236">
        <ele>274.39999389648</ele>
        <time>2013-04-07T11:30:10.000Z</time>
      </trkpt>
      <trkpt lat="43.99331" lon="5.13241">
        <ele>276.60000610352</ele>
        <time>2013-04-07T11:30:19.000Z</time>
      </trkpt>
      <trkpt lat="43.9934" lon="5.13247">
        <ele>276.79998779297</ele>
        <time>2013-04-07T11:30:27.000Z</time>
      </trkpt>
      <trkpt lat="43.99348" lon="5.13251">
        <ele>277.60000610352</ele>
        <time>2013-04-07T11:30:35.000Z</time>
      </trkpt>
      <trkpt lat="43.99355" lon="5.13254">
        <ele>278</ele>
        <time>2013-04-07T11:30:41.000Z</time>
      </trkpt>
      <trkpt lat="43.99356" lon="5.13254">
        <ele>278</ele>
        <time>2013-04-07T11:30:42.000Z</time>
      </trkpt>
      <trkpt lat="43.99365" lon="5.13265">
        <ele>278</ele>
        <time>2013-04-07T11:30:49.000Z</time>
      </trkpt>
      <trkpt lat="43.99367" lon="5.13269">
        <ele>278.39999389648</ele>
        <time>2013-04-07T11:30:51.000Z</time>
      </trkpt>
      <trkpt lat="43.99375" lon="5.13288">
        <ele>278</ele>
        <time>2013-04-07T11:30:59.000Z</time>
      </trkpt>
      <trkpt lat="43.99381" lon="5.13305">
        <ele>277.79998779297</ele>
        <time>2013-04-07T11:31:04.000Z</time>
      </trkpt>
      <trkpt lat="43.99382" lon="5.13325">
        <ele>277</ele>
        <time>2013-04-07T11:31:10.000Z</time>
      </trkpt>
      <trkpt lat="43.99388" lon="5.1335">
        <ele>276.20001220703</ele>
        <time>2013-04-07T11:31:17.000Z</time>
      </trkpt>
      <trkpt lat="43.99396" lon="5.13377">
        <ele>275.79998779297</ele>
        <time>2013-04-07T11:31:24.000Z</time>
      </trkpt>
      <trkpt lat="43.99399" lon="5.13393">
        <ele>275.20001220703</ele>
        <time>2013-04-07T11:31:29.000Z</time>
      </trkpt>
      <trkpt lat="43.99411" lon="5.13418">
        <ele>274.60000610352</ele>
        <time>2013-04-07T11:31:35.000Z</time>
      </trkpt>
      <trkpt lat="43.99417" lon="5.1344">
        <ele>274.20001220703</ele>
        <time>2013-04-07T11:31:40.000Z</time>
      </trkpt>
      <trkpt lat="43.99429" lon="5.1348">
        <ele>274</ele>
        <time>2013-04-07T11:31:48.000Z</time>
      </trkpt>
      <trkpt lat="43.99441" lon="5.13509">
        <ele>273.20001220703</ele>
        <time>2013-04-07T11:31:54.000Z</time>
      </trkpt>
      <trkpt lat="43.99457" lon="5.13534">
        <ele>273</ele>
        <time>2013-04-07T11:32:00.000Z</time>
      </trkpt>
      <trkpt lat="43.99469" lon="5.13548">
        <ele>272.20001220703</ele>
        <time>2013-04-07T11:32:03.000Z</time>
      </trkpt>
      <trkpt lat="43.99476" lon="5.13558">
        <ele>272</ele>
        <time>2013-04-07T11:32:05.000Z</time>
      </trkpt>
      <trkpt lat="43.99496" lon="5.13588">
        <ele>271.39999389648</ele>
        <time>2013-04-07T11:32:11.000Z</time>
      </trkpt>
      <trkpt lat="43.99523" lon="5.13627">
        <ele>269.60000610352</ele>
        <time>2013-04-07T11:32:19.000Z</time>
      </trkpt>
      <trkpt lat="43.99553" lon="5.13673">
        <ele>266.39999389648</ele>
        <time>2013-04-07T11:32:28.000Z</time>
      </trkpt>
      <trkpt lat="43.99579" lon="5.13712">
        <ele>265.20001220703</ele>
        <time>2013-04-07T11:32:35.000Z</time>
      </trkpt>
      <trkpt lat="43.99605" lon="5.13747">
        <ele>264.39999389648</ele>
        <time>2013-04-07T11:32:42.000Z</time>
      </trkpt>
      <trkpt lat="43.99617" lon="5.13754">
        <ele>265.60000610352</ele>
        <time>2013-04-07T11:32:46.000Z</time>
      </trkpt>
      <trkpt lat="43.99628" lon="5.13761">
        <ele>265</ele>
        <time>2013-04-07T11:32:50.000Z</time>
      </trkpt>
      <trkpt lat="43.99637" lon="5.13762">
        <ele>265.20001220703</ele>
        <time>2013-04-07T11:32:53.000Z</time>
      </trkpt>
      <trkpt lat="43.99645" lon="5.13766">
        <ele>265.60000610352</ele>
        <time>2013-04-07T11:32:56.000Z</time>
      </trkpt>
      <trkpt lat="43.99655" lon="5.13783">
        <ele>264.60000610352</ele>
        <time>2013-04-07T11:33:00.000Z</time>
      </trkpt>
      <trkpt lat="43.9966" lon="5.13793">
        <ele>264</ele>
        <time>2013-04-07T11:33:02.000Z</time>
      </trkpt>
      <trkpt lat="43.9967" lon="5.13813">
        <ele>263.79998779297</ele>
        <time>2013-04-07T11:33:06.000Z</time>
      </trkpt>
      <trkpt lat="43.99667" lon="5.13828">
        <ele>263.39999389648</ele>
        <time>2013-04-07T11:33:09.000Z</time>
      </trkpt>
      <trkpt lat="43.99671" lon="5.13836">
        <ele>263.39999389648</ele>
        <time>2013-04-07T11:33:12.000Z</time>
      </trkpt>
      <trkpt lat="43.99686" lon="5.13846">
        <ele>263.39999389648</ele>
        <time>2013-04-07T11:33:17.000Z</time>
      </trkpt>
      <trkpt lat="43.99697" lon="5.13855">
        <ele>262.79998779297</ele>
        <time>2013-04-07T11:33:21.000Z</time>
      </trkpt>
      <trkpt lat="43.99702" lon="5.1385">
        <ele>262.79998779297</ele>
        <time>2013-04-07T11:33:23.000Z</time>
      </trkpt>
      <trkpt lat="43.99709" lon="5.1384">
        <ele>262.60000610352</ele>
        <time>2013-04-07T11:33:26.000Z</time>
      </trkpt>
      <trkpt lat="43.99716" lon="5.13818">
        <ele>261.39999389648</ele>
        <time>2013-04-07T11:33:30.000Z</time>
      </trkpt>
      <trkpt lat="43.99719" lon="5.13806">
        <ele>260.60000610352</ele>
        <time>2013-04-07T11:33:32.000Z</time>
      </trkpt>
      <trkpt lat="43.99732" lon="5.13782">
        <ele>259</ele>
        <time>2013-04-07T11:33:37.000Z</time>
      </trkpt>
      <trkpt lat="43.99743" lon="5.13753">
        <ele>257.39999389648</ele>
        <time>2013-04-07T11:33:42.000Z</time>
      </trkpt>
      <trkpt lat="43.99748" lon="5.13734">
        <ele>256.79998779297</ele>
        <time>2013-04-07T11:33:45.000Z</time>
      </trkpt>
      <trkpt lat="43.99758" lon="5.13714">
        <ele>255.80000305176</ele>
        <time>2013-04-07T11:33:49.000Z</time>
      </trkpt>
      <trkpt lat="43.99765" lon="5.13699">
        <ele>255.60000610352</ele>
        <time>2013-04-07T11:33:54.000Z</time>
      </trkpt>
      <trkpt lat="43.99772" lon="5.1369">
        <ele>255.19999694824</ele>
        <time>2013-04-07T11:33:58.000Z</time>
      </trkpt>
      <trkpt lat="43.9978" lon="5.13686">
        <ele>255</ele>
        <time>2013-04-07T11:34:01.000Z</time>
      </trkpt>
      <trkpt lat="43.99789" lon="5.13702">
        <ele>253.60000610352</ele>
        <time>2013-04-07T11:34:05.000Z</time>
      </trkpt>
      <trkpt lat="43.99799" lon="5.13725">
        <ele>252</ele>
        <time>2013-04-07T11:34:09.000Z</time>
      </trkpt>
      <trkpt lat="43.99815" lon="5.13739">
        <ele>250.80000305176</ele>
        <time>2013-04-07T11:34:13.000Z</time>
      </trkpt>
      <trkpt lat="43.99821" lon="5.13738">
        <ele>250.60000610352</ele>
        <time>2013-04-07T11:34:14.000Z</time>
      </trkpt>
      <trkpt lat="43.99851" lon="5.13722">
        <ele>251.39999389648</ele>
        <time>2013-04-07T11:34:20.000Z</time>
      </trkpt>
      <trkpt lat="43.99891" lon="5.13705">
        <ele>251.39999389648</ele>
        <time>2013-04-07T11:34:28.000Z</time>
      </trkpt>
      <trkpt lat="43.99911" lon="5.13693">
        <ele>251.60000610352</ele>
        <time>2013-04-07T11:34:32.000Z</time>
      </trkpt>
      <trkpt lat="43.99936" lon="5.13682">
        <ele>251.80000305176</ele>
        <time>2013-04-07T11:34:37.000Z</time>
      </trkpt>
      <trkpt lat="43.99946" lon="5.13676">
        <ele>251.80000305176</ele>
        <time>2013-04-07T11:34:39.000Z</time>
      </trkpt>
      <trkpt lat="43.99965" lon="5.13677">
        <ele>251.19999694824</ele>
        <time>2013-04-07T11:34:43.000Z</time>
      </trkpt>
      <trkpt lat="43.99989" lon="5.1368">
        <ele>250.80000305176</ele>
        <time>2013-04-07T11:34:48.000Z</time>
      </trkpt>
      <trkpt lat="44.00005" lon="5.13689">
        <ele>250</ele>
        <time>2013-04-07T11:34:52.000Z</time>
      </trkpt>
      <trkpt lat="44.00009" lon="5.13708">
        <ele>248.60000610352</ele>
        <time>2013-04-07T11:34:55.000Z</time>
      </trkpt>
      <trkpt lat="44.00013" lon="5.1372">
        <ele>247.80000305176</ele>
        <time>2013-04-07T11:34:57.000Z</time>
      </trkpt>
      <trkpt lat="44.0002" lon="5.1373">
        <ele>247.19999694824</ele>
        <time>2013-04-07T11:35:00.000Z</time>
      </trkpt>
      <trkpt lat="44.00014" lon="5.13736">
        <ele>247.60000610352</ele>
        <time>2013-04-07T11:35:04.000Z</time>
      </trkpt>
      <trkpt lat="43.99991" lon="5.13766">
        <ele>248</ele>
        <time>2013-04-07T11:35:12.000Z</time>
      </trkpt>
      <trkpt lat="43.99978" lon="5.13783">
        <ele>248</ele>
        <time>2013-04-07T11:35:16.000Z</time>
      </trkpt>
      <trkpt lat="43.99953" lon="5.13823">
        <ele>247.60000610352</ele>
        <time>2013-04-07T11:35:24.000Z</time>
      </trkpt>
      <trkpt lat="43.99942" lon="5.13835">
        <ele>246.60000610352</ele>
        <time>2013-04-07T11:35:28.000Z</time>
      </trkpt>
      <trkpt lat="43.9993" lon="5.13841">
        <ele>245.19999694824</ele>
        <time>2013-04-07T11:35:31.000Z</time>
      </trkpt>
      <trkpt lat="43.99909" lon="5.13853">
        <ele>244</ele>
        <time>2013-04-07T11:35:36.000Z</time>
      </trkpt>
      <trkpt lat="43.99904" lon="5.13861">
        <ele>243.80000305176</ele>
        <time>2013-04-07T11:35:38.000Z</time>
      </trkpt>
      <trkpt lat="43.99891" lon="5.13894">
        <ele>242.60000610352</ele>
        <time>2013-04-07T11:35:45.000Z</time>
      </trkpt>
      <trkpt lat="43.99879" lon="5.13912">
        <ele>240</ele>
        <time>2013-04-07T11:35:50.000Z</time>
      </trkpt>
      <trkpt lat="43.99866" lon="5.13928">
        <ele>237</ele>
        <time>2013-04-07T11:35:56.000Z</time>
      </trkpt>
      <trkpt lat="43.99858" lon="5.1393">
        <ele>235.60000610352</ele>
        <time>2013-04-07T11:35:59.000Z</time>
      </trkpt>
      <trkpt lat="43.99856" lon="5.13935">
        <ele>233.60000610352</ele>
        <time>2013-04-07T11:36:03.000Z</time>
      </trkpt>
      <trkpt lat="43.99866" lon="5.13942">
        <ele>231</ele>
        <time>2013-04-07T11:36:08.000Z</time>
      </trkpt>
      <trkpt lat="43.99879" lon="5.13951">
        <ele>229.39999389648</ele>
        <time>2013-04-07T11:36:12.000Z</time>
      </trkpt>
      <trkpt lat="43.99892" lon="5.13946">
        <ele>227.80000305176</ele>
        <time>2013-04-07T11:36:16.000Z</time>
      </trkpt>
      <trkpt lat="43.99913" lon="5.13916">
        <ele>223.39999389648</ele>
        <time>2013-04-07T11:36:23.000Z</time>
      </trkpt>
      <trkpt lat="43.99918" lon="5.13908">
        <ele>222</ele>
        <time>2013-04-07T11:36:25.000Z</time>
      </trkpt>
      <trkpt lat="43.99925" lon="5.13911">
        <ele>219</ele>
        <time>2013-04-07T11:36:29.000Z</time>
      </trkpt>
      <trkpt lat="43.99926" lon="5.13934">
        <ele>214.80000305176</ele>
        <time>2013-04-07T11:36:34.000Z</time>
      </trkpt>
      <trkpt lat="43.99927" lon="5.1395">
        <ele>212.39999389648</ele>
        <time>2013-04-07T11:36:38.000Z</time>
      </trkpt>
      <trkpt lat="43.99925" lon="5.13965">
        <ele>211.60000610352</ele>
        <time>2013-04-07T11:36:42.000Z</time>
      </trkpt>
      <trkpt lat="43.99928" lon="5.13979">
        <ele>210.19999694824</ele>
        <time>2013-04-07T11:36:45.000Z</time>
      </trkpt>
      <trkpt lat="43.99944" lon="5.13999">
        <ele>208.60000610352</ele>
        <time>2013-04-07T11:36:50.000Z</time>
      </trkpt>
      <trkpt lat="43.9996" lon="5.14009">
        <ele>205.19999694824</ele>
        <time>2013-04-07T11:36:54.000Z</time>
      </trkpt>
      <trkpt lat="43.99973" lon="5.14028">
        <ele>203.80000305176</ele>
        <time>2013-04-07T11:36:58.000Z</time>
      </trkpt>
      <trkpt lat="43.99964" lon="5.14038">
        <ele>204</ele>
        <time>2013-04-07T11:37:02.000Z</time>
      </trkpt>
      <trkpt lat="43.99961" lon="5.14039">
        <ele>203.60000610352</ele>
        <time>2013-04-07T11:37:03.000Z</time>
      </trkpt>
      <trkpt lat="43.99946" lon="5.14033">
        <ele>202.60000610352</ele>
        <time>2013-04-07T11:37:07.000Z</time>
      </trkpt>
      <trkpt lat="43.99933" lon="5.14036">
        <ele>200.80000305176</ele>
        <time>2013-04-07T11:37:11.000Z</time>
      </trkpt>
      <trkpt lat="43.99907" lon="5.14043">
        <ele>197.39999389648</ele>
        <time>2013-04-07T11:37:16.000Z</time>
      </trkpt>
      <trkpt lat="43.9988" lon="5.14055">
        <ele>194</ele>
        <time>2013-04-07T11:37:21.000Z</time>
      </trkpt>
      <trkpt lat="43.9987" lon="5.14065">
        <ele>192.19999694824</ele>
        <time>2013-04-07T11:37:23.000Z</time>
      </trkpt>
      <trkpt lat="43.99858" lon="5.14075">
        <ele>190.19999694824</ele>
        <time>2013-04-07T11:37:25.000Z</time>
      </trkpt>
      <trkpt lat="43.99839" lon="5.14079">
        <ele>188.19999694824</ele>
        <time>2013-04-07T11:37:29.000Z</time>
      </trkpt>
      <trkpt lat="43.99835" lon="5.14077">
        <ele>188.39999389648</ele>
        <time>2013-04-07T11:37:30.000Z</time>
      </trkpt>
      <trkpt lat="43.99804" lon="5.14064">
        <ele>189.19999694824</ele>
        <time>2013-04-07T11:37:37.000Z</time>
      </trkpt>
      <trkpt lat="43.99776" lon="5.14069">
        <ele>189.80000305176</ele>
        <time>2013-04-07T11:37:43.000Z</time>
      </trkpt>
      <trkpt lat="43.99762" lon="5.14085">
        <ele>189.80000305176</ele>
        <time>2013-04-07T11:37:47.000Z</time>
      </trkpt>
      <trkpt lat="43.9976" lon="5.14094">
        <ele>189.80000305176</ele>
        <time>2013-04-07T11:37:49.000Z</time>
      </trkpt>
      <trkpt lat="43.99752" lon="5.1413">
        <ele>192.19999694824</ele>
        <time>2013-04-07T11:37:57.000Z</time>
      </trkpt>
      <trkpt lat="43.99746" lon="5.14156">
        <ele>194</ele>
        <time>2013-04-07T11:38:05.000Z</time>
      </trkpt>
      <trkpt lat="43.99745" lon="5.14158">
        <ele>194.19999694824</ele>
        <time>2013-04-07T11:38:06.000Z</time>
      </trkpt>
      <trkpt lat="43.99752" lon="5.14169">
        <ele>193.80000305176</ele>
        <time>2013-04-07T11:38:12.000Z</time>
      </trkpt>
      <trkpt lat="43.99754" lon="5.1417">
        <ele>193.60000610352</ele>
        <time>2013-04-07T11:38:13.000Z</time>
      </trkpt>
      <trkpt lat="43.99775" lon="5.14182">
        <ele>192.60000610352</ele>
        <time>2013-04-07T11:38:21.000Z</time>
      </trkpt>
      <trkpt lat="43.99786" lon="5.142">
        <ele>192.19999694824</ele>
        <time>2013-04-07T11:38:26.000Z</time>
      </trkpt>
      <trkpt lat="43.99789" lon="5.14215">
        <ele>191.80000305176</ele>
        <time>2013-04-07T11:38:31.000Z</time>
      </trkpt>
      <trkpt lat="43.99796" lon="5.14228">
        <ele>192.80000305176</ele>
        <time>2013-04-07T11:38:38.000Z</time>
      </trkpt>
      <trkpt lat="43.99811" lon="5.14237">
        <ele>193.19999694824</ele>
        <time>2013-04-07T11:38:47.000Z</time>
      </trkpt>
      <trkpt lat="43.99815" lon="5.14239">
        <ele>193</ele>
        <time>2013-04-07T11:38:49.000Z</time>
      </trkpt>
      <trkpt lat="43.99816" lon="5.14245">
        <ele>193.19999694824</ele>
        <time>2013-04-07T11:38:53.000Z</time>
      </trkpt>
      <trkpt lat="43.99815" lon="5.14245">
        <ele>193.60000610352</ele>
        <time>2013-04-07T11:38:54.000Z</time>
      </trkpt>
      <trkpt lat="43.99797" lon="5.14238">
        <ele>197</ele>
        <time>2013-04-07T11:39:05.000Z</time>
      </trkpt>
      <trkpt lat="43.99784" lon="5.14236">
        <ele>199.39999389648</ele>
        <time>2013-04-07T11:39:13.000Z</time>
      </trkpt>
      <trkpt lat="43.99768" lon="5.14242">
        <ele>201</ele>
        <time>2013-04-07T11:39:22.000Z</time>
      </trkpt>
      <trkpt lat="43.99757" lon="5.14251">
        <ele>201.80000305176</ele>
        <time>2013-04-07T11:39:30.000Z</time>
      </trkpt>
      <trkpt lat="43.9974" lon="5.14267">
        <ele>203.19999694824</ele>
        <time>2013-04-07T11:39:42.000Z</time>
      </trkpt>
      <trkpt lat="43.99726" lon="5.14282">
        <ele>205</ele>
        <time>2013-04-07T11:39:52.000Z</time>
      </trkpt>
      <trkpt lat="43.9972" lon="5.14294">
        <ele>205.60000610352</ele>
        <time>2013-04-07T11:39:58.000Z</time>
      </trkpt>
      <trkpt lat="43.99711" lon="5.14309">
        <ele>207.19999694824</ele>
        <time>2013-04-07T11:40:06.000Z</time>
      </trkpt>
      <trkpt lat="43.99703" lon="5.14325">
        <ele>209.39999389648</ele>
        <time>2013-04-07T11:40:14.000Z</time>
      </trkpt>
      <trkpt lat="43.99692" lon="5.14343">
        <ele>211.39999389648</ele>
        <time>2013-04-07T11:40:24.000Z</time>
      </trkpt>
      <trkpt lat="43.99684" lon="5.1436">
        <ele>212</ele>
        <time>2013-04-07T11:40:32.000Z</time>
      </trkpt>
      <trkpt lat="43.99675" lon="5.14379">
        <ele>212.19999694824</ele>
        <time>2013-04-07T11:40:41.000Z</time>
      </trkpt>
      <trkpt lat="43.99666" lon="5.14395">
        <ele>212.39999389648</ele>
        <time>2013-04-07T11:40:49.000Z</time>
      </trkpt>
      <trkpt lat="43.99654" lon="5.1441">
        <ele>213.39999389648</ele>
        <time>2013-04-07T11:40:58.000Z</time>
      </trkpt>
      <trkpt lat="43.99641" lon="5.14423">
        <ele>214</ele>
        <time>2013-04-07T11:41:07.000Z</time>
      </trkpt>
      <trkpt lat="43.99625" lon="5.14432">
        <ele>215.80000305176</ele>
        <time>2013-04-07T11:41:16.000Z</time>
      </trkpt>
      <trkpt lat="43.99619" lon="5.14444">
        <ele>217.39999389648</ele>
        <time>2013-04-07T11:41:22.000Z</time>
      </trkpt>
      <trkpt lat="43.99619" lon="5.14447">
        <ele>217.80000305176</ele>
        <time>2013-04-07T11:41:23.000Z</time>
      </trkpt>
      <trkpt lat="43.99626" lon="5.14453">
        <ele>219</ele>
        <time>2013-04-07T11:41:28.000Z</time>
      </trkpt>
      <trkpt lat="43.99632" lon="5.14451">
        <ele>219.39999389648</ele>
        <time>2013-04-07T11:41:31.000Z</time>
      </trkpt>
      <trkpt lat="43.99652" lon="5.14437">
        <ele>222.39999389648</ele>
        <time>2013-04-07T11:41:42.000Z</time>
      </trkpt>
      <trkpt lat="43.99672" lon="5.14422">
        <ele>224.60000610352</ele>
        <time>2013-04-07T11:41:53.000Z</time>
      </trkpt>
      <trkpt lat="43.99687" lon="5.14412">
        <ele>226.39999389648</ele>
        <time>2013-04-07T11:42:01.000Z</time>
      </trkpt>
      <trkpt lat="43.99707" lon="5.144">
        <ele>227.60000610352</ele>
        <time>2013-04-07T11:42:12.000Z</time>
      </trkpt>
      <trkpt lat="43.99725" lon="5.14388">
        <ele>228.80000305176</ele>
        <time>2013-04-07T11:42:22.000Z</time>
      </trkpt>
      <trkpt lat="43.99741" lon="5.1437">
        <ele>229.60000610352</ele>
        <time>2013-04-07T11:42:32.000Z</time>
      </trkpt>
      <trkpt lat="43.99751" lon="5.1436">
        <ele>229.39999389648</ele>
        <time>2013-04-07T11:42:38.000Z</time>
      </trkpt>
      <trkpt lat="43.99758" lon="5.14365">
        <ele>230.80000305176</ele>
        <time>2013-04-07T11:42:43.000Z</time>
      </trkpt>
      <trkpt lat="43.99753" lon="5.14373">
        <ele>231.19999694824</ele>
        <time>2013-04-07T11:42:47.000Z</time>
      </trkpt>
      <trkpt lat="43.99737" lon="5.14388">
        <ele>231.80000305176</ele>
        <time>2013-04-07T11:42:56.000Z</time>
      </trkpt>
      <trkpt lat="43.99719" lon="5.14409">
        <ele>235</ele>
        <time>2013-04-07T11:43:07.000Z</time>
      </trkpt>
      <trkpt lat="43.99703" lon="5.14426">
        <ele>239.19999694824</ele>
        <time>2013-04-07T11:43:17.000Z</time>
      </trkpt>
      <trkpt lat="43.9969" lon="5.14443">
        <ele>239.39999389648</ele>
        <time>2013-04-07T11:43:25.000Z</time>
      </trkpt>
      <trkpt lat="43.99677" lon="5.14463">
        <ele>240</ele>
        <time>2013-04-07T11:43:35.000Z</time>
      </trkpt>
      <trkpt lat="43.99663" lon="5.14484">
        <ele>241.39999389648</ele>
        <time>2013-04-07T11:43:45.000Z</time>
      </trkpt>
      <trkpt lat="43.99647" lon="5.14502">
        <ele>243.19999694824</ele>
        <time>2013-04-07T11:43:54.000Z</time>
      </trkpt>
      <trkpt lat="43.99628" lon="5.14525">
        <ele>245.39999389648</ele>
        <time>2013-04-07T11:44:04.000Z</time>
      </trkpt>
      <trkpt lat="43.99608" lon="5.14546">
        <ele>246.60000610352</ele>
        <time>2013-04-07T11:44:15.000Z</time>
      </trkpt>
      <trkpt lat="43.9959" lon="5.14565">
        <ele>247.19999694824</ele>
        <time>2013-04-07T11:44:25.000Z</time>
      </trkpt>
      <trkpt lat="43.99572" lon="5.14584">
        <ele>248.80000305176</ele>
        <time>2013-04-07T11:44:36.000Z</time>
      </trkpt>
      <trkpt lat="43.99554" lon="5.14602">
        <ele>250.60000610352</ele>
        <time>2013-04-07T11:44:47.000Z</time>
      </trkpt>
      <trkpt lat="43.99537" lon="5.14616">
        <ele>251.60000610352</ele>
        <time>2013-04-07T11:44:57.000Z</time>
      </trkpt>
      <trkpt lat="43.99519" lon="5.14632">
        <ele>253</ele>
        <time>2013-04-07T11:45:08.000Z</time>
      </trkpt>
      <trkpt lat="43.99503" lon="5.14645">
        <ele>253.80000305176</ele>
        <time>2013-04-07T11:45:17.000Z</time>
      </trkpt>
      <trkpt lat="43.99488" lon="5.14655">
        <ele>255</ele>
        <time>2013-04-07T11:45:25.000Z</time>
      </trkpt>
      <trkpt lat="43.99463" lon="5.14665">
        <ele>257.79998779297</ele>
        <time>2013-04-07T11:45:38.000Z</time>
      </trkpt>
      <trkpt lat="43.99446" lon="5.14671">
        <ele>260.39999389648</ele>
        <time>2013-04-07T11:45:46.000Z</time>
      </trkpt>
      <trkpt lat="43.99429" lon="5.14678">
        <ele>262.39999389648</ele>
        <time>2013-04-07T11:45:55.000Z</time>
      </trkpt>
      <trkpt lat="43.9941" lon="5.14682">
        <ele>264.39999389648</ele>
        <time>2013-04-07T11:46:05.000Z</time>
      </trkpt>
      <trkpt lat="43.99388" lon="5.14686">
        <ele>265.39999389648</ele>
        <time>2013-04-07T11:46:16.000Z</time>
      </trkpt>
      <trkpt lat="43.99366" lon="5.14691">
        <ele>267.20001220703</ele>
        <time>2013-04-07T11:46:26.000Z</time>
      </trkpt>
      <trkpt lat="43.99351" lon="5.147">
        <ele>268</ele>
        <time>2013-04-07T11:46:33.000Z</time>
      </trkpt>
      <trkpt lat="43.99331" lon="5.14708">
        <ele>270.20001220703</ele>
        <time>2013-04-07T11:46:42.000Z</time>
      </trkpt>
      <trkpt lat="43.99311" lon="5.14711">
        <ele>272</ele>
        <time>2013-04-07T11:46:51.000Z</time>
      </trkpt>
      <trkpt lat="43.99299" lon="5.14719">
        <ele>272.39999389648</ele>
        <time>2013-04-07T11:46:57.000Z</time>
      </trkpt>
      <trkpt lat="43.99297" lon="5.14732">
        <ele>272.60000610352</ele>
        <time>2013-04-07T11:47:02.000Z</time>
      </trkpt>
      <trkpt lat="43.99297" lon="5.14748">
        <ele>273</ele>
        <time>2013-04-07T11:47:09.000Z</time>
      </trkpt>
      <trkpt lat="43.9929" lon="5.14756">
        <ele>275</ele>
        <time>2013-04-07T11:47:15.000Z</time>
      </trkpt>
      <trkpt lat="43.99278" lon="5.14762">
        <ele>276.79998779297</ele>
        <time>2013-04-07T11:47:24.000Z</time>
      </trkpt>
      <trkpt lat="43.99263" lon="5.14771">
        <ele>278.39999389648</ele>
        <time>2013-04-07T11:47:35.000Z</time>
      </trkpt>
      <trkpt lat="43.99251" lon="5.14778">
        <ele>280</ele>
        <time>2013-04-07T11:47:44.000Z</time>
      </trkpt>
      <trkpt lat="43.99237" lon="5.14788">
        <ele>281.39999389648</ele>
        <time>2013-04-07T11:47:53.000Z</time>
      </trkpt>
      <trkpt lat="43.9922" lon="5.148">
        <ele>283.20001220703</ele>
        <time>2013-04-07T11:48:04.000Z</time>
      </trkpt>
      <trkpt lat="43.99207" lon="5.14813">
        <ele>284.79998779297</ele>
        <time>2013-04-07T11:48:13.000Z</time>
      </trkpt>
      <trkpt lat="43.99196" lon="5.14827">
        <ele>285.39999389648</ele>
        <time>2013-04-07T11:48:22.000Z</time>
      </trkpt>
      <trkpt lat="43.99186" lon="5.1484">
        <ele>287</ele>
        <time>2013-04-07T11:48:31.000Z</time>
      </trkpt>
      <trkpt lat="43.99179" lon="5.14852">
        <ele>288.79998779297</ele>
        <time>2013-04-07T11:48:39.000Z</time>
      </trkpt>
      <trkpt lat="43.99179" lon="5.14853">
        <ele>288.79998779297</ele>
        <time>2013-04-07T11:48:40.000Z</time>
      </trkpt>
      <trkpt lat="43.99181" lon="5.14856">
        <ele>289.20001220703</ele>
        <time>2013-04-07T11:48:45.000Z</time>
      </trkpt>
      <trkpt lat="43.99192" lon="5.14851">
        <ele>288.79998779297</ele>
        <time>2013-04-07T11:48:58.000Z</time>
      </trkpt>
      <trkpt lat="43.99206" lon="5.14842">
        <ele>288.60000610352</ele>
        <time>2013-04-07T11:49:04.000Z</time>
      </trkpt>
      <trkpt lat="43.9923" lon="5.14834">
        <ele>289.60000610352</ele>
        <time>2013-04-07T11:49:12.000Z</time>
      </trkpt>
      <trkpt lat="43.99252" lon="5.14828">
        <ele>290</ele>
        <time>2013-04-07T11:49:19.000Z</time>
      </trkpt>
      <trkpt lat="43.99276" lon="5.14817">
        <ele>290.60000610352</ele>
        <time>2013-04-07T11:49:26.000Z</time>
      </trkpt>
      <trkpt lat="43.99313" lon="5.14802">
        <ele>290.20001220703</ele>
        <time>2013-04-07T11:49:34.000Z</time>
      </trkpt>
      <trkpt lat="43.99351" lon="5.14787">
        <ele>290.79998779297</ele>
        <time>2013-04-07T11:49:42.000Z</time>
      </trkpt>
      <trkpt lat="43.99375" lon="5.14775">
        <ele>291.39999389648</ele>
        <time>2013-04-07T11:49:49.000Z</time>
      </trkpt>
      <trkpt lat="43.99396" lon="5.14771">
        <ele>291.79998779297</ele>
        <time>2013-04-07T11:49:54.000Z</time>
      </trkpt>
      <trkpt lat="43.99426" lon="5.14777">
        <ele>292</ele>
        <time>2013-04-07T11:50:01.000Z</time>
      </trkpt>
      <trkpt lat="43.99445" lon="5.14778">
        <ele>292.39999389648</ele>
        <time>2013-04-07T11:50:06.000Z</time>
      </trkpt>
      <trkpt lat="43.99458" lon="5.14787">
        <ele>293</ele>
        <time>2013-04-07T11:50:11.000Z</time>
      </trkpt>
      <trkpt lat="43.99471" lon="5.14798">
        <ele>293.79998779297</ele>
        <time>2013-04-07T11:50:17.000Z</time>
      </trkpt>
      <trkpt lat="43.99476" lon="5.14806">
        <ele>295.20001220703</ele>
        <time>2013-04-07T11:50:21.000Z</time>
      </trkpt>
      <trkpt lat="43.99478" lon="5.14808">
        <ele>295.60000610352</ele>
        <time>2013-04-07T11:50:24.000Z</time>
      </trkpt>
    </trkseg>
  </trk>
</gpx>